<?xml version="1.0" encoding="UTF-8" standalone="no" ?>
<gpx xmlns="http://www.topografix.com/GPX/1/1" xmlns:xsi="http://www.w3.org/2001/XMLSchema-instance" xsi:schemaLocation="http://www.topografix.com/GPX/1/1 http://www.topografix.com/GPX/1/1/gpx.xsd" version="1.1" creator="VisuGPX - https://www.visugpx.com">
  <metadata>
    <name>SteLyon 2010 tiers final Beaunant &amp; retour bron par rhone.gpx</name>
    <desc><![CDATA[SteLyon 2010 tiers final Beaunant & retour bron par rhone (travaux feysin ! ! )]]></desc>
  </metadata>
  <trk>
    <name><![CDATA[CC ST LYON]]></name>
    <trkseg>
      <trkpt lat="45.72599" lon="4.77936">
        <ele>178</ele>
        <time>2010-11-04T12:24:19Z</time>
      </trkpt>
      <trkpt lat="45.72599" lon="4.77936">
        <ele>178</ele>
        <time>2010-11-04T12:24:20Z</time>
      </trkpt>
      <trkpt lat="45.72616" lon="4.77932">
        <ele>177</ele>
        <time>2010-11-04T12:24:53Z</time>
      </trkpt>
      <trkpt lat="45.72618" lon="4.77933">
        <ele>177</ele>
        <time>2010-11-04T12:24:54Z</time>
      </trkpt>
      <trkpt lat="45.7262" lon="4.77933">
        <ele>177</ele>
        <time>2010-11-04T12:24:55Z</time>
      </trkpt>
      <trkpt lat="45.72623" lon="4.7793">
        <ele>177</ele>
        <time>2010-11-04T12:25:08Z</time>
      </trkpt>
      <trkpt lat="45.72624" lon="4.77931">
        <ele>177</ele>
        <time>2010-11-04T12:25:53Z</time>
      </trkpt>
      <trkpt lat="45.72629" lon="4.77938">
        <ele>177</ele>
        <time>2010-11-04T12:26:39Z</time>
      </trkpt>
      <trkpt lat="45.72633" lon="4.77945">
        <ele>177</ele>
        <time>2010-11-04T12:26:45Z</time>
      </trkpt>
      <trkpt lat="45.72637" lon="4.77947">
        <ele>177</ele>
        <time>2010-11-04T12:26:49Z</time>
      </trkpt>
      <trkpt lat="45.72636" lon="4.77949">
        <ele>177</ele>
        <time>2010-11-04T12:26:50Z</time>
      </trkpt>
      <trkpt lat="45.72636" lon="4.7795">
        <ele>177</ele>
        <time>2010-11-04T12:26:51Z</time>
      </trkpt>
      <trkpt lat="45.72636" lon="4.77952">
        <ele>177</ele>
        <time>2010-11-04T12:26:52Z</time>
      </trkpt>
      <trkpt lat="45.72636" lon="4.77954">
        <ele>177</ele>
        <time>2010-11-04T12:26:53Z</time>
      </trkpt>
      <trkpt lat="45.72635" lon="4.7796">
        <ele>177</ele>
        <time>2010-11-04T12:26:55Z</time>
      </trkpt>
      <trkpt lat="45.72635" lon="4.77963">
        <ele>177</ele>
        <time>2010-11-04T12:26:56Z</time>
      </trkpt>
      <trkpt lat="45.72635" lon="4.77965">
        <ele>177</ele>
        <time>2010-11-04T12:26:57Z</time>
      </trkpt>
      <trkpt lat="45.72636" lon="4.77973">
        <ele>177</ele>
        <time>2010-11-04T12:27:00Z</time>
      </trkpt>
      <trkpt lat="45.72637" lon="4.77976">
        <ele>177</ele>
        <time>2010-11-04T12:27:01Z</time>
      </trkpt>
      <trkpt lat="45.72638" lon="4.77979">
        <ele>177</ele>
        <time>2010-11-04T12:27:02Z</time>
      </trkpt>
      <trkpt lat="45.72638" lon="4.77982">
        <ele>177</ele>
        <time>2010-11-04T12:27:03Z</time>
      </trkpt>
      <trkpt lat="45.72639" lon="4.77986">
        <ele>177</ele>
        <time>2010-11-04T12:27:05Z</time>
      </trkpt>
      <trkpt lat="45.72639" lon="4.77989">
        <ele>177</ele>
        <time>2010-11-04T12:27:06Z</time>
      </trkpt>
      <trkpt lat="45.7264" lon="4.77992">
        <ele>177</ele>
        <time>2010-11-04T12:27:07Z</time>
      </trkpt>
      <trkpt lat="45.72641" lon="4.77994">
        <ele>177</ele>
        <time>2010-11-04T12:27:08Z</time>
      </trkpt>
      <trkpt lat="45.72642" lon="4.77996">
        <ele>177</ele>
        <time>2010-11-04T12:27:09Z</time>
      </trkpt>
      <trkpt lat="45.72642" lon="4.77999">
        <ele>177</ele>
        <time>2010-11-04T12:27:10Z</time>
      </trkpt>
      <trkpt lat="45.72643" lon="4.78001">
        <ele>179</ele>
        <time>2010-11-04T12:27:11Z</time>
      </trkpt>
      <trkpt lat="45.72644" lon="4.78003">
        <ele>179</ele>
        <time>2010-11-04T12:27:12Z</time>
      </trkpt>
      <trkpt lat="45.72644" lon="4.78006">
        <ele>179</ele>
        <time>2010-11-04T12:27:13Z</time>
      </trkpt>
      <trkpt lat="45.72645" lon="4.7801">
        <ele>179</ele>
        <time>2010-11-04T12:27:14Z</time>
      </trkpt>
      <trkpt lat="45.72646" lon="4.78014">
        <ele>179</ele>
        <time>2010-11-04T12:27:15Z</time>
      </trkpt>
      <trkpt lat="45.72647" lon="4.78018">
        <ele>180</ele>
        <time>2010-11-04T12:27:16Z</time>
      </trkpt>
      <trkpt lat="45.72648" lon="4.78022">
        <ele>180</ele>
        <time>2010-11-04T12:27:17Z</time>
      </trkpt>
      <trkpt lat="45.72649" lon="4.78026">
        <ele>180</ele>
        <time>2010-11-04T12:27:18Z</time>
      </trkpt>
      <trkpt lat="45.72649" lon="4.7803">
        <ele>180</ele>
        <time>2010-11-04T12:27:19Z</time>
      </trkpt>
      <trkpt lat="45.72648" lon="4.78033">
        <ele>181</ele>
        <time>2010-11-04T12:27:20Z</time>
      </trkpt>
      <trkpt lat="45.72648" lon="4.78037">
        <ele>181</ele>
        <time>2010-11-04T12:27:21Z</time>
      </trkpt>
      <trkpt lat="45.72649" lon="4.7804">
        <ele>181</ele>
        <time>2010-11-04T12:27:22Z</time>
      </trkpt>
      <trkpt lat="45.7265" lon="4.78044">
        <ele>182</ele>
        <time>2010-11-04T12:27:23Z</time>
      </trkpt>
      <trkpt lat="45.7265" lon="4.78047">
        <ele>182</ele>
        <time>2010-11-04T12:27:24Z</time>
      </trkpt>
      <trkpt lat="45.72651" lon="4.7805">
        <ele>182</ele>
        <time>2010-11-04T12:27:25Z</time>
      </trkpt>
      <trkpt lat="45.72651" lon="4.78053">
        <ele>182</ele>
        <time>2010-11-04T12:27:26Z</time>
      </trkpt>
      <trkpt lat="45.72652" lon="4.78056">
        <ele>183</ele>
        <time>2010-11-04T12:27:27Z</time>
      </trkpt>
      <trkpt lat="45.72652" lon="4.78059">
        <ele>183</ele>
        <time>2010-11-04T12:27:28Z</time>
      </trkpt>
      <trkpt lat="45.72652" lon="4.78062">
        <ele>183</ele>
        <time>2010-11-04T12:27:29Z</time>
      </trkpt>
      <trkpt lat="45.72653" lon="4.78064">
        <ele>184</ele>
        <time>2010-11-04T12:27:30Z</time>
      </trkpt>
      <trkpt lat="45.72654" lon="4.78071">
        <ele>185</ele>
        <time>2010-11-04T12:27:33Z</time>
      </trkpt>
      <trkpt lat="45.72654" lon="4.78073">
        <ele>185</ele>
        <time>2010-11-04T12:27:34Z</time>
      </trkpt>
      <trkpt lat="45.72655" lon="4.78076">
        <ele>185</ele>
        <time>2010-11-04T12:27:35Z</time>
      </trkpt>
      <trkpt lat="45.72655" lon="4.78078">
        <ele>186</ele>
        <time>2010-11-04T12:27:36Z</time>
      </trkpt>
      <trkpt lat="45.72655" lon="4.78079">
        <ele>186</ele>
        <time>2010-11-04T12:27:37Z</time>
      </trkpt>
      <trkpt lat="45.72654" lon="4.78081">
        <ele>186</ele>
        <time>2010-11-04T12:27:38Z</time>
      </trkpt>
      <trkpt lat="45.72654" lon="4.78083">
        <ele>186</ele>
        <time>2010-11-04T12:27:39Z</time>
      </trkpt>
      <trkpt lat="45.72654" lon="4.78086">
        <ele>189</ele>
        <time>2010-11-04T12:27:40Z</time>
      </trkpt>
      <trkpt lat="45.72656" lon="4.78089">
        <ele>189</ele>
        <time>2010-11-04T12:27:41Z</time>
      </trkpt>
      <trkpt lat="45.72657" lon="4.78091">
        <ele>189</ele>
        <time>2010-11-04T12:27:42Z</time>
      </trkpt>
      <trkpt lat="45.72658" lon="4.78093">
        <ele>189</ele>
        <time>2010-11-04T12:27:43Z</time>
      </trkpt>
      <trkpt lat="45.72658" lon="4.78094">
        <ele>190</ele>
        <time>2010-11-04T12:27:44Z</time>
      </trkpt>
      <trkpt lat="45.72662" lon="4.7812">
        <ele>191</ele>
        <time>2010-11-04T12:27:56Z</time>
      </trkpt>
      <trkpt lat="45.72662" lon="4.78142">
        <ele>194</ele>
        <time>2010-11-04T12:28:06Z</time>
      </trkpt>
      <trkpt lat="45.72658" lon="4.78143">
        <ele>194</ele>
        <time>2010-11-04T12:28:09Z</time>
      </trkpt>
      <trkpt lat="45.72656" lon="4.78143">
        <ele>194</ele>
        <time>2010-11-04T12:28:10Z</time>
      </trkpt>
      <trkpt lat="45.72647" lon="4.78146">
        <ele>193</ele>
        <time>2010-11-04T12:28:15Z</time>
      </trkpt>
      <trkpt lat="45.72645" lon="4.78147">
        <ele>193</ele>
        <time>2010-11-04T12:28:16Z</time>
      </trkpt>
      <trkpt lat="45.72644" lon="4.78148">
        <ele>193</ele>
        <time>2010-11-04T12:28:17Z</time>
      </trkpt>
      <trkpt lat="45.72643" lon="4.78149">
        <ele>193</ele>
        <time>2010-11-04T12:28:18Z</time>
      </trkpt>
      <trkpt lat="45.72642" lon="4.78151">
        <ele>193</ele>
        <time>2010-11-04T12:28:19Z</time>
      </trkpt>
      <trkpt lat="45.72636" lon="4.78164">
        <ele>193</ele>
        <time>2010-11-04T12:28:27Z</time>
      </trkpt>
      <trkpt lat="45.72635" lon="4.78165">
        <ele>193</ele>
        <time>2010-11-04T12:28:28Z</time>
      </trkpt>
      <trkpt lat="45.72633" lon="4.78174">
        <ele>201</ele>
        <time>2010-11-04T12:28:36Z</time>
      </trkpt>
      <trkpt lat="45.72631" lon="4.78188">
        <ele>202</ele>
        <time>2010-11-04T12:28:44Z</time>
      </trkpt>
      <trkpt lat="45.72631" lon="4.78215">
        <ele>204</ele>
        <time>2010-11-04T12:28:56Z</time>
      </trkpt>
      <trkpt lat="45.72629" lon="4.78222">
        <ele>205</ele>
        <time>2010-11-04T12:29:01Z</time>
      </trkpt>
      <trkpt lat="45.72633" lon="4.78245">
        <ele>207</ele>
        <time>2010-11-04T12:29:13Z</time>
      </trkpt>
      <trkpt lat="45.72637" lon="4.78253">
        <ele>216</ele>
        <time>2010-11-04T12:29:20Z</time>
      </trkpt>
      <trkpt lat="45.72638" lon="4.78257">
        <ele>216</ele>
        <time>2010-11-04T12:29:22Z</time>
      </trkpt>
      <trkpt lat="45.72645" lon="4.78272">
        <ele>217</ele>
        <time>2010-11-04T12:29:33Z</time>
      </trkpt>
      <trkpt lat="45.72645" lon="4.78277">
        <ele>217</ele>
        <time>2010-11-04T12:29:36Z</time>
      </trkpt>
      <trkpt lat="45.72651" lon="4.78304">
        <ele>219</ele>
        <time>2010-11-04T12:29:47Z</time>
      </trkpt>
      <trkpt lat="45.72658" lon="4.78318">
        <ele>221</ele>
        <time>2010-11-04T12:29:55Z</time>
      </trkpt>
      <trkpt lat="45.72666" lon="4.78331">
        <ele>224</ele>
        <time>2010-11-04T12:30:04Z</time>
      </trkpt>
      <trkpt lat="45.72664" lon="4.78343">
        <ele>226</ele>
        <time>2010-11-04T12:30:13Z</time>
      </trkpt>
      <trkpt lat="45.72672" lon="4.78365">
        <ele>231</ele>
        <time>2010-11-04T12:30:22Z</time>
      </trkpt>
      <trkpt lat="45.72678" lon="4.78379">
        <ele>232</ele>
        <time>2010-11-04T12:30:31Z</time>
      </trkpt>
      <trkpt lat="45.72678" lon="4.78386">
        <ele>232</ele>
        <time>2010-11-04T12:30:36Z</time>
      </trkpt>
      <trkpt lat="45.72677" lon="4.7839">
        <ele>232</ele>
        <time>2010-11-04T12:30:38Z</time>
      </trkpt>
      <trkpt lat="45.72679" lon="4.78408">
        <ele>232</ele>
        <time>2010-11-04T12:30:44Z</time>
      </trkpt>
      <trkpt lat="45.72682" lon="4.7842">
        <ele>235</ele>
        <time>2010-11-04T12:30:50Z</time>
      </trkpt>
      <trkpt lat="45.72685" lon="4.78436">
        <ele>237</ele>
        <time>2010-11-04T12:31:01Z</time>
      </trkpt>
      <trkpt lat="45.72686" lon="4.78455">
        <ele>238</ele>
        <time>2010-11-04T12:31:10Z</time>
      </trkpt>
      <trkpt lat="45.72687" lon="4.78463">
        <ele>239</ele>
        <time>2010-11-04T12:31:14Z</time>
      </trkpt>
      <trkpt lat="45.72688" lon="4.78468">
        <ele>239</ele>
        <time>2010-11-04T12:31:18Z</time>
      </trkpt>
      <trkpt lat="45.72691" lon="4.78481">
        <ele>239</ele>
        <time>2010-11-04T12:31:25Z</time>
      </trkpt>
      <trkpt lat="45.72694" lon="4.78504">
        <ele>243</ele>
        <time>2010-11-04T12:31:34Z</time>
      </trkpt>
      <trkpt lat="45.72695" lon="4.78505">
        <ele>243</ele>
        <time>2010-11-04T12:31:35Z</time>
      </trkpt>
      <trkpt lat="45.72696" lon="4.78514">
        <ele>244</ele>
        <time>2010-11-04T12:31:40Z</time>
      </trkpt>
      <trkpt lat="45.72698" lon="4.78531">
        <ele>244</ele>
        <time>2010-11-04T12:31:48Z</time>
      </trkpt>
      <trkpt lat="45.72699" lon="4.78544">
        <ele>245</ele>
        <time>2010-11-04T12:31:52Z</time>
      </trkpt>
      <trkpt lat="45.72699" lon="4.78556">
        <ele>245</ele>
        <time>2010-11-04T12:32:00Z</time>
      </trkpt>
      <trkpt lat="45.72699" lon="4.78559">
        <ele>245</ele>
        <time>2010-11-04T12:32:02Z</time>
      </trkpt>
      <trkpt lat="45.72703" lon="4.78588">
        <ele>250</ele>
        <time>2010-11-04T12:32:14Z</time>
      </trkpt>
      <trkpt lat="45.72707" lon="4.78607">
        <ele>251</ele>
        <time>2010-11-04T12:32:26Z</time>
      </trkpt>
      <trkpt lat="45.7271" lon="4.7863">
        <ele>251</ele>
        <time>2010-11-04T12:32:35Z</time>
      </trkpt>
      <trkpt lat="45.72712" lon="4.78656">
        <ele>252</ele>
        <time>2010-11-04T12:32:48Z</time>
      </trkpt>
      <trkpt lat="45.72716" lon="4.78675">
        <ele>258</ele>
        <time>2010-11-04T12:32:59Z</time>
      </trkpt>
      <trkpt lat="45.72728" lon="4.78695">
        <ele>259</ele>
        <time>2010-11-04T12:33:10Z</time>
      </trkpt>
      <trkpt lat="45.72735" lon="4.78713">
        <ele>261</ele>
        <time>2010-11-04T12:33:22Z</time>
      </trkpt>
      <trkpt lat="45.72746" lon="4.78733">
        <ele>264</ele>
        <time>2010-11-04T12:33:33Z</time>
      </trkpt>
      <trkpt lat="45.72755" lon="4.78745">
        <ele>266</ele>
        <time>2010-11-04T12:33:42Z</time>
      </trkpt>
      <trkpt lat="45.72763" lon="4.78759">
        <ele>269</ele>
        <time>2010-11-04T12:33:54Z</time>
      </trkpt>
      <trkpt lat="45.72774" lon="4.78772">
        <ele>270</ele>
        <time>2010-11-04T12:34:05Z</time>
      </trkpt>
      <trkpt lat="45.72793" lon="4.78791">
        <ele>271</ele>
        <time>2010-11-04T12:34:16Z</time>
      </trkpt>
      <trkpt lat="45.72801" lon="4.78804">
        <ele>272</ele>
        <time>2010-11-04T12:34:25Z</time>
      </trkpt>
      <trkpt lat="45.72809" lon="4.78818">
        <ele>273</ele>
        <time>2010-11-04T12:34:33Z</time>
      </trkpt>
      <trkpt lat="45.7282" lon="4.78835">
        <ele>276</ele>
        <time>2010-11-04T12:34:42Z</time>
      </trkpt>
      <trkpt lat="45.7283" lon="4.78853">
        <ele>277</ele>
        <time>2010-11-04T12:34:52Z</time>
      </trkpt>
      <trkpt lat="45.7284" lon="4.7887">
        <ele>278</ele>
        <time>2010-11-04T12:35:01Z</time>
      </trkpt>
      <trkpt lat="45.72842" lon="4.78874">
        <ele>278</ele>
        <time>2010-11-04T12:35:04Z</time>
      </trkpt>
      <trkpt lat="45.72842" lon="4.78877">
        <ele>278</ele>
        <time>2010-11-04T12:35:06Z</time>
      </trkpt>
      <trkpt lat="45.72848" lon="4.78892">
        <ele>279</ele>
        <time>2010-11-04T12:35:14Z</time>
      </trkpt>
      <trkpt lat="45.72852" lon="4.78903">
        <ele>279</ele>
        <time>2010-11-04T12:35:19Z</time>
      </trkpt>
      <trkpt lat="45.7286" lon="4.78922">
        <ele>282</ele>
        <time>2010-11-04T12:35:30Z</time>
      </trkpt>
      <trkpt lat="45.72864" lon="4.78935">
        <ele>282</ele>
        <time>2010-11-04T12:35:36Z</time>
      </trkpt>
      <trkpt lat="45.72865" lon="4.78939">
        <ele>282</ele>
        <time>2010-11-04T12:35:39Z</time>
      </trkpt>
      <trkpt lat="45.72874" lon="4.7896">
        <ele>282</ele>
        <time>2010-11-04T12:35:50Z</time>
      </trkpt>
      <trkpt lat="45.72883" lon="4.7898">
        <ele>283</ele>
        <time>2010-11-04T12:36:01Z</time>
      </trkpt>
      <trkpt lat="45.72893" lon="4.79001">
        <ele>284</ele>
        <time>2010-11-04T12:36:12Z</time>
      </trkpt>
      <trkpt lat="45.72901" lon="4.79015">
        <ele>284</ele>
        <time>2010-11-04T12:36:19Z</time>
      </trkpt>
      <trkpt lat="45.72903" lon="4.79024">
        <ele>284</ele>
        <time>2010-11-04T12:36:24Z</time>
      </trkpt>
      <trkpt lat="45.72909" lon="4.79038">
        <ele>284</ele>
        <time>2010-11-04T12:36:32Z</time>
      </trkpt>
      <trkpt lat="45.72923" lon="4.79056">
        <ele>285</ele>
        <time>2010-11-04T12:36:41Z</time>
      </trkpt>
      <trkpt lat="45.72937" lon="4.79065">
        <ele>285</ele>
        <time>2010-11-04T12:36:48Z</time>
      </trkpt>
      <trkpt lat="45.72941" lon="4.79068">
        <ele>285</ele>
        <time>2010-11-04T12:36:50Z</time>
      </trkpt>
      <trkpt lat="45.72946" lon="4.79075">
        <ele>285</ele>
        <time>2010-11-04T12:36:52Z</time>
      </trkpt>
      <trkpt lat="45.72971" lon="4.791">
        <ele>287</ele>
        <time>2010-11-04T12:37:03Z</time>
      </trkpt>
      <trkpt lat="45.72974" lon="4.79103">
        <ele>287</ele>
        <time>2010-11-04T12:37:04Z</time>
      </trkpt>
      <trkpt lat="45.72977" lon="4.79106">
        <ele>287</ele>
        <time>2010-11-04T12:37:05Z</time>
      </trkpt>
      <trkpt lat="45.7298" lon="4.79109">
        <ele>287</ele>
        <time>2010-11-04T12:37:06Z</time>
      </trkpt>
      <trkpt lat="45.72984" lon="4.79113">
        <ele>287</ele>
        <time>2010-11-04T12:37:07Z</time>
      </trkpt>
      <trkpt lat="45.72986" lon="4.79115">
        <ele>287</ele>
        <time>2010-11-04T12:37:08Z</time>
      </trkpt>
      <trkpt lat="45.7299" lon="4.79118">
        <ele>287</ele>
        <time>2010-11-04T12:37:09Z</time>
      </trkpt>
      <trkpt lat="45.72992" lon="4.79121">
        <ele>288</ele>
        <time>2010-11-04T12:37:10Z</time>
      </trkpt>
      <trkpt lat="45.73004" lon="4.79138">
        <ele>287</ele>
        <time>2010-11-04T12:37:18Z</time>
      </trkpt>
      <trkpt lat="45.73015" lon="4.79148">
        <ele>287</ele>
        <time>2010-11-04T12:37:23Z</time>
      </trkpt>
      <trkpt lat="45.73018" lon="4.79151">
        <ele>287</ele>
        <time>2010-11-04T12:37:24Z</time>
      </trkpt>
      <trkpt lat="45.7302" lon="4.79155">
        <ele>287</ele>
        <time>2010-11-04T12:37:25Z</time>
      </trkpt>
      <trkpt lat="45.73022" lon="4.79159">
        <ele>287</ele>
        <time>2010-11-04T12:37:26Z</time>
      </trkpt>
      <trkpt lat="45.73024" lon="4.79163">
        <ele>287</ele>
        <time>2010-11-04T12:37:27Z</time>
      </trkpt>
      <trkpt lat="45.73026" lon="4.79167">
        <ele>289</ele>
        <time>2010-11-04T12:37:28Z</time>
      </trkpt>
      <trkpt lat="45.73027" lon="4.7917">
        <ele>289</ele>
        <time>2010-11-04T12:37:29Z</time>
      </trkpt>
      <trkpt lat="45.73028" lon="4.79172">
        <ele>289</ele>
        <time>2010-11-04T12:37:30Z</time>
      </trkpt>
      <trkpt lat="45.73029" lon="4.79175">
        <ele>289</ele>
        <time>2010-11-04T12:37:31Z</time>
      </trkpt>
      <trkpt lat="45.73031" lon="4.79178">
        <ele>289</ele>
        <time>2010-11-04T12:37:32Z</time>
      </trkpt>
      <trkpt lat="45.73032" lon="4.79181">
        <ele>289</ele>
        <time>2010-11-04T12:37:33Z</time>
      </trkpt>
      <trkpt lat="45.73033" lon="4.79183">
        <ele>289</ele>
        <time>2010-11-04T12:37:34Z</time>
      </trkpt>
      <trkpt lat="45.73034" lon="4.79186">
        <ele>289</ele>
        <time>2010-11-04T12:37:35Z</time>
      </trkpt>
      <trkpt lat="45.73035" lon="4.79188">
        <ele>289</ele>
        <time>2010-11-04T12:37:36Z</time>
      </trkpt>
      <trkpt lat="45.7305" lon="4.79218">
        <ele>289</ele>
        <time>2010-11-04T12:37:45Z</time>
      </trkpt>
      <trkpt lat="45.7307" lon="4.79249">
        <ele>289</ele>
        <time>2010-11-04T12:37:54Z</time>
      </trkpt>
      <trkpt lat="45.73073" lon="4.79256">
        <ele>289</ele>
        <time>2010-11-04T12:37:56Z</time>
      </trkpt>
      <trkpt lat="45.73073" lon="4.7926">
        <ele>290</ele>
        <time>2010-11-04T12:37:57Z</time>
      </trkpt>
      <trkpt lat="45.73073" lon="4.79265">
        <ele>290</ele>
        <time>2010-11-04T12:37:58Z</time>
      </trkpt>
      <trkpt lat="45.73074" lon="4.79268">
        <ele>290</ele>
        <time>2010-11-04T12:37:59Z</time>
      </trkpt>
      <trkpt lat="45.73075" lon="4.79272">
        <ele>290</ele>
        <time>2010-11-04T12:38:00Z</time>
      </trkpt>
      <trkpt lat="45.73076" lon="4.79275">
        <ele>290</ele>
        <time>2010-11-04T12:38:01Z</time>
      </trkpt>
      <trkpt lat="45.73078" lon="4.79279">
        <ele>290</ele>
        <time>2010-11-04T12:38:02Z</time>
      </trkpt>
      <trkpt lat="45.7308" lon="4.79284">
        <ele>290</ele>
        <time>2010-11-04T12:38:03Z</time>
      </trkpt>
      <trkpt lat="45.73081" lon="4.79289">
        <ele>290</ele>
        <time>2010-11-04T12:38:04Z</time>
      </trkpt>
      <trkpt lat="45.73083" lon="4.79294">
        <ele>290</ele>
        <time>2010-11-04T12:38:06Z</time>
      </trkpt>
      <trkpt lat="45.73087" lon="4.79306">
        <ele>289</ele>
        <time>2010-11-04T12:38:10Z</time>
      </trkpt>
      <trkpt lat="45.73088" lon="4.79309">
        <ele>289</ele>
        <time>2010-11-04T12:38:11Z</time>
      </trkpt>
      <trkpt lat="45.73089" lon="4.79312">
        <ele>289</ele>
        <time>2010-11-04T12:38:12Z</time>
      </trkpt>
      <trkpt lat="45.73091" lon="4.79315">
        <ele>289</ele>
        <time>2010-11-04T12:38:13Z</time>
      </trkpt>
      <trkpt lat="45.73092" lon="4.79318">
        <ele>289</ele>
        <time>2010-11-04T12:38:14Z</time>
      </trkpt>
      <trkpt lat="45.73094" lon="4.79322">
        <ele>289</ele>
        <time>2010-11-04T12:38:15Z</time>
      </trkpt>
      <trkpt lat="45.73096" lon="4.79325">
        <ele>289</ele>
        <time>2010-11-04T12:38:16Z</time>
      </trkpt>
      <trkpt lat="45.73098" lon="4.79329">
        <ele>289</ele>
        <time>2010-11-04T12:38:17Z</time>
      </trkpt>
      <trkpt lat="45.73111" lon="4.79366">
        <ele>290</ele>
        <time>2010-11-04T12:38:26Z</time>
      </trkpt>
      <trkpt lat="45.73115" lon="4.79376">
        <ele>290</ele>
        <time>2010-11-04T12:38:29Z</time>
      </trkpt>
      <trkpt lat="45.73117" lon="4.79379">
        <ele>290</ele>
        <time>2010-11-04T12:38:30Z</time>
      </trkpt>
      <trkpt lat="45.73119" lon="4.79383">
        <ele>290</ele>
        <time>2010-11-04T12:38:31Z</time>
      </trkpt>
      <trkpt lat="45.73122" lon="4.79386">
        <ele>290</ele>
        <time>2010-11-04T12:38:32Z</time>
      </trkpt>
      <trkpt lat="45.73124" lon="4.7939">
        <ele>290</ele>
        <time>2010-11-04T12:38:33Z</time>
      </trkpt>
      <trkpt lat="45.73126" lon="4.79393">
        <ele>290</ele>
        <time>2010-11-04T12:38:34Z</time>
      </trkpt>
      <trkpt lat="45.73127" lon="4.79396">
        <ele>290</ele>
        <time>2010-11-04T12:38:35Z</time>
      </trkpt>
      <trkpt lat="45.73129" lon="4.794">
        <ele>290</ele>
        <time>2010-11-04T12:38:36Z</time>
      </trkpt>
      <trkpt lat="45.73138" lon="4.79424">
        <ele>292</ele>
        <time>2010-11-04T12:38:44Z</time>
      </trkpt>
      <trkpt lat="45.73139" lon="4.79426">
        <ele>292</ele>
        <time>2010-11-04T12:38:45Z</time>
      </trkpt>
      <trkpt lat="45.7314" lon="4.79428">
        <ele>292</ele>
        <time>2010-11-04T12:38:46Z</time>
      </trkpt>
      <trkpt lat="45.73142" lon="4.7943">
        <ele>292</ele>
        <time>2010-11-04T12:38:47Z</time>
      </trkpt>
      <trkpt lat="45.73144" lon="4.79433">
        <ele>292</ele>
        <time>2010-11-04T12:38:48Z</time>
      </trkpt>
      <trkpt lat="45.73147" lon="4.79436">
        <ele>292</ele>
        <time>2010-11-04T12:38:49Z</time>
      </trkpt>
      <trkpt lat="45.7315" lon="4.79439">
        <ele>292</ele>
        <time>2010-11-04T12:38:50Z</time>
      </trkpt>
      <trkpt lat="45.73152" lon="4.79442">
        <ele>292</ele>
        <time>2010-11-04T12:38:51Z</time>
      </trkpt>
      <trkpt lat="45.73153" lon="4.79445">
        <ele>292</ele>
        <time>2010-11-04T12:38:52Z</time>
      </trkpt>
      <trkpt lat="45.73156" lon="4.79449">
        <ele>292</ele>
        <time>2010-11-04T12:38:53Z</time>
      </trkpt>
      <trkpt lat="45.73158" lon="4.79452">
        <ele>292</ele>
        <time>2010-11-04T12:38:54Z</time>
      </trkpt>
      <trkpt lat="45.73159" lon="4.79456">
        <ele>292</ele>
        <time>2010-11-04T12:38:55Z</time>
      </trkpt>
      <trkpt lat="45.73161" lon="4.79459">
        <ele>292</ele>
        <time>2010-11-04T12:38:56Z</time>
      </trkpt>
      <trkpt lat="45.73163" lon="4.79461">
        <ele>292</ele>
        <time>2010-11-04T12:38:57Z</time>
      </trkpt>
      <trkpt lat="45.73164" lon="4.79463">
        <ele>292</ele>
        <time>2010-11-04T12:38:58Z</time>
      </trkpt>
      <trkpt lat="45.73165" lon="4.79465">
        <ele>292</ele>
        <time>2010-11-04T12:38:59Z</time>
      </trkpt>
      <trkpt lat="45.73166" lon="4.79469">
        <ele>293</ele>
        <time>2010-11-04T12:39:00Z</time>
      </trkpt>
      <trkpt lat="45.73183" lon="4.79495">
        <ele>292</ele>
        <time>2010-11-04T12:39:08Z</time>
      </trkpt>
      <trkpt lat="45.73187" lon="4.79501">
        <ele>293</ele>
        <time>2010-11-04T12:39:10Z</time>
      </trkpt>
      <trkpt lat="45.73189" lon="4.79504">
        <ele>293</ele>
        <time>2010-11-04T12:39:11Z</time>
      </trkpt>
      <trkpt lat="45.73192" lon="4.79506">
        <ele>293</ele>
        <time>2010-11-04T12:39:12Z</time>
      </trkpt>
      <trkpt lat="45.73194" lon="4.79508">
        <ele>293</ele>
        <time>2010-11-04T12:39:13Z</time>
      </trkpt>
      <trkpt lat="45.73196" lon="4.79512">
        <ele>293</ele>
        <time>2010-11-04T12:39:14Z</time>
      </trkpt>
      <trkpt lat="45.73199" lon="4.79515">
        <ele>293</ele>
        <time>2010-11-04T12:39:15Z</time>
      </trkpt>
      <trkpt lat="45.73205" lon="4.79522">
        <ele>293</ele>
        <time>2010-11-04T12:39:18Z</time>
      </trkpt>
      <trkpt lat="45.73207" lon="4.79526">
        <ele>293</ele>
        <time>2010-11-04T12:39:19Z</time>
      </trkpt>
      <trkpt lat="45.73209" lon="4.79529">
        <ele>293</ele>
        <time>2010-11-04T12:39:20Z</time>
      </trkpt>
      <trkpt lat="45.73212" lon="4.79531">
        <ele>293</ele>
        <time>2010-11-04T12:39:21Z</time>
      </trkpt>
      <trkpt lat="45.73214" lon="4.79534">
        <ele>293</ele>
        <time>2010-11-04T12:39:22Z</time>
      </trkpt>
      <trkpt lat="45.73217" lon="4.79537">
        <ele>293</ele>
        <time>2010-11-04T12:39:23Z</time>
      </trkpt>
      <trkpt lat="45.73218" lon="4.7954">
        <ele>293</ele>
        <time>2010-11-04T12:39:24Z</time>
      </trkpt>
      <trkpt lat="45.7322" lon="4.79544">
        <ele>293</ele>
        <time>2010-11-04T12:39:25Z</time>
      </trkpt>
      <trkpt lat="45.73221" lon="4.79547">
        <ele>293</ele>
        <time>2010-11-04T12:39:26Z</time>
      </trkpt>
      <trkpt lat="45.73223" lon="4.79551">
        <ele>293</ele>
        <time>2010-11-04T12:39:27Z</time>
      </trkpt>
      <trkpt lat="45.73223" lon="4.79554">
        <ele>293</ele>
        <time>2010-11-04T12:39:28Z</time>
      </trkpt>
      <trkpt lat="45.73224" lon="4.79557">
        <ele>293</ele>
        <time>2010-11-04T12:39:29Z</time>
      </trkpt>
      <trkpt lat="45.73226" lon="4.79561">
        <ele>293</ele>
        <time>2010-11-04T12:39:30Z</time>
      </trkpt>
      <trkpt lat="45.7323" lon="4.79565">
        <ele>293</ele>
        <time>2010-11-04T12:39:31Z</time>
      </trkpt>
      <trkpt lat="45.73243" lon="4.79588">
        <ele>293</ele>
        <time>2010-11-04T12:39:38Z</time>
      </trkpt>
      <trkpt lat="45.73245" lon="4.79591">
        <ele>293</ele>
        <time>2010-11-04T12:39:39Z</time>
      </trkpt>
      <trkpt lat="45.73247" lon="4.79593">
        <ele>293</ele>
        <time>2010-11-04T12:39:40Z</time>
      </trkpt>
      <trkpt lat="45.7325" lon="4.79596">
        <ele>294</ele>
        <time>2010-11-04T12:39:41Z</time>
      </trkpt>
      <trkpt lat="45.73252" lon="4.79598">
        <ele>292</ele>
        <time>2010-11-04T12:39:42Z</time>
      </trkpt>
      <trkpt lat="45.73254" lon="4.79601">
        <ele>292</ele>
        <time>2010-11-04T12:39:43Z</time>
      </trkpt>
      <trkpt lat="45.73259" lon="4.7961">
        <ele>292</ele>
        <time>2010-11-04T12:39:46Z</time>
      </trkpt>
      <trkpt lat="45.73267" lon="4.79621">
        <ele>292</ele>
        <time>2010-11-04T12:39:50Z</time>
      </trkpt>
      <trkpt lat="45.73282" lon="4.7964">
        <ele>293</ele>
        <time>2010-11-04T12:39:57Z</time>
      </trkpt>
      <trkpt lat="45.73303" lon="4.79664">
        <ele>292</ele>
        <time>2010-11-04T12:40:06Z</time>
      </trkpt>
      <trkpt lat="45.73325" lon="4.7969">
        <ele>294</ele>
        <time>2010-11-04T12:40:14Z</time>
      </trkpt>
      <trkpt lat="45.73328" lon="4.79694">
        <ele>294</ele>
        <time>2010-11-04T12:40:15Z</time>
      </trkpt>
      <trkpt lat="45.73331" lon="4.79697">
        <ele>294</ele>
        <time>2010-11-04T12:40:16Z</time>
      </trkpt>
      <trkpt lat="45.73333" lon="4.797">
        <ele>294</ele>
        <time>2010-11-04T12:40:17Z</time>
      </trkpt>
      <trkpt lat="45.73336" lon="4.79703">
        <ele>292</ele>
        <time>2010-11-04T12:40:18Z</time>
      </trkpt>
      <trkpt lat="45.73339" lon="4.79706">
        <ele>292</ele>
        <time>2010-11-04T12:40:19Z</time>
      </trkpt>
      <trkpt lat="45.73341" lon="4.79709">
        <ele>292</ele>
        <time>2010-11-04T12:40:20Z</time>
      </trkpt>
      <trkpt lat="45.73353" lon="4.79724">
        <ele>293</ele>
        <time>2010-11-04T12:40:25Z</time>
      </trkpt>
      <trkpt lat="45.73359" lon="4.79731">
        <ele>293</ele>
        <time>2010-11-04T12:40:28Z</time>
      </trkpt>
      <trkpt lat="45.7336" lon="4.79735">
        <ele>293</ele>
        <time>2010-11-04T12:40:29Z</time>
      </trkpt>
      <trkpt lat="45.73361" lon="4.79737">
        <ele>293</ele>
        <time>2010-11-04T12:40:30Z</time>
      </trkpt>
      <trkpt lat="45.73361" lon="4.7974">
        <ele>293</ele>
        <time>2010-11-04T12:40:31Z</time>
      </trkpt>
      <trkpt lat="45.73363" lon="4.79744">
        <ele>293</ele>
        <time>2010-11-04T12:40:32Z</time>
      </trkpt>
      <trkpt lat="45.73365" lon="4.79747">
        <ele>293</ele>
        <time>2010-11-04T12:40:33Z</time>
      </trkpt>
      <trkpt lat="45.73368" lon="4.7975">
        <ele>292</ele>
        <time>2010-11-04T12:40:34Z</time>
      </trkpt>
      <trkpt lat="45.7337" lon="4.79752">
        <ele>295</ele>
        <time>2010-11-04T12:40:35Z</time>
      </trkpt>
      <trkpt lat="45.73372" lon="4.79754">
        <ele>295</ele>
        <time>2010-11-04T12:40:36Z</time>
      </trkpt>
      <trkpt lat="45.73374" lon="4.79756">
        <ele>294</ele>
        <time>2010-11-04T12:40:37Z</time>
      </trkpt>
      <trkpt lat="45.73376" lon="4.79759">
        <ele>294</ele>
        <time>2010-11-04T12:40:38Z</time>
      </trkpt>
      <trkpt lat="45.73379" lon="4.79762">
        <ele>294</ele>
        <time>2010-11-04T12:40:39Z</time>
      </trkpt>
      <trkpt lat="45.73381" lon="4.79765">
        <ele>294</ele>
        <time>2010-11-04T12:40:40Z</time>
      </trkpt>
      <trkpt lat="45.73391" lon="4.7978">
        <ele>294</ele>
        <time>2010-11-04T12:40:46Z</time>
      </trkpt>
      <trkpt lat="45.73405" lon="4.79796">
        <ele>295</ele>
        <time>2010-11-04T12:40:52Z</time>
      </trkpt>
      <trkpt lat="45.73406" lon="4.79797">
        <ele>295</ele>
        <time>2010-11-04T12:40:53Z</time>
      </trkpt>
      <trkpt lat="45.73425" lon="4.79821">
        <ele>293</ele>
        <time>2010-11-04T12:41:01Z</time>
      </trkpt>
      <trkpt lat="45.73451" lon="4.79846">
        <ele>295</ele>
        <time>2010-11-04T12:41:10Z</time>
      </trkpt>
      <trkpt lat="45.73454" lon="4.79849">
        <ele>295</ele>
        <time>2010-11-04T12:41:11Z</time>
      </trkpt>
      <trkpt lat="45.73472" lon="4.79871">
        <ele>295</ele>
        <time>2010-11-04T12:41:18Z</time>
      </trkpt>
      <trkpt lat="45.73485" lon="4.79886">
        <ele>295</ele>
        <time>2010-11-04T12:41:23Z</time>
      </trkpt>
      <trkpt lat="45.73489" lon="4.79888">
        <ele>295</ele>
        <time>2010-11-04T12:41:24Z</time>
      </trkpt>
      <trkpt lat="45.73491" lon="4.7989">
        <ele>295</ele>
        <time>2010-11-04T12:41:25Z</time>
      </trkpt>
      <trkpt lat="45.73493" lon="4.79894">
        <ele>296</ele>
        <time>2010-11-04T12:41:26Z</time>
      </trkpt>
      <trkpt lat="45.73496" lon="4.79896">
        <ele>296</ele>
        <time>2010-11-04T12:41:27Z</time>
      </trkpt>
      <trkpt lat="45.7351" lon="4.79915">
        <ele>296</ele>
        <time>2010-11-04T12:41:34Z</time>
      </trkpt>
      <trkpt lat="45.73522" lon="4.79928">
        <ele>298</ele>
        <time>2010-11-04T12:41:40Z</time>
      </trkpt>
      <trkpt lat="45.73527" lon="4.79934">
        <ele>298</ele>
        <time>2010-11-04T12:41:42Z</time>
      </trkpt>
      <trkpt lat="45.73529" lon="4.79938">
        <ele>298</ele>
        <time>2010-11-04T12:41:43Z</time>
      </trkpt>
      <trkpt lat="45.73532" lon="4.79941">
        <ele>299</ele>
        <time>2010-11-04T12:41:44Z</time>
      </trkpt>
      <trkpt lat="45.73534" lon="4.79944">
        <ele>299</ele>
        <time>2010-11-04T12:41:45Z</time>
      </trkpt>
      <trkpt lat="45.73535" lon="4.79947">
        <ele>299</ele>
        <time>2010-11-04T12:41:46Z</time>
      </trkpt>
      <trkpt lat="45.73538" lon="4.79949">
        <ele>299</ele>
        <time>2010-11-04T12:41:47Z</time>
      </trkpt>
      <trkpt lat="45.7354" lon="4.79951">
        <ele>299</ele>
        <time>2010-11-04T12:41:48Z</time>
      </trkpt>
      <trkpt lat="45.73542" lon="4.79953">
        <ele>299</ele>
        <time>2010-11-04T12:41:49Z</time>
      </trkpt>
      <trkpt lat="45.73546" lon="4.79955">
        <ele>299</ele>
        <time>2010-11-04T12:41:50Z</time>
      </trkpt>
      <trkpt lat="45.73548" lon="4.79957">
        <ele>299</ele>
        <time>2010-11-04T12:41:51Z</time>
      </trkpt>
      <trkpt lat="45.73549" lon="4.79959">
        <ele>299</ele>
        <time>2010-11-04T12:41:52Z</time>
      </trkpt>
      <trkpt lat="45.73551" lon="4.79961">
        <ele>299</ele>
        <time>2010-11-04T12:41:53Z</time>
      </trkpt>
      <trkpt lat="45.73553" lon="4.79962">
        <ele>299</ele>
        <time>2010-11-04T12:41:54Z</time>
      </trkpt>
      <trkpt lat="45.73556" lon="4.79964">
        <ele>299</ele>
        <time>2010-11-04T12:41:55Z</time>
      </trkpt>
      <trkpt lat="45.73559" lon="4.79965">
        <ele>299</ele>
        <time>2010-11-04T12:41:56Z</time>
      </trkpt>
      <trkpt lat="45.73569" lon="4.79973">
        <ele>300</ele>
        <time>2010-11-04T12:42:01Z</time>
      </trkpt>
      <trkpt lat="45.73571" lon="4.79975">
        <ele>300</ele>
        <time>2010-11-04T12:42:02Z</time>
      </trkpt>
      <trkpt lat="45.73573" lon="4.79977">
        <ele>300</ele>
        <time>2010-11-04T12:42:03Z</time>
      </trkpt>
      <trkpt lat="45.73576" lon="4.79979">
        <ele>300</ele>
        <time>2010-11-04T12:42:04Z</time>
      </trkpt>
      <trkpt lat="45.73579" lon="4.7998">
        <ele>300</ele>
        <time>2010-11-04T12:42:05Z</time>
      </trkpt>
      <trkpt lat="45.73581" lon="4.7998">
        <ele>300</ele>
        <time>2010-11-04T12:42:06Z</time>
      </trkpt>
      <trkpt lat="45.73584" lon="4.79981">
        <ele>301</ele>
        <time>2010-11-04T12:42:07Z</time>
      </trkpt>
      <trkpt lat="45.73586" lon="4.79982">
        <ele>301</ele>
        <time>2010-11-04T12:42:08Z</time>
      </trkpt>
      <trkpt lat="45.73599" lon="4.79993">
        <ele>301</ele>
        <time>2010-11-04T12:42:13Z</time>
      </trkpt>
      <trkpt lat="45.73602" lon="4.79994">
        <ele>301</ele>
        <time>2010-11-04T12:42:14Z</time>
      </trkpt>
      <trkpt lat="45.73605" lon="4.79996">
        <ele>301</ele>
        <time>2010-11-04T12:42:15Z</time>
      </trkpt>
      <trkpt lat="45.73607" lon="4.79999">
        <ele>301</ele>
        <time>2010-11-04T12:42:16Z</time>
      </trkpt>
      <trkpt lat="45.73609" lon="4.80001">
        <ele>304</ele>
        <time>2010-11-04T12:42:17Z</time>
      </trkpt>
      <trkpt lat="45.73611" lon="4.80003">
        <ele>304</ele>
        <time>2010-11-04T12:42:18Z</time>
      </trkpt>
      <trkpt lat="45.73613" lon="4.80005">
        <ele>304</ele>
        <time>2010-11-04T12:42:19Z</time>
      </trkpt>
      <trkpt lat="45.73615" lon="4.80006">
        <ele>304</ele>
        <time>2010-11-04T12:42:20Z</time>
      </trkpt>
      <trkpt lat="45.73618" lon="4.80008">
        <ele>304</ele>
        <time>2010-11-04T12:42:21Z</time>
      </trkpt>
      <trkpt lat="45.73621" lon="4.8001">
        <ele>305</ele>
        <time>2010-11-04T12:42:22Z</time>
      </trkpt>
      <trkpt lat="45.73624" lon="4.80012">
        <ele>305</ele>
        <time>2010-11-04T12:42:23Z</time>
      </trkpt>
      <trkpt lat="45.73628" lon="4.80015">
        <ele>305</ele>
        <time>2010-11-04T12:42:24Z</time>
      </trkpt>
      <trkpt lat="45.73631" lon="4.80017">
        <ele>305</ele>
        <time>2010-11-04T12:42:25Z</time>
      </trkpt>
      <trkpt lat="45.73654" lon="4.80035">
        <ele>306</ele>
        <time>2010-11-04T12:42:35Z</time>
      </trkpt>
      <trkpt lat="45.73655" lon="4.80035">
        <ele>306</ele>
        <time>2010-11-04T12:42:36Z</time>
      </trkpt>
      <trkpt lat="45.7367" lon="4.80032">
        <ele>308</ele>
        <time>2010-11-04T12:42:45Z</time>
      </trkpt>
      <trkpt lat="45.73676" lon="4.80031">
        <ele>308</ele>
        <time>2010-11-04T12:42:48Z</time>
      </trkpt>
      <trkpt lat="45.73678" lon="4.80033">
        <ele>308</ele>
        <time>2010-11-04T12:42:49Z</time>
      </trkpt>
      <trkpt lat="45.7368" lon="4.80034">
        <ele>308</ele>
        <time>2010-11-04T12:42:50Z</time>
      </trkpt>
      <trkpt lat="45.73686" lon="4.80038">
        <ele>309</ele>
        <time>2010-11-04T12:42:52Z</time>
      </trkpt>
      <trkpt lat="45.73693" lon="4.80043">
        <ele>309</ele>
        <time>2010-11-04T12:42:54Z</time>
      </trkpt>
      <trkpt lat="45.73703" lon="4.80056">
        <ele>310</ele>
        <time>2010-11-04T12:42:56Z</time>
      </trkpt>
      <trkpt lat="45.73715" lon="4.80071">
        <ele>311</ele>
        <time>2010-11-04T12:43:00Z</time>
      </trkpt>
      <trkpt lat="45.73738" lon="4.80094">
        <ele>315</ele>
        <time>2010-11-04T12:43:10Z</time>
      </trkpt>
      <trkpt lat="45.73744" lon="4.801">
        <ele>315</ele>
        <time>2010-11-04T12:43:12Z</time>
      </trkpt>
      <trkpt lat="45.73747" lon="4.80104">
        <ele>315</ele>
        <time>2010-11-04T12:43:13Z</time>
      </trkpt>
      <trkpt lat="45.73758" lon="4.80116">
        <ele>316</ele>
        <time>2010-11-04T12:43:18Z</time>
      </trkpt>
      <trkpt lat="45.73757" lon="4.80119">
        <ele>316</ele>
        <time>2010-11-04T12:43:19Z</time>
      </trkpt>
      <trkpt lat="45.73756" lon="4.80122">
        <ele>316</ele>
        <time>2010-11-04T12:43:20Z</time>
      </trkpt>
      <trkpt lat="45.73755" lon="4.80127">
        <ele>316</ele>
        <time>2010-11-04T12:43:21Z</time>
      </trkpt>
      <trkpt lat="45.73753" lon="4.8013">
        <ele>316</ele>
        <time>2010-11-04T12:43:22Z</time>
      </trkpt>
      <trkpt lat="45.73751" lon="4.80134">
        <ele>316</ele>
        <time>2010-11-04T12:43:23Z</time>
      </trkpt>
      <trkpt lat="45.7375" lon="4.80138">
        <ele>315</ele>
        <time>2010-11-04T12:43:24Z</time>
      </trkpt>
      <trkpt lat="45.7375" lon="4.8014">
        <ele>316</ele>
        <time>2010-11-04T12:43:25Z</time>
      </trkpt>
      <trkpt lat="45.7375" lon="4.80145">
        <ele>315</ele>
        <time>2010-11-04T12:43:26Z</time>
      </trkpt>
      <trkpt lat="45.7375" lon="4.8015">
        <ele>317</ele>
        <time>2010-11-04T12:43:27Z</time>
      </trkpt>
      <trkpt lat="45.73749" lon="4.80154">
        <ele>316</ele>
        <time>2010-11-04T12:43:28Z</time>
      </trkpt>
      <trkpt lat="45.73748" lon="4.80159">
        <ele>316</ele>
        <time>2010-11-04T12:43:29Z</time>
      </trkpt>
      <trkpt lat="45.73744" lon="4.80167">
        <ele>316</ele>
        <time>2010-11-04T12:43:32Z</time>
      </trkpt>
      <trkpt lat="45.73744" lon="4.80171">
        <ele>316</ele>
        <time>2010-11-04T12:43:33Z</time>
      </trkpt>
      <trkpt lat="45.73733" lon="4.80218">
        <ele>315</ele>
        <time>2010-11-04T12:43:43Z</time>
      </trkpt>
      <trkpt lat="45.73722" lon="4.80242">
        <ele>314</ele>
        <time>2010-11-04T12:43:49Z</time>
      </trkpt>
      <trkpt lat="45.73722" lon="4.80246">
        <ele>314</ele>
        <time>2010-11-04T12:43:50Z</time>
      </trkpt>
      <trkpt lat="45.73721" lon="4.8025">
        <ele>313</ele>
        <time>2010-11-04T12:43:51Z</time>
      </trkpt>
      <trkpt lat="45.7372" lon="4.80254">
        <ele>313</ele>
        <time>2010-11-04T12:43:52Z</time>
      </trkpt>
      <trkpt lat="45.73719" lon="4.8026">
        <ele>313</ele>
        <time>2010-11-04T12:43:53Z</time>
      </trkpt>
      <trkpt lat="45.73718" lon="4.80265">
        <ele>313</ele>
        <time>2010-11-04T12:43:54Z</time>
      </trkpt>
      <trkpt lat="45.73717" lon="4.80268">
        <ele>313</ele>
        <time>2010-11-04T12:43:55Z</time>
      </trkpt>
      <trkpt lat="45.73715" lon="4.80272">
        <ele>312</ele>
        <time>2010-11-04T12:43:56Z</time>
      </trkpt>
      <trkpt lat="45.73712" lon="4.80281">
        <ele>312</ele>
        <time>2010-11-04T12:43:58Z</time>
      </trkpt>
      <trkpt lat="45.73708" lon="4.80313">
        <ele>311</ele>
        <time>2010-11-04T12:44:05Z</time>
      </trkpt>
      <trkpt lat="45.73708" lon="4.80318">
        <ele>311</ele>
        <time>2010-11-04T12:44:06Z</time>
      </trkpt>
      <trkpt lat="45.73705" lon="4.80329">
        <ele>311</ele>
        <time>2010-11-04T12:44:09Z</time>
      </trkpt>
      <trkpt lat="45.73704" lon="4.80333">
        <ele>308</ele>
        <time>2010-11-04T12:44:10Z</time>
      </trkpt>
      <trkpt lat="45.73702" lon="4.80338">
        <ele>308</ele>
        <time>2010-11-04T12:44:11Z</time>
      </trkpt>
      <trkpt lat="45.73701" lon="4.80343">
        <ele>308</ele>
        <time>2010-11-04T12:44:12Z</time>
      </trkpt>
      <trkpt lat="45.737" lon="4.80348">
        <ele>308</ele>
        <time>2010-11-04T12:44:13Z</time>
      </trkpt>
      <trkpt lat="45.73699" lon="4.80353">
        <ele>308</ele>
        <time>2010-11-04T12:44:14Z</time>
      </trkpt>
      <trkpt lat="45.73698" lon="4.80357">
        <ele>307</ele>
        <time>2010-11-04T12:44:15Z</time>
      </trkpt>
      <trkpt lat="45.73696" lon="4.8036">
        <ele>307</ele>
        <time>2010-11-04T12:44:16Z</time>
      </trkpt>
      <trkpt lat="45.73694" lon="4.8037">
        <ele>307</ele>
        <time>2010-11-04T12:44:19Z</time>
      </trkpt>
      <trkpt lat="45.73691" lon="4.80397">
        <ele>306</ele>
        <time>2010-11-04T12:44:25Z</time>
      </trkpt>
      <trkpt lat="45.73691" lon="4.80414">
        <ele>305</ele>
        <time>2010-11-04T12:44:28Z</time>
      </trkpt>
      <trkpt lat="45.73689" lon="4.8042">
        <ele>302</ele>
        <time>2010-11-04T12:44:29Z</time>
      </trkpt>
      <trkpt lat="45.73688" lon="4.80426">
        <ele>302</ele>
        <time>2010-11-04T12:44:30Z</time>
      </trkpt>
      <trkpt lat="45.73685" lon="4.80429">
        <ele>302</ele>
        <time>2010-11-04T12:44:31Z</time>
      </trkpt>
      <trkpt lat="45.73682" lon="4.80432">
        <ele>302</ele>
        <time>2010-11-04T12:44:32Z</time>
      </trkpt>
      <trkpt lat="45.73677" lon="4.80438">
        <ele>302</ele>
        <time>2010-11-04T12:44:34Z</time>
      </trkpt>
      <trkpt lat="45.73676" lon="4.80442">
        <ele>301</ele>
        <time>2010-11-04T12:44:35Z</time>
      </trkpt>
      <trkpt lat="45.73674" lon="4.80445">
        <ele>301</ele>
        <time>2010-11-04T12:44:36Z</time>
      </trkpt>
      <trkpt lat="45.73673" lon="4.80449">
        <ele>301</ele>
        <time>2010-11-04T12:44:38Z</time>
      </trkpt>
      <trkpt lat="45.73674" lon="4.80451">
        <ele>301</ele>
        <time>2010-11-04T12:44:39Z</time>
      </trkpt>
      <trkpt lat="45.73676" lon="4.80453">
        <ele>301</ele>
        <time>2010-11-04T12:44:40Z</time>
      </trkpt>
      <trkpt lat="45.73678" lon="4.80455">
        <ele>301</ele>
        <time>2010-11-04T12:44:41Z</time>
      </trkpt>
      <trkpt lat="45.73681" lon="4.80457">
        <ele>301</ele>
        <time>2010-11-04T12:44:42Z</time>
      </trkpt>
      <trkpt lat="45.73684" lon="4.80459">
        <ele>301</ele>
        <time>2010-11-04T12:44:43Z</time>
      </trkpt>
      <trkpt lat="45.73688" lon="4.80462">
        <ele>301</ele>
        <time>2010-11-04T12:44:44Z</time>
      </trkpt>
      <trkpt lat="45.73691" lon="4.80463">
        <ele>301</ele>
        <time>2010-11-04T12:44:45Z</time>
      </trkpt>
      <trkpt lat="45.73694" lon="4.80466">
        <ele>301</ele>
        <time>2010-11-04T12:44:46Z</time>
      </trkpt>
      <trkpt lat="45.73697" lon="4.80467">
        <ele>301</ele>
        <time>2010-11-04T12:44:47Z</time>
      </trkpt>
      <trkpt lat="45.737" lon="4.80469">
        <ele>301</ele>
        <time>2010-11-04T12:44:48Z</time>
      </trkpt>
      <trkpt lat="45.73702" lon="4.8047">
        <ele>301</ele>
        <time>2010-11-04T12:44:49Z</time>
      </trkpt>
      <trkpt lat="45.73704" lon="4.80472">
        <ele>301</ele>
        <time>2010-11-04T12:44:50Z</time>
      </trkpt>
      <trkpt lat="45.73706" lon="4.80475">
        <ele>301</ele>
        <time>2010-11-04T12:44:51Z</time>
      </trkpt>
      <trkpt lat="45.73708" lon="4.80477">
        <ele>301</ele>
        <time>2010-11-04T12:44:52Z</time>
      </trkpt>
      <trkpt lat="45.7371" lon="4.80479">
        <ele>301</ele>
        <time>2010-11-04T12:44:53Z</time>
      </trkpt>
      <trkpt lat="45.73712" lon="4.80483">
        <ele>301</ele>
        <time>2010-11-04T12:44:54Z</time>
      </trkpt>
      <trkpt lat="45.73721" lon="4.80513">
        <ele>297</ele>
        <time>2010-11-04T12:45:02Z</time>
      </trkpt>
      <trkpt lat="45.7372" lon="4.80516">
        <ele>297</ele>
        <time>2010-11-04T12:45:03Z</time>
      </trkpt>
      <trkpt lat="45.73719" lon="4.80519">
        <ele>297</ele>
        <time>2010-11-04T12:45:04Z</time>
      </trkpt>
      <trkpt lat="45.73719" lon="4.80522">
        <ele>297</ele>
        <time>2010-11-04T12:45:05Z</time>
      </trkpt>
      <trkpt lat="45.73718" lon="4.80532">
        <ele>296</ele>
        <time>2010-11-04T12:45:11Z</time>
      </trkpt>
      <trkpt lat="45.73719" lon="4.80535">
        <ele>296</ele>
        <time>2010-11-04T12:45:12Z</time>
      </trkpt>
      <trkpt lat="45.73721" lon="4.80539">
        <ele>296</ele>
        <time>2010-11-04T12:45:13Z</time>
      </trkpt>
      <trkpt lat="45.73723" lon="4.80543">
        <ele>296</ele>
        <time>2010-11-04T12:45:14Z</time>
      </trkpt>
      <trkpt lat="45.73725" lon="4.80545">
        <ele>296</ele>
        <time>2010-11-04T12:45:15Z</time>
      </trkpt>
      <trkpt lat="45.73727" lon="4.80547">
        <ele>296</ele>
        <time>2010-11-04T12:45:16Z</time>
      </trkpt>
      <trkpt lat="45.73729" lon="4.8055">
        <ele>295</ele>
        <time>2010-11-04T12:45:17Z</time>
      </trkpt>
      <trkpt lat="45.73731" lon="4.80554">
        <ele>295</ele>
        <time>2010-11-04T12:45:18Z</time>
      </trkpt>
      <trkpt lat="45.73731" lon="4.80557">
        <ele>295</ele>
        <time>2010-11-04T12:45:19Z</time>
      </trkpt>
      <trkpt lat="45.7373" lon="4.80559">
        <ele>295</ele>
        <time>2010-11-04T12:45:20Z</time>
      </trkpt>
      <trkpt lat="45.73729" lon="4.80562">
        <ele>295</ele>
        <time>2010-11-04T12:45:21Z</time>
      </trkpt>
      <trkpt lat="45.73728" lon="4.80565">
        <ele>295</ele>
        <time>2010-11-04T12:45:22Z</time>
      </trkpt>
      <trkpt lat="45.73727" lon="4.80568">
        <ele>295</ele>
        <time>2010-11-04T12:45:23Z</time>
      </trkpt>
      <trkpt lat="45.73725" lon="4.80572">
        <ele>295</ele>
        <time>2010-11-04T12:45:24Z</time>
      </trkpt>
      <trkpt lat="45.73725" lon="4.80576">
        <ele>294</ele>
        <time>2010-11-04T12:45:25Z</time>
      </trkpt>
      <trkpt lat="45.73725" lon="4.80579">
        <ele>294</ele>
        <time>2010-11-04T12:45:26Z</time>
      </trkpt>
      <trkpt lat="45.73725" lon="4.80583">
        <ele>294</ele>
        <time>2010-11-04T12:45:27Z</time>
      </trkpt>
      <trkpt lat="45.73724" lon="4.80586">
        <ele>290</ele>
        <time>2010-11-04T12:45:28Z</time>
      </trkpt>
      <trkpt lat="45.73725" lon="4.8059">
        <ele>290</ele>
        <time>2010-11-04T12:45:29Z</time>
      </trkpt>
      <trkpt lat="45.73726" lon="4.80594">
        <ele>290</ele>
        <time>2010-11-04T12:45:30Z</time>
      </trkpt>
      <trkpt lat="45.73728" lon="4.80598">
        <ele>289</ele>
        <time>2010-11-04T12:45:31Z</time>
      </trkpt>
      <trkpt lat="45.73729" lon="4.80602">
        <ele>289</ele>
        <time>2010-11-04T12:45:32Z</time>
      </trkpt>
      <trkpt lat="45.73731" lon="4.80606">
        <ele>289</ele>
        <time>2010-11-04T12:45:33Z</time>
      </trkpt>
      <trkpt lat="45.73732" lon="4.8061">
        <ele>289</ele>
        <time>2010-11-04T12:45:34Z</time>
      </trkpt>
      <trkpt lat="45.73752" lon="4.80631">
        <ele>284</ele>
        <time>2010-11-04T12:45:42Z</time>
      </trkpt>
      <trkpt lat="45.73769" lon="4.80643">
        <ele>283</ele>
        <time>2010-11-04T12:45:49Z</time>
      </trkpt>
      <trkpt lat="45.73771" lon="4.80643">
        <ele>283</ele>
        <time>2010-11-04T12:45:50Z</time>
      </trkpt>
      <trkpt lat="45.73774" lon="4.80644">
        <ele>283</ele>
        <time>2010-11-04T12:45:51Z</time>
      </trkpt>
      <trkpt lat="45.73776" lon="4.80646">
        <ele>283</ele>
        <time>2010-11-04T12:45:52Z</time>
      </trkpt>
      <trkpt lat="45.73779" lon="4.80648">
        <ele>283</ele>
        <time>2010-11-04T12:45:53Z</time>
      </trkpt>
      <trkpt lat="45.73782" lon="4.80649">
        <ele>283</ele>
        <time>2010-11-04T12:45:54Z</time>
      </trkpt>
      <trkpt lat="45.73787" lon="4.80654">
        <ele>282</ele>
        <time>2010-11-04T12:45:57Z</time>
      </trkpt>
      <trkpt lat="45.73787" lon="4.80656">
        <ele>282</ele>
        <time>2010-11-04T12:46:00Z</time>
      </trkpt>
      <trkpt lat="45.73785" lon="4.80657">
        <ele>282</ele>
        <time>2010-11-04T12:46:01Z</time>
      </trkpt>
      <trkpt lat="45.73783" lon="4.80658">
        <ele>282</ele>
        <time>2010-11-04T12:46:02Z</time>
      </trkpt>
      <trkpt lat="45.7378" lon="4.80658">
        <ele>282</ele>
        <time>2010-11-04T12:46:03Z</time>
      </trkpt>
      <trkpt lat="45.73777" lon="4.80658">
        <ele>282</ele>
        <time>2010-11-04T12:46:04Z</time>
      </trkpt>
      <trkpt lat="45.73774" lon="4.80658">
        <ele>282</ele>
        <time>2010-11-04T12:46:05Z</time>
      </trkpt>
      <trkpt lat="45.73771" lon="4.80657">
        <ele>282</ele>
        <time>2010-11-04T12:46:06Z</time>
      </trkpt>
      <trkpt lat="45.73768" lon="4.80657">
        <ele>282</ele>
        <time>2010-11-04T12:46:07Z</time>
      </trkpt>
      <trkpt lat="45.73765" lon="4.80657">
        <ele>281</ele>
        <time>2010-11-04T12:46:08Z</time>
      </trkpt>
      <trkpt lat="45.73762" lon="4.80656">
        <ele>281</ele>
        <time>2010-11-04T12:46:09Z</time>
      </trkpt>
      <trkpt lat="45.7376" lon="4.80656">
        <ele>281</ele>
        <time>2010-11-04T12:46:10Z</time>
      </trkpt>
      <trkpt lat="45.73758" lon="4.80655">
        <ele>281</ele>
        <time>2010-11-04T12:46:11Z</time>
      </trkpt>
      <trkpt lat="45.73754" lon="4.80653">
        <ele>281</ele>
        <time>2010-11-04T12:46:15Z</time>
      </trkpt>
      <trkpt lat="45.73751" lon="4.80651">
        <ele>281</ele>
        <time>2010-11-04T12:46:16Z</time>
      </trkpt>
      <trkpt lat="45.73747" lon="4.80649">
        <ele>283</ele>
        <time>2010-11-04T12:46:17Z</time>
      </trkpt>
      <trkpt lat="45.73742" lon="4.80649">
        <ele>284</ele>
        <time>2010-11-04T12:46:18Z</time>
      </trkpt>
      <trkpt lat="45.73738" lon="4.8065">
        <ele>284</ele>
        <time>2010-11-04T12:46:19Z</time>
      </trkpt>
      <trkpt lat="45.73735" lon="4.8065">
        <ele>284</ele>
        <time>2010-11-04T12:46:20Z</time>
      </trkpt>
      <trkpt lat="45.73733" lon="4.80653">
        <ele>284</ele>
        <time>2010-11-04T12:46:21Z</time>
      </trkpt>
      <trkpt lat="45.73733" lon="4.80656">
        <ele>284</ele>
        <time>2010-11-04T12:46:22Z</time>
      </trkpt>
      <trkpt lat="45.73735" lon="4.80659">
        <ele>283</ele>
        <time>2010-11-04T12:46:23Z</time>
      </trkpt>
      <trkpt lat="45.73741" lon="4.80664">
        <ele>281</ele>
        <time>2010-11-04T12:46:26Z</time>
      </trkpt>
      <trkpt lat="45.73743" lon="4.80665">
        <ele>281</ele>
        <time>2010-11-04T12:46:27Z</time>
      </trkpt>
      <trkpt lat="45.73761" lon="4.80675">
        <ele>274</ele>
        <time>2010-11-04T12:46:33Z</time>
      </trkpt>
      <trkpt lat="45.73769" lon="4.80679">
        <ele>272</ele>
        <time>2010-11-04T12:46:36Z</time>
      </trkpt>
      <trkpt lat="45.73772" lon="4.80679">
        <ele>271</ele>
        <time>2010-11-04T12:46:37Z</time>
      </trkpt>
      <trkpt lat="45.73774" lon="4.80678">
        <ele>271</ele>
        <time>2010-11-04T12:46:38Z</time>
      </trkpt>
      <trkpt lat="45.73777" lon="4.8068">
        <ele>271</ele>
        <time>2010-11-04T12:46:39Z</time>
      </trkpt>
      <trkpt lat="45.7378" lon="4.80681">
        <ele>271</ele>
        <time>2010-11-04T12:46:40Z</time>
      </trkpt>
      <trkpt lat="45.73783" lon="4.80682">
        <ele>270</ele>
        <time>2010-11-04T12:46:41Z</time>
      </trkpt>
      <trkpt lat="45.73787" lon="4.80684">
        <ele>270</ele>
        <time>2010-11-04T12:46:42Z</time>
      </trkpt>
      <trkpt lat="45.73791" lon="4.80684">
        <ele>270</ele>
        <time>2010-11-04T12:46:43Z</time>
      </trkpt>
      <trkpt lat="45.73808" lon="4.80691">
        <ele>269</ele>
        <time>2010-11-04T12:46:48Z</time>
      </trkpt>
      <trkpt lat="45.73818" lon="4.80696">
        <ele>269</ele>
        <time>2010-11-04T12:46:51Z</time>
      </trkpt>
      <trkpt lat="45.73822" lon="4.80698">
        <ele>269</ele>
        <time>2010-11-04T12:46:52Z</time>
      </trkpt>
      <trkpt lat="45.73825" lon="4.80699">
        <ele>268</ele>
        <time>2010-11-04T12:46:53Z</time>
      </trkpt>
      <trkpt lat="45.73829" lon="4.80701">
        <ele>268</ele>
        <time>2010-11-04T12:46:54Z</time>
      </trkpt>
      <trkpt lat="45.73832" lon="4.807">
        <ele>268</ele>
        <time>2010-11-04T12:46:55Z</time>
      </trkpt>
      <trkpt lat="45.73834" lon="4.80701">
        <ele>270</ele>
        <time>2010-11-04T12:46:56Z</time>
      </trkpt>
      <trkpt lat="45.73838" lon="4.80702">
        <ele>270</ele>
        <time>2010-11-04T12:46:57Z</time>
      </trkpt>
      <trkpt lat="45.7384" lon="4.80702">
        <ele>270</ele>
        <time>2010-11-04T12:46:58Z</time>
      </trkpt>
      <trkpt lat="45.73842" lon="4.80702">
        <ele>270</ele>
        <time>2010-11-04T12:46:59Z</time>
      </trkpt>
      <trkpt lat="45.73843" lon="4.80702">
        <ele>270</ele>
        <time>2010-11-04T12:47:00Z</time>
      </trkpt>
      <trkpt lat="45.73845" lon="4.80702">
        <ele>270</ele>
        <time>2010-11-04T12:47:01Z</time>
      </trkpt>
      <trkpt lat="45.73847" lon="4.80703">
        <ele>270</ele>
        <time>2010-11-04T12:47:02Z</time>
      </trkpt>
      <trkpt lat="45.73849" lon="4.80703">
        <ele>270</ele>
        <time>2010-11-04T12:47:03Z</time>
      </trkpt>
      <trkpt lat="45.73852" lon="4.80704">
        <ele>270</ele>
        <time>2010-11-04T12:47:04Z</time>
      </trkpt>
      <trkpt lat="45.73855" lon="4.80705">
        <ele>270</ele>
        <time>2010-11-04T12:47:05Z</time>
      </trkpt>
      <trkpt lat="45.73859" lon="4.80706">
        <ele>270</ele>
        <time>2010-11-04T12:47:06Z</time>
      </trkpt>
      <trkpt lat="45.73862" lon="4.80708">
        <ele>270</ele>
        <time>2010-11-04T12:47:07Z</time>
      </trkpt>
      <trkpt lat="45.73864" lon="4.80709">
        <ele>270</ele>
        <time>2010-11-04T12:47:08Z</time>
      </trkpt>
      <trkpt lat="45.73868" lon="4.80712">
        <ele>270</ele>
        <time>2010-11-04T12:47:11Z</time>
      </trkpt>
      <trkpt lat="45.73883" lon="4.80726">
        <ele>270</ele>
        <time>2010-11-04T12:47:18Z</time>
      </trkpt>
      <trkpt lat="45.73885" lon="4.80733">
        <ele>269</ele>
        <time>2010-11-04T12:47:20Z</time>
      </trkpt>
      <trkpt lat="45.73885" lon="4.80735">
        <ele>269</ele>
        <time>2010-11-04T12:47:21Z</time>
      </trkpt>
      <trkpt lat="45.73886" lon="4.80739">
        <ele>269</ele>
        <time>2010-11-04T12:47:22Z</time>
      </trkpt>
      <trkpt lat="45.73888" lon="4.80743">
        <ele>269</ele>
        <time>2010-11-04T12:47:23Z</time>
      </trkpt>
      <trkpt lat="45.7389" lon="4.80747">
        <ele>269</ele>
        <time>2010-11-04T12:47:24Z</time>
      </trkpt>
      <trkpt lat="45.73893" lon="4.8075">
        <ele>269</ele>
        <time>2010-11-04T12:47:25Z</time>
      </trkpt>
      <trkpt lat="45.73895" lon="4.80753">
        <ele>260</ele>
        <time>2010-11-04T12:47:26Z</time>
      </trkpt>
      <trkpt lat="45.73897" lon="4.80757">
        <ele>261</ele>
        <time>2010-11-04T12:47:27Z</time>
      </trkpt>
      <trkpt lat="45.73902" lon="4.80769">
        <ele>260</ele>
        <time>2010-11-04T12:47:31Z</time>
      </trkpt>
      <trkpt lat="45.73902" lon="4.80772">
        <ele>259</ele>
        <time>2010-11-04T12:47:32Z</time>
      </trkpt>
      <trkpt lat="45.73903" lon="4.80775">
        <ele>259</ele>
        <time>2010-11-04T12:47:33Z</time>
      </trkpt>
      <trkpt lat="45.73903" lon="4.80778">
        <ele>258</ele>
        <time>2010-11-04T12:47:34Z</time>
      </trkpt>
      <trkpt lat="45.73903" lon="4.80782">
        <ele>258</ele>
        <time>2010-11-04T12:47:35Z</time>
      </trkpt>
      <trkpt lat="45.73903" lon="4.80787">
        <ele>257</ele>
        <time>2010-11-04T12:47:36Z</time>
      </trkpt>
      <trkpt lat="45.73902" lon="4.80791">
        <ele>257</ele>
        <time>2010-11-04T12:47:37Z</time>
      </trkpt>
      <trkpt lat="45.73902" lon="4.80794">
        <ele>256</ele>
        <time>2010-11-04T12:47:38Z</time>
      </trkpt>
      <trkpt lat="45.73906" lon="4.80823">
        <ele>254</ele>
        <time>2010-11-04T12:47:46Z</time>
      </trkpt>
      <trkpt lat="45.73906" lon="4.80826">
        <ele>254</ele>
        <time>2010-11-04T12:47:47Z</time>
      </trkpt>
      <trkpt lat="45.73905" lon="4.8083">
        <ele>254</ele>
        <time>2010-11-04T12:47:48Z</time>
      </trkpt>
      <trkpt lat="45.73905" lon="4.80846">
        <ele>247</ele>
        <time>2010-11-04T12:47:52Z</time>
      </trkpt>
      <trkpt lat="45.73905" lon="4.80849">
        <ele>246</ele>
        <time>2010-11-04T12:47:53Z</time>
      </trkpt>
      <trkpt lat="45.73906" lon="4.80852">
        <ele>246</ele>
        <time>2010-11-04T12:47:54Z</time>
      </trkpt>
      <trkpt lat="45.73906" lon="4.80855">
        <ele>245</ele>
        <time>2010-11-04T12:47:55Z</time>
      </trkpt>
      <trkpt lat="45.73906" lon="4.80861">
        <ele>244</ele>
        <time>2010-11-04T12:47:56Z</time>
      </trkpt>
      <trkpt lat="45.73904" lon="4.80875">
        <ele>242</ele>
        <time>2010-11-04T12:48:00Z</time>
      </trkpt>
      <trkpt lat="45.73904" lon="4.80878">
        <ele>241</ele>
        <time>2010-11-04T12:48:01Z</time>
      </trkpt>
      <trkpt lat="45.73906" lon="4.8088">
        <ele>241</ele>
        <time>2010-11-04T12:48:02Z</time>
      </trkpt>
      <trkpt lat="45.73908" lon="4.80882">
        <ele>241</ele>
        <time>2010-11-04T12:48:03Z</time>
      </trkpt>
      <trkpt lat="45.73911" lon="4.80884">
        <ele>240</ele>
        <time>2010-11-04T12:48:04Z</time>
      </trkpt>
      <trkpt lat="45.73914" lon="4.80885">
        <ele>240</ele>
        <time>2010-11-04T12:48:05Z</time>
      </trkpt>
      <trkpt lat="45.73916" lon="4.80886">
        <ele>240</ele>
        <time>2010-11-04T12:48:06Z</time>
      </trkpt>
      <trkpt lat="45.7392" lon="4.80887">
        <ele>243</ele>
        <time>2010-11-04T12:48:07Z</time>
      </trkpt>
      <trkpt lat="45.73922" lon="4.80887">
        <ele>242</ele>
        <time>2010-11-04T12:48:08Z</time>
      </trkpt>
      <trkpt lat="45.73925" lon="4.80888">
        <ele>242</ele>
        <time>2010-11-04T12:48:09Z</time>
      </trkpt>
      <trkpt lat="45.73942" lon="4.8089">
        <ele>243</ele>
        <time>2010-11-04T12:48:16Z</time>
      </trkpt>
      <trkpt lat="45.73946" lon="4.8089">
        <ele>243</ele>
        <time>2010-11-04T12:48:17Z</time>
      </trkpt>
      <trkpt lat="45.73948" lon="4.80889">
        <ele>243</ele>
        <time>2010-11-04T12:48:18Z</time>
      </trkpt>
      <trkpt lat="45.73949" lon="4.80889">
        <ele>243</ele>
        <time>2010-11-04T12:48:19Z</time>
      </trkpt>
      <trkpt lat="45.73951" lon="4.80888">
        <ele>243</ele>
        <time>2010-11-04T12:48:20Z</time>
      </trkpt>
      <trkpt lat="45.73954" lon="4.80888">
        <ele>243</ele>
        <time>2010-11-04T12:48:21Z</time>
      </trkpt>
      <trkpt lat="45.73957" lon="4.80888">
        <ele>243</ele>
        <time>2010-11-04T12:48:22Z</time>
      </trkpt>
      <trkpt lat="45.7396" lon="4.80888">
        <ele>243</ele>
        <time>2010-11-04T12:48:23Z</time>
      </trkpt>
      <trkpt lat="45.73963" lon="4.80888">
        <ele>243</ele>
        <time>2010-11-04T12:48:24Z</time>
      </trkpt>
      <trkpt lat="45.73967" lon="4.80888">
        <ele>243</ele>
        <time>2010-11-04T12:48:25Z</time>
      </trkpt>
      <trkpt lat="45.73971" lon="4.80887">
        <ele>244</ele>
        <time>2010-11-04T12:48:26Z</time>
      </trkpt>
      <trkpt lat="45.73974" lon="4.80887">
        <ele>243</ele>
        <time>2010-11-04T12:48:27Z</time>
      </trkpt>
      <trkpt lat="45.73977" lon="4.80887">
        <ele>243</ele>
        <time>2010-11-04T12:48:28Z</time>
      </trkpt>
      <trkpt lat="45.73988" lon="4.80884">
        <ele>244</ele>
        <time>2010-11-04T12:48:32Z</time>
      </trkpt>
      <trkpt lat="45.73993" lon="4.80883">
        <ele>244</ele>
        <time>2010-11-04T12:48:34Z</time>
      </trkpt>
      <trkpt lat="45.73996" lon="4.80882">
        <ele>244</ele>
        <time>2010-11-04T12:48:35Z</time>
      </trkpt>
      <trkpt lat="45.73999" lon="4.80881">
        <ele>244</ele>
        <time>2010-11-04T12:48:36Z</time>
      </trkpt>
      <trkpt lat="45.74001" lon="4.80881">
        <ele>245</ele>
        <time>2010-11-04T12:48:37Z</time>
      </trkpt>
      <trkpt lat="45.74006" lon="4.80878">
        <ele>245</ele>
        <time>2010-11-04T12:48:39Z</time>
      </trkpt>
      <trkpt lat="45.74009" lon="4.80876">
        <ele>246</ele>
        <time>2010-11-04T12:48:40Z</time>
      </trkpt>
      <trkpt lat="45.74011" lon="4.80875">
        <ele>246</ele>
        <time>2010-11-04T12:48:41Z</time>
      </trkpt>
      <trkpt lat="45.74039" lon="4.8087">
        <ele>246</ele>
        <time>2010-11-04T12:48:51Z</time>
      </trkpt>
      <trkpt lat="45.74056" lon="4.80872">
        <ele>246</ele>
        <time>2010-11-04T12:48:57Z</time>
      </trkpt>
      <trkpt lat="45.74059" lon="4.80871">
        <ele>247</ele>
        <time>2010-11-04T12:48:58Z</time>
      </trkpt>
      <trkpt lat="45.74061" lon="4.8087">
        <ele>247</ele>
        <time>2010-11-04T12:48:59Z</time>
      </trkpt>
      <trkpt lat="45.74076" lon="4.80869">
        <ele>247</ele>
        <time>2010-11-04T12:49:05Z</time>
      </trkpt>
      <trkpt lat="45.74079" lon="4.80869">
        <ele>247</ele>
        <time>2010-11-04T12:49:06Z</time>
      </trkpt>
      <trkpt lat="45.74083" lon="4.80868">
        <ele>247</ele>
        <time>2010-11-04T12:49:07Z</time>
      </trkpt>
      <trkpt lat="45.74091" lon="4.80867">
        <ele>248</ele>
        <time>2010-11-04T12:49:09Z</time>
      </trkpt>
      <trkpt lat="45.74095" lon="4.80867">
        <ele>248</ele>
        <time>2010-11-04T12:49:10Z</time>
      </trkpt>
      <trkpt lat="45.74099" lon="4.80867">
        <ele>248</ele>
        <time>2010-11-04T12:49:11Z</time>
      </trkpt>
      <trkpt lat="45.74106" lon="4.80865">
        <ele>248</ele>
        <time>2010-11-04T12:49:13Z</time>
      </trkpt>
      <trkpt lat="45.74109" lon="4.80866">
        <ele>248</ele>
        <time>2010-11-04T12:49:14Z</time>
      </trkpt>
      <trkpt lat="45.74136" lon="4.80876">
        <ele>248</ele>
        <time>2010-11-04T12:49:23Z</time>
      </trkpt>
      <trkpt lat="45.74157" lon="4.80882">
        <ele>247</ele>
        <time>2010-11-04T12:49:29Z</time>
      </trkpt>
      <trkpt lat="45.74163" lon="4.80884">
        <ele>247</ele>
        <time>2010-11-04T12:49:31Z</time>
      </trkpt>
      <trkpt lat="45.74165" lon="4.80884">
        <ele>247</ele>
        <time>2010-11-04T12:49:32Z</time>
      </trkpt>
      <trkpt lat="45.74167" lon="4.80885">
        <ele>248</ele>
        <time>2010-11-04T12:49:33Z</time>
      </trkpt>
      <trkpt lat="45.7417" lon="4.80885">
        <ele>248</ele>
        <time>2010-11-04T12:49:34Z</time>
      </trkpt>
      <trkpt lat="45.74173" lon="4.80885">
        <ele>248</ele>
        <time>2010-11-04T12:49:35Z</time>
      </trkpt>
      <trkpt lat="45.74177" lon="4.80885">
        <ele>248</ele>
        <time>2010-11-04T12:49:36Z</time>
      </trkpt>
      <trkpt lat="45.7418" lon="4.80885">
        <ele>248</ele>
        <time>2010-11-04T12:49:37Z</time>
      </trkpt>
      <trkpt lat="45.74183" lon="4.80884">
        <ele>249</ele>
        <time>2010-11-04T12:49:38Z</time>
      </trkpt>
      <trkpt lat="45.74186" lon="4.80884">
        <ele>249</ele>
        <time>2010-11-04T12:49:39Z</time>
      </trkpt>
      <trkpt lat="45.74189" lon="4.80883">
        <ele>249</ele>
        <time>2010-11-04T12:49:40Z</time>
      </trkpt>
      <trkpt lat="45.74193" lon="4.80882">
        <ele>249</ele>
        <time>2010-11-04T12:49:41Z</time>
      </trkpt>
      <trkpt lat="45.74197" lon="4.80881">
        <ele>249</ele>
        <time>2010-11-04T12:49:42Z</time>
      </trkpt>
      <trkpt lat="45.74201" lon="4.8088">
        <ele>249</ele>
        <time>2010-11-04T12:49:43Z</time>
      </trkpt>
      <trkpt lat="45.74205" lon="4.80879">
        <ele>249</ele>
        <time>2010-11-04T12:49:44Z</time>
      </trkpt>
      <trkpt lat="45.74208" lon="4.80879">
        <ele>249</ele>
        <time>2010-11-04T12:49:45Z</time>
      </trkpt>
      <trkpt lat="45.7421" lon="4.80878">
        <ele>250</ele>
        <time>2010-11-04T12:49:46Z</time>
      </trkpt>
      <trkpt lat="45.74213" lon="4.8088">
        <ele>249</ele>
        <time>2010-11-04T12:49:47Z</time>
      </trkpt>
      <trkpt lat="45.74216" lon="4.80881">
        <ele>249</ele>
        <time>2010-11-04T12:49:48Z</time>
      </trkpt>
      <trkpt lat="45.74219" lon="4.80881">
        <ele>249</ele>
        <time>2010-11-04T12:49:49Z</time>
      </trkpt>
      <trkpt lat="45.74222" lon="4.80883">
        <ele>249</ele>
        <time>2010-11-04T12:49:50Z</time>
      </trkpt>
      <trkpt lat="45.74225" lon="4.80883">
        <ele>249</ele>
        <time>2010-11-04T12:49:51Z</time>
      </trkpt>
      <trkpt lat="45.74228" lon="4.80883">
        <ele>249</ele>
        <time>2010-11-04T12:49:52Z</time>
      </trkpt>
      <trkpt lat="45.7423" lon="4.80885">
        <ele>249</ele>
        <time>2010-11-04T12:49:53Z</time>
      </trkpt>
      <trkpt lat="45.74234" lon="4.80887">
        <ele>249</ele>
        <time>2010-11-04T12:49:54Z</time>
      </trkpt>
      <trkpt lat="45.74237" lon="4.80889">
        <ele>249</ele>
        <time>2010-11-04T12:49:55Z</time>
      </trkpt>
      <trkpt lat="45.74255" lon="4.80901">
        <ele>249</ele>
        <time>2010-11-04T12:50:03Z</time>
      </trkpt>
      <trkpt lat="45.7427" lon="4.80911">
        <ele>249</ele>
        <time>2010-11-04T12:50:08Z</time>
      </trkpt>
      <trkpt lat="45.74274" lon="4.80913">
        <ele>250</ele>
        <time>2010-11-04T12:50:09Z</time>
      </trkpt>
      <trkpt lat="45.74276" lon="4.80914">
        <ele>250</ele>
        <time>2010-11-04T12:50:10Z</time>
      </trkpt>
      <trkpt lat="45.74278" lon="4.80916">
        <ele>250</ele>
        <time>2010-11-04T12:50:11Z</time>
      </trkpt>
      <trkpt lat="45.7428" lon="4.80919">
        <ele>242</ele>
        <time>2010-11-04T12:50:12Z</time>
      </trkpt>
      <trkpt lat="45.74282" lon="4.80922">
        <ele>242</ele>
        <time>2010-11-04T12:50:13Z</time>
      </trkpt>
      <trkpt lat="45.74284" lon="4.80925">
        <ele>242</ele>
        <time>2010-11-04T12:50:14Z</time>
      </trkpt>
      <trkpt lat="45.74287" lon="4.80928">
        <ele>242</ele>
        <time>2010-11-04T12:50:15Z</time>
      </trkpt>
      <trkpt lat="45.7429" lon="4.80931">
        <ele>242</ele>
        <time>2010-11-04T12:50:16Z</time>
      </trkpt>
      <trkpt lat="45.74292" lon="4.80935">
        <ele>242</ele>
        <time>2010-11-04T12:50:17Z</time>
      </trkpt>
      <trkpt lat="45.74294" lon="4.80939">
        <ele>241</ele>
        <time>2010-11-04T12:50:18Z</time>
      </trkpt>
      <trkpt lat="45.74295" lon="4.80943">
        <ele>241</ele>
        <time>2010-11-04T12:50:19Z</time>
      </trkpt>
      <trkpt lat="45.74297" lon="4.80947">
        <ele>241</ele>
        <time>2010-11-04T12:50:20Z</time>
      </trkpt>
      <trkpt lat="45.74298" lon="4.80951">
        <ele>240</ele>
        <time>2010-11-04T12:50:21Z</time>
      </trkpt>
      <trkpt lat="45.743" lon="4.80954">
        <ele>240</ele>
        <time>2010-11-04T12:50:22Z</time>
      </trkpt>
      <trkpt lat="45.74301" lon="4.80957">
        <ele>240</ele>
        <time>2010-11-04T12:50:23Z</time>
      </trkpt>
      <trkpt lat="45.74303" lon="4.80962">
        <ele>240</ele>
        <time>2010-11-04T12:50:24Z</time>
      </trkpt>
      <trkpt lat="45.74303" lon="4.80966">
        <ele>239</ele>
        <time>2010-11-04T12:50:25Z</time>
      </trkpt>
      <trkpt lat="45.74304" lon="4.80968">
        <ele>239</ele>
        <time>2010-11-04T12:50:26Z</time>
      </trkpt>
      <trkpt lat="45.74303" lon="4.8097">
        <ele>239</ele>
        <time>2010-11-04T12:50:27Z</time>
      </trkpt>
      <trkpt lat="45.74303" lon="4.80973">
        <ele>239</ele>
        <time>2010-11-04T12:50:28Z</time>
      </trkpt>
      <trkpt lat="45.74305" lon="4.80976">
        <ele>238</ele>
        <time>2010-11-04T12:50:29Z</time>
      </trkpt>
      <trkpt lat="45.74315" lon="4.80988">
        <ele>237</ele>
        <time>2010-11-04T12:50:34Z</time>
      </trkpt>
      <trkpt lat="45.74318" lon="4.8099">
        <ele>237</ele>
        <time>2010-11-04T12:50:35Z</time>
      </trkpt>
      <trkpt lat="45.7432" lon="4.80991">
        <ele>237</ele>
        <time>2010-11-04T12:50:36Z</time>
      </trkpt>
      <trkpt lat="45.74323" lon="4.80993">
        <ele>236</ele>
        <time>2010-11-04T12:50:37Z</time>
      </trkpt>
      <trkpt lat="45.74326" lon="4.80994">
        <ele>236</ele>
        <time>2010-11-04T12:50:38Z</time>
      </trkpt>
      <trkpt lat="45.7435" lon="4.81014">
        <ele>233</ele>
        <time>2010-11-04T12:50:47Z</time>
      </trkpt>
      <trkpt lat="45.74364" lon="4.81032">
        <ele>233</ele>
        <time>2010-11-04T12:50:54Z</time>
      </trkpt>
      <trkpt lat="45.74366" lon="4.81035">
        <ele>233</ele>
        <time>2010-11-04T12:50:55Z</time>
      </trkpt>
      <trkpt lat="45.74369" lon="4.81037">
        <ele>233</ele>
        <time>2010-11-04T12:50:56Z</time>
      </trkpt>
      <trkpt lat="45.74372" lon="4.81039">
        <ele>233</ele>
        <time>2010-11-04T12:50:57Z</time>
      </trkpt>
      <trkpt lat="45.74399" lon="4.81056">
        <ele>232</ele>
        <time>2010-11-04T12:51:06Z</time>
      </trkpt>
      <trkpt lat="45.74421" lon="4.81076">
        <ele>233</ele>
        <time>2010-11-04T12:51:15Z</time>
      </trkpt>
      <trkpt lat="45.74424" lon="4.81078">
        <ele>233</ele>
        <time>2010-11-04T12:51:16Z</time>
      </trkpt>
      <trkpt lat="45.74447" lon="4.81098">
        <ele>228</ele>
        <time>2010-11-04T12:51:25Z</time>
      </trkpt>
      <trkpt lat="45.74449" lon="4.811">
        <ele>228</ele>
        <time>2010-11-04T12:51:26Z</time>
      </trkpt>
      <trkpt lat="45.74451" lon="4.81101">
        <ele>228</ele>
        <time>2010-11-04T12:51:27Z</time>
      </trkpt>
      <trkpt lat="45.74477" lon="4.81108">
        <ele>229</ele>
        <time>2010-11-04T12:51:38Z</time>
      </trkpt>
      <trkpt lat="45.74483" lon="4.81108">
        <ele>230</ele>
        <time>2010-11-04T12:51:40Z</time>
      </trkpt>
      <trkpt lat="45.74514" lon="4.81117">
        <ele>237</ele>
        <time>2010-11-04T12:51:49Z</time>
      </trkpt>
      <trkpt lat="45.74531" lon="4.81134">
        <ele>236</ele>
        <time>2010-11-04T12:51:56Z</time>
      </trkpt>
      <trkpt lat="45.74539" lon="4.81142">
        <ele>236</ele>
        <time>2010-11-04T12:51:59Z</time>
      </trkpt>
      <trkpt lat="45.74548" lon="4.81152">
        <ele>237</ele>
        <time>2010-11-04T12:52:02Z</time>
      </trkpt>
      <trkpt lat="45.74566" lon="4.81178">
        <ele>231</ele>
        <time>2010-11-04T12:52:10Z</time>
      </trkpt>
      <trkpt lat="45.74571" lon="4.81188">
        <ele>230</ele>
        <time>2010-11-04T12:52:13Z</time>
      </trkpt>
      <trkpt lat="45.74571" lon="4.81191">
        <ele>229</ele>
        <time>2010-11-04T12:52:14Z</time>
      </trkpt>
      <trkpt lat="45.74573" lon="4.81208">
        <ele>227</ele>
        <time>2010-11-04T12:52:19Z</time>
      </trkpt>
      <trkpt lat="45.74575" lon="4.8121">
        <ele>227</ele>
        <time>2010-11-04T12:52:20Z</time>
      </trkpt>
      <trkpt lat="45.74577" lon="4.81212">
        <ele>227</ele>
        <time>2010-11-04T12:52:21Z</time>
      </trkpt>
      <trkpt lat="45.7458" lon="4.81214">
        <ele>227</ele>
        <time>2010-11-04T12:52:22Z</time>
      </trkpt>
      <trkpt lat="45.74583" lon="4.81217">
        <ele>226</ele>
        <time>2010-11-04T12:52:23Z</time>
      </trkpt>
      <trkpt lat="45.74607" lon="4.81231">
        <ele>233</ele>
        <time>2010-11-04T12:52:29Z</time>
      </trkpt>
      <trkpt lat="45.74611" lon="4.81233">
        <ele>233</ele>
        <time>2010-11-04T12:52:30Z</time>
      </trkpt>
      <trkpt lat="45.74614" lon="4.81236">
        <ele>233</ele>
        <time>2010-11-04T12:52:32Z</time>
      </trkpt>
      <trkpt lat="45.74616" lon="4.81235">
        <ele>234</ele>
        <time>2010-11-04T12:52:33Z</time>
      </trkpt>
      <trkpt lat="45.74619" lon="4.81235">
        <ele>234</ele>
        <time>2010-11-04T12:52:34Z</time>
      </trkpt>
      <trkpt lat="45.74622" lon="4.81233">
        <ele>234</ele>
        <time>2010-11-04T12:52:35Z</time>
      </trkpt>
      <trkpt lat="45.74625" lon="4.81233">
        <ele>235</ele>
        <time>2010-11-04T12:52:36Z</time>
      </trkpt>
      <trkpt lat="45.74628" lon="4.81233">
        <ele>235</ele>
        <time>2010-11-04T12:52:37Z</time>
      </trkpt>
      <trkpt lat="45.74631" lon="4.81233">
        <ele>235</ele>
        <time>2010-11-04T12:52:38Z</time>
      </trkpt>
      <trkpt lat="45.74634" lon="4.81232">
        <ele>235</ele>
        <time>2010-11-04T12:52:39Z</time>
      </trkpt>
      <trkpt lat="45.74638" lon="4.8123">
        <ele>236</ele>
        <time>2010-11-04T12:52:40Z</time>
      </trkpt>
      <trkpt lat="45.74648" lon="4.81227">
        <ele>236</ele>
        <time>2010-11-04T12:52:43Z</time>
      </trkpt>
      <trkpt lat="45.74679" lon="4.8123">
        <ele>244</ele>
        <time>2010-11-04T12:52:52Z</time>
      </trkpt>
      <trkpt lat="45.74711" lon="4.81238">
        <ele>248</ele>
        <time>2010-11-04T12:53:02Z</time>
      </trkpt>
      <trkpt lat="45.74734" lon="4.81246">
        <ele>249</ele>
        <time>2010-11-04T12:53:10Z</time>
      </trkpt>
      <trkpt lat="45.74738" lon="4.81248">
        <ele>249</ele>
        <time>2010-11-04T12:53:11Z</time>
      </trkpt>
      <trkpt lat="45.74748" lon="4.81268">
        <ele>241</ele>
        <time>2010-11-04T12:53:16Z</time>
      </trkpt>
      <trkpt lat="45.74764" lon="4.81303">
        <ele>245</ele>
        <time>2010-11-04T12:53:25Z</time>
      </trkpt>
      <trkpt lat="45.74771" lon="4.81311">
        <ele>245</ele>
        <time>2010-11-04T12:53:28Z</time>
      </trkpt>
      <trkpt lat="45.74792" lon="4.81334">
        <ele>236</ele>
        <time>2010-11-04T12:53:36Z</time>
      </trkpt>
      <trkpt lat="45.74824" lon="4.81351">
        <ele>239</ele>
        <time>2010-11-04T12:53:47Z</time>
      </trkpt>
      <trkpt lat="45.74851" lon="4.81379">
        <ele>241</ele>
        <time>2010-11-04T12:53:56Z</time>
      </trkpt>
      <trkpt lat="45.74859" lon="4.81395">
        <ele>240</ele>
        <time>2010-11-04T12:54:00Z</time>
      </trkpt>
      <trkpt lat="45.74863" lon="4.81399">
        <ele>240</ele>
        <time>2010-11-04T12:54:01Z</time>
      </trkpt>
      <trkpt lat="45.74871" lon="4.81405">
        <ele>240</ele>
        <time>2010-11-04T12:54:04Z</time>
      </trkpt>
      <trkpt lat="45.74873" lon="4.81406">
        <ele>240</ele>
        <time>2010-11-04T12:54:05Z</time>
      </trkpt>
      <trkpt lat="45.74876" lon="4.81409">
        <ele>240</ele>
        <time>2010-11-04T12:54:06Z</time>
      </trkpt>
      <trkpt lat="45.74896" lon="4.81428">
        <ele>230</ele>
        <time>2010-11-04T12:54:14Z</time>
      </trkpt>
      <trkpt lat="45.74917" lon="4.81439">
        <ele>230</ele>
        <time>2010-11-04T12:54:21Z</time>
      </trkpt>
      <trkpt lat="45.74938" lon="4.81448">
        <ele>235</ele>
        <time>2010-11-04T12:54:31Z</time>
      </trkpt>
      <trkpt lat="45.74954" lon="4.8146">
        <ele>234</ele>
        <time>2010-11-04T12:54:36Z</time>
      </trkpt>
      <trkpt lat="45.74959" lon="4.81462">
        <ele>234</ele>
        <time>2010-11-04T12:54:38Z</time>
      </trkpt>
      <trkpt lat="45.74962" lon="4.81462">
        <ele>235</ele>
        <time>2010-11-04T12:54:39Z</time>
      </trkpt>
      <trkpt lat="45.74966" lon="4.81462">
        <ele>235</ele>
        <time>2010-11-04T12:54:40Z</time>
      </trkpt>
      <trkpt lat="45.74971" lon="4.81463">
        <ele>235</ele>
        <time>2010-11-04T12:54:41Z</time>
      </trkpt>
      <trkpt lat="45.74975" lon="4.81464">
        <ele>235</ele>
        <time>2010-11-04T12:54:42Z</time>
      </trkpt>
      <trkpt lat="45.74985" lon="4.81466">
        <ele>235</ele>
        <time>2010-11-04T12:54:45Z</time>
      </trkpt>
      <trkpt lat="45.74988" lon="4.81466">
        <ele>235</ele>
        <time>2010-11-04T12:54:46Z</time>
      </trkpt>
      <trkpt lat="45.74991" lon="4.81466">
        <ele>235</ele>
        <time>2010-11-04T12:54:47Z</time>
      </trkpt>
      <trkpt lat="45.74993" lon="4.81466">
        <ele>235</ele>
        <time>2010-11-04T12:54:48Z</time>
      </trkpt>
      <trkpt lat="45.74996" lon="4.81466">
        <ele>235</ele>
        <time>2010-11-04T12:54:49Z</time>
      </trkpt>
      <trkpt lat="45.74999" lon="4.81465">
        <ele>235</ele>
        <time>2010-11-04T12:54:50Z</time>
      </trkpt>
      <trkpt lat="45.75029" lon="4.8146">
        <ele>242</ele>
        <time>2010-11-04T12:54:59Z</time>
      </trkpt>
      <trkpt lat="45.75046" lon="4.81456">
        <ele>243</ele>
        <time>2010-11-04T12:55:04Z</time>
      </trkpt>
      <trkpt lat="45.75054" lon="4.81457">
        <ele>243</ele>
        <time>2010-11-04T12:55:07Z</time>
      </trkpt>
      <trkpt lat="45.75061" lon="4.81478">
        <ele>242</ele>
        <time>2010-11-04T12:55:11Z</time>
      </trkpt>
      <trkpt lat="45.75061" lon="4.81483">
        <ele>242</ele>
        <time>2010-11-04T12:55:12Z</time>
      </trkpt>
      <trkpt lat="45.75061" lon="4.81527">
        <ele>231</ele>
        <time>2010-11-04T12:55:21Z</time>
      </trkpt>
      <trkpt lat="45.75062" lon="4.81532">
        <ele>231</ele>
        <time>2010-11-04T12:55:22Z</time>
      </trkpt>
      <trkpt lat="45.75065" lon="4.81559">
        <ele>229</ele>
        <time>2010-11-04T12:55:28Z</time>
      </trkpt>
      <trkpt lat="45.75067" lon="4.81563">
        <ele>229</ele>
        <time>2010-11-04T12:55:29Z</time>
      </trkpt>
      <trkpt lat="45.75071" lon="4.81572">
        <ele>230</ele>
        <time>2010-11-04T12:55:31Z</time>
      </trkpt>
      <trkpt lat="45.75085" lon="4.81599">
        <ele>233</ele>
        <time>2010-11-04T12:55:37Z</time>
      </trkpt>
      <trkpt lat="45.75088" lon="4.81603">
        <ele>233</ele>
        <time>2010-11-04T12:55:38Z</time>
      </trkpt>
      <trkpt lat="45.75091" lon="4.81607">
        <ele>233</ele>
        <time>2010-11-04T12:55:39Z</time>
      </trkpt>
      <trkpt lat="45.75092" lon="4.81611">
        <ele>233</ele>
        <time>2010-11-04T12:55:40Z</time>
      </trkpt>
      <trkpt lat="45.75094" lon="4.81615">
        <ele>233</ele>
        <time>2010-11-04T12:55:41Z</time>
      </trkpt>
      <trkpt lat="45.75095" lon="4.81621">
        <ele>233</ele>
        <time>2010-11-04T12:55:42Z</time>
      </trkpt>
      <trkpt lat="45.75097" lon="4.81626">
        <ele>232</ele>
        <time>2010-11-04T12:55:43Z</time>
      </trkpt>
      <trkpt lat="45.75098" lon="4.81631">
        <ele>232</ele>
        <time>2010-11-04T12:55:44Z</time>
      </trkpt>
      <trkpt lat="45.75099" lon="4.81635">
        <ele>232</ele>
        <time>2010-11-04T12:55:45Z</time>
      </trkpt>
      <trkpt lat="45.751" lon="4.81638">
        <ele>232</ele>
        <time>2010-11-04T12:55:46Z</time>
      </trkpt>
      <trkpt lat="45.751" lon="4.81641">
        <ele>231</ele>
        <time>2010-11-04T12:55:47Z</time>
      </trkpt>
      <trkpt lat="45.75101" lon="4.81644">
        <ele>231</ele>
        <time>2010-11-04T12:55:48Z</time>
      </trkpt>
      <trkpt lat="45.75103" lon="4.81646">
        <ele>231</ele>
        <time>2010-11-04T12:55:49Z</time>
      </trkpt>
      <trkpt lat="45.75105" lon="4.81651">
        <ele>231</ele>
        <time>2010-11-04T12:55:50Z</time>
      </trkpt>
      <trkpt lat="45.75107" lon="4.81656">
        <ele>231</ele>
        <time>2010-11-04T12:55:51Z</time>
      </trkpt>
      <trkpt lat="45.75109" lon="4.81662">
        <ele>231</ele>
        <time>2010-11-04T12:55:52Z</time>
      </trkpt>
      <trkpt lat="45.75117" lon="4.81685">
        <ele>224</ele>
        <time>2010-11-04T12:55:57Z</time>
      </trkpt>
      <trkpt lat="45.75118" lon="4.81691">
        <ele>224</ele>
        <time>2010-11-04T12:55:58Z</time>
      </trkpt>
      <trkpt lat="45.75118" lon="4.81694">
        <ele>224</ele>
        <time>2010-11-04T12:55:59Z</time>
      </trkpt>
      <trkpt lat="45.75119" lon="4.81699">
        <ele>223</ele>
        <time>2010-11-04T12:56:00Z</time>
      </trkpt>
      <trkpt lat="45.7512" lon="4.81704">
        <ele>223</ele>
        <time>2010-11-04T12:56:01Z</time>
      </trkpt>
      <trkpt lat="45.7512" lon="4.81711">
        <ele>222</ele>
        <time>2010-11-04T12:56:02Z</time>
      </trkpt>
      <trkpt lat="45.7512" lon="4.81716">
        <ele>222</ele>
        <time>2010-11-04T12:56:03Z</time>
      </trkpt>
      <trkpt lat="45.75122" lon="4.81743">
        <ele>220</ele>
        <time>2010-11-04T12:56:08Z</time>
      </trkpt>
      <trkpt lat="45.75122" lon="4.81748">
        <ele>220</ele>
        <time>2010-11-04T12:56:09Z</time>
      </trkpt>
      <trkpt lat="45.75122" lon="4.81754">
        <ele>210</ele>
        <time>2010-11-04T12:56:10Z</time>
      </trkpt>
      <trkpt lat="45.75121" lon="4.81761">
        <ele>209</ele>
        <time>2010-11-04T12:56:11Z</time>
      </trkpt>
      <trkpt lat="45.7512" lon="4.81768">
        <ele>209</ele>
        <time>2010-11-04T12:56:12Z</time>
      </trkpt>
      <trkpt lat="45.7512" lon="4.81774">
        <ele>208</ele>
        <time>2010-11-04T12:56:13Z</time>
      </trkpt>
      <trkpt lat="45.75122" lon="4.81779">
        <ele>208</ele>
        <time>2010-11-04T12:56:14Z</time>
      </trkpt>
      <trkpt lat="45.75124" lon="4.81785">
        <ele>208</ele>
        <time>2010-11-04T12:56:15Z</time>
      </trkpt>
      <trkpt lat="45.75126" lon="4.81791">
        <ele>207</ele>
        <time>2010-11-04T12:56:16Z</time>
      </trkpt>
      <trkpt lat="45.75128" lon="4.81796">
        <ele>207</ele>
        <time>2010-11-04T12:56:17Z</time>
      </trkpt>
      <trkpt lat="45.75136" lon="4.81815">
        <ele>207</ele>
        <time>2010-11-04T12:56:21Z</time>
      </trkpt>
      <trkpt lat="45.75139" lon="4.8182">
        <ele>207</ele>
        <time>2010-11-04T12:56:22Z</time>
      </trkpt>
      <trkpt lat="45.75142" lon="4.81826">
        <ele>207</ele>
        <time>2010-11-04T12:56:23Z</time>
      </trkpt>
      <trkpt lat="45.75145" lon="4.81832">
        <ele>207</ele>
        <time>2010-11-04T12:56:24Z</time>
      </trkpt>
      <trkpt lat="45.75153" lon="4.8184">
        <ele>201</ele>
        <time>2010-11-04T12:56:26Z</time>
      </trkpt>
      <trkpt lat="45.75157" lon="4.81845">
        <ele>202</ele>
        <time>2010-11-04T12:56:27Z</time>
      </trkpt>
      <trkpt lat="45.75161" lon="4.81849">
        <ele>201</ele>
        <time>2010-11-04T12:56:28Z</time>
      </trkpt>
      <trkpt lat="45.75164" lon="4.81854">
        <ele>200</ele>
        <time>2010-11-04T12:56:29Z</time>
      </trkpt>
      <trkpt lat="45.75167" lon="4.81858">
        <ele>205</ele>
        <time>2010-11-04T12:56:30Z</time>
      </trkpt>
      <trkpt lat="45.75175" lon="4.81876">
        <ele>204</ele>
        <time>2010-11-04T12:56:33Z</time>
      </trkpt>
      <trkpt lat="45.75178" lon="4.81881">
        <ele>203</ele>
        <time>2010-11-04T12:56:34Z</time>
      </trkpt>
      <trkpt lat="45.7518" lon="4.81886">
        <ele>203</ele>
        <time>2010-11-04T12:56:35Z</time>
      </trkpt>
      <trkpt lat="45.7518" lon="4.81891">
        <ele>202</ele>
        <time>2010-11-04T12:56:36Z</time>
      </trkpt>
      <trkpt lat="45.75181" lon="4.81896">
        <ele>202</ele>
        <time>2010-11-04T12:56:37Z</time>
      </trkpt>
      <trkpt lat="45.75181" lon="4.81902">
        <ele>201</ele>
        <time>2010-11-04T12:56:38Z</time>
      </trkpt>
      <trkpt lat="45.75183" lon="4.81907">
        <ele>201</ele>
        <time>2010-11-04T12:56:39Z</time>
      </trkpt>
      <trkpt lat="45.75185" lon="4.81913">
        <ele>201</ele>
        <time>2010-11-04T12:56:40Z</time>
      </trkpt>
      <trkpt lat="45.75187" lon="4.81918">
        <ele>194</ele>
        <time>2010-11-04T12:56:41Z</time>
      </trkpt>
      <trkpt lat="45.75189" lon="4.81924">
        <ele>194</ele>
        <time>2010-11-04T12:56:42Z</time>
      </trkpt>
      <trkpt lat="45.75189" lon="4.81928">
        <ele>194</ele>
        <time>2010-11-04T12:56:43Z</time>
      </trkpt>
      <trkpt lat="45.75189" lon="4.81932">
        <ele>193</ele>
        <time>2010-11-04T12:56:44Z</time>
      </trkpt>
      <trkpt lat="45.75191" lon="4.8194">
        <ele>193</ele>
        <time>2010-11-04T12:56:49Z</time>
      </trkpt>
      <trkpt lat="45.75192" lon="4.81943">
        <ele>192</ele>
        <time>2010-11-04T12:56:51Z</time>
      </trkpt>
      <trkpt lat="45.75203" lon="4.81952">
        <ele>192</ele>
        <time>2010-11-04T12:56:56Z</time>
      </trkpt>
      <trkpt lat="45.75207" lon="4.81954">
        <ele>192</ele>
        <time>2010-11-04T12:56:57Z</time>
      </trkpt>
      <trkpt lat="45.7521" lon="4.81956">
        <ele>192</ele>
        <time>2010-11-04T12:56:58Z</time>
      </trkpt>
      <trkpt lat="45.75214" lon="4.81957">
        <ele>192</ele>
        <time>2010-11-04T12:56:59Z</time>
      </trkpt>
      <trkpt lat="45.75216" lon="4.81958">
        <ele>192</ele>
        <time>2010-11-04T12:57:00Z</time>
      </trkpt>
      <trkpt lat="45.75219" lon="4.81958">
        <ele>192</ele>
        <time>2010-11-04T12:57:01Z</time>
      </trkpt>
      <trkpt lat="45.75221" lon="4.81956">
        <ele>192</ele>
        <time>2010-11-04T12:57:02Z</time>
      </trkpt>
      <trkpt lat="45.75225" lon="4.81956">
        <ele>192</ele>
        <time>2010-11-04T12:57:03Z</time>
      </trkpt>
      <trkpt lat="45.75227" lon="4.81959">
        <ele>192</ele>
        <time>2010-11-04T12:57:04Z</time>
      </trkpt>
      <trkpt lat="45.75231" lon="4.81966">
        <ele>191</ele>
        <time>2010-11-04T12:57:08Z</time>
      </trkpt>
      <trkpt lat="45.75224" lon="4.81975">
        <ele>191</ele>
        <time>2010-11-04T12:57:14Z</time>
      </trkpt>
      <trkpt lat="45.75222" lon="4.81976">
        <ele>190</ele>
        <time>2010-11-04T12:57:16Z</time>
      </trkpt>
      <trkpt lat="45.75217" lon="4.8198">
        <ele>190</ele>
        <time>2010-11-04T12:57:19Z</time>
      </trkpt>
      <trkpt lat="45.75215" lon="4.81982">
        <ele>190</ele>
        <time>2010-11-04T12:57:20Z</time>
      </trkpt>
      <trkpt lat="45.75213" lon="4.81983">
        <ele>190</ele>
        <time>2010-11-04T12:57:21Z</time>
      </trkpt>
      <trkpt lat="45.75211" lon="4.81984">
        <ele>189</ele>
        <time>2010-11-04T12:57:22Z</time>
      </trkpt>
      <trkpt lat="45.75209" lon="4.81986">
        <ele>189</ele>
        <time>2010-11-04T12:57:23Z</time>
      </trkpt>
      <trkpt lat="45.75208" lon="4.81987">
        <ele>189</ele>
        <time>2010-11-04T12:57:24Z</time>
      </trkpt>
      <trkpt lat="45.75205" lon="4.81988">
        <ele>189</ele>
        <time>2010-11-04T12:57:25Z</time>
      </trkpt>
      <trkpt lat="45.75187" lon="4.81995">
        <ele>186</ele>
        <time>2010-11-04T12:57:30Z</time>
      </trkpt>
      <trkpt lat="45.75176" lon="4.82002">
        <ele>180</ele>
        <time>2010-11-04T12:57:34Z</time>
      </trkpt>
      <trkpt lat="45.75167" lon="4.82009">
        <ele>180</ele>
        <time>2010-11-04T12:57:37Z</time>
      </trkpt>
      <trkpt lat="45.75156" lon="4.82026">
        <ele>174</ele>
        <time>2010-11-04T12:57:42Z</time>
      </trkpt>
      <trkpt lat="45.75152" lon="4.82033">
        <ele>174</ele>
        <time>2010-11-04T12:57:44Z</time>
      </trkpt>
      <trkpt lat="45.7515" lon="4.82036">
        <ele>174</ele>
        <time>2010-11-04T12:57:45Z</time>
      </trkpt>
      <trkpt lat="45.75139" lon="4.82059">
        <ele>173</ele>
        <time>2010-11-04T12:57:51Z</time>
      </trkpt>
      <trkpt lat="45.75134" lon="4.82067">
        <ele>172</ele>
        <time>2010-11-04T12:57:56Z</time>
      </trkpt>
      <trkpt lat="45.75133" lon="4.82069">
        <ele>172</ele>
        <time>2010-11-04T12:57:57Z</time>
      </trkpt>
      <trkpt lat="45.75131" lon="4.82076">
        <ele>172</ele>
        <time>2010-11-04T12:58:00Z</time>
      </trkpt>
      <trkpt lat="45.75132" lon="4.82086">
        <ele>170</ele>
        <time>2010-11-04T12:58:03Z</time>
      </trkpt>
      <trkpt lat="45.7513" lon="4.82089">
        <ele>170</ele>
        <time>2010-11-04T12:58:04Z</time>
      </trkpt>
      <trkpt lat="45.75129" lon="4.82093">
        <ele>169</ele>
        <time>2010-11-04T12:58:05Z</time>
      </trkpt>
      <trkpt lat="45.75129" lon="4.82097">
        <ele>169</ele>
        <time>2010-11-04T12:58:06Z</time>
      </trkpt>
      <trkpt lat="45.7513" lon="4.821">
        <ele>169</ele>
        <time>2010-11-04T12:58:07Z</time>
      </trkpt>
      <trkpt lat="45.75131" lon="4.82103">
        <ele>170</ele>
        <time>2010-11-04T12:58:08Z</time>
      </trkpt>
      <trkpt lat="45.75133" lon="4.82106">
        <ele>170</ele>
        <time>2010-11-04T12:58:09Z</time>
      </trkpt>
      <trkpt lat="45.75134" lon="4.82109">
        <ele>170</ele>
        <time>2010-11-04T12:58:10Z</time>
      </trkpt>
      <trkpt lat="45.75134" lon="4.82111">
        <ele>170</ele>
        <time>2010-11-04T12:58:11Z</time>
      </trkpt>
      <trkpt lat="45.75135" lon="4.82112">
        <ele>170</ele>
        <time>2010-11-04T12:58:12Z</time>
      </trkpt>
      <trkpt lat="45.75136" lon="4.82113">
        <ele>170</ele>
        <time>2010-11-04T12:58:13Z</time>
      </trkpt>
      <trkpt lat="45.75138" lon="4.82114">
        <ele>170</ele>
        <time>2010-11-04T12:58:14Z</time>
      </trkpt>
      <trkpt lat="45.75144" lon="4.82117">
        <ele>170</ele>
        <time>2010-11-04T12:58:18Z</time>
      </trkpt>
      <trkpt lat="45.75147" lon="4.82118">
        <ele>170</ele>
        <time>2010-11-04T12:58:20Z</time>
      </trkpt>
      <trkpt lat="45.7515" lon="4.82131">
        <ele>170</ele>
        <time>2010-11-04T12:58:22Z</time>
      </trkpt>
      <trkpt lat="45.75152" lon="4.8214">
        <ele>169</ele>
        <time>2010-11-04T12:58:23Z</time>
      </trkpt>
      <trkpt lat="45.75153" lon="4.82146">
        <ele>169</ele>
        <time>2010-11-04T12:58:24Z</time>
      </trkpt>
      <trkpt lat="45.7515" lon="4.82182">
        <ele>168</ele>
        <time>2010-11-04T12:58:31Z</time>
      </trkpt>
      <trkpt lat="45.75148" lon="4.82187">
        <ele>167</ele>
        <time>2010-11-04T12:58:32Z</time>
      </trkpt>
      <trkpt lat="45.75144" lon="4.82203">
        <ele>167</ele>
        <time>2010-11-04T12:58:36Z</time>
      </trkpt>
      <trkpt lat="45.7514" lon="4.8221">
        <ele>167</ele>
        <time>2010-11-04T12:58:38Z</time>
      </trkpt>
      <trkpt lat="45.75139" lon="4.82214">
        <ele>167</ele>
        <time>2010-11-04T12:58:39Z</time>
      </trkpt>
      <trkpt lat="45.75138" lon="4.82224">
        <ele>166</ele>
        <time>2010-11-04T12:58:41Z</time>
      </trkpt>
      <trkpt lat="45.75137" lon="4.82228">
        <ele>166</ele>
        <time>2010-11-04T12:58:42Z</time>
      </trkpt>
      <trkpt lat="45.75133" lon="4.82238">
        <ele>166</ele>
        <time>2010-11-04T12:58:45Z</time>
      </trkpt>
      <trkpt lat="45.75131" lon="4.82242">
        <ele>166</ele>
        <time>2010-11-04T12:58:46Z</time>
      </trkpt>
      <trkpt lat="45.7513" lon="4.82247">
        <ele>166</ele>
        <time>2010-11-04T12:58:47Z</time>
      </trkpt>
      <trkpt lat="45.75129" lon="4.8225">
        <ele>166</ele>
        <time>2010-11-04T12:58:48Z</time>
      </trkpt>
      <trkpt lat="45.75126" lon="4.82254">
        <ele>167</ele>
        <time>2010-11-04T12:58:49Z</time>
      </trkpt>
      <trkpt lat="45.75125" lon="4.82258">
        <ele>167</ele>
        <time>2010-11-04T12:58:50Z</time>
      </trkpt>
      <trkpt lat="45.75124" lon="4.82261">
        <ele>167</ele>
        <time>2010-11-04T12:58:51Z</time>
      </trkpt>
      <trkpt lat="45.75124" lon="4.82266">
        <ele>167</ele>
        <time>2010-11-04T12:58:52Z</time>
      </trkpt>
      <trkpt lat="45.75123" lon="4.8227">
        <ele>167</ele>
        <time>2010-11-04T12:58:53Z</time>
      </trkpt>
      <trkpt lat="45.75122" lon="4.82275">
        <ele>167</ele>
        <time>2010-11-04T12:58:54Z</time>
      </trkpt>
      <trkpt lat="45.7512" lon="4.82279">
        <ele>167</ele>
        <time>2010-11-04T12:58:55Z</time>
      </trkpt>
      <trkpt lat="45.75119" lon="4.82282">
        <ele>168</ele>
        <time>2010-11-04T12:58:56Z</time>
      </trkpt>
      <trkpt lat="45.75103" lon="4.82309">
        <ele>168</ele>
        <time>2010-11-04T12:59:05Z</time>
      </trkpt>
      <trkpt lat="45.75089" lon="4.82302">
        <ele>168</ele>
        <time>2010-11-04T12:59:14Z</time>
      </trkpt>
      <trkpt lat="45.75066" lon="4.82268">
        <ele>169</ele>
        <time>2010-11-04T12:59:25Z</time>
      </trkpt>
      <trkpt lat="45.75045" lon="4.82241">
        <ele>169</ele>
        <time>2010-11-04T12:59:33Z</time>
      </trkpt>
      <trkpt lat="45.75043" lon="4.82237">
        <ele>169</ele>
        <time>2010-11-04T12:59:34Z</time>
      </trkpt>
      <trkpt lat="45.7504" lon="4.82234">
        <ele>169</ele>
        <time>2010-11-04T12:59:35Z</time>
      </trkpt>
      <trkpt lat="45.75037" lon="4.82231">
        <ele>169</ele>
        <time>2010-11-04T12:59:36Z</time>
      </trkpt>
      <trkpt lat="45.75035" lon="4.82228">
        <ele>169</ele>
        <time>2010-11-04T12:59:37Z</time>
      </trkpt>
      <trkpt lat="45.75033" lon="4.82226">
        <ele>169</ele>
        <time>2010-11-04T12:59:38Z</time>
      </trkpt>
      <trkpt lat="45.7503" lon="4.82224">
        <ele>169</ele>
        <time>2010-11-04T12:59:39Z</time>
      </trkpt>
      <trkpt lat="45.75028" lon="4.82221">
        <ele>169</ele>
        <time>2010-11-04T12:59:40Z</time>
      </trkpt>
      <trkpt lat="45.75026" lon="4.82218">
        <ele>169</ele>
        <time>2010-11-04T12:59:41Z</time>
      </trkpt>
      <trkpt lat="45.75024" lon="4.82215">
        <ele>169</ele>
        <time>2010-11-04T12:59:42Z</time>
      </trkpt>
      <trkpt lat="45.75022" lon="4.82212">
        <ele>169</ele>
        <time>2010-11-04T12:59:43Z</time>
      </trkpt>
      <trkpt lat="45.75005" lon="4.82186">
        <ele>168</ele>
        <time>2010-11-04T12:59:51Z</time>
      </trkpt>
      <trkpt lat="45.74999" lon="4.82181">
        <ele>169</ele>
        <time>2010-11-04T12:59:56Z</time>
      </trkpt>
      <trkpt lat="45.74982" lon="4.8215">
        <ele>168</ele>
        <time>2010-11-04T13:00:04Z</time>
      </trkpt>
      <trkpt lat="45.74972" lon="4.82137">
        <ele>168</ele>
        <time>2010-11-04T13:00:09Z</time>
      </trkpt>
      <trkpt lat="45.74969" lon="4.82131">
        <ele>167</ele>
        <time>2010-11-04T13:00:11Z</time>
      </trkpt>
      <trkpt lat="45.74961" lon="4.82119">
        <ele>167</ele>
        <time>2010-11-04T13:00:15Z</time>
      </trkpt>
      <trkpt lat="45.74954" lon="4.82109">
        <ele>167</ele>
        <time>2010-11-04T13:00:23Z</time>
      </trkpt>
      <trkpt lat="45.7495" lon="4.82111">
        <ele>167</ele>
        <time>2010-11-04T13:00:26Z</time>
      </trkpt>
      <trkpt lat="45.74942" lon="4.82136">
        <ele>168</ele>
        <time>2010-11-04T13:00:34Z</time>
      </trkpt>
      <trkpt lat="45.74931" lon="4.82167">
        <ele>170</ele>
        <time>2010-11-04T13:00:43Z</time>
      </trkpt>
      <trkpt lat="45.74922" lon="4.8218">
        <ele>170</ele>
        <time>2010-11-04T13:00:47Z</time>
      </trkpt>
      <trkpt lat="45.74917" lon="4.82194">
        <ele>170</ele>
        <time>2010-11-04T13:00:50Z</time>
      </trkpt>
      <trkpt lat="45.74908" lon="4.82216">
        <ele>170</ele>
        <time>2010-11-04T13:00:57Z</time>
      </trkpt>
      <trkpt lat="45.74907" lon="4.8222">
        <ele>170</ele>
        <time>2010-11-04T13:00:58Z</time>
      </trkpt>
      <trkpt lat="45.7489" lon="4.82251">
        <ele>172</ele>
        <time>2010-11-04T13:01:06Z</time>
      </trkpt>
      <trkpt lat="45.74869" lon="4.82311">
        <ele>173</ele>
        <time>2010-11-04T13:01:21Z</time>
      </trkpt>
      <trkpt lat="45.74854" lon="4.82359">
        <ele>175</ele>
        <time>2010-11-04T13:01:30Z</time>
      </trkpt>
      <trkpt lat="45.74849" lon="4.8237">
        <ele>175</ele>
        <time>2010-11-04T13:01:34Z</time>
      </trkpt>
      <trkpt lat="45.74845" lon="4.82379">
        <ele>175</ele>
        <time>2010-11-04T13:01:36Z</time>
      </trkpt>
      <trkpt lat="45.74843" lon="4.82382">
        <ele>175</ele>
        <time>2010-11-04T13:01:37Z</time>
      </trkpt>
      <trkpt lat="45.74839" lon="4.82389">
        <ele>175</ele>
        <time>2010-11-04T13:01:39Z</time>
      </trkpt>
      <trkpt lat="45.74825" lon="4.82415">
        <ele>175</ele>
        <time>2010-11-04T13:01:46Z</time>
      </trkpt>
      <trkpt lat="45.74817" lon="4.82437">
        <ele>175</ele>
        <time>2010-11-04T13:01:52Z</time>
      </trkpt>
      <trkpt lat="45.74816" lon="4.82439">
        <ele>175</ele>
        <time>2010-11-04T13:01:53Z</time>
      </trkpt>
      <trkpt lat="45.74814" lon="4.82441">
        <ele>175</ele>
        <time>2010-11-04T13:01:54Z</time>
      </trkpt>
      <trkpt lat="45.74812" lon="4.82443">
        <ele>175</ele>
        <time>2010-11-04T13:01:55Z</time>
      </trkpt>
      <trkpt lat="45.74809" lon="4.82447">
        <ele>175</ele>
        <time>2010-11-04T13:01:56Z</time>
      </trkpt>
      <trkpt lat="45.74807" lon="4.82451">
        <ele>176</ele>
        <time>2010-11-04T13:01:57Z</time>
      </trkpt>
      <trkpt lat="45.74806" lon="4.82455">
        <ele>176</ele>
        <time>2010-11-04T13:01:58Z</time>
      </trkpt>
      <trkpt lat="45.74805" lon="4.8246">
        <ele>176</ele>
        <time>2010-11-04T13:01:59Z</time>
      </trkpt>
      <trkpt lat="45.74801" lon="4.82467">
        <ele>176</ele>
        <time>2010-11-04T13:02:01Z</time>
      </trkpt>
      <trkpt lat="45.74799" lon="4.8247">
        <ele>176</ele>
        <time>2010-11-04T13:02:02Z</time>
      </trkpt>
      <trkpt lat="45.74795" lon="4.82473">
        <ele>176</ele>
        <time>2010-11-04T13:02:03Z</time>
      </trkpt>
      <trkpt lat="45.74788" lon="4.82479">
        <ele>176</ele>
        <time>2010-11-04T13:02:05Z</time>
      </trkpt>
      <trkpt lat="45.74786" lon="4.82482">
        <ele>176</ele>
        <time>2010-11-04T13:02:06Z</time>
      </trkpt>
      <trkpt lat="45.74785" lon="4.82486">
        <ele>176</ele>
        <time>2010-11-04T13:02:07Z</time>
      </trkpt>
      <trkpt lat="45.74783" lon="4.82488">
        <ele>176</ele>
        <time>2010-11-04T13:02:08Z</time>
      </trkpt>
      <trkpt lat="45.74782" lon="4.8249">
        <ele>176</ele>
        <time>2010-11-04T13:02:09Z</time>
      </trkpt>
      <trkpt lat="45.74776" lon="4.82495">
        <ele>175</ele>
        <time>2010-11-04T13:02:23Z</time>
      </trkpt>
      <trkpt lat="45.74776" lon="4.82498">
        <ele>175</ele>
        <time>2010-11-04T13:02:24Z</time>
      </trkpt>
      <trkpt lat="45.74774" lon="4.82502">
        <ele>176</ele>
        <time>2010-11-04T13:02:25Z</time>
      </trkpt>
      <trkpt lat="45.7477" lon="4.82508">
        <ele>176</ele>
        <time>2010-11-04T13:02:28Z</time>
      </trkpt>
      <trkpt lat="45.7477" lon="4.82511">
        <ele>176</ele>
        <time>2010-11-04T13:02:29Z</time>
      </trkpt>
      <trkpt lat="45.74768" lon="4.82515">
        <ele>176</ele>
        <time>2010-11-04T13:02:30Z</time>
      </trkpt>
      <trkpt lat="45.74759" lon="4.82538">
        <ele>176</ele>
        <time>2010-11-04T13:02:36Z</time>
      </trkpt>
      <trkpt lat="45.74756" lon="4.82546">
        <ele>176</ele>
        <time>2010-11-04T13:02:38Z</time>
      </trkpt>
      <trkpt lat="45.74754" lon="4.8255">
        <ele>176</ele>
        <time>2010-11-04T13:02:39Z</time>
      </trkpt>
      <trkpt lat="45.74754" lon="4.82553">
        <ele>176</ele>
        <time>2010-11-04T13:02:40Z</time>
      </trkpt>
      <trkpt lat="45.74752" lon="4.82557">
        <ele>176</ele>
        <time>2010-11-04T13:02:41Z</time>
      </trkpt>
      <trkpt lat="45.74751" lon="4.82561">
        <ele>176</ele>
        <time>2010-11-04T13:02:42Z</time>
      </trkpt>
      <trkpt lat="45.7475" lon="4.82564">
        <ele>175</ele>
        <time>2010-11-04T13:02:43Z</time>
      </trkpt>
      <trkpt lat="45.74749" lon="4.82567">
        <ele>175</ele>
        <time>2010-11-04T13:02:44Z</time>
      </trkpt>
      <trkpt lat="45.74742" lon="4.82592">
        <ele>174</ele>
        <time>2010-11-04T13:02:51Z</time>
      </trkpt>
      <trkpt lat="45.74741" lon="4.82594">
        <ele>174</ele>
        <time>2010-11-04T13:02:52Z</time>
      </trkpt>
      <trkpt lat="45.74739" lon="4.82616">
        <ele>174</ele>
        <time>2010-11-04T13:02:58Z</time>
      </trkpt>
      <trkpt lat="45.74721" lon="4.82654">
        <ele>173</ele>
        <time>2010-11-04T13:03:06Z</time>
      </trkpt>
      <trkpt lat="45.74706" lon="4.82696">
        <ele>172</ele>
        <time>2010-11-04T13:03:17Z</time>
      </trkpt>
      <trkpt lat="45.74699" lon="4.82721">
        <ele>172</ele>
        <time>2010-11-04T13:03:23Z</time>
      </trkpt>
      <trkpt lat="45.74697" lon="4.82728">
        <ele>172</ele>
        <time>2010-11-04T13:03:25Z</time>
      </trkpt>
      <trkpt lat="45.74686" lon="4.82755">
        <ele>172</ele>
        <time>2010-11-04T13:03:32Z</time>
      </trkpt>
      <trkpt lat="45.74672" lon="4.82794">
        <ele>173</ele>
        <time>2010-11-04T13:03:42Z</time>
      </trkpt>
      <trkpt lat="45.74659" lon="4.82809">
        <ele>171</ele>
        <time>2010-11-04T13:03:48Z</time>
      </trkpt>
      <trkpt lat="45.74651" lon="4.82835">
        <ele>171</ele>
        <time>2010-11-04T13:03:56Z</time>
      </trkpt>
      <trkpt lat="45.7466" lon="4.82845">
        <ele>171</ele>
        <time>2010-11-04T13:04:01Z</time>
      </trkpt>
      <trkpt lat="45.74663" lon="4.82848">
        <ele>171</ele>
        <time>2010-11-04T13:04:02Z</time>
      </trkpt>
      <trkpt lat="45.74666" lon="4.82851">
        <ele>171</ele>
        <time>2010-11-04T13:04:03Z</time>
      </trkpt>
      <trkpt lat="45.7467" lon="4.82857">
        <ele>173</ele>
        <time>2010-11-04T13:04:05Z</time>
      </trkpt>
      <trkpt lat="45.74672" lon="4.8286">
        <ele>173</ele>
        <time>2010-11-04T13:04:06Z</time>
      </trkpt>
      <trkpt lat="45.74674" lon="4.82863">
        <ele>173</ele>
        <time>2010-11-04T13:04:07Z</time>
      </trkpt>
      <trkpt lat="45.74677" lon="4.82866">
        <ele>172</ele>
        <time>2010-11-04T13:04:08Z</time>
      </trkpt>
      <trkpt lat="45.74679" lon="4.82869">
        <ele>172</ele>
        <time>2010-11-04T13:04:09Z</time>
      </trkpt>
      <trkpt lat="45.74681" lon="4.82871">
        <ele>172</ele>
        <time>2010-11-04T13:04:10Z</time>
      </trkpt>
      <trkpt lat="45.74683" lon="4.82874">
        <ele>172</ele>
        <time>2010-11-04T13:04:11Z</time>
      </trkpt>
      <trkpt lat="45.74686" lon="4.82876">
        <ele>172</ele>
        <time>2010-11-04T13:04:12Z</time>
      </trkpt>
      <trkpt lat="45.74688" lon="4.82878">
        <ele>172</ele>
        <time>2010-11-04T13:04:13Z</time>
      </trkpt>
      <trkpt lat="45.74691" lon="4.82881">
        <ele>172</ele>
        <time>2010-11-04T13:04:14Z</time>
      </trkpt>
      <trkpt lat="45.74693" lon="4.82884">
        <ele>172</ele>
        <time>2010-11-04T13:04:15Z</time>
      </trkpt>
      <trkpt lat="45.7471" lon="4.82895">
        <ele>172</ele>
        <time>2010-11-04T13:04:23Z</time>
      </trkpt>
      <trkpt lat="45.74714" lon="4.82893">
        <ele>172</ele>
        <time>2010-11-04T13:04:24Z</time>
      </trkpt>
      <trkpt lat="45.74718" lon="4.82895">
        <ele>172</ele>
        <time>2010-11-04T13:04:25Z</time>
      </trkpt>
      <trkpt lat="45.74727" lon="4.82906">
        <ele>173</ele>
        <time>2010-11-04T13:04:27Z</time>
      </trkpt>
      <trkpt lat="45.74731" lon="4.8291">
        <ele>173</ele>
        <time>2010-11-04T13:04:28Z</time>
      </trkpt>
      <trkpt lat="45.74735" lon="4.82912">
        <ele>173</ele>
        <time>2010-11-04T13:04:29Z</time>
      </trkpt>
      <trkpt lat="45.74737" lon="4.82913">
        <ele>173</ele>
        <time>2010-11-04T13:04:30Z</time>
      </trkpt>
      <trkpt lat="45.74739" lon="4.82915">
        <ele>173</ele>
        <time>2010-11-04T13:04:31Z</time>
      </trkpt>
      <trkpt lat="45.74742" lon="4.82918">
        <ele>172</ele>
        <time>2010-11-04T13:04:32Z</time>
      </trkpt>
      <trkpt lat="45.74744" lon="4.82919">
        <ele>172</ele>
        <time>2010-11-04T13:04:33Z</time>
      </trkpt>
      <trkpt lat="45.74747" lon="4.82921">
        <ele>172</ele>
        <time>2010-11-04T13:04:34Z</time>
      </trkpt>
      <trkpt lat="45.7475" lon="4.82921">
        <ele>172</ele>
        <time>2010-11-04T13:04:35Z</time>
      </trkpt>
      <trkpt lat="45.74753" lon="4.82922">
        <ele>172</ele>
        <time>2010-11-04T13:04:36Z</time>
      </trkpt>
      <trkpt lat="45.74755" lon="4.82925">
        <ele>172</ele>
        <time>2010-11-04T13:04:37Z</time>
      </trkpt>
      <trkpt lat="45.74756" lon="4.82927">
        <ele>172</ele>
        <time>2010-11-04T13:04:38Z</time>
      </trkpt>
      <trkpt lat="45.74758" lon="4.8293">
        <ele>172</ele>
        <time>2010-11-04T13:04:39Z</time>
      </trkpt>
      <trkpt lat="45.7476" lon="4.82933">
        <ele>172</ele>
        <time>2010-11-04T13:04:40Z</time>
      </trkpt>
      <trkpt lat="45.74763" lon="4.82937">
        <ele>171</ele>
        <time>2010-11-04T13:04:41Z</time>
      </trkpt>
      <trkpt lat="45.74768" lon="4.82944">
        <ele>171</ele>
        <time>2010-11-04T13:04:43Z</time>
      </trkpt>
      <trkpt lat="45.74772" lon="4.82945">
        <ele>171</ele>
        <time>2010-11-04T13:04:44Z</time>
      </trkpt>
      <trkpt lat="45.74775" lon="4.82948">
        <ele>171</ele>
        <time>2010-11-04T13:04:45Z</time>
      </trkpt>
      <trkpt lat="45.74779" lon="4.8295">
        <ele>171</ele>
        <time>2010-11-04T13:04:46Z</time>
      </trkpt>
      <trkpt lat="45.74781" lon="4.82952">
        <ele>171</ele>
        <time>2010-11-04T13:04:47Z</time>
      </trkpt>
      <trkpt lat="45.74784" lon="4.82955">
        <ele>171</ele>
        <time>2010-11-04T13:04:48Z</time>
      </trkpt>
      <trkpt lat="45.74792" lon="4.8296">
        <ele>170</ele>
        <time>2010-11-04T13:04:50Z</time>
      </trkpt>
      <trkpt lat="45.74795" lon="4.8296">
        <ele>170</ele>
        <time>2010-11-04T13:04:51Z</time>
      </trkpt>
      <trkpt lat="45.74798" lon="4.82962">
        <ele>170</ele>
        <time>2010-11-04T13:04:52Z</time>
      </trkpt>
      <trkpt lat="45.74801" lon="4.82964">
        <ele>170</ele>
        <time>2010-11-04T13:04:53Z</time>
      </trkpt>
      <trkpt lat="45.74804" lon="4.82967">
        <ele>170</ele>
        <time>2010-11-04T13:04:54Z</time>
      </trkpt>
      <trkpt lat="45.74807" lon="4.82965">
        <ele>170</ele>
        <time>2010-11-04T13:04:55Z</time>
      </trkpt>
      <trkpt lat="45.7481" lon="4.82963">
        <ele>170</ele>
        <time>2010-11-04T13:04:56Z</time>
      </trkpt>
      <trkpt lat="45.74811" lon="4.82961">
        <ele>170</ele>
        <time>2010-11-04T13:04:57Z</time>
      </trkpt>
      <trkpt lat="45.74813" lon="4.82959">
        <ele>170</ele>
        <time>2010-11-04T13:04:58Z</time>
      </trkpt>
      <trkpt lat="45.74814" lon="4.82957">
        <ele>170</ele>
        <time>2010-11-04T13:04:59Z</time>
      </trkpt>
      <trkpt lat="45.74816" lon="4.82952">
        <ele>170</ele>
        <time>2010-11-04T13:05:00Z</time>
      </trkpt>
      <trkpt lat="45.74819" lon="4.82947">
        <ele>170</ele>
        <time>2010-11-04T13:05:01Z</time>
      </trkpt>
      <trkpt lat="45.74821" lon="4.82942">
        <ele>171</ele>
        <time>2010-11-04T13:05:02Z</time>
      </trkpt>
      <trkpt lat="45.74822" lon="4.82937">
        <ele>171</ele>
        <time>2010-11-04T13:05:03Z</time>
      </trkpt>
      <trkpt lat="45.74824" lon="4.82933">
        <ele>171</ele>
        <time>2010-11-04T13:05:04Z</time>
      </trkpt>
      <trkpt lat="45.74826" lon="4.82929">
        <ele>171</ele>
        <time>2010-11-04T13:05:05Z</time>
      </trkpt>
      <trkpt lat="45.74837" lon="4.82892">
        <ele>172</ele>
        <time>2010-11-04T13:05:13Z</time>
      </trkpt>
      <trkpt lat="45.74839" lon="4.82889">
        <ele>173</ele>
        <time>2010-11-04T13:05:14Z</time>
      </trkpt>
      <trkpt lat="45.74844" lon="4.8288">
        <ele>173</ele>
        <time>2010-11-04T13:05:17Z</time>
      </trkpt>
      <trkpt lat="45.74852" lon="4.82856">
        <ele>173</ele>
        <time>2010-11-04T13:05:23Z</time>
      </trkpt>
      <trkpt lat="45.74854" lon="4.82854">
        <ele>173</ele>
        <time>2010-11-04T13:05:24Z</time>
      </trkpt>
      <trkpt lat="45.74857" lon="4.82852">
        <ele>173</ele>
        <time>2010-11-04T13:05:25Z</time>
      </trkpt>
      <trkpt lat="45.74859" lon="4.8285">
        <ele>173</ele>
        <time>2010-11-04T13:05:26Z</time>
      </trkpt>
      <trkpt lat="45.74861" lon="4.82849">
        <ele>173</ele>
        <time>2010-11-04T13:05:27Z</time>
      </trkpt>
      <trkpt lat="45.74863" lon="4.82846">
        <ele>173</ele>
        <time>2010-11-04T13:05:28Z</time>
      </trkpt>
      <trkpt lat="45.74864" lon="4.82844">
        <ele>173</ele>
        <time>2010-11-04T13:05:29Z</time>
      </trkpt>
      <trkpt lat="45.74866" lon="4.82842">
        <ele>173</ele>
        <time>2010-11-04T13:05:30Z</time>
      </trkpt>
      <trkpt lat="45.74867" lon="4.8284">
        <ele>173</ele>
        <time>2010-11-04T13:05:31Z</time>
      </trkpt>
      <trkpt lat="45.74868" lon="4.82838">
        <ele>173</ele>
        <time>2010-11-04T13:05:32Z</time>
      </trkpt>
      <trkpt lat="45.74875" lon="4.82838">
        <ele>173</ele>
        <time>2010-11-04T13:05:42Z</time>
      </trkpt>
      <trkpt lat="45.74878" lon="4.8284">
        <ele>173</ele>
        <time>2010-11-04T13:05:43Z</time>
      </trkpt>
      <trkpt lat="45.74879" lon="4.82842">
        <ele>173</ele>
        <time>2010-11-04T13:05:44Z</time>
      </trkpt>
      <trkpt lat="45.74881" lon="4.82846">
        <ele>173</ele>
        <time>2010-11-04T13:05:45Z</time>
      </trkpt>
      <trkpt lat="45.74882" lon="4.8285">
        <ele>173</ele>
        <time>2010-11-04T13:05:46Z</time>
      </trkpt>
      <trkpt lat="45.74885" lon="4.82856">
        <ele>173</ele>
        <time>2010-11-04T13:05:47Z</time>
      </trkpt>
      <trkpt lat="45.74887" lon="4.82861">
        <ele>173</ele>
        <time>2010-11-04T13:05:48Z</time>
      </trkpt>
      <trkpt lat="45.74892" lon="4.82878">
        <ele>173</ele>
        <time>2010-11-04T13:05:51Z</time>
      </trkpt>
      <trkpt lat="45.74893" lon="4.82883">
        <ele>173</ele>
        <time>2010-11-04T13:05:52Z</time>
      </trkpt>
      <trkpt lat="45.74894" lon="4.82887">
        <ele>173</ele>
        <time>2010-11-04T13:05:53Z</time>
      </trkpt>
      <trkpt lat="45.74895" lon="4.82891">
        <ele>173</ele>
        <time>2010-11-04T13:05:54Z</time>
      </trkpt>
      <trkpt lat="45.74895" lon="4.82893">
        <ele>173</ele>
        <time>2010-11-04T13:05:55Z</time>
      </trkpt>
      <trkpt lat="45.74895" lon="4.82896">
        <ele>173</ele>
        <time>2010-11-04T13:05:56Z</time>
      </trkpt>
      <trkpt lat="45.74896" lon="4.82901">
        <ele>173</ele>
        <time>2010-11-04T13:05:57Z</time>
      </trkpt>
      <trkpt lat="45.74896" lon="4.82904">
        <ele>173</ele>
        <time>2010-11-04T13:05:58Z</time>
      </trkpt>
      <trkpt lat="45.74896" lon="4.82908">
        <ele>173</ele>
        <time>2010-11-04T13:05:59Z</time>
      </trkpt>
      <trkpt lat="45.74895" lon="4.82918">
        <ele>172</ele>
        <time>2010-11-04T13:06:01Z</time>
      </trkpt>
      <trkpt lat="45.74895" lon="4.82923">
        <ele>172</ele>
        <time>2010-11-04T13:06:02Z</time>
      </trkpt>
      <trkpt lat="45.74895" lon="4.82926">
        <ele>172</ele>
        <time>2010-11-04T13:06:03Z</time>
      </trkpt>
      <trkpt lat="45.74895" lon="4.8293">
        <ele>172</ele>
        <time>2010-11-04T13:06:04Z</time>
      </trkpt>
      <trkpt lat="45.74895" lon="4.82934">
        <ele>172</ele>
        <time>2010-11-04T13:06:05Z</time>
      </trkpt>
      <trkpt lat="45.74895" lon="4.82939">
        <ele>172</ele>
        <time>2010-11-04T13:06:06Z</time>
      </trkpt>
      <trkpt lat="45.74895" lon="4.82949">
        <ele>172</ele>
        <time>2010-11-04T13:06:08Z</time>
      </trkpt>
      <trkpt lat="45.74894" lon="4.82954">
        <ele>171</ele>
        <time>2010-11-04T13:06:09Z</time>
      </trkpt>
      <trkpt lat="45.74894" lon="4.82959">
        <ele>171</ele>
        <time>2010-11-04T13:06:10Z</time>
      </trkpt>
      <trkpt lat="45.74893" lon="4.82962">
        <ele>171</ele>
        <time>2010-11-04T13:06:11Z</time>
      </trkpt>
      <trkpt lat="45.74892" lon="4.82967">
        <ele>171</ele>
        <time>2010-11-04T13:06:12Z</time>
      </trkpt>
      <trkpt lat="45.74891" lon="4.82971">
        <ele>171</ele>
        <time>2010-11-04T13:06:13Z</time>
      </trkpt>
      <trkpt lat="45.7489" lon="4.82974">
        <ele>171</ele>
        <time>2010-11-04T13:06:14Z</time>
      </trkpt>
      <trkpt lat="45.74888" lon="4.82977">
        <ele>171</ele>
        <time>2010-11-04T13:06:15Z</time>
      </trkpt>
      <trkpt lat="45.74886" lon="4.8298">
        <ele>171</ele>
        <time>2010-11-04T13:06:16Z</time>
      </trkpt>
      <trkpt lat="45.74885" lon="4.82984">
        <ele>171</ele>
        <time>2010-11-04T13:06:17Z</time>
      </trkpt>
      <trkpt lat="45.74883" lon="4.82989">
        <ele>171</ele>
        <time>2010-11-04T13:06:18Z</time>
      </trkpt>
      <trkpt lat="45.74881" lon="4.82994">
        <ele>171</ele>
        <time>2010-11-04T13:06:19Z</time>
      </trkpt>
      <trkpt lat="45.74881" lon="4.82998">
        <ele>171</ele>
        <time>2010-11-04T13:06:20Z</time>
      </trkpt>
      <trkpt lat="45.7488" lon="4.83002">
        <ele>169</ele>
        <time>2010-11-04T13:06:21Z</time>
      </trkpt>
      <trkpt lat="45.74879" lon="4.83006">
        <ele>169</ele>
        <time>2010-11-04T13:06:22Z</time>
      </trkpt>
      <trkpt lat="45.74872" lon="4.83027">
        <ele>169</ele>
        <time>2010-11-04T13:06:27Z</time>
      </trkpt>
      <trkpt lat="45.74871" lon="4.8303">
        <ele>169</ele>
        <time>2010-11-04T13:06:28Z</time>
      </trkpt>
      <trkpt lat="45.7487" lon="4.83033">
        <ele>169</ele>
        <time>2010-11-04T13:06:29Z</time>
      </trkpt>
      <trkpt lat="45.7487" lon="4.83036">
        <ele>168</ele>
        <time>2010-11-04T13:06:30Z</time>
      </trkpt>
      <trkpt lat="45.74869" lon="4.8304">
        <ele>168</ele>
        <time>2010-11-04T13:06:31Z</time>
      </trkpt>
      <trkpt lat="45.74868" lon="4.83044">
        <ele>168</ele>
        <time>2010-11-04T13:06:32Z</time>
      </trkpt>
      <trkpt lat="45.74866" lon="4.83048">
        <ele>168</ele>
        <time>2010-11-04T13:06:33Z</time>
      </trkpt>
      <trkpt lat="45.74861" lon="4.83066">
        <ele>168</ele>
        <time>2010-11-04T13:06:37Z</time>
      </trkpt>
      <trkpt lat="45.74859" lon="4.8307">
        <ele>168</ele>
        <time>2010-11-04T13:06:38Z</time>
      </trkpt>
      <trkpt lat="45.74858" lon="4.83075">
        <ele>168</ele>
        <time>2010-11-04T13:06:39Z</time>
      </trkpt>
      <trkpt lat="45.74857" lon="4.83081">
        <ele>168</ele>
        <time>2010-11-04T13:06:40Z</time>
      </trkpt>
      <trkpt lat="45.74856" lon="4.83085">
        <ele>166</ele>
        <time>2010-11-04T13:06:41Z</time>
      </trkpt>
      <trkpt lat="45.74855" lon="4.83088">
        <ele>166</ele>
        <time>2010-11-04T13:06:42Z</time>
      </trkpt>
      <trkpt lat="45.74853" lon="4.83091">
        <ele>166</ele>
        <time>2010-11-04T13:06:43Z</time>
      </trkpt>
      <trkpt lat="45.74851" lon="4.83094">
        <ele>166</ele>
        <time>2010-11-04T13:06:44Z</time>
      </trkpt>
      <trkpt lat="45.7485" lon="4.83099">
        <ele>166</ele>
        <time>2010-11-04T13:06:45Z</time>
      </trkpt>
      <trkpt lat="45.7485" lon="4.83103">
        <ele>166</ele>
        <time>2010-11-04T13:06:46Z</time>
      </trkpt>
      <trkpt lat="45.74849" lon="4.83108">
        <ele>166</ele>
        <time>2010-11-04T13:06:47Z</time>
      </trkpt>
      <trkpt lat="45.74841" lon="4.83137">
        <ele>166</ele>
        <time>2010-11-04T13:06:53Z</time>
      </trkpt>
      <trkpt lat="45.74839" lon="4.83142">
        <ele>166</ele>
        <time>2010-11-04T13:06:54Z</time>
      </trkpt>
      <trkpt lat="45.74837" lon="4.83147">
        <ele>166</ele>
        <time>2010-11-04T13:06:55Z</time>
      </trkpt>
      <trkpt lat="45.74835" lon="4.83152">
        <ele>166</ele>
        <time>2010-11-04T13:06:56Z</time>
      </trkpt>
      <trkpt lat="45.74834" lon="4.83156">
        <ele>165</ele>
        <time>2010-11-04T13:06:57Z</time>
      </trkpt>
      <trkpt lat="45.7483" lon="4.83173">
        <ele>165</ele>
        <time>2010-11-04T13:07:01Z</time>
      </trkpt>
      <trkpt lat="45.74829" lon="4.83176">
        <ele>165</ele>
        <time>2010-11-04T13:07:02Z</time>
      </trkpt>
      <trkpt lat="45.74816" lon="4.83212">
        <ele>165</ele>
        <time>2010-11-04T13:07:11Z</time>
      </trkpt>
      <trkpt lat="45.74814" lon="4.8322">
        <ele>165</ele>
        <time>2010-11-04T13:07:13Z</time>
      </trkpt>
      <trkpt lat="45.74812" lon="4.83224">
        <ele>165</ele>
        <time>2010-11-04T13:07:14Z</time>
      </trkpt>
      <trkpt lat="45.74804" lon="4.83258">
        <ele>166</ele>
        <time>2010-11-04T13:07:22Z</time>
      </trkpt>
      <trkpt lat="45.74804" lon="4.83262">
        <ele>166</ele>
        <time>2010-11-04T13:07:23Z</time>
      </trkpt>
      <trkpt lat="45.74802" lon="4.83266">
        <ele>166</ele>
        <time>2010-11-04T13:07:24Z</time>
      </trkpt>
      <trkpt lat="45.74792" lon="4.83292">
        <ele>167</ele>
        <time>2010-11-04T13:07:30Z</time>
      </trkpt>
      <trkpt lat="45.74792" lon="4.83295">
        <ele>167</ele>
        <time>2010-11-04T13:07:31Z</time>
      </trkpt>
      <trkpt lat="45.74791" lon="4.83298">
        <ele>167</ele>
        <time>2010-11-04T13:07:32Z</time>
      </trkpt>
      <trkpt lat="45.74791" lon="4.83302">
        <ele>167</ele>
        <time>2010-11-04T13:07:33Z</time>
      </trkpt>
      <trkpt lat="45.74791" lon="4.83305">
        <ele>167</ele>
        <time>2010-11-04T13:07:34Z</time>
      </trkpt>
      <trkpt lat="45.74792" lon="4.83307">
        <ele>167</ele>
        <time>2010-11-04T13:07:35Z</time>
      </trkpt>
      <trkpt lat="45.74794" lon="4.8331">
        <ele>167</ele>
        <time>2010-11-04T13:07:36Z</time>
      </trkpt>
      <trkpt lat="45.74794" lon="4.83318">
        <ele>167</ele>
        <time>2010-11-04T13:07:46Z</time>
      </trkpt>
      <trkpt lat="45.74795" lon="4.83321">
        <ele>167</ele>
        <time>2010-11-04T13:07:47Z</time>
      </trkpt>
      <trkpt lat="45.74798" lon="4.83325">
        <ele>167</ele>
        <time>2010-11-04T13:07:48Z</time>
      </trkpt>
      <trkpt lat="45.748" lon="4.83328">
        <ele>167</ele>
        <time>2010-11-04T13:07:49Z</time>
      </trkpt>
      <trkpt lat="45.74803" lon="4.83333">
        <ele>167</ele>
        <time>2010-11-04T13:07:50Z</time>
      </trkpt>
      <trkpt lat="45.74807" lon="4.83337">
        <ele>169</ele>
        <time>2010-11-04T13:07:51Z</time>
      </trkpt>
      <trkpt lat="45.74812" lon="4.83342">
        <ele>169</ele>
        <time>2010-11-04T13:07:53Z</time>
      </trkpt>
      <trkpt lat="45.74814" lon="4.83343">
        <ele>169</ele>
        <time>2010-11-04T13:07:54Z</time>
      </trkpt>
      <trkpt lat="45.74818" lon="4.8335">
        <ele>169</ele>
        <time>2010-11-04T13:07:59Z</time>
      </trkpt>
      <trkpt lat="45.74819" lon="4.83351">
        <ele>169</ele>
        <time>2010-11-04T13:08:00Z</time>
      </trkpt>
      <trkpt lat="45.7482" lon="4.83351">
        <ele>169</ele>
        <time>2010-11-04T13:08:01Z</time>
      </trkpt>
      <trkpt lat="45.74824" lon="4.83353">
        <ele>169</ele>
        <time>2010-11-04T13:08:06Z</time>
      </trkpt>
      <trkpt lat="45.74826" lon="4.83351">
        <ele>169</ele>
        <time>2010-11-04T13:08:07Z</time>
      </trkpt>
      <trkpt lat="45.74829" lon="4.83351">
        <ele>168</ele>
        <time>2010-11-04T13:08:08Z</time>
      </trkpt>
      <trkpt lat="45.74832" lon="4.8335">
        <ele>168</ele>
        <time>2010-11-04T13:08:09Z</time>
      </trkpt>
      <trkpt lat="45.74836" lon="4.83349">
        <ele>166</ele>
        <time>2010-11-04T13:08:10Z</time>
      </trkpt>
      <trkpt lat="45.74838" lon="4.83347">
        <ele>166</ele>
        <time>2010-11-04T13:08:11Z</time>
      </trkpt>
      <trkpt lat="45.7484" lon="4.83347">
        <ele>166</ele>
        <time>2010-11-04T13:08:12Z</time>
      </trkpt>
      <trkpt lat="45.74844" lon="4.83349">
        <ele>166</ele>
        <time>2010-11-04T13:08:13Z</time>
      </trkpt>
      <trkpt lat="45.74847" lon="4.83351">
        <ele>166</ele>
        <time>2010-11-04T13:08:14Z</time>
      </trkpt>
      <trkpt lat="45.7485" lon="4.83353">
        <ele>166</ele>
        <time>2010-11-04T13:08:15Z</time>
      </trkpt>
      <trkpt lat="45.74856" lon="4.83356">
        <ele>166</ele>
        <time>2010-11-04T13:08:18Z</time>
      </trkpt>
      <trkpt lat="45.74864" lon="4.83363">
        <ele>166</ele>
        <time>2010-11-04T13:08:21Z</time>
      </trkpt>
      <trkpt lat="45.74873" lon="4.83374">
        <ele>166</ele>
        <time>2010-11-04T13:08:25Z</time>
      </trkpt>
      <trkpt lat="45.74876" lon="4.83377">
        <ele>166</ele>
        <time>2010-11-04T13:08:26Z</time>
      </trkpt>
      <trkpt lat="45.74897" lon="4.83396">
        <ele>166</ele>
        <time>2010-11-04T13:08:34Z</time>
      </trkpt>
      <trkpt lat="45.74912" lon="4.83408">
        <ele>165</ele>
        <time>2010-11-04T13:08:40Z</time>
      </trkpt>
      <trkpt lat="45.74913" lon="4.83409">
        <ele>165</ele>
        <time>2010-11-04T13:08:41Z</time>
      </trkpt>
      <trkpt lat="45.74916" lon="4.8341">
        <ele>164</ele>
        <time>2010-11-04T13:08:42Z</time>
      </trkpt>
      <trkpt lat="45.74917" lon="4.83411">
        <ele>164</ele>
        <time>2010-11-04T13:08:43Z</time>
      </trkpt>
      <trkpt lat="45.7492" lon="4.83414">
        <ele>164</ele>
        <time>2010-11-04T13:08:44Z</time>
      </trkpt>
      <trkpt lat="45.74922" lon="4.83417">
        <ele>164</ele>
        <time>2010-11-04T13:08:45Z</time>
      </trkpt>
      <trkpt lat="45.74945" lon="4.83436">
        <ele>165</ele>
        <time>2010-11-04T13:08:53Z</time>
      </trkpt>
      <trkpt lat="45.74965" lon="4.83448">
        <ele>165</ele>
        <time>2010-11-04T13:09:00Z</time>
      </trkpt>
      <trkpt lat="45.74986" lon="4.83469">
        <ele>165</ele>
        <time>2010-11-04T13:09:08Z</time>
      </trkpt>
      <trkpt lat="45.74996" lon="4.83479">
        <ele>164</ele>
        <time>2010-11-04T13:09:12Z</time>
      </trkpt>
      <trkpt lat="45.74999" lon="4.83482">
        <ele>164</ele>
        <time>2010-11-04T13:09:13Z</time>
      </trkpt>
      <trkpt lat="45.75007" lon="4.83487">
        <ele>164</ele>
        <time>2010-11-04T13:09:16Z</time>
      </trkpt>
      <trkpt lat="45.7502" lon="4.83495">
        <ele>164</ele>
        <time>2010-11-04T13:09:21Z</time>
      </trkpt>
      <trkpt lat="45.7503" lon="4.83502">
        <ele>164</ele>
        <time>2010-11-04T13:09:25Z</time>
      </trkpt>
      <trkpt lat="45.75037" lon="4.8351">
        <ele>164</ele>
        <time>2010-11-04T13:09:29Z</time>
      </trkpt>
      <trkpt lat="45.75058" lon="4.83534">
        <ele>165</ele>
        <time>2010-11-04T13:09:37Z</time>
      </trkpt>
      <trkpt lat="45.75077" lon="4.83547">
        <ele>165</ele>
        <time>2010-11-04T13:09:43Z</time>
      </trkpt>
      <trkpt lat="45.75088" lon="4.83554">
        <ele>165</ele>
        <time>2010-11-04T13:09:47Z</time>
      </trkpt>
      <trkpt lat="45.75092" lon="4.83555">
        <ele>165</ele>
        <time>2010-11-04T13:09:48Z</time>
      </trkpt>
      <trkpt lat="45.75095" lon="4.83557">
        <ele>165</ele>
        <time>2010-11-04T13:09:49Z</time>
      </trkpt>
      <trkpt lat="45.75097" lon="4.8356">
        <ele>165</ele>
        <time>2010-11-04T13:09:50Z</time>
      </trkpt>
      <trkpt lat="45.751" lon="4.83562">
        <ele>165</ele>
        <time>2010-11-04T13:09:51Z</time>
      </trkpt>
      <trkpt lat="45.75103" lon="4.83565">
        <ele>165</ele>
        <time>2010-11-04T13:09:52Z</time>
      </trkpt>
      <trkpt lat="45.75106" lon="4.83566">
        <ele>165</ele>
        <time>2010-11-04T13:09:53Z</time>
      </trkpt>
      <trkpt lat="45.75109" lon="4.83568">
        <ele>165</ele>
        <time>2010-11-04T13:09:54Z</time>
      </trkpt>
      <trkpt lat="45.75115" lon="4.83572">
        <ele>165</ele>
        <time>2010-11-04T13:09:56Z</time>
      </trkpt>
      <trkpt lat="45.75117" lon="4.83574">
        <ele>165</ele>
        <time>2010-11-04T13:09:57Z</time>
      </trkpt>
      <trkpt lat="45.75119" lon="4.83576">
        <ele>165</ele>
        <time>2010-11-04T13:09:58Z</time>
      </trkpt>
      <trkpt lat="45.75121" lon="4.8358">
        <ele>165</ele>
        <time>2010-11-04T13:09:59Z</time>
      </trkpt>
      <trkpt lat="45.75123" lon="4.83583">
        <ele>165</ele>
        <time>2010-11-04T13:10:00Z</time>
      </trkpt>
      <trkpt lat="45.75125" lon="4.83586">
        <ele>166</ele>
        <time>2010-11-04T13:10:01Z</time>
      </trkpt>
      <trkpt lat="45.75127" lon="4.83589">
        <ele>166</ele>
        <time>2010-11-04T13:10:02Z</time>
      </trkpt>
      <trkpt lat="45.7513" lon="4.83592">
        <ele>166</ele>
        <time>2010-11-04T13:10:03Z</time>
      </trkpt>
      <trkpt lat="45.75133" lon="4.83595">
        <ele>166</ele>
        <time>2010-11-04T13:10:04Z</time>
      </trkpt>
      <trkpt lat="45.75137" lon="4.83598">
        <ele>166</ele>
        <time>2010-11-04T13:10:05Z</time>
      </trkpt>
      <trkpt lat="45.75148" lon="4.83606">
        <ele>166</ele>
        <time>2010-11-04T13:10:09Z</time>
      </trkpt>
      <trkpt lat="45.7515" lon="4.83609">
        <ele>166</ele>
        <time>2010-11-04T13:10:10Z</time>
      </trkpt>
      <trkpt lat="45.75153" lon="4.83612">
        <ele>166</ele>
        <time>2010-11-04T13:10:11Z</time>
      </trkpt>
      <trkpt lat="45.75156" lon="4.83614">
        <ele>167</ele>
        <time>2010-11-04T13:10:12Z</time>
      </trkpt>
      <trkpt lat="45.75158" lon="4.83616">
        <ele>167</ele>
        <time>2010-11-04T13:10:13Z</time>
      </trkpt>
      <trkpt lat="45.75161" lon="4.83618">
        <ele>167</ele>
        <time>2010-11-04T13:10:14Z</time>
      </trkpt>
      <trkpt lat="45.75163" lon="4.83621">
        <ele>167</ele>
        <time>2010-11-04T13:10:15Z</time>
      </trkpt>
      <trkpt lat="45.75166" lon="4.83623">
        <ele>167</ele>
        <time>2010-11-04T13:10:16Z</time>
      </trkpt>
      <trkpt lat="45.75169" lon="4.83626">
        <ele>166</ele>
        <time>2010-11-04T13:10:17Z</time>
      </trkpt>
      <trkpt lat="45.75171" lon="4.8363">
        <ele>166</ele>
        <time>2010-11-04T13:10:18Z</time>
      </trkpt>
      <trkpt lat="45.75173" lon="4.83633">
        <ele>166</ele>
        <time>2010-11-04T13:10:19Z</time>
      </trkpt>
      <trkpt lat="45.75175" lon="4.83636">
        <ele>166</ele>
        <time>2010-11-04T13:10:20Z</time>
      </trkpt>
      <trkpt lat="45.75177" lon="4.8364">
        <ele>166</ele>
        <time>2010-11-04T13:10:21Z</time>
      </trkpt>
      <trkpt lat="45.75195" lon="4.8366">
        <ele>166</ele>
        <time>2010-11-04T13:10:29Z</time>
      </trkpt>
      <trkpt lat="45.75202" lon="4.83668">
        <ele>168</ele>
        <time>2010-11-04T13:10:33Z</time>
      </trkpt>
      <trkpt lat="45.75205" lon="4.83669">
        <ele>168</ele>
        <time>2010-11-04T13:10:34Z</time>
      </trkpt>
      <trkpt lat="45.7521" lon="4.83671">
        <ele>168</ele>
        <time>2010-11-04T13:10:35Z</time>
      </trkpt>
      <trkpt lat="45.7522" lon="4.83671">
        <ele>167</ele>
        <time>2010-11-04T13:10:37Z</time>
      </trkpt>
      <trkpt lat="45.75224" lon="4.83669">
        <ele>167</ele>
        <time>2010-11-04T13:10:38Z</time>
      </trkpt>
      <trkpt lat="45.75227" lon="4.83667">
        <ele>167</ele>
        <time>2010-11-04T13:10:39Z</time>
      </trkpt>
      <trkpt lat="45.75231" lon="4.83666">
        <ele>166</ele>
        <time>2010-11-04T13:10:40Z</time>
      </trkpt>
      <trkpt lat="45.75235" lon="4.83664">
        <ele>165</ele>
        <time>2010-11-04T13:10:41Z</time>
      </trkpt>
      <trkpt lat="45.75244" lon="4.83662">
        <ele>165</ele>
        <time>2010-11-04T13:10:44Z</time>
      </trkpt>
      <trkpt lat="45.75258" lon="4.83666">
        <ele>165</ele>
        <time>2010-11-04T13:10:48Z</time>
      </trkpt>
      <trkpt lat="45.75262" lon="4.83667">
        <ele>166</ele>
        <time>2010-11-04T13:10:49Z</time>
      </trkpt>
      <trkpt lat="45.75265" lon="4.83669">
        <ele>166</ele>
        <time>2010-11-04T13:10:50Z</time>
      </trkpt>
      <trkpt lat="45.75268" lon="4.83671">
        <ele>166</ele>
        <time>2010-11-04T13:10:51Z</time>
      </trkpt>
      <trkpt lat="45.7527" lon="4.83674">
        <ele>166</ele>
        <time>2010-11-04T13:10:52Z</time>
      </trkpt>
      <trkpt lat="45.75272" lon="4.83676">
        <ele>166</ele>
        <time>2010-11-04T13:10:53Z</time>
      </trkpt>
      <trkpt lat="45.75288" lon="4.83689">
        <ele>166</ele>
        <time>2010-11-04T13:10:58Z</time>
      </trkpt>
      <trkpt lat="45.7529" lon="4.83691">
        <ele>166</ele>
        <time>2010-11-04T13:10:59Z</time>
      </trkpt>
      <trkpt lat="45.75294" lon="4.83694">
        <ele>166</ele>
        <time>2010-11-04T13:11:00Z</time>
      </trkpt>
      <trkpt lat="45.75297" lon="4.83696">
        <ele>166</ele>
        <time>2010-11-04T13:11:01Z</time>
      </trkpt>
      <trkpt lat="45.753" lon="4.83698">
        <ele>166</ele>
        <time>2010-11-04T13:11:02Z</time>
      </trkpt>
      <trkpt lat="45.75326" lon="4.83716">
        <ele>166</ele>
        <time>2010-11-04T13:11:11Z</time>
      </trkpt>
      <trkpt lat="45.75334" lon="4.83724">
        <ele>166</ele>
        <time>2010-11-04T13:11:14Z</time>
      </trkpt>
      <trkpt lat="45.75339" lon="4.83727">
        <ele>166</ele>
        <time>2010-11-04T13:11:16Z</time>
      </trkpt>
      <trkpt lat="45.75369" lon="4.83751">
        <ele>167</ele>
        <time>2010-11-04T13:11:28Z</time>
      </trkpt>
      <trkpt lat="45.75403" lon="4.83777">
        <ele>167</ele>
        <time>2010-11-04T13:11:39Z</time>
      </trkpt>
      <trkpt lat="45.75428" lon="4.83796">
        <ele>165</ele>
        <time>2010-11-04T13:11:47Z</time>
      </trkpt>
      <trkpt lat="45.75431" lon="4.83798">
        <ele>165</ele>
        <time>2010-11-04T13:11:48Z</time>
      </trkpt>
      <trkpt lat="45.75455" lon="4.83814">
        <ele>165</ele>
        <time>2010-11-04T13:11:56Z</time>
      </trkpt>
      <trkpt lat="45.75463" lon="4.8382">
        <ele>165</ele>
        <time>2010-11-04T13:11:59Z</time>
      </trkpt>
      <trkpt lat="45.7549" lon="4.83839">
        <ele>166</ele>
        <time>2010-11-04T13:12:08Z</time>
      </trkpt>
      <trkpt lat="45.75502" lon="4.83847">
        <ele>165</ele>
        <time>2010-11-04T13:12:12Z</time>
      </trkpt>
      <trkpt lat="45.75523" lon="4.83861">
        <ele>166</ele>
        <time>2010-11-04T13:12:18Z</time>
      </trkpt>
      <trkpt lat="45.75545" lon="4.83878">
        <ele>166</ele>
        <time>2010-11-04T13:12:26Z</time>
      </trkpt>
      <trkpt lat="45.75569" lon="4.839">
        <ele>165</ele>
        <time>2010-11-04T13:12:34Z</time>
      </trkpt>
      <trkpt lat="45.75572" lon="4.83902">
        <ele>165</ele>
        <time>2010-11-04T13:12:35Z</time>
      </trkpt>
      <trkpt lat="45.75575" lon="4.83904">
        <ele>165</ele>
        <time>2010-11-04T13:12:36Z</time>
      </trkpt>
      <trkpt lat="45.75578" lon="4.83906">
        <ele>165</ele>
        <time>2010-11-04T13:12:37Z</time>
      </trkpt>
      <trkpt lat="45.75582" lon="4.83907">
        <ele>165</ele>
        <time>2010-11-04T13:12:38Z</time>
      </trkpt>
      <trkpt lat="45.75585" lon="4.83908">
        <ele>164</ele>
        <time>2010-11-04T13:12:39Z</time>
      </trkpt>
      <trkpt lat="45.75588" lon="4.83909">
        <ele>164</ele>
        <time>2010-11-04T13:12:40Z</time>
      </trkpt>
      <trkpt lat="45.75591" lon="4.83911">
        <ele>164</ele>
        <time>2010-11-04T13:12:41Z</time>
      </trkpt>
      <trkpt lat="45.75594" lon="4.83913">
        <ele>164</ele>
        <time>2010-11-04T13:12:42Z</time>
      </trkpt>
      <trkpt lat="45.75597" lon="4.83914">
        <ele>164</ele>
        <time>2010-11-04T13:12:43Z</time>
      </trkpt>
      <trkpt lat="45.756" lon="4.83916">
        <ele>164</ele>
        <time>2010-11-04T13:12:44Z</time>
      </trkpt>
      <trkpt lat="45.75603" lon="4.83916">
        <ele>164</ele>
        <time>2010-11-04T13:12:45Z</time>
      </trkpt>
      <trkpt lat="45.75606" lon="4.83917">
        <ele>165</ele>
        <time>2010-11-04T13:12:46Z</time>
      </trkpt>
      <trkpt lat="45.75609" lon="4.83919">
        <ele>165</ele>
        <time>2010-11-04T13:12:47Z</time>
      </trkpt>
      <trkpt lat="45.75622" lon="4.83925">
        <ele>165</ele>
        <time>2010-11-04T13:12:51Z</time>
      </trkpt>
      <trkpt lat="45.75626" lon="4.83927">
        <ele>165</ele>
        <time>2010-11-04T13:12:52Z</time>
      </trkpt>
      <trkpt lat="45.75629" lon="4.83928">
        <ele>165</ele>
        <time>2010-11-04T13:12:53Z</time>
      </trkpt>
      <trkpt lat="45.75633" lon="4.83929">
        <ele>165</ele>
        <time>2010-11-04T13:12:54Z</time>
      </trkpt>
      <trkpt lat="45.75636" lon="4.8393">
        <ele>164</ele>
        <time>2010-11-04T13:12:55Z</time>
      </trkpt>
      <trkpt lat="45.75638" lon="4.83931">
        <ele>164</ele>
        <time>2010-11-04T13:12:56Z</time>
      </trkpt>
      <trkpt lat="45.75641" lon="4.83933">
        <ele>164</ele>
        <time>2010-11-04T13:12:57Z</time>
      </trkpt>
      <trkpt lat="45.75643" lon="4.83936">
        <ele>164</ele>
        <time>2010-11-04T13:12:58Z</time>
      </trkpt>
      <trkpt lat="45.75645" lon="4.83938">
        <ele>164</ele>
        <time>2010-11-04T13:12:59Z</time>
      </trkpt>
      <trkpt lat="45.7565" lon="4.83944">
        <ele>165</ele>
        <time>2010-11-04T13:13:02Z</time>
      </trkpt>
      <trkpt lat="45.75662" lon="4.83956">
        <ele>165</ele>
        <time>2010-11-04T13:13:05Z</time>
      </trkpt>
      <trkpt lat="45.75667" lon="4.83959">
        <ele>165</ele>
        <time>2010-11-04T13:13:06Z</time>
      </trkpt>
      <trkpt lat="45.75671" lon="4.83961">
        <ele>165</ele>
        <time>2010-11-04T13:13:07Z</time>
      </trkpt>
      <trkpt lat="45.75675" lon="4.83962">
        <ele>165</ele>
        <time>2010-11-04T13:13:08Z</time>
      </trkpt>
      <trkpt lat="45.75679" lon="4.83963">
        <ele>165</ele>
        <time>2010-11-04T13:13:09Z</time>
      </trkpt>
      <trkpt lat="45.75684" lon="4.83962">
        <ele>165</ele>
        <time>2010-11-04T13:13:10Z</time>
      </trkpt>
      <trkpt lat="45.75687" lon="4.83962">
        <ele>165</ele>
        <time>2010-11-04T13:13:11Z</time>
      </trkpt>
      <trkpt lat="45.75691" lon="4.83963">
        <ele>165</ele>
        <time>2010-11-04T13:13:12Z</time>
      </trkpt>
      <trkpt lat="45.75708" lon="4.8397">
        <ele>165</ele>
        <time>2010-11-04T13:13:17Z</time>
      </trkpt>
      <trkpt lat="45.75711" lon="4.83972">
        <ele>165</ele>
        <time>2010-11-04T13:13:18Z</time>
      </trkpt>
      <trkpt lat="45.75714" lon="4.83975">
        <ele>165</ele>
        <time>2010-11-04T13:13:19Z</time>
      </trkpt>
      <trkpt lat="45.75717" lon="4.83977">
        <ele>165</ele>
        <time>2010-11-04T13:13:20Z</time>
      </trkpt>
      <trkpt lat="45.75721" lon="4.83979">
        <ele>165</ele>
        <time>2010-11-04T13:13:21Z</time>
      </trkpt>
      <trkpt lat="45.75724" lon="4.83981">
        <ele>165</ele>
        <time>2010-11-04T13:13:22Z</time>
      </trkpt>
      <trkpt lat="45.75727" lon="4.83983">
        <ele>165</ele>
        <time>2010-11-04T13:13:23Z</time>
      </trkpt>
      <trkpt lat="45.75731" lon="4.83986">
        <ele>165</ele>
        <time>2010-11-04T13:13:24Z</time>
      </trkpt>
      <trkpt lat="45.75735" lon="4.83988">
        <ele>166</ele>
        <time>2010-11-04T13:13:25Z</time>
      </trkpt>
      <trkpt lat="45.75745" lon="4.83991">
        <ele>166</ele>
        <time>2010-11-04T13:13:28Z</time>
      </trkpt>
      <trkpt lat="45.75748" lon="4.83993">
        <ele>166</ele>
        <time>2010-11-04T13:13:29Z</time>
      </trkpt>
      <trkpt lat="45.7575" lon="4.83995">
        <ele>166</ele>
        <time>2010-11-04T13:13:30Z</time>
      </trkpt>
      <trkpt lat="45.75753" lon="4.83996">
        <ele>166</ele>
        <time>2010-11-04T13:13:31Z</time>
      </trkpt>
      <trkpt lat="45.75757" lon="4.83998">
        <ele>166</ele>
        <time>2010-11-04T13:13:32Z</time>
      </trkpt>
      <trkpt lat="45.7576" lon="4.83999">
        <ele>166</ele>
        <time>2010-11-04T13:13:33Z</time>
      </trkpt>
      <trkpt lat="45.75763" lon="4.84">
        <ele>166</ele>
        <time>2010-11-04T13:13:34Z</time>
      </trkpt>
      <trkpt lat="45.75766" lon="4.84001">
        <ele>167</ele>
        <time>2010-11-04T13:13:35Z</time>
      </trkpt>
      <trkpt lat="45.75769" lon="4.84002">
        <ele>168</ele>
        <time>2010-11-04T13:13:36Z</time>
      </trkpt>
      <trkpt lat="45.75773" lon="4.84003">
        <ele>168</ele>
        <time>2010-11-04T13:13:37Z</time>
      </trkpt>
      <trkpt lat="45.75776" lon="4.84005">
        <ele>168</ele>
        <time>2010-11-04T13:13:38Z</time>
      </trkpt>
      <trkpt lat="45.7578" lon="4.84006">
        <ele>168</ele>
        <time>2010-11-04T13:13:39Z</time>
      </trkpt>
      <trkpt lat="45.75784" lon="4.84008">
        <ele>168</ele>
        <time>2010-11-04T13:13:40Z</time>
      </trkpt>
      <trkpt lat="45.75807" lon="4.8402">
        <ele>168</ele>
        <time>2010-11-04T13:13:47Z</time>
      </trkpt>
      <trkpt lat="45.7581" lon="4.84021">
        <ele>168</ele>
        <time>2010-11-04T13:13:48Z</time>
      </trkpt>
      <trkpt lat="45.75813" lon="4.84022">
        <ele>168</ele>
        <time>2010-11-04T13:13:49Z</time>
      </trkpt>
      <trkpt lat="45.75824" lon="4.84025">
        <ele>167</ele>
        <time>2010-11-04T13:13:52Z</time>
      </trkpt>
      <trkpt lat="45.75828" lon="4.84027">
        <ele>168</ele>
        <time>2010-11-04T13:13:53Z</time>
      </trkpt>
      <trkpt lat="45.75832" lon="4.84028">
        <ele>168</ele>
        <time>2010-11-04T13:13:54Z</time>
      </trkpt>
      <trkpt lat="45.75836" lon="4.84029">
        <ele>167</ele>
        <time>2010-11-04T13:13:55Z</time>
      </trkpt>
      <trkpt lat="45.75839" lon="4.84031">
        <ele>167</ele>
        <time>2010-11-04T13:13:56Z</time>
      </trkpt>
      <trkpt lat="45.75843" lon="4.84032">
        <ele>167</ele>
        <time>2010-11-04T13:13:57Z</time>
      </trkpt>
      <trkpt lat="45.75847" lon="4.84033">
        <ele>167</ele>
        <time>2010-11-04T13:13:58Z</time>
      </trkpt>
      <trkpt lat="45.75855" lon="4.84034">
        <ele>167</ele>
        <time>2010-11-04T13:14:00Z</time>
      </trkpt>
      <trkpt lat="45.75872" lon="4.8404">
        <ele>168</ele>
        <time>2010-11-04T13:14:05Z</time>
      </trkpt>
      <trkpt lat="45.75898" lon="4.84048">
        <ele>169</ele>
        <time>2010-11-04T13:14:13Z</time>
      </trkpt>
      <trkpt lat="45.75905" lon="4.84049">
        <ele>169</ele>
        <time>2010-11-04T13:14:15Z</time>
      </trkpt>
      <trkpt lat="45.75918" lon="4.84053">
        <ele>169</ele>
        <time>2010-11-04T13:14:19Z</time>
      </trkpt>
      <trkpt lat="45.75921" lon="4.84053">
        <ele>169</ele>
        <time>2010-11-04T13:14:20Z</time>
      </trkpt>
      <trkpt lat="45.75925" lon="4.84053">
        <ele>169</ele>
        <time>2010-11-04T13:14:21Z</time>
      </trkpt>
      <trkpt lat="45.75928" lon="4.84054">
        <ele>169</ele>
        <time>2010-11-04T13:14:22Z</time>
      </trkpt>
      <trkpt lat="45.75931" lon="4.84055">
        <ele>169</ele>
        <time>2010-11-04T13:14:23Z</time>
      </trkpt>
      <trkpt lat="45.75935" lon="4.84056">
        <ele>169</ele>
        <time>2010-11-04T13:14:24Z</time>
      </trkpt>
      <trkpt lat="45.75939" lon="4.84056">
        <ele>169</ele>
        <time>2010-11-04T13:14:25Z</time>
      </trkpt>
      <trkpt lat="45.75942" lon="4.84056">
        <ele>169</ele>
        <time>2010-11-04T13:14:26Z</time>
      </trkpt>
      <trkpt lat="45.75974" lon="4.8406">
        <ele>168</ele>
        <time>2010-11-04T13:14:35Z</time>
      </trkpt>
      <trkpt lat="45.75984" lon="4.84064">
        <ele>168</ele>
        <time>2010-11-04T13:14:38Z</time>
      </trkpt>
      <trkpt lat="45.76003" lon="4.84073">
        <ele>169</ele>
        <time>2010-11-04T13:14:45Z</time>
      </trkpt>
      <trkpt lat="45.76006" lon="4.84073">
        <ele>169</ele>
        <time>2010-11-04T13:14:46Z</time>
      </trkpt>
      <trkpt lat="45.7601" lon="4.84073">
        <ele>169</ele>
        <time>2010-11-04T13:14:47Z</time>
      </trkpt>
      <trkpt lat="45.76016" lon="4.84074">
        <ele>168</ele>
        <time>2010-11-04T13:14:48Z</time>
      </trkpt>
      <trkpt lat="45.76021" lon="4.84074">
        <ele>168</ele>
        <time>2010-11-04T13:14:49Z</time>
      </trkpt>
      <trkpt lat="45.76026" lon="4.84075">
        <ele>168</ele>
        <time>2010-11-04T13:14:50Z</time>
      </trkpt>
      <trkpt lat="45.76031" lon="4.84074">
        <ele>168</ele>
        <time>2010-11-04T13:14:51Z</time>
      </trkpt>
      <trkpt lat="45.76035" lon="4.84073">
        <ele>168</ele>
        <time>2010-11-04T13:14:52Z</time>
      </trkpt>
      <trkpt lat="45.76046" lon="4.84072">
        <ele>168</ele>
        <time>2010-11-04T13:14:55Z</time>
      </trkpt>
      <trkpt lat="45.76062" lon="4.84071">
        <ele>168</ele>
        <time>2010-11-04T13:15:00Z</time>
      </trkpt>
      <trkpt lat="45.76064" lon="4.84073">
        <ele>168</ele>
        <time>2010-11-04T13:15:01Z</time>
      </trkpt>
      <trkpt lat="45.7608" lon="4.84079">
        <ele>169</ele>
        <time>2010-11-04T13:15:05Z</time>
      </trkpt>
      <trkpt lat="45.76085" lon="4.84078">
        <ele>169</ele>
        <time>2010-11-04T13:15:06Z</time>
      </trkpt>
      <trkpt lat="45.76089" lon="4.84077">
        <ele>168</ele>
        <time>2010-11-04T13:15:07Z</time>
      </trkpt>
      <trkpt lat="45.76104" lon="4.84075">
        <ele>168</ele>
        <time>2010-11-04T13:15:11Z</time>
      </trkpt>
      <trkpt lat="45.76108" lon="4.84073">
        <ele>168</ele>
        <time>2010-11-04T13:15:12Z</time>
      </trkpt>
      <trkpt lat="45.76112" lon="4.84073">
        <ele>167</ele>
        <time>2010-11-04T13:15:13Z</time>
      </trkpt>
      <trkpt lat="45.76115" lon="4.84073">
        <ele>167</ele>
        <time>2010-11-04T13:15:14Z</time>
      </trkpt>
      <trkpt lat="45.76119" lon="4.84073">
        <ele>167</ele>
        <time>2010-11-04T13:15:15Z</time>
      </trkpt>
      <trkpt lat="45.76122" lon="4.84073">
        <ele>167</ele>
        <time>2010-11-04T13:15:16Z</time>
      </trkpt>
      <trkpt lat="45.76154" lon="4.84078">
        <ele>168</ele>
        <time>2010-11-04T13:15:25Z</time>
      </trkpt>
      <trkpt lat="45.76175" lon="4.84079">
        <ele>167</ele>
        <time>2010-11-04T13:15:31Z</time>
      </trkpt>
      <trkpt lat="45.7618" lon="4.8408">
        <ele>167</ele>
        <time>2010-11-04T13:15:32Z</time>
      </trkpt>
      <trkpt lat="45.76185" lon="4.8408">
        <ele>167</ele>
        <time>2010-11-04T13:15:33Z</time>
      </trkpt>
      <trkpt lat="45.76189" lon="4.8408">
        <ele>167</ele>
        <time>2010-11-04T13:15:34Z</time>
      </trkpt>
      <trkpt lat="45.76193" lon="4.84081">
        <ele>167</ele>
        <time>2010-11-04T13:15:35Z</time>
      </trkpt>
      <trkpt lat="45.76225" lon="4.84091">
        <ele>170</ele>
        <time>2010-11-04T13:15:43Z</time>
      </trkpt>
      <trkpt lat="45.76229" lon="4.84091">
        <ele>170</ele>
        <time>2010-11-04T13:15:44Z</time>
      </trkpt>
      <trkpt lat="45.76246" lon="4.84094">
        <ele>169</ele>
        <time>2010-11-04T13:15:48Z</time>
      </trkpt>
      <trkpt lat="45.76271" lon="4.84095">
        <ele>169</ele>
        <time>2010-11-04T13:15:56Z</time>
      </trkpt>
      <trkpt lat="45.76299" lon="4.84097">
        <ele>169</ele>
        <time>2010-11-04T13:16:04Z</time>
      </trkpt>
      <trkpt lat="45.76306" lon="4.84097">
        <ele>169</ele>
        <time>2010-11-04T13:16:06Z</time>
      </trkpt>
      <trkpt lat="45.76313" lon="4.84097">
        <ele>169</ele>
        <time>2010-11-04T13:16:08Z</time>
      </trkpt>
      <trkpt lat="45.76343" lon="4.84097">
        <ele>168</ele>
        <time>2010-11-04T13:16:17Z</time>
      </trkpt>
      <trkpt lat="45.7638" lon="4.84103">
        <ele>169</ele>
        <time>2010-11-04T13:16:27Z</time>
      </trkpt>
      <trkpt lat="45.76384" lon="4.84104">
        <ele>169</ele>
        <time>2010-11-04T13:16:28Z</time>
      </trkpt>
      <trkpt lat="45.76427" lon="4.84111">
        <ele>170</ele>
        <time>2010-11-04T13:16:39Z</time>
      </trkpt>
      <trkpt lat="45.76456" lon="4.84114">
        <ele>171</ele>
        <time>2010-11-04T13:16:47Z</time>
      </trkpt>
      <trkpt lat="45.76498" lon="4.84113">
        <ele>171</ele>
        <time>2010-11-04T13:16:57Z</time>
      </trkpt>
      <trkpt lat="45.76534" lon="4.84109">
        <ele>171</ele>
        <time>2010-11-04T13:17:07Z</time>
      </trkpt>
      <trkpt lat="45.76567" lon="4.84106">
        <ele>171</ele>
        <time>2010-11-04T13:17:16Z</time>
      </trkpt>
      <trkpt lat="45.76572" lon="4.84104">
        <ele>170</ele>
        <time>2010-11-04T13:17:18Z</time>
      </trkpt>
      <trkpt lat="45.76576" lon="4.84104">
        <ele>170</ele>
        <time>2010-11-04T13:17:19Z</time>
      </trkpt>
      <trkpt lat="45.76586" lon="4.84104">
        <ele>171</ele>
        <time>2010-11-04T13:17:22Z</time>
      </trkpt>
      <trkpt lat="45.76589" lon="4.84104">
        <ele>171</ele>
        <time>2010-11-04T13:17:23Z</time>
      </trkpt>
      <trkpt lat="45.76593" lon="4.84103">
        <ele>171</ele>
        <time>2010-11-04T13:17:24Z</time>
      </trkpt>
      <trkpt lat="45.7663" lon="4.84095">
        <ele>171</ele>
        <time>2010-11-04T13:17:33Z</time>
      </trkpt>
      <trkpt lat="45.76666" lon="4.84086">
        <ele>169</ele>
        <time>2010-11-04T13:17:43Z</time>
      </trkpt>
      <trkpt lat="45.7667" lon="4.84085">
        <ele>169</ele>
        <time>2010-11-04T13:17:44Z</time>
      </trkpt>
      <trkpt lat="45.76696" lon="4.84081">
        <ele>167</ele>
        <time>2010-11-04T13:17:52Z</time>
      </trkpt>
      <trkpt lat="45.767" lon="4.84082">
        <ele>167</ele>
        <time>2010-11-04T13:17:53Z</time>
      </trkpt>
      <trkpt lat="45.76716" lon="4.8408">
        <ele>167</ele>
        <time>2010-11-04T13:17:57Z</time>
      </trkpt>
      <trkpt lat="45.76749" lon="4.84078">
        <ele>168</ele>
        <time>2010-11-04T13:18:06Z</time>
      </trkpt>
      <trkpt lat="45.76756" lon="4.84078">
        <ele>168</ele>
        <time>2010-11-04T13:18:08Z</time>
      </trkpt>
      <trkpt lat="45.7676" lon="4.84077">
        <ele>167</ele>
        <time>2010-11-04T13:18:09Z</time>
      </trkpt>
      <trkpt lat="45.76764" lon="4.84075">
        <ele>167</ele>
        <time>2010-11-04T13:18:10Z</time>
      </trkpt>
      <trkpt lat="45.7678" lon="4.84069">
        <ele>167</ele>
        <time>2010-11-04T13:18:14Z</time>
      </trkpt>
      <trkpt lat="45.7682" lon="4.84069">
        <ele>166</ele>
        <time>2010-11-04T13:18:25Z</time>
      </trkpt>
      <trkpt lat="45.76847" lon="4.84068">
        <ele>167</ele>
        <time>2010-11-04T13:18:32Z</time>
      </trkpt>
      <trkpt lat="45.76851" lon="4.84068">
        <ele>167</ele>
        <time>2010-11-04T13:18:33Z</time>
      </trkpt>
      <trkpt lat="45.76855" lon="4.84067">
        <ele>167</ele>
        <time>2010-11-04T13:18:34Z</time>
      </trkpt>
      <trkpt lat="45.76859" lon="4.84066">
        <ele>167</ele>
        <time>2010-11-04T13:18:35Z</time>
      </trkpt>
      <trkpt lat="45.76862" lon="4.84065">
        <ele>167</ele>
        <time>2010-11-04T13:18:36Z</time>
      </trkpt>
      <trkpt lat="45.76866" lon="4.84064">
        <ele>167</ele>
        <time>2010-11-04T13:18:37Z</time>
      </trkpt>
      <trkpt lat="45.76868" lon="4.84064">
        <ele>167</ele>
        <time>2010-11-04T13:18:38Z</time>
      </trkpt>
      <trkpt lat="45.76872" lon="4.84064">
        <ele>167</ele>
        <time>2010-11-04T13:18:39Z</time>
      </trkpt>
      <trkpt lat="45.7688" lon="4.84062">
        <ele>167</ele>
        <time>2010-11-04T13:18:41Z</time>
      </trkpt>
      <trkpt lat="45.76893" lon="4.84064">
        <ele>168</ele>
        <time>2010-11-04T13:18:44Z</time>
      </trkpt>
      <trkpt lat="45.76906" lon="4.84066">
        <ele>169</ele>
        <time>2010-11-04T13:18:47Z</time>
      </trkpt>
      <trkpt lat="45.76935" lon="4.84063">
        <ele>169</ele>
        <time>2010-11-04T13:18:55Z</time>
      </trkpt>
      <trkpt lat="45.76969" lon="4.8406">
        <ele>169</ele>
        <time>2010-11-04T13:19:04Z</time>
      </trkpt>
      <trkpt lat="45.76973" lon="4.84061">
        <ele>169</ele>
        <time>2010-11-04T13:19:05Z</time>
      </trkpt>
      <trkpt lat="45.76977" lon="4.84062">
        <ele>169</ele>
        <time>2010-11-04T13:19:06Z</time>
      </trkpt>
      <trkpt lat="45.76981" lon="4.84062">
        <ele>170</ele>
        <time>2010-11-04T13:19:07Z</time>
      </trkpt>
      <trkpt lat="45.76985" lon="4.84063">
        <ele>170</ele>
        <time>2010-11-04T13:19:08Z</time>
      </trkpt>
      <trkpt lat="45.76989" lon="4.84061">
        <ele>170</ele>
        <time>2010-11-04T13:19:09Z</time>
      </trkpt>
      <trkpt lat="45.76992" lon="4.8406">
        <ele>170</ele>
        <time>2010-11-04T13:19:10Z</time>
      </trkpt>
      <trkpt lat="45.76995" lon="4.8406">
        <ele>170</ele>
        <time>2010-11-04T13:19:11Z</time>
      </trkpt>
      <trkpt lat="45.76999" lon="4.84061">
        <ele>170</ele>
        <time>2010-11-04T13:19:12Z</time>
      </trkpt>
      <trkpt lat="45.77003" lon="4.84062">
        <ele>170</ele>
        <time>2010-11-04T13:19:13Z</time>
      </trkpt>
      <trkpt lat="45.77006" lon="4.84063">
        <ele>170</ele>
        <time>2010-11-04T13:19:14Z</time>
      </trkpt>
      <trkpt lat="45.77026" lon="4.84064">
        <ele>170</ele>
        <time>2010-11-04T13:19:20Z</time>
      </trkpt>
      <trkpt lat="45.7705" lon="4.84064">
        <ele>170</ele>
        <time>2010-11-04T13:19:26Z</time>
      </trkpt>
      <trkpt lat="45.77054" lon="4.84064">
        <ele>170</ele>
        <time>2010-11-04T13:19:27Z</time>
      </trkpt>
      <trkpt lat="45.77058" lon="4.84064">
        <ele>170</ele>
        <time>2010-11-04T13:19:28Z</time>
      </trkpt>
      <trkpt lat="45.77063" lon="4.84064">
        <ele>170</ele>
        <time>2010-11-04T13:19:29Z</time>
      </trkpt>
      <trkpt lat="45.77068" lon="4.84065">
        <ele>170</ele>
        <time>2010-11-04T13:19:30Z</time>
      </trkpt>
      <trkpt lat="45.77071" lon="4.84066">
        <ele>170</ele>
        <time>2010-11-04T13:19:31Z</time>
      </trkpt>
      <trkpt lat="45.77075" lon="4.84067">
        <ele>170</ele>
        <time>2010-11-04T13:19:32Z</time>
      </trkpt>
      <trkpt lat="45.7708" lon="4.84066">
        <ele>170</ele>
        <time>2010-11-04T13:19:33Z</time>
      </trkpt>
      <trkpt lat="45.77084" lon="4.84066">
        <ele>170</ele>
        <time>2010-11-04T13:19:34Z</time>
      </trkpt>
      <trkpt lat="45.77116" lon="4.84068">
        <ele>168</ele>
        <time>2010-11-04T13:19:41Z</time>
      </trkpt>
      <trkpt lat="45.77119" lon="4.84068">
        <ele>168</ele>
        <time>2010-11-04T13:19:42Z</time>
      </trkpt>
      <trkpt lat="45.77122" lon="4.84068">
        <ele>168</ele>
        <time>2010-11-04T13:19:43Z</time>
      </trkpt>
      <trkpt lat="45.77125" lon="4.84068">
        <ele>168</ele>
        <time>2010-11-04T13:19:44Z</time>
      </trkpt>
      <trkpt lat="45.77129" lon="4.84066">
        <ele>168</ele>
        <time>2010-11-04T13:19:45Z</time>
      </trkpt>
      <trkpt lat="45.77132" lon="4.84066">
        <ele>168</ele>
        <time>2010-11-04T13:19:46Z</time>
      </trkpt>
      <trkpt lat="45.77137" lon="4.84067">
        <ele>167</ele>
        <time>2010-11-04T13:19:47Z</time>
      </trkpt>
      <trkpt lat="45.77141" lon="4.84068">
        <ele>167</ele>
        <time>2010-11-04T13:19:48Z</time>
      </trkpt>
      <trkpt lat="45.77145" lon="4.84069">
        <ele>167</ele>
        <time>2010-11-04T13:19:49Z</time>
      </trkpt>
      <trkpt lat="45.77148" lon="4.84068">
        <ele>167</ele>
        <time>2010-11-04T13:19:50Z</time>
      </trkpt>
      <trkpt lat="45.77152" lon="4.84067">
        <ele>167</ele>
        <time>2010-11-04T13:19:51Z</time>
      </trkpt>
      <trkpt lat="45.77156" lon="4.84068">
        <ele>167</ele>
        <time>2010-11-04T13:19:52Z</time>
      </trkpt>
      <trkpt lat="45.7716" lon="4.84068">
        <ele>167</ele>
        <time>2010-11-04T13:19:53Z</time>
      </trkpt>
      <trkpt lat="45.77164" lon="4.84068">
        <ele>167</ele>
        <time>2010-11-04T13:19:54Z</time>
      </trkpt>
      <trkpt lat="45.77169" lon="4.84068">
        <ele>167</ele>
        <time>2010-11-04T13:19:55Z</time>
      </trkpt>
      <trkpt lat="45.77173" lon="4.84068">
        <ele>167</ele>
        <time>2010-11-04T13:19:56Z</time>
      </trkpt>
      <trkpt lat="45.77177" lon="4.84068">
        <ele>167</ele>
        <time>2010-11-04T13:19:57Z</time>
      </trkpt>
      <trkpt lat="45.7718" lon="4.84067">
        <ele>167</ele>
        <time>2010-11-04T13:19:58Z</time>
      </trkpt>
      <trkpt lat="45.77189" lon="4.84068">
        <ele>167</ele>
        <time>2010-11-04T13:20:00Z</time>
      </trkpt>
      <trkpt lat="45.77193" lon="4.84068">
        <ele>167</ele>
        <time>2010-11-04T13:20:01Z</time>
      </trkpt>
      <trkpt lat="45.77197" lon="4.84068">
        <ele>168</ele>
        <time>2010-11-04T13:20:02Z</time>
      </trkpt>
      <trkpt lat="45.77201" lon="4.84067">
        <ele>168</ele>
        <time>2010-11-04T13:20:03Z</time>
      </trkpt>
      <trkpt lat="45.77206" lon="4.84067">
        <ele>168</ele>
        <time>2010-11-04T13:20:04Z</time>
      </trkpt>
      <trkpt lat="45.7721" lon="4.84066">
        <ele>168</ele>
        <time>2010-11-04T13:20:05Z</time>
      </trkpt>
      <trkpt lat="45.77213" lon="4.84066">
        <ele>168</ele>
        <time>2010-11-04T13:20:06Z</time>
      </trkpt>
      <trkpt lat="45.77217" lon="4.84067">
        <ele>168</ele>
        <time>2010-11-04T13:20:07Z</time>
      </trkpt>
      <trkpt lat="45.77228" lon="4.84066">
        <ele>169</ele>
        <time>2010-11-04T13:20:15Z</time>
      </trkpt>
      <trkpt lat="45.7723" lon="4.84066">
        <ele>169</ele>
        <time>2010-11-04T13:20:16Z</time>
      </trkpt>
      <trkpt lat="45.77236" lon="4.84072">
        <ele>170</ele>
        <time>2010-11-04T13:20:24Z</time>
      </trkpt>
      <trkpt lat="45.77244" lon="4.84074">
        <ele>170</ele>
        <time>2010-11-04T13:20:25Z</time>
      </trkpt>
      <trkpt lat="45.77251" lon="4.84075">
        <ele>171</ele>
        <time>2010-11-04T13:20:26Z</time>
      </trkpt>
      <trkpt lat="45.77259" lon="4.84077">
        <ele>170</ele>
        <time>2010-11-04T13:20:28Z</time>
      </trkpt>
      <trkpt lat="45.77262" lon="4.84077">
        <ele>170</ele>
        <time>2010-11-04T13:20:29Z</time>
      </trkpt>
      <trkpt lat="45.77266" lon="4.84078">
        <ele>170</ele>
        <time>2010-11-04T13:20:30Z</time>
      </trkpt>
      <trkpt lat="45.77269" lon="4.84078">
        <ele>169</ele>
        <time>2010-11-04T13:20:31Z</time>
      </trkpt>
      <trkpt lat="45.77272" lon="4.84079">
        <ele>169</ele>
        <time>2010-11-04T13:20:32Z</time>
      </trkpt>
      <trkpt lat="45.77275" lon="4.84081">
        <ele>169</ele>
        <time>2010-11-04T13:20:33Z</time>
      </trkpt>
      <trkpt lat="45.77277" lon="4.84082">
        <ele>169</ele>
        <time>2010-11-04T13:20:34Z</time>
      </trkpt>
      <trkpt lat="45.7728" lon="4.84083">
        <ele>171</ele>
        <time>2010-11-04T13:20:35Z</time>
      </trkpt>
      <trkpt lat="45.77283" lon="4.84084">
        <ele>171</ele>
        <time>2010-11-04T13:20:36Z</time>
      </trkpt>
      <trkpt lat="45.77286" lon="4.84085">
        <ele>171</ele>
        <time>2010-11-04T13:20:37Z</time>
      </trkpt>
      <trkpt lat="45.7729" lon="4.84087">
        <ele>171</ele>
        <time>2010-11-04T13:20:39Z</time>
      </trkpt>
      <trkpt lat="45.77292" lon="4.84088">
        <ele>171</ele>
        <time>2010-11-04T13:20:40Z</time>
      </trkpt>
      <trkpt lat="45.77294" lon="4.8409">
        <ele>171</ele>
        <time>2010-11-04T13:20:41Z</time>
      </trkpt>
      <trkpt lat="45.77295" lon="4.84091">
        <ele>171</ele>
        <time>2010-11-04T13:20:42Z</time>
      </trkpt>
      <trkpt lat="45.77296" lon="4.84091">
        <ele>171</ele>
        <time>2010-11-04T13:20:43Z</time>
      </trkpt>
      <trkpt lat="45.77298" lon="4.84092">
        <ele>171</ele>
        <time>2010-11-04T13:20:44Z</time>
      </trkpt>
      <trkpt lat="45.773" lon="4.84093">
        <ele>171</ele>
        <time>2010-11-04T13:20:45Z</time>
      </trkpt>
      <trkpt lat="45.77301" lon="4.84094">
        <ele>171</ele>
        <time>2010-11-04T13:20:46Z</time>
      </trkpt>
      <trkpt lat="45.77302" lon="4.84095">
        <ele>171</ele>
        <time>2010-11-04T13:20:47Z</time>
      </trkpt>
      <trkpt lat="45.77303" lon="4.84096">
        <ele>170</ele>
        <time>2010-11-04T13:20:48Z</time>
      </trkpt>
      <trkpt lat="45.77307" lon="4.84099">
        <ele>170</ele>
        <time>2010-11-04T13:20:52Z</time>
      </trkpt>
      <trkpt lat="45.7731" lon="4.84102">
        <ele>170</ele>
        <time>2010-11-04T13:20:54Z</time>
      </trkpt>
      <trkpt lat="45.77311" lon="4.84103">
        <ele>170</ele>
        <time>2010-11-04T13:20:55Z</time>
      </trkpt>
      <trkpt lat="45.77313" lon="4.84104">
        <ele>170</ele>
        <time>2010-11-04T13:20:56Z</time>
      </trkpt>
      <trkpt lat="45.77315" lon="4.84106">
        <ele>170</ele>
        <time>2010-11-04T13:20:57Z</time>
      </trkpt>
      <trkpt lat="45.77316" lon="4.84108">
        <ele>170</ele>
        <time>2010-11-04T13:20:58Z</time>
      </trkpt>
      <trkpt lat="45.77318" lon="4.8411">
        <ele>170</ele>
        <time>2010-11-04T13:20:59Z</time>
      </trkpt>
      <trkpt lat="45.77319" lon="4.84112">
        <ele>171</ele>
        <time>2010-11-04T13:21:00Z</time>
      </trkpt>
      <trkpt lat="45.77322" lon="4.84113">
        <ele>171</ele>
        <time>2010-11-04T13:21:01Z</time>
      </trkpt>
      <trkpt lat="45.77324" lon="4.84113">
        <ele>170</ele>
        <time>2010-11-04T13:21:02Z</time>
      </trkpt>
      <trkpt lat="45.77337" lon="4.84123">
        <ele>169</ele>
        <time>2010-11-04T13:21:10Z</time>
      </trkpt>
      <trkpt lat="45.77352" lon="4.84129">
        <ele>170</ele>
        <time>2010-11-04T13:21:18Z</time>
      </trkpt>
      <trkpt lat="45.77354" lon="4.8413">
        <ele>170</ele>
        <time>2010-11-04T13:21:19Z</time>
      </trkpt>
      <trkpt lat="45.77356" lon="4.84131">
        <ele>170</ele>
        <time>2010-11-04T13:21:20Z</time>
      </trkpt>
      <trkpt lat="45.77358" lon="4.84131">
        <ele>170</ele>
        <time>2010-11-04T13:21:21Z</time>
      </trkpt>
      <trkpt lat="45.7736" lon="4.84133">
        <ele>170</ele>
        <time>2010-11-04T13:21:22Z</time>
      </trkpt>
      <trkpt lat="45.77362" lon="4.84134">
        <ele>170</ele>
        <time>2010-11-04T13:21:23Z</time>
      </trkpt>
      <trkpt lat="45.77363" lon="4.84136">
        <ele>170</ele>
        <time>2010-11-04T13:21:24Z</time>
      </trkpt>
      <trkpt lat="45.77364" lon="4.84137">
        <ele>170</ele>
        <time>2010-11-04T13:21:25Z</time>
      </trkpt>
      <trkpt lat="45.77366" lon="4.84138">
        <ele>170</ele>
        <time>2010-11-04T13:21:26Z</time>
      </trkpt>
      <trkpt lat="45.77368" lon="4.8414">
        <ele>170</ele>
        <time>2010-11-04T13:21:27Z</time>
      </trkpt>
      <trkpt lat="45.7737" lon="4.84141">
        <ele>170</ele>
        <time>2010-11-04T13:21:28Z</time>
      </trkpt>
      <trkpt lat="45.77372" lon="4.84143">
        <ele>170</ele>
        <time>2010-11-04T13:21:29Z</time>
      </trkpt>
      <trkpt lat="45.77374" lon="4.84144">
        <ele>170</ele>
        <time>2010-11-04T13:21:30Z</time>
      </trkpt>
      <trkpt lat="45.77375" lon="4.84146">
        <ele>170</ele>
        <time>2010-11-04T13:21:31Z</time>
      </trkpt>
      <trkpt lat="45.77395" lon="4.8416">
        <ele>170</ele>
        <time>2010-11-04T13:21:41Z</time>
      </trkpt>
      <trkpt lat="45.77418" lon="4.84173">
        <ele>171</ele>
        <time>2010-11-04T13:21:50Z</time>
      </trkpt>
      <trkpt lat="45.77421" lon="4.84174">
        <ele>171</ele>
        <time>2010-11-04T13:21:51Z</time>
      </trkpt>
      <trkpt lat="45.77423" lon="4.84175">
        <ele>172</ele>
        <time>2010-11-04T13:21:52Z</time>
      </trkpt>
      <trkpt lat="45.77425" lon="4.84176">
        <ele>172</ele>
        <time>2010-11-04T13:21:53Z</time>
      </trkpt>
      <trkpt lat="45.77427" lon="4.84178">
        <ele>172</ele>
        <time>2010-11-04T13:21:54Z</time>
      </trkpt>
      <trkpt lat="45.77429" lon="4.8418">
        <ele>172</ele>
        <time>2010-11-04T13:21:55Z</time>
      </trkpt>
      <trkpt lat="45.7743" lon="4.84181">
        <ele>172</ele>
        <time>2010-11-04T13:21:56Z</time>
      </trkpt>
      <trkpt lat="45.77432" lon="4.84182">
        <ele>172</ele>
        <time>2010-11-04T13:21:57Z</time>
      </trkpt>
      <trkpt lat="45.77434" lon="4.84183">
        <ele>172</ele>
        <time>2010-11-04T13:21:58Z</time>
      </trkpt>
      <trkpt lat="45.77436" lon="4.84184">
        <ele>172</ele>
        <time>2010-11-04T13:21:59Z</time>
      </trkpt>
      <trkpt lat="45.77439" lon="4.84185">
        <ele>172</ele>
        <time>2010-11-04T13:22:00Z</time>
      </trkpt>
      <trkpt lat="45.77442" lon="4.84187">
        <ele>172</ele>
        <time>2010-11-04T13:22:01Z</time>
      </trkpt>
      <trkpt lat="45.77445" lon="4.84189">
        <ele>172</ele>
        <time>2010-11-04T13:22:02Z</time>
      </trkpt>
      <trkpt lat="45.77465" lon="4.842">
        <ele>172</ele>
        <time>2010-11-04T13:22:10Z</time>
      </trkpt>
      <trkpt lat="45.77467" lon="4.84201">
        <ele>172</ele>
        <time>2010-11-04T13:22:11Z</time>
      </trkpt>
      <trkpt lat="45.77469" lon="4.84202">
        <ele>172</ele>
        <time>2010-11-04T13:22:12Z</time>
      </trkpt>
      <trkpt lat="45.77471" lon="4.84204">
        <ele>171</ele>
        <time>2010-11-04T13:22:13Z</time>
      </trkpt>
      <trkpt lat="45.77473" lon="4.84206">
        <ele>171</ele>
        <time>2010-11-04T13:22:14Z</time>
      </trkpt>
      <trkpt lat="45.77475" lon="4.84207">
        <ele>171</ele>
        <time>2010-11-04T13:22:15Z</time>
      </trkpt>
      <trkpt lat="45.77478" lon="4.84208">
        <ele>171</ele>
        <time>2010-11-04T13:22:16Z</time>
      </trkpt>
      <trkpt lat="45.7748" lon="4.84209">
        <ele>171</ele>
        <time>2010-11-04T13:22:17Z</time>
      </trkpt>
      <trkpt lat="45.77483" lon="4.84211">
        <ele>171</ele>
        <time>2010-11-04T13:22:18Z</time>
      </trkpt>
      <trkpt lat="45.77485" lon="4.84213">
        <ele>171</ele>
        <time>2010-11-04T13:22:19Z</time>
      </trkpt>
      <trkpt lat="45.77488" lon="4.84215">
        <ele>171</ele>
        <time>2010-11-04T13:22:20Z</time>
      </trkpt>
      <trkpt lat="45.77514" lon="4.84231">
        <ele>168</ele>
        <time>2010-11-04T13:22:31Z</time>
      </trkpt>
      <trkpt lat="45.77535" lon="4.84247">
        <ele>168</ele>
        <time>2010-11-04T13:22:40Z</time>
      </trkpt>
      <trkpt lat="45.77537" lon="4.84249">
        <ele>168</ele>
        <time>2010-11-04T13:22:41Z</time>
      </trkpt>
      <trkpt lat="45.77538" lon="4.84251">
        <ele>171</ele>
        <time>2010-11-04T13:22:42Z</time>
      </trkpt>
      <trkpt lat="45.7754" lon="4.84252">
        <ele>171</ele>
        <time>2010-11-04T13:22:43Z</time>
      </trkpt>
      <trkpt lat="45.77542" lon="4.84254">
        <ele>171</ele>
        <time>2010-11-04T13:22:44Z</time>
      </trkpt>
      <trkpt lat="45.77545" lon="4.84256">
        <ele>171</ele>
        <time>2010-11-04T13:22:45Z</time>
      </trkpt>
      <trkpt lat="45.77549" lon="4.84258">
        <ele>171</ele>
        <time>2010-11-04T13:22:46Z</time>
      </trkpt>
      <trkpt lat="45.77551" lon="4.84259">
        <ele>171</ele>
        <time>2010-11-04T13:22:47Z</time>
      </trkpt>
      <trkpt lat="45.77563" lon="4.84266">
        <ele>171</ele>
        <time>2010-11-04T13:22:51Z</time>
      </trkpt>
      <trkpt lat="45.77565" lon="4.84266">
        <ele>171</ele>
        <time>2010-11-04T13:22:52Z</time>
      </trkpt>
      <trkpt lat="45.77568" lon="4.84268">
        <ele>171</ele>
        <time>2010-11-04T13:22:53Z</time>
      </trkpt>
      <trkpt lat="45.7757" lon="4.8427">
        <ele>171</ele>
        <time>2010-11-04T13:22:54Z</time>
      </trkpt>
      <trkpt lat="45.77572" lon="4.84272">
        <ele>171</ele>
        <time>2010-11-04T13:22:55Z</time>
      </trkpt>
      <trkpt lat="45.77575" lon="4.84275">
        <ele>171</ele>
        <time>2010-11-04T13:22:56Z</time>
      </trkpt>
      <trkpt lat="45.77597" lon="4.84292">
        <ele>170</ele>
        <time>2010-11-04T13:23:05Z</time>
      </trkpt>
      <trkpt lat="45.77608" lon="4.84301">
        <ele>170</ele>
        <time>2010-11-04T13:23:10Z</time>
      </trkpt>
      <trkpt lat="45.77617" lon="4.84308">
        <ele>170</ele>
        <time>2010-11-04T13:23:14Z</time>
      </trkpt>
      <trkpt lat="45.7762" lon="4.84309">
        <ele>170</ele>
        <time>2010-11-04T13:23:15Z</time>
      </trkpt>
      <trkpt lat="45.77623" lon="4.8431">
        <ele>170</ele>
        <time>2010-11-04T13:23:16Z</time>
      </trkpt>
      <trkpt lat="45.77625" lon="4.84311">
        <ele>170</ele>
        <time>2010-11-04T13:23:17Z</time>
      </trkpt>
      <trkpt lat="45.77628" lon="4.84314">
        <ele>170</ele>
        <time>2010-11-04T13:23:18Z</time>
      </trkpt>
      <trkpt lat="45.77636" lon="4.84319">
        <ele>169</ele>
        <time>2010-11-04T13:23:21Z</time>
      </trkpt>
      <trkpt lat="45.77639" lon="4.84321">
        <ele>169</ele>
        <time>2010-11-04T13:23:22Z</time>
      </trkpt>
      <trkpt lat="45.77642" lon="4.84323">
        <ele>169</ele>
        <time>2010-11-04T13:23:23Z</time>
      </trkpt>
      <trkpt lat="45.77645" lon="4.84324">
        <ele>169</ele>
        <time>2010-11-04T13:23:24Z</time>
      </trkpt>
      <trkpt lat="45.77648" lon="4.84324">
        <ele>169</ele>
        <time>2010-11-04T13:23:25Z</time>
      </trkpt>
      <trkpt lat="45.7765" lon="4.84326">
        <ele>169</ele>
        <time>2010-11-04T13:23:26Z</time>
      </trkpt>
      <trkpt lat="45.77652" lon="4.84329">
        <ele>169</ele>
        <time>2010-11-04T13:23:27Z</time>
      </trkpt>
      <trkpt lat="45.77654" lon="4.84331">
        <ele>169</ele>
        <time>2010-11-04T13:23:28Z</time>
      </trkpt>
      <trkpt lat="45.77656" lon="4.84333">
        <ele>169</ele>
        <time>2010-11-04T13:23:29Z</time>
      </trkpt>
      <trkpt lat="45.77658" lon="4.84335">
        <ele>170</ele>
        <time>2010-11-04T13:23:30Z</time>
      </trkpt>
      <trkpt lat="45.77661" lon="4.84337">
        <ele>170</ele>
        <time>2010-11-04T13:23:31Z</time>
      </trkpt>
      <trkpt lat="45.77663" lon="4.84339">
        <ele>169</ele>
        <time>2010-11-04T13:23:32Z</time>
      </trkpt>
      <trkpt lat="45.77666" lon="4.84341">
        <ele>170</ele>
        <time>2010-11-04T13:23:33Z</time>
      </trkpt>
      <trkpt lat="45.77692" lon="4.84355">
        <ele>168</ele>
        <time>2010-11-04T13:23:42Z</time>
      </trkpt>
      <trkpt lat="45.77702" lon="4.84358">
        <ele>168</ele>
        <time>2010-11-04T13:23:45Z</time>
      </trkpt>
      <trkpt lat="45.77724" lon="4.84365">
        <ele>168</ele>
        <time>2010-11-04T13:23:53Z</time>
      </trkpt>
      <trkpt lat="45.77726" lon="4.84363">
        <ele>168</ele>
        <time>2010-11-04T13:23:54Z</time>
      </trkpt>
      <trkpt lat="45.77729" lon="4.84362">
        <ele>168</ele>
        <time>2010-11-04T13:23:55Z</time>
      </trkpt>
      <trkpt lat="45.77731" lon="4.84361">
        <ele>168</ele>
        <time>2010-11-04T13:23:56Z</time>
      </trkpt>
      <trkpt lat="45.77734" lon="4.8436">
        <ele>168</ele>
        <time>2010-11-04T13:23:57Z</time>
      </trkpt>
      <trkpt lat="45.77737" lon="4.84359">
        <ele>168</ele>
        <time>2010-11-04T13:23:58Z</time>
      </trkpt>
      <trkpt lat="45.77755" lon="4.84356">
        <ele>167</ele>
        <time>2010-11-04T13:24:04Z</time>
      </trkpt>
      <trkpt lat="45.77757" lon="4.84357">
        <ele>167</ele>
        <time>2010-11-04T13:24:05Z</time>
      </trkpt>
      <trkpt lat="45.77759" lon="4.84359">
        <ele>167</ele>
        <time>2010-11-04T13:24:06Z</time>
      </trkpt>
      <trkpt lat="45.77762" lon="4.8436">
        <ele>167</ele>
        <time>2010-11-04T13:24:07Z</time>
      </trkpt>
      <trkpt lat="45.77764" lon="4.8436">
        <ele>167</ele>
        <time>2010-11-04T13:24:08Z</time>
      </trkpt>
      <trkpt lat="45.77766" lon="4.84362">
        <ele>167</ele>
        <time>2010-11-04T13:24:09Z</time>
      </trkpt>
      <trkpt lat="45.77768" lon="4.84361">
        <ele>167</ele>
        <time>2010-11-04T13:24:10Z</time>
      </trkpt>
      <trkpt lat="45.77772" lon="4.84359">
        <ele>167</ele>
        <time>2010-11-04T13:24:11Z</time>
      </trkpt>
      <trkpt lat="45.77775" lon="4.84358">
        <ele>167</ele>
        <time>2010-11-04T13:24:12Z</time>
      </trkpt>
      <trkpt lat="45.77778" lon="4.84358">
        <ele>167</ele>
        <time>2010-11-04T13:24:13Z</time>
      </trkpt>
      <trkpt lat="45.77782" lon="4.84358">
        <ele>167</ele>
        <time>2010-11-04T13:24:14Z</time>
      </trkpt>
      <trkpt lat="45.77785" lon="4.84359">
        <ele>167</ele>
        <time>2010-11-04T13:24:15Z</time>
      </trkpt>
      <trkpt lat="45.77789" lon="4.8436">
        <ele>167</ele>
        <time>2010-11-04T13:24:16Z</time>
      </trkpt>
      <trkpt lat="45.77792" lon="4.8436">
        <ele>167</ele>
        <time>2010-11-04T13:24:17Z</time>
      </trkpt>
      <trkpt lat="45.77795" lon="4.84359">
        <ele>167</ele>
        <time>2010-11-04T13:24:18Z</time>
      </trkpt>
      <trkpt lat="45.77797" lon="4.84358">
        <ele>167</ele>
        <time>2010-11-04T13:24:19Z</time>
      </trkpt>
      <trkpt lat="45.778" lon="4.84357">
        <ele>167</ele>
        <time>2010-11-04T13:24:20Z</time>
      </trkpt>
      <trkpt lat="45.77802" lon="4.84357">
        <ele>167</ele>
        <time>2010-11-04T13:24:21Z</time>
      </trkpt>
      <trkpt lat="45.77805" lon="4.84358">
        <ele>167</ele>
        <time>2010-11-04T13:24:22Z</time>
      </trkpt>
      <trkpt lat="45.77807" lon="4.84358">
        <ele>167</ele>
        <time>2010-11-04T13:24:23Z</time>
      </trkpt>
      <trkpt lat="45.77833" lon="4.84387">
        <ele>167</ele>
        <time>2010-11-04T13:24:32Z</time>
      </trkpt>
      <trkpt lat="45.77837" lon="4.84388">
        <ele>167</ele>
        <time>2010-11-04T13:24:33Z</time>
      </trkpt>
      <trkpt lat="45.77841" lon="4.84389">
        <ele>167</ele>
        <time>2010-11-04T13:24:34Z</time>
      </trkpt>
      <trkpt lat="45.77843" lon="4.84389">
        <ele>167</ele>
        <time>2010-11-04T13:24:35Z</time>
      </trkpt>
      <trkpt lat="45.77846" lon="4.84389">
        <ele>167</ele>
        <time>2010-11-04T13:24:36Z</time>
      </trkpt>
      <trkpt lat="45.77849" lon="4.8439">
        <ele>167</ele>
        <time>2010-11-04T13:24:37Z</time>
      </trkpt>
      <trkpt lat="45.77852" lon="4.84392">
        <ele>167</ele>
        <time>2010-11-04T13:24:38Z</time>
      </trkpt>
      <trkpt lat="45.77855" lon="4.84394">
        <ele>167</ele>
        <time>2010-11-04T13:24:39Z</time>
      </trkpt>
      <trkpt lat="45.77857" lon="4.84395">
        <ele>167</ele>
        <time>2010-11-04T13:24:40Z</time>
      </trkpt>
      <trkpt lat="45.7786" lon="4.84397">
        <ele>167</ele>
        <time>2010-11-04T13:24:41Z</time>
      </trkpt>
      <trkpt lat="45.77862" lon="4.84399">
        <ele>167</ele>
        <time>2010-11-04T13:24:42Z</time>
      </trkpt>
      <trkpt lat="45.77865" lon="4.84401">
        <ele>167</ele>
        <time>2010-11-04T13:24:43Z</time>
      </trkpt>
      <trkpt lat="45.77869" lon="4.84402">
        <ele>167</ele>
        <time>2010-11-04T13:24:44Z</time>
      </trkpt>
      <trkpt lat="45.77871" lon="4.84403">
        <ele>167</ele>
        <time>2010-11-04T13:24:45Z</time>
      </trkpt>
      <trkpt lat="45.77874" lon="4.84405">
        <ele>167</ele>
        <time>2010-11-04T13:24:46Z</time>
      </trkpt>
      <trkpt lat="45.77886" lon="4.84415">
        <ele>167</ele>
        <time>2010-11-04T13:24:52Z</time>
      </trkpt>
      <trkpt lat="45.77888" lon="4.84417">
        <ele>169</ele>
        <time>2010-11-04T13:24:53Z</time>
      </trkpt>
      <trkpt lat="45.7791" lon="4.84428">
        <ele>168</ele>
        <time>2010-11-04T13:25:02Z</time>
      </trkpt>
      <trkpt lat="45.77913" lon="4.8443">
        <ele>168</ele>
        <time>2010-11-04T13:25:03Z</time>
      </trkpt>
      <trkpt lat="45.77916" lon="4.84432">
        <ele>168</ele>
        <time>2010-11-04T13:25:04Z</time>
      </trkpt>
      <trkpt lat="45.7792" lon="4.84434">
        <ele>167</ele>
        <time>2010-11-04T13:25:05Z</time>
      </trkpt>
      <trkpt lat="45.77924" lon="4.84435">
        <ele>167</ele>
        <time>2010-11-04T13:25:06Z</time>
      </trkpt>
      <trkpt lat="45.77928" lon="4.84437">
        <ele>167</ele>
        <time>2010-11-04T13:25:07Z</time>
      </trkpt>
      <trkpt lat="45.77931" lon="4.8444">
        <ele>167</ele>
        <time>2010-11-04T13:25:08Z</time>
      </trkpt>
      <trkpt lat="45.77934" lon="4.84441">
        <ele>167</ele>
        <time>2010-11-04T13:25:09Z</time>
      </trkpt>
      <trkpt lat="45.77937" lon="4.84441">
        <ele>167</ele>
        <time>2010-11-04T13:25:10Z</time>
      </trkpt>
      <trkpt lat="45.77941" lon="4.84441">
        <ele>167</ele>
        <time>2010-11-04T13:25:11Z</time>
      </trkpt>
      <trkpt lat="45.77945" lon="4.84443">
        <ele>167</ele>
        <time>2010-11-04T13:25:13Z</time>
      </trkpt>
      <trkpt lat="45.77947" lon="4.84447">
        <ele>167</ele>
        <time>2010-11-04T13:25:14Z</time>
      </trkpt>
      <trkpt lat="45.77951" lon="4.84449">
        <ele>167</ele>
        <time>2010-11-04T13:25:15Z</time>
      </trkpt>
      <trkpt lat="45.77953" lon="4.8445">
        <ele>167</ele>
        <time>2010-11-04T13:25:16Z</time>
      </trkpt>
      <trkpt lat="45.77956" lon="4.84453">
        <ele>167</ele>
        <time>2010-11-04T13:25:17Z</time>
      </trkpt>
      <trkpt lat="45.77977" lon="4.84471">
        <ele>166</ele>
        <time>2010-11-04T13:25:25Z</time>
      </trkpt>
      <trkpt lat="45.77992" lon="4.84482">
        <ele>165</ele>
        <time>2010-11-04T13:25:31Z</time>
      </trkpt>
      <trkpt lat="45.77995" lon="4.84483">
        <ele>165</ele>
        <time>2010-11-04T13:25:32Z</time>
      </trkpt>
      <trkpt lat="45.77998" lon="4.84484">
        <ele>165</ele>
        <time>2010-11-04T13:25:33Z</time>
      </trkpt>
      <trkpt lat="45.78" lon="4.84486">
        <ele>165</ele>
        <time>2010-11-04T13:25:34Z</time>
      </trkpt>
      <trkpt lat="45.78003" lon="4.84488">
        <ele>165</ele>
        <time>2010-11-04T13:25:35Z</time>
      </trkpt>
      <trkpt lat="45.78014" lon="4.84501">
        <ele>165</ele>
        <time>2010-11-04T13:25:40Z</time>
      </trkpt>
      <trkpt lat="45.78018" lon="4.84502">
        <ele>165</ele>
        <time>2010-11-04T13:25:41Z</time>
      </trkpt>
      <trkpt lat="45.78027" lon="4.84512">
        <ele>166</ele>
        <time>2010-11-04T13:25:44Z</time>
      </trkpt>
      <trkpt lat="45.78043" lon="4.84526">
        <ele>166</ele>
        <time>2010-11-04T13:25:50Z</time>
      </trkpt>
      <trkpt lat="45.78044" lon="4.84529">
        <ele>166</ele>
        <time>2010-11-04T13:25:51Z</time>
      </trkpt>
      <trkpt lat="45.78045" lon="4.84532">
        <ele>166</ele>
        <time>2010-11-04T13:25:52Z</time>
      </trkpt>
      <trkpt lat="45.78071" lon="4.84557">
        <ele>166</ele>
        <time>2010-11-04T13:26:01Z</time>
      </trkpt>
      <trkpt lat="45.78073" lon="4.84561">
        <ele>166</ele>
        <time>2010-11-04T13:26:02Z</time>
      </trkpt>
      <trkpt lat="45.78076" lon="4.84563">
        <ele>166</ele>
        <time>2010-11-04T13:26:03Z</time>
      </trkpt>
      <trkpt lat="45.78078" lon="4.84565">
        <ele>166</ele>
        <time>2010-11-04T13:26:04Z</time>
      </trkpt>
      <trkpt lat="45.7808" lon="4.84566">
        <ele>166</ele>
        <time>2010-11-04T13:26:05Z</time>
      </trkpt>
      <trkpt lat="45.78085" lon="4.84569">
        <ele>166</ele>
        <time>2010-11-04T13:26:07Z</time>
      </trkpt>
      <trkpt lat="45.78097" lon="4.84578">
        <ele>166</ele>
        <time>2010-11-04T13:26:11Z</time>
      </trkpt>
      <trkpt lat="45.78099" lon="4.84581">
        <ele>166</ele>
        <time>2010-11-04T13:26:12Z</time>
      </trkpt>
      <trkpt lat="45.78101" lon="4.84583">
        <ele>167</ele>
        <time>2010-11-04T13:26:13Z</time>
      </trkpt>
      <trkpt lat="45.78104" lon="4.84586">
        <ele>167</ele>
        <time>2010-11-04T13:26:14Z</time>
      </trkpt>
      <trkpt lat="45.78107" lon="4.84587">
        <ele>167</ele>
        <time>2010-11-04T13:26:15Z</time>
      </trkpt>
      <trkpt lat="45.78109" lon="4.8459">
        <ele>167</ele>
        <time>2010-11-04T13:26:16Z</time>
      </trkpt>
      <trkpt lat="45.78112" lon="4.84592">
        <ele>167</ele>
        <time>2010-11-04T13:26:17Z</time>
      </trkpt>
      <trkpt lat="45.78114" lon="4.84594">
        <ele>167</ele>
        <time>2010-11-04T13:26:18Z</time>
      </trkpt>
      <trkpt lat="45.78117" lon="4.84598">
        <ele>167</ele>
        <time>2010-11-04T13:26:19Z</time>
      </trkpt>
      <trkpt lat="45.78131" lon="4.84613">
        <ele>168</ele>
        <time>2010-11-04T13:26:25Z</time>
      </trkpt>
      <trkpt lat="45.78137" lon="4.84619">
        <ele>168</ele>
        <time>2010-11-04T13:26:27Z</time>
      </trkpt>
      <trkpt lat="45.78139" lon="4.84621">
        <ele>168</ele>
        <time>2010-11-04T13:26:28Z</time>
      </trkpt>
      <trkpt lat="45.78142" lon="4.84625">
        <ele>168</ele>
        <time>2010-11-04T13:26:29Z</time>
      </trkpt>
      <trkpt lat="45.78151" lon="4.84635">
        <ele>168</ele>
        <time>2010-11-04T13:26:32Z</time>
      </trkpt>
      <trkpt lat="45.78155" lon="4.84638">
        <ele>168</ele>
        <time>2010-11-04T13:26:33Z</time>
      </trkpt>
      <trkpt lat="45.78167" lon="4.84645">
        <ele>168</ele>
        <time>2010-11-04T13:26:37Z</time>
      </trkpt>
      <trkpt lat="45.78168" lon="4.84646">
        <ele>167</ele>
        <time>2010-11-04T13:26:38Z</time>
      </trkpt>
      <trkpt lat="45.78171" lon="4.84647">
        <ele>167</ele>
        <time>2010-11-04T13:26:39Z</time>
      </trkpt>
      <trkpt lat="45.78174" lon="4.84649">
        <ele>167</ele>
        <time>2010-11-04T13:26:40Z</time>
      </trkpt>
      <trkpt lat="45.78177" lon="4.84652">
        <ele>167</ele>
        <time>2010-11-04T13:26:41Z</time>
      </trkpt>
      <trkpt lat="45.78179" lon="4.84655">
        <ele>167</ele>
        <time>2010-11-04T13:26:42Z</time>
      </trkpt>
      <trkpt lat="45.78181" lon="4.84657">
        <ele>167</ele>
        <time>2010-11-04T13:26:43Z</time>
      </trkpt>
      <trkpt lat="45.78185" lon="4.84659">
        <ele>167</ele>
        <time>2010-11-04T13:26:44Z</time>
      </trkpt>
      <trkpt lat="45.78188" lon="4.84662">
        <ele>167</ele>
        <time>2010-11-04T13:26:45Z</time>
      </trkpt>
      <trkpt lat="45.78191" lon="4.84665">
        <ele>167</ele>
        <time>2010-11-04T13:26:46Z</time>
      </trkpt>
      <trkpt lat="45.78193" lon="4.84667">
        <ele>168</ele>
        <time>2010-11-04T13:26:47Z</time>
      </trkpt>
      <trkpt lat="45.78195" lon="4.8467">
        <ele>168</ele>
        <time>2010-11-04T13:26:48Z</time>
      </trkpt>
      <trkpt lat="45.78198" lon="4.84672">
        <ele>168</ele>
        <time>2010-11-04T13:26:49Z</time>
      </trkpt>
      <trkpt lat="45.78201" lon="4.84674">
        <ele>168</ele>
        <time>2010-11-04T13:26:50Z</time>
      </trkpt>
      <trkpt lat="45.78204" lon="4.84675">
        <ele>168</ele>
        <time>2010-11-04T13:26:51Z</time>
      </trkpt>
      <trkpt lat="45.78207" lon="4.84677">
        <ele>168</ele>
        <time>2010-11-04T13:26:52Z</time>
      </trkpt>
      <trkpt lat="45.7821" lon="4.8468">
        <ele>168</ele>
        <time>2010-11-04T13:26:53Z</time>
      </trkpt>
      <trkpt lat="45.78213" lon="4.84682">
        <ele>168</ele>
        <time>2010-11-04T13:26:54Z</time>
      </trkpt>
      <trkpt lat="45.78216" lon="4.84684">
        <ele>167</ele>
        <time>2010-11-04T13:26:55Z</time>
      </trkpt>
      <trkpt lat="45.78219" lon="4.84686">
        <ele>167</ele>
        <time>2010-11-04T13:26:56Z</time>
      </trkpt>
      <trkpt lat="45.78222" lon="4.84688">
        <ele>167</ele>
        <time>2010-11-04T13:26:57Z</time>
      </trkpt>
      <trkpt lat="45.78226" lon="4.84691">
        <ele>167</ele>
        <time>2010-11-04T13:26:58Z</time>
      </trkpt>
      <trkpt lat="45.78228" lon="4.84694">
        <ele>167</ele>
        <time>2010-11-04T13:26:59Z</time>
      </trkpt>
      <trkpt lat="45.78231" lon="4.84696">
        <ele>167</ele>
        <time>2010-11-04T13:27:00Z</time>
      </trkpt>
      <trkpt lat="45.78234" lon="4.84698">
        <ele>167</ele>
        <time>2010-11-04T13:27:01Z</time>
      </trkpt>
      <trkpt lat="45.78236" lon="4.84699">
        <ele>167</ele>
        <time>2010-11-04T13:27:02Z</time>
      </trkpt>
      <trkpt lat="45.78238" lon="4.847">
        <ele>167</ele>
        <time>2010-11-04T13:27:03Z</time>
      </trkpt>
      <trkpt lat="45.78241" lon="4.84701">
        <ele>167</ele>
        <time>2010-11-04T13:27:04Z</time>
      </trkpt>
      <trkpt lat="45.78244" lon="4.84703">
        <ele>167</ele>
        <time>2010-11-04T13:27:05Z</time>
      </trkpt>
      <trkpt lat="45.78246" lon="4.84706">
        <ele>167</ele>
        <time>2010-11-04T13:27:06Z</time>
      </trkpt>
      <trkpt lat="45.78249" lon="4.84709">
        <ele>167</ele>
        <time>2010-11-04T13:27:07Z</time>
      </trkpt>
      <trkpt lat="45.78252" lon="4.8471">
        <ele>166</ele>
        <time>2010-11-04T13:27:08Z</time>
      </trkpt>
      <trkpt lat="45.78255" lon="4.84711">
        <ele>166</ele>
        <time>2010-11-04T13:27:09Z</time>
      </trkpt>
      <trkpt lat="45.78257" lon="4.84713">
        <ele>166</ele>
        <time>2010-11-04T13:27:10Z</time>
      </trkpt>
      <trkpt lat="45.78263" lon="4.8472">
        <ele>166</ele>
        <time>2010-11-04T13:27:13Z</time>
      </trkpt>
      <trkpt lat="45.78265" lon="4.84721">
        <ele>166</ele>
        <time>2010-11-04T13:27:14Z</time>
      </trkpt>
      <trkpt lat="45.78268" lon="4.84722">
        <ele>167</ele>
        <time>2010-11-04T13:27:15Z</time>
      </trkpt>
      <trkpt lat="45.78271" lon="4.84724">
        <ele>167</ele>
        <time>2010-11-04T13:27:16Z</time>
      </trkpt>
      <trkpt lat="45.78273" lon="4.84726">
        <ele>167</ele>
        <time>2010-11-04T13:27:17Z</time>
      </trkpt>
      <trkpt lat="45.78275" lon="4.84729">
        <ele>167</ele>
        <time>2010-11-04T13:27:18Z</time>
      </trkpt>
      <trkpt lat="45.78277" lon="4.84732">
        <ele>167</ele>
        <time>2010-11-04T13:27:19Z</time>
      </trkpt>
      <trkpt lat="45.78279" lon="4.84736">
        <ele>167</ele>
        <time>2010-11-04T13:27:20Z</time>
      </trkpt>
      <trkpt lat="45.78282" lon="4.84738">
        <ele>167</ele>
        <time>2010-11-04T13:27:21Z</time>
      </trkpt>
      <trkpt lat="45.78298" lon="4.84752">
        <ele>168</ele>
        <time>2010-11-04T13:27:27Z</time>
      </trkpt>
      <trkpt lat="45.783" lon="4.84754">
        <ele>168</ele>
        <time>2010-11-04T13:27:28Z</time>
      </trkpt>
      <trkpt lat="45.78301" lon="4.84756">
        <ele>168</ele>
        <time>2010-11-04T13:27:29Z</time>
      </trkpt>
      <trkpt lat="45.78303" lon="4.84759">
        <ele>168</ele>
        <time>2010-11-04T13:27:30Z</time>
      </trkpt>
      <trkpt lat="45.78306" lon="4.84763">
        <ele>169</ele>
        <time>2010-11-04T13:27:31Z</time>
      </trkpt>
      <trkpt lat="45.78308" lon="4.84765">
        <ele>169</ele>
        <time>2010-11-04T13:27:32Z</time>
      </trkpt>
      <trkpt lat="45.78311" lon="4.84767">
        <ele>169</ele>
        <time>2010-11-04T13:27:33Z</time>
      </trkpt>
      <trkpt lat="45.78314" lon="4.8477">
        <ele>169</ele>
        <time>2010-11-04T13:27:34Z</time>
      </trkpt>
      <trkpt lat="45.78322" lon="4.84779">
        <ele>169</ele>
        <time>2010-11-04T13:27:37Z</time>
      </trkpt>
      <trkpt lat="45.78327" lon="4.84781">
        <ele>169</ele>
        <time>2010-11-04T13:27:38Z</time>
      </trkpt>
      <trkpt lat="45.78333" lon="4.84785">
        <ele>169</ele>
        <time>2010-11-04T13:27:40Z</time>
      </trkpt>
      <trkpt lat="45.7834" lon="4.84793">
        <ele>168</ele>
        <time>2010-11-04T13:27:43Z</time>
      </trkpt>
      <trkpt lat="45.78342" lon="4.84796">
        <ele>168</ele>
        <time>2010-11-04T13:27:44Z</time>
      </trkpt>
      <trkpt lat="45.78352" lon="4.84809">
        <ele>168</ele>
        <time>2010-11-04T13:27:48Z</time>
      </trkpt>
      <trkpt lat="45.78357" lon="4.84817">
        <ele>168</ele>
        <time>2010-11-04T13:27:50Z</time>
      </trkpt>
      <trkpt lat="45.7836" lon="4.8482">
        <ele>168</ele>
        <time>2010-11-04T13:27:51Z</time>
      </trkpt>
      <trkpt lat="45.78361" lon="4.84824">
        <ele>168</ele>
        <time>2010-11-04T13:27:52Z</time>
      </trkpt>
      <trkpt lat="45.78362" lon="4.84828">
        <ele>168</ele>
        <time>2010-11-04T13:27:53Z</time>
      </trkpt>
      <trkpt lat="45.78365" lon="4.84832">
        <ele>168</ele>
        <time>2010-11-04T13:27:54Z</time>
      </trkpt>
      <trkpt lat="45.78367" lon="4.84834">
        <ele>168</ele>
        <time>2010-11-04T13:27:55Z</time>
      </trkpt>
      <trkpt lat="45.7837" lon="4.84838">
        <ele>168</ele>
        <time>2010-11-04T13:27:56Z</time>
      </trkpt>
      <trkpt lat="45.78372" lon="4.84842">
        <ele>168</ele>
        <time>2010-11-04T13:27:57Z</time>
      </trkpt>
      <trkpt lat="45.78375" lon="4.84846">
        <ele>168</ele>
        <time>2010-11-04T13:27:58Z</time>
      </trkpt>
      <trkpt lat="45.78377" lon="4.84849">
        <ele>168</ele>
        <time>2010-11-04T13:27:59Z</time>
      </trkpt>
      <trkpt lat="45.78379" lon="4.84852">
        <ele>168</ele>
        <time>2010-11-04T13:28:00Z</time>
      </trkpt>
      <trkpt lat="45.78382" lon="4.84855">
        <ele>168</ele>
        <time>2010-11-04T13:28:01Z</time>
      </trkpt>
      <trkpt lat="45.78384" lon="4.84859">
        <ele>168</ele>
        <time>2010-11-04T13:28:02Z</time>
      </trkpt>
      <trkpt lat="45.78391" lon="4.84868">
        <ele>168</ele>
        <time>2010-11-04T13:28:05Z</time>
      </trkpt>
      <trkpt lat="45.78393" lon="4.8487">
        <ele>168</ele>
        <time>2010-11-04T13:28:06Z</time>
      </trkpt>
      <trkpt lat="45.78395" lon="4.84874">
        <ele>168</ele>
        <time>2010-11-04T13:28:07Z</time>
      </trkpt>
      <trkpt lat="45.78397" lon="4.84876">
        <ele>168</ele>
        <time>2010-11-04T13:28:08Z</time>
      </trkpt>
      <trkpt lat="45.78399" lon="4.8488">
        <ele>167</ele>
        <time>2010-11-04T13:28:09Z</time>
      </trkpt>
      <trkpt lat="45.78414" lon="4.84906">
        <ele>167</ele>
        <time>2010-11-04T13:28:16Z</time>
      </trkpt>
      <trkpt lat="45.78419" lon="4.84912">
        <ele>166</ele>
        <time>2010-11-04T13:28:18Z</time>
      </trkpt>
      <trkpt lat="45.78421" lon="4.84914">
        <ele>166</ele>
        <time>2010-11-04T13:28:19Z</time>
      </trkpt>
      <trkpt lat="45.78423" lon="4.84917">
        <ele>166</ele>
        <time>2010-11-04T13:28:20Z</time>
      </trkpt>
      <trkpt lat="45.78424" lon="4.84921">
        <ele>166</ele>
        <time>2010-11-04T13:28:21Z</time>
      </trkpt>
      <trkpt lat="45.78425" lon="4.84923">
        <ele>166</ele>
        <time>2010-11-04T13:28:22Z</time>
      </trkpt>
      <trkpt lat="45.78432" lon="4.84939">
        <ele>166</ele>
        <time>2010-11-04T13:28:26Z</time>
      </trkpt>
      <trkpt lat="45.78433" lon="4.84942">
        <ele>166</ele>
        <time>2010-11-04T13:28:27Z</time>
      </trkpt>
      <trkpt lat="45.78435" lon="4.84946">
        <ele>166</ele>
        <time>2010-11-04T13:28:28Z</time>
      </trkpt>
      <trkpt lat="45.78438" lon="4.8495">
        <ele>167</ele>
        <time>2010-11-04T13:28:29Z</time>
      </trkpt>
      <trkpt lat="45.78441" lon="4.84954">
        <ele>167</ele>
        <time>2010-11-04T13:28:30Z</time>
      </trkpt>
      <trkpt lat="45.78443" lon="4.84959">
        <ele>167</ele>
        <time>2010-11-04T13:28:31Z</time>
      </trkpt>
      <trkpt lat="45.78451" lon="4.84972">
        <ele>167</ele>
        <time>2010-11-04T13:28:34Z</time>
      </trkpt>
      <trkpt lat="45.78454" lon="4.84976">
        <ele>167</ele>
        <time>2010-11-04T13:28:35Z</time>
      </trkpt>
      <trkpt lat="45.78456" lon="4.84981">
        <ele>167</ele>
        <time>2010-11-04T13:28:36Z</time>
      </trkpt>
      <trkpt lat="45.78462" lon="4.85">
        <ele>167</ele>
        <time>2010-11-04T13:28:40Z</time>
      </trkpt>
      <trkpt lat="45.78463" lon="4.85003">
        <ele>167</ele>
        <time>2010-11-04T13:28:41Z</time>
      </trkpt>
      <trkpt lat="45.78465" lon="4.85007">
        <ele>167</ele>
        <time>2010-11-04T13:28:42Z</time>
      </trkpt>
      <trkpt lat="45.78467" lon="4.8501">
        <ele>167</ele>
        <time>2010-11-04T13:28:43Z</time>
      </trkpt>
      <trkpt lat="45.78469" lon="4.85014">
        <ele>167</ele>
        <time>2010-11-04T13:28:44Z</time>
      </trkpt>
      <trkpt lat="45.78471" lon="4.85018">
        <ele>167</ele>
        <time>2010-11-04T13:28:45Z</time>
      </trkpt>
      <trkpt lat="45.78473" lon="4.85022">
        <ele>167</ele>
        <time>2010-11-04T13:28:46Z</time>
      </trkpt>
      <trkpt lat="45.78475" lon="4.85027">
        <ele>167</ele>
        <time>2010-11-04T13:28:47Z</time>
      </trkpt>
      <trkpt lat="45.78477" lon="4.85032">
        <ele>167</ele>
        <time>2010-11-04T13:28:48Z</time>
      </trkpt>
      <trkpt lat="45.78479" lon="4.85036">
        <ele>167</ele>
        <time>2010-11-04T13:28:49Z</time>
      </trkpt>
      <trkpt lat="45.78483" lon="4.85043">
        <ele>167</ele>
        <time>2010-11-04T13:28:51Z</time>
      </trkpt>
      <trkpt lat="45.78485" lon="4.85046">
        <ele>167</ele>
        <time>2010-11-04T13:28:52Z</time>
      </trkpt>
      <trkpt lat="45.78487" lon="4.85051">
        <ele>167</ele>
        <time>2010-11-04T13:28:53Z</time>
      </trkpt>
      <trkpt lat="45.78489" lon="4.85054">
        <ele>167</ele>
        <time>2010-11-04T13:28:54Z</time>
      </trkpt>
      <trkpt lat="45.7849" lon="4.85058">
        <ele>167</ele>
        <time>2010-11-04T13:28:55Z</time>
      </trkpt>
      <trkpt lat="45.78493" lon="4.85063">
        <ele>167</ele>
        <time>2010-11-04T13:28:56Z</time>
      </trkpt>
      <trkpt lat="45.78494" lon="4.85068">
        <ele>167</ele>
        <time>2010-11-04T13:28:57Z</time>
      </trkpt>
      <trkpt lat="45.78497" lon="4.85072">
        <ele>167</ele>
        <time>2010-11-04T13:28:58Z</time>
      </trkpt>
      <trkpt lat="45.78499" lon="4.85077">
        <ele>166</ele>
        <time>2010-11-04T13:28:59Z</time>
      </trkpt>
      <trkpt lat="45.785" lon="4.85081">
        <ele>166</ele>
        <time>2010-11-04T13:29:00Z</time>
      </trkpt>
      <trkpt lat="45.78502" lon="4.85085">
        <ele>166</ele>
        <time>2010-11-04T13:29:01Z</time>
      </trkpt>
      <trkpt lat="45.78505" lon="4.85088">
        <ele>166</ele>
        <time>2010-11-04T13:29:02Z</time>
      </trkpt>
      <trkpt lat="45.78507" lon="4.85092">
        <ele>166</ele>
        <time>2010-11-04T13:29:03Z</time>
      </trkpt>
      <trkpt lat="45.7851" lon="4.85098">
        <ele>167</ele>
        <time>2010-11-04T13:29:04Z</time>
      </trkpt>
      <trkpt lat="45.78518" lon="4.85119">
        <ele>167</ele>
        <time>2010-11-04T13:29:09Z</time>
      </trkpt>
      <trkpt lat="45.78522" lon="4.85128">
        <ele>167</ele>
        <time>2010-11-04T13:29:11Z</time>
      </trkpt>
      <trkpt lat="45.78524" lon="4.85131">
        <ele>167</ele>
        <time>2010-11-04T13:29:12Z</time>
      </trkpt>
      <trkpt lat="45.78526" lon="4.85135">
        <ele>167</ele>
        <time>2010-11-04T13:29:13Z</time>
      </trkpt>
      <trkpt lat="45.78528" lon="4.8514">
        <ele>167</ele>
        <time>2010-11-04T13:29:14Z</time>
      </trkpt>
      <trkpt lat="45.7853" lon="4.85144">
        <ele>167</ele>
        <time>2010-11-04T13:29:15Z</time>
      </trkpt>
      <trkpt lat="45.78531" lon="4.85148">
        <ele>168</ele>
        <time>2010-11-04T13:29:16Z</time>
      </trkpt>
      <trkpt lat="45.78533" lon="4.85152">
        <ele>168</ele>
        <time>2010-11-04T13:29:17Z</time>
      </trkpt>
      <trkpt lat="45.78542" lon="4.85175">
        <ele>169</ele>
        <time>2010-11-04T13:29:22Z</time>
      </trkpt>
      <trkpt lat="45.78544" lon="4.8518">
        <ele>169</ele>
        <time>2010-11-04T13:29:23Z</time>
      </trkpt>
      <trkpt lat="45.78546" lon="4.85184">
        <ele>169</ele>
        <time>2010-11-04T13:29:24Z</time>
      </trkpt>
      <trkpt lat="45.78547" lon="4.85189">
        <ele>169</ele>
        <time>2010-11-04T13:29:25Z</time>
      </trkpt>
      <trkpt lat="45.78548" lon="4.85194">
        <ele>169</ele>
        <time>2010-11-04T13:29:26Z</time>
      </trkpt>
      <trkpt lat="45.7855" lon="4.85198">
        <ele>169</ele>
        <time>2010-11-04T13:29:27Z</time>
      </trkpt>
      <trkpt lat="45.78552" lon="4.85202">
        <ele>169</ele>
        <time>2010-11-04T13:29:28Z</time>
      </trkpt>
      <trkpt lat="45.78554" lon="4.85207">
        <ele>169</ele>
        <time>2010-11-04T13:29:29Z</time>
      </trkpt>
      <trkpt lat="45.78556" lon="4.85212">
        <ele>169</ele>
        <time>2010-11-04T13:29:30Z</time>
      </trkpt>
      <trkpt lat="45.78557" lon="4.85217">
        <ele>169</ele>
        <time>2010-11-04T13:29:31Z</time>
      </trkpt>
      <trkpt lat="45.78557" lon="4.85222">
        <ele>169</ele>
        <time>2010-11-04T13:29:32Z</time>
      </trkpt>
      <trkpt lat="45.78559" lon="4.85226">
        <ele>169</ele>
        <time>2010-11-04T13:29:33Z</time>
      </trkpt>
      <trkpt lat="45.7856" lon="4.85229">
        <ele>169</ele>
        <time>2010-11-04T13:29:34Z</time>
      </trkpt>
      <trkpt lat="45.78562" lon="4.85233">
        <ele>169</ele>
        <time>2010-11-04T13:29:35Z</time>
      </trkpt>
      <trkpt lat="45.78564" lon="4.85238">
        <ele>169</ele>
        <time>2010-11-04T13:29:36Z</time>
      </trkpt>
      <trkpt lat="45.78565" lon="4.85243">
        <ele>168</ele>
        <time>2010-11-04T13:29:37Z</time>
      </trkpt>
      <trkpt lat="45.78566" lon="4.85248">
        <ele>168</ele>
        <time>2010-11-04T13:29:38Z</time>
      </trkpt>
      <trkpt lat="45.78572" lon="4.85281">
        <ele>170</ele>
        <time>2010-11-04T13:29:45Z</time>
      </trkpt>
      <trkpt lat="45.78574" lon="4.85287">
        <ele>170</ele>
        <time>2010-11-04T13:29:46Z</time>
      </trkpt>
      <trkpt lat="45.78575" lon="4.85291">
        <ele>170</ele>
        <time>2010-11-04T13:29:47Z</time>
      </trkpt>
      <trkpt lat="45.78576" lon="4.85296">
        <ele>170</ele>
        <time>2010-11-04T13:29:48Z</time>
      </trkpt>
      <trkpt lat="45.78577" lon="4.85301">
        <ele>170</ele>
        <time>2010-11-04T13:29:49Z</time>
      </trkpt>
      <trkpt lat="45.78578" lon="4.85306">
        <ele>170</ele>
        <time>2010-11-04T13:29:50Z</time>
      </trkpt>
      <trkpt lat="45.78579" lon="4.8531">
        <ele>170</ele>
        <time>2010-11-04T13:29:51Z</time>
      </trkpt>
      <trkpt lat="45.7858" lon="4.85314">
        <ele>169</ele>
        <time>2010-11-04T13:29:52Z</time>
      </trkpt>
      <trkpt lat="45.78582" lon="4.8532">
        <ele>169</ele>
        <time>2010-11-04T13:29:53Z</time>
      </trkpt>
      <trkpt lat="45.78583" lon="4.85324">
        <ele>168</ele>
        <time>2010-11-04T13:29:54Z</time>
      </trkpt>
      <trkpt lat="45.78584" lon="4.85329">
        <ele>166</ele>
        <time>2010-11-04T13:29:55Z</time>
      </trkpt>
      <trkpt lat="45.78585" lon="4.85333">
        <ele>166</ele>
        <time>2010-11-04T13:29:56Z</time>
      </trkpt>
      <trkpt lat="45.78587" lon="4.85337">
        <ele>166</ele>
        <time>2010-11-04T13:29:57Z</time>
      </trkpt>
      <trkpt lat="45.78589" lon="4.85343">
        <ele>166</ele>
        <time>2010-11-04T13:29:58Z</time>
      </trkpt>
      <trkpt lat="45.78591" lon="4.85347">
        <ele>166</ele>
        <time>2010-11-04T13:29:59Z</time>
      </trkpt>
      <trkpt lat="45.78593" lon="4.85351">
        <ele>166</ele>
        <time>2010-11-04T13:30:00Z</time>
      </trkpt>
      <trkpt lat="45.78594" lon="4.85355">
        <ele>166</ele>
        <time>2010-11-04T13:30:01Z</time>
      </trkpt>
      <trkpt lat="45.78595" lon="4.8536">
        <ele>166</ele>
        <time>2010-11-04T13:30:02Z</time>
      </trkpt>
      <trkpt lat="45.78596" lon="4.85364">
        <ele>166</ele>
        <time>2010-11-04T13:30:03Z</time>
      </trkpt>
      <trkpt lat="45.78598" lon="4.85369">
        <ele>166</ele>
        <time>2010-11-04T13:30:04Z</time>
      </trkpt>
      <trkpt lat="45.78599" lon="4.85374">
        <ele>166</ele>
        <time>2010-11-04T13:30:05Z</time>
      </trkpt>
      <trkpt lat="45.78599" lon="4.85379">
        <ele>166</ele>
        <time>2010-11-04T13:30:06Z</time>
      </trkpt>
      <trkpt lat="45.78599" lon="4.85384">
        <ele>166</ele>
        <time>2010-11-04T13:30:07Z</time>
      </trkpt>
      <trkpt lat="45.78601" lon="4.85388">
        <ele>166</ele>
        <time>2010-11-04T13:30:08Z</time>
      </trkpt>
      <trkpt lat="45.78603" lon="4.85394">
        <ele>166</ele>
        <time>2010-11-04T13:30:09Z</time>
      </trkpt>
      <trkpt lat="45.78604" lon="4.85399">
        <ele>166</ele>
        <time>2010-11-04T13:30:10Z</time>
      </trkpt>
      <trkpt lat="45.78604" lon="4.85404">
        <ele>167</ele>
        <time>2010-11-04T13:30:11Z</time>
      </trkpt>
      <trkpt lat="45.78604" lon="4.85409">
        <ele>167</ele>
        <time>2010-11-04T13:30:12Z</time>
      </trkpt>
      <trkpt lat="45.78604" lon="4.85415">
        <ele>167</ele>
        <time>2010-11-04T13:30:13Z</time>
      </trkpt>
      <trkpt lat="45.78605" lon="4.85421">
        <ele>167</ele>
        <time>2010-11-04T13:30:14Z</time>
      </trkpt>
      <trkpt lat="45.78605" lon="4.85427">
        <ele>167</ele>
        <time>2010-11-04T13:30:15Z</time>
      </trkpt>
      <trkpt lat="45.78605" lon="4.85432">
        <ele>167</ele>
        <time>2010-11-04T13:30:16Z</time>
      </trkpt>
      <trkpt lat="45.78605" lon="4.85436">
        <ele>167</ele>
        <time>2010-11-04T13:30:17Z</time>
      </trkpt>
      <trkpt lat="45.78607" lon="4.8544">
        <ele>167</ele>
        <time>2010-11-04T13:30:18Z</time>
      </trkpt>
      <trkpt lat="45.78608" lon="4.85445">
        <ele>167</ele>
        <time>2010-11-04T13:30:19Z</time>
      </trkpt>
      <trkpt lat="45.78609" lon="4.85451">
        <ele>167</ele>
        <time>2010-11-04T13:30:20Z</time>
      </trkpt>
      <trkpt lat="45.7861" lon="4.85456">
        <ele>167</ele>
        <time>2010-11-04T13:30:21Z</time>
      </trkpt>
      <trkpt lat="45.78612" lon="4.8546">
        <ele>167</ele>
        <time>2010-11-04T13:30:22Z</time>
      </trkpt>
      <trkpt lat="45.78613" lon="4.85467">
        <ele>167</ele>
        <time>2010-11-04T13:30:23Z</time>
      </trkpt>
      <trkpt lat="45.78614" lon="4.85472">
        <ele>167</ele>
        <time>2010-11-04T13:30:24Z</time>
      </trkpt>
      <trkpt lat="45.78615" lon="4.85476">
        <ele>167</ele>
        <time>2010-11-04T13:30:25Z</time>
      </trkpt>
      <trkpt lat="45.78616" lon="4.85482">
        <ele>167</ele>
        <time>2010-11-04T13:30:26Z</time>
      </trkpt>
      <trkpt lat="45.78617" lon="4.85486">
        <ele>167</ele>
        <time>2010-11-04T13:30:27Z</time>
      </trkpt>
      <trkpt lat="45.78618" lon="4.8549">
        <ele>167</ele>
        <time>2010-11-04T13:30:28Z</time>
      </trkpt>
      <trkpt lat="45.78618" lon="4.85494">
        <ele>167</ele>
        <time>2010-11-04T13:30:29Z</time>
      </trkpt>
      <trkpt lat="45.7862" lon="4.85498">
        <ele>167</ele>
        <time>2010-11-04T13:30:30Z</time>
      </trkpt>
      <trkpt lat="45.78621" lon="4.85501">
        <ele>167</ele>
        <time>2010-11-04T13:30:31Z</time>
      </trkpt>
      <trkpt lat="45.78621" lon="4.85506">
        <ele>167</ele>
        <time>2010-11-04T13:30:32Z</time>
      </trkpt>
      <trkpt lat="45.78621" lon="4.85511">
        <ele>167</ele>
        <time>2010-11-04T13:30:33Z</time>
      </trkpt>
      <trkpt lat="45.7862" lon="4.85525">
        <ele>167</ele>
        <time>2010-11-04T13:30:36Z</time>
      </trkpt>
      <trkpt lat="45.7862" lon="4.85531">
        <ele>167</ele>
        <time>2010-11-04T13:30:37Z</time>
      </trkpt>
      <trkpt lat="45.78621" lon="4.85545">
        <ele>167</ele>
        <time>2010-11-04T13:30:39Z</time>
      </trkpt>
      <trkpt lat="45.78622" lon="4.85551">
        <ele>167</ele>
        <time>2010-11-04T13:30:40Z</time>
      </trkpt>
      <trkpt lat="45.78623" lon="4.85556">
        <ele>167</ele>
        <time>2010-11-04T13:30:41Z</time>
      </trkpt>
      <trkpt lat="45.78623" lon="4.85562">
        <ele>167</ele>
        <time>2010-11-04T13:30:42Z</time>
      </trkpt>
      <trkpt lat="45.78622" lon="4.85572">
        <ele>167</ele>
        <time>2010-11-04T13:30:44Z</time>
      </trkpt>
      <trkpt lat="45.78622" lon="4.85574">
        <ele>167</ele>
        <time>2010-11-04T13:30:45Z</time>
      </trkpt>
      <trkpt lat="45.78623" lon="4.85576">
        <ele>167</ele>
        <time>2010-11-04T13:30:46Z</time>
      </trkpt>
      <trkpt lat="45.78623" lon="4.85581">
        <ele>167</ele>
        <time>2010-11-04T13:30:47Z</time>
      </trkpt>
      <trkpt lat="45.78624" lon="4.85586">
        <ele>167</ele>
        <time>2010-11-04T13:30:48Z</time>
      </trkpt>
      <trkpt lat="45.78624" lon="4.85592">
        <ele>167</ele>
        <time>2010-11-04T13:30:49Z</time>
      </trkpt>
      <trkpt lat="45.78625" lon="4.85596">
        <ele>167</ele>
        <time>2010-11-04T13:30:50Z</time>
      </trkpt>
      <trkpt lat="45.78625" lon="4.856">
        <ele>167</ele>
        <time>2010-11-04T13:30:51Z</time>
      </trkpt>
      <trkpt lat="45.78627" lon="4.85624">
        <ele>167</ele>
        <time>2010-11-04T13:30:55Z</time>
      </trkpt>
      <trkpt lat="45.78628" lon="4.85633">
        <ele>167</ele>
        <time>2010-11-04T13:30:57Z</time>
      </trkpt>
      <trkpt lat="45.78629" lon="4.85638">
        <ele>167</ele>
        <time>2010-11-04T13:30:58Z</time>
      </trkpt>
      <trkpt lat="45.7863" lon="4.85643">
        <ele>167</ele>
        <time>2010-11-04T13:30:59Z</time>
      </trkpt>
      <trkpt lat="45.7863" lon="4.85659">
        <ele>168</ele>
        <time>2010-11-04T13:31:02Z</time>
      </trkpt>
      <trkpt lat="45.7863" lon="4.85664">
        <ele>168</ele>
        <time>2010-11-04T13:31:03Z</time>
      </trkpt>
      <trkpt lat="45.7863" lon="4.85668">
        <ele>168</ele>
        <time>2010-11-04T13:31:04Z</time>
      </trkpt>
      <trkpt lat="45.78631" lon="4.85697">
        <ele>167</ele>
        <time>2010-11-04T13:31:10Z</time>
      </trkpt>
      <trkpt lat="45.78632" lon="4.85701">
        <ele>167</ele>
        <time>2010-11-04T13:31:11Z</time>
      </trkpt>
      <trkpt lat="45.78633" lon="4.85706">
        <ele>167</ele>
        <time>2010-11-04T13:31:12Z</time>
      </trkpt>
      <trkpt lat="45.78633" lon="4.85711">
        <ele>167</ele>
        <time>2010-11-04T13:31:13Z</time>
      </trkpt>
      <trkpt lat="45.78634" lon="4.85717">
        <ele>167</ele>
        <time>2010-11-04T13:31:14Z</time>
      </trkpt>
      <trkpt lat="45.78634" lon="4.85722">
        <ele>167</ele>
        <time>2010-11-04T13:31:15Z</time>
      </trkpt>
      <trkpt lat="45.78634" lon="4.85727">
        <ele>167</ele>
        <time>2010-11-04T13:31:16Z</time>
      </trkpt>
      <trkpt lat="45.78637" lon="4.8574">
        <ele>167</ele>
        <time>2010-11-04T13:31:19Z</time>
      </trkpt>
      <trkpt lat="45.78636" lon="4.85744">
        <ele>167</ele>
        <time>2010-11-04T13:31:20Z</time>
      </trkpt>
      <trkpt lat="45.78635" lon="4.85749">
        <ele>167</ele>
        <time>2010-11-04T13:31:21Z</time>
      </trkpt>
      <trkpt lat="45.7863" lon="4.85761">
        <ele>167</ele>
        <time>2010-11-04T13:31:24Z</time>
      </trkpt>
      <trkpt lat="45.78629" lon="4.85764">
        <ele>167</ele>
        <time>2010-11-04T13:31:25Z</time>
      </trkpt>
      <trkpt lat="45.78628" lon="4.85768">
        <ele>167</ele>
        <time>2010-11-04T13:31:26Z</time>
      </trkpt>
      <trkpt lat="45.78628" lon="4.85774">
        <ele>167</ele>
        <time>2010-11-04T13:31:27Z</time>
      </trkpt>
      <trkpt lat="45.78629" lon="4.8578">
        <ele>167</ele>
        <time>2010-11-04T13:31:28Z</time>
      </trkpt>
      <trkpt lat="45.7863" lon="4.85786">
        <ele>167</ele>
        <time>2010-11-04T13:31:29Z</time>
      </trkpt>
      <trkpt lat="45.78631" lon="4.85794">
        <ele>167</ele>
        <time>2010-11-04T13:31:31Z</time>
      </trkpt>
      <trkpt lat="45.7863" lon="4.85798">
        <ele>167</ele>
        <time>2010-11-04T13:31:32Z</time>
      </trkpt>
      <trkpt lat="45.78628" lon="4.8582">
        <ele>167</ele>
        <time>2010-11-04T13:31:36Z</time>
      </trkpt>
      <trkpt lat="45.78628" lon="4.85825">
        <ele>167</ele>
        <time>2010-11-04T13:31:37Z</time>
      </trkpt>
      <trkpt lat="45.78628" lon="4.8583">
        <ele>167</ele>
        <time>2010-11-04T13:31:38Z</time>
      </trkpt>
      <trkpt lat="45.78627" lon="4.85836">
        <ele>168</ele>
        <time>2010-11-04T13:31:39Z</time>
      </trkpt>
      <trkpt lat="45.78627" lon="4.85842">
        <ele>168</ele>
        <time>2010-11-04T13:31:40Z</time>
      </trkpt>
      <trkpt lat="45.78625" lon="4.85869">
        <ele>168</ele>
        <time>2010-11-04T13:31:46Z</time>
      </trkpt>
      <trkpt lat="45.78625" lon="4.85874">
        <ele>168</ele>
        <time>2010-11-04T13:31:47Z</time>
      </trkpt>
      <trkpt lat="45.78623" lon="4.8588">
        <ele>168</ele>
        <time>2010-11-04T13:31:48Z</time>
      </trkpt>
      <trkpt lat="45.78622" lon="4.85904">
        <ele>168</ele>
        <time>2010-11-04T13:31:53Z</time>
      </trkpt>
      <trkpt lat="45.7862" lon="4.85936">
        <ele>169</ele>
        <time>2010-11-04T13:31:59Z</time>
      </trkpt>
      <trkpt lat="45.78621" lon="4.85941">
        <ele>169</ele>
        <time>2010-11-04T13:32:00Z</time>
      </trkpt>
      <trkpt lat="45.78623" lon="4.85944">
        <ele>169</ele>
        <time>2010-11-04T13:32:01Z</time>
      </trkpt>
      <trkpt lat="45.78625" lon="4.85948">
        <ele>169</ele>
        <time>2010-11-04T13:32:02Z</time>
      </trkpt>
      <trkpt lat="45.78624" lon="4.85953">
        <ele>169</ele>
        <time>2010-11-04T13:32:03Z</time>
      </trkpt>
      <trkpt lat="45.78622" lon="4.85958">
        <ele>169</ele>
        <time>2010-11-04T13:32:04Z</time>
      </trkpt>
      <trkpt lat="45.78621" lon="4.85971">
        <ele>170</ele>
        <time>2010-11-04T13:32:07Z</time>
      </trkpt>
      <trkpt lat="45.7862" lon="4.85979">
        <ele>170</ele>
        <time>2010-11-04T13:32:09Z</time>
      </trkpt>
      <trkpt lat="45.7862" lon="4.85984">
        <ele>170</ele>
        <time>2010-11-04T13:32:10Z</time>
      </trkpt>
      <trkpt lat="45.7862" lon="4.85989">
        <ele>170</ele>
        <time>2010-11-04T13:32:11Z</time>
      </trkpt>
      <trkpt lat="45.7862" lon="4.85993">
        <ele>170</ele>
        <time>2010-11-04T13:32:12Z</time>
      </trkpt>
      <trkpt lat="45.78619" lon="4.85999">
        <ele>170</ele>
        <time>2010-11-04T13:32:13Z</time>
      </trkpt>
      <trkpt lat="45.78619" lon="4.86004">
        <ele>169</ele>
        <time>2010-11-04T13:32:14Z</time>
      </trkpt>
      <trkpt lat="45.78618" lon="4.86008">
        <ele>169</ele>
        <time>2010-11-04T13:32:15Z</time>
      </trkpt>
      <trkpt lat="45.78617" lon="4.86012">
        <ele>169</ele>
        <time>2010-11-04T13:32:16Z</time>
      </trkpt>
      <trkpt lat="45.78616" lon="4.86016">
        <ele>169</ele>
        <time>2010-11-04T13:32:17Z</time>
      </trkpt>
      <trkpt lat="45.78615" lon="4.86018">
        <ele>169</ele>
        <time>2010-11-04T13:32:18Z</time>
      </trkpt>
      <trkpt lat="45.78613" lon="4.8602">
        <ele>169</ele>
        <time>2010-11-04T13:32:19Z</time>
      </trkpt>
      <trkpt lat="45.78612" lon="4.86023">
        <ele>170</ele>
        <time>2010-11-04T13:32:20Z</time>
      </trkpt>
      <trkpt lat="45.7861" lon="4.86024">
        <ele>170</ele>
        <time>2010-11-04T13:32:21Z</time>
      </trkpt>
      <trkpt lat="45.78614" lon="4.86029">
        <ele>169</ele>
        <time>2010-11-04T13:32:23Z</time>
      </trkpt>
      <trkpt lat="45.78615" lon="4.86034">
        <ele>169</ele>
        <time>2010-11-04T13:32:24Z</time>
      </trkpt>
      <trkpt lat="45.78616" lon="4.86043">
        <ele>169</ele>
        <time>2010-11-04T13:32:25Z</time>
      </trkpt>
      <trkpt lat="45.78616" lon="4.86051">
        <ele>169</ele>
        <time>2010-11-04T13:32:26Z</time>
      </trkpt>
      <trkpt lat="45.78616" lon="4.86058">
        <ele>168</ele>
        <time>2010-11-04T13:32:27Z</time>
      </trkpt>
      <trkpt lat="45.78614" lon="4.86072">
        <ele>168</ele>
        <time>2010-11-04T13:32:29Z</time>
      </trkpt>
      <trkpt lat="45.78613" lon="4.86079">
        <ele>168</ele>
        <time>2010-11-04T13:32:30Z</time>
      </trkpt>
      <trkpt lat="45.78612" lon="4.86084">
        <ele>167</ele>
        <time>2010-11-04T13:32:31Z</time>
      </trkpt>
      <trkpt lat="45.7861" lon="4.86093">
        <ele>167</ele>
        <time>2010-11-04T13:32:33Z</time>
      </trkpt>
      <trkpt lat="45.78611" lon="4.86097">
        <ele>167</ele>
        <time>2010-11-04T13:32:34Z</time>
      </trkpt>
      <trkpt lat="45.78612" lon="4.86102">
        <ele>167</ele>
        <time>2010-11-04T13:32:35Z</time>
      </trkpt>
      <trkpt lat="45.78612" lon="4.86107">
        <ele>167</ele>
        <time>2010-11-04T13:32:36Z</time>
      </trkpt>
      <trkpt lat="45.78611" lon="4.86111">
        <ele>166</ele>
        <time>2010-11-04T13:32:37Z</time>
      </trkpt>
      <trkpt lat="45.7861" lon="4.86115">
        <ele>166</ele>
        <time>2010-11-04T13:32:38Z</time>
      </trkpt>
      <trkpt lat="45.7861" lon="4.86119">
        <ele>166</ele>
        <time>2010-11-04T13:32:39Z</time>
      </trkpt>
      <trkpt lat="45.7861" lon="4.86125">
        <ele>166</ele>
        <time>2010-11-04T13:32:40Z</time>
      </trkpt>
      <trkpt lat="45.78609" lon="4.86131">
        <ele>166</ele>
        <time>2010-11-04T13:32:41Z</time>
      </trkpt>
      <trkpt lat="45.78608" lon="4.86144">
        <ele>166</ele>
        <time>2010-11-04T13:32:43Z</time>
      </trkpt>
      <trkpt lat="45.78608" lon="4.86149">
        <ele>166</ele>
        <time>2010-11-04T13:32:44Z</time>
      </trkpt>
      <trkpt lat="45.78608" lon="4.86154">
        <ele>166</ele>
        <time>2010-11-04T13:32:45Z</time>
      </trkpt>
      <trkpt lat="45.78608" lon="4.86159">
        <ele>166</ele>
        <time>2010-11-04T13:32:46Z</time>
      </trkpt>
      <trkpt lat="45.78608" lon="4.86164">
        <ele>166</ele>
        <time>2010-11-04T13:32:47Z</time>
      </trkpt>
      <trkpt lat="45.78608" lon="4.86167">
        <ele>166</ele>
        <time>2010-11-04T13:32:48Z</time>
      </trkpt>
      <trkpt lat="45.78607" lon="4.86173">
        <ele>166</ele>
        <time>2010-11-04T13:32:49Z</time>
      </trkpt>
      <trkpt lat="45.78606" lon="4.86179">
        <ele>166</ele>
        <time>2010-11-04T13:32:50Z</time>
      </trkpt>
      <trkpt lat="45.78605" lon="4.86184">
        <ele>166</ele>
        <time>2010-11-04T13:32:51Z</time>
      </trkpt>
      <trkpt lat="45.78604" lon="4.86189">
        <ele>166</ele>
        <time>2010-11-04T13:32:52Z</time>
      </trkpt>
      <trkpt lat="45.78603" lon="4.86194">
        <ele>166</ele>
        <time>2010-11-04T13:32:53Z</time>
      </trkpt>
      <trkpt lat="45.78603" lon="4.86199">
        <ele>166</ele>
        <time>2010-11-04T13:32:54Z</time>
      </trkpt>
      <trkpt lat="45.78603" lon="4.86204">
        <ele>166</ele>
        <time>2010-11-04T13:32:55Z</time>
      </trkpt>
      <trkpt lat="45.78604" lon="4.86209">
        <ele>166</ele>
        <time>2010-11-04T13:32:56Z</time>
      </trkpt>
      <trkpt lat="45.78604" lon="4.86214">
        <ele>166</ele>
        <time>2010-11-04T13:32:57Z</time>
      </trkpt>
      <trkpt lat="45.78603" lon="4.8622">
        <ele>166</ele>
        <time>2010-11-04T13:32:58Z</time>
      </trkpt>
      <trkpt lat="45.78603" lon="4.86225">
        <ele>166</ele>
        <time>2010-11-04T13:32:59Z</time>
      </trkpt>
      <trkpt lat="45.78603" lon="4.86228">
        <ele>166</ele>
        <time>2010-11-04T13:33:00Z</time>
      </trkpt>
      <trkpt lat="45.78602" lon="4.86232">
        <ele>166</ele>
        <time>2010-11-04T13:33:01Z</time>
      </trkpt>
      <trkpt lat="45.78602" lon="4.86237">
        <ele>166</ele>
        <time>2010-11-04T13:33:02Z</time>
      </trkpt>
      <trkpt lat="45.78601" lon="4.86241">
        <ele>166</ele>
        <time>2010-11-04T13:33:03Z</time>
      </trkpt>
      <trkpt lat="45.78601" lon="4.86245">
        <ele>166</ele>
        <time>2010-11-04T13:33:04Z</time>
      </trkpt>
      <trkpt lat="45.78601" lon="4.86249">
        <ele>166</ele>
        <time>2010-11-04T13:33:05Z</time>
      </trkpt>
      <trkpt lat="45.786" lon="4.86253">
        <ele>167</ele>
        <time>2010-11-04T13:33:06Z</time>
      </trkpt>
      <trkpt lat="45.786" lon="4.86257">
        <ele>167</ele>
        <time>2010-11-04T13:33:07Z</time>
      </trkpt>
      <trkpt lat="45.786" lon="4.86261">
        <ele>167</ele>
        <time>2010-11-04T13:33:08Z</time>
      </trkpt>
      <trkpt lat="45.78599" lon="4.86266">
        <ele>167</ele>
        <time>2010-11-04T13:33:09Z</time>
      </trkpt>
      <trkpt lat="45.78597" lon="4.8627">
        <ele>167</ele>
        <time>2010-11-04T13:33:10Z</time>
      </trkpt>
      <trkpt lat="45.78595" lon="4.86275">
        <ele>167</ele>
        <time>2010-11-04T13:33:11Z</time>
      </trkpt>
      <trkpt lat="45.78595" lon="4.8628">
        <ele>167</ele>
        <time>2010-11-04T13:33:12Z</time>
      </trkpt>
      <trkpt lat="45.78594" lon="4.86284">
        <ele>167</ele>
        <time>2010-11-04T13:33:13Z</time>
      </trkpt>
      <trkpt lat="45.78593" lon="4.86289">
        <ele>167</ele>
        <time>2010-11-04T13:33:14Z</time>
      </trkpt>
      <trkpt lat="45.78592" lon="4.86293">
        <ele>167</ele>
        <time>2010-11-04T13:33:15Z</time>
      </trkpt>
      <trkpt lat="45.78591" lon="4.86297">
        <ele>167</ele>
        <time>2010-11-04T13:33:16Z</time>
      </trkpt>
      <trkpt lat="45.7859" lon="4.86302">
        <ele>167</ele>
        <time>2010-11-04T13:33:17Z</time>
      </trkpt>
      <trkpt lat="45.78589" lon="4.86308">
        <ele>167</ele>
        <time>2010-11-04T13:33:18Z</time>
      </trkpt>
      <trkpt lat="45.78588" lon="4.86311">
        <ele>167</ele>
        <time>2010-11-04T13:33:19Z</time>
      </trkpt>
      <trkpt lat="45.78586" lon="4.86315">
        <ele>167</ele>
        <time>2010-11-04T13:33:20Z</time>
      </trkpt>
      <trkpt lat="45.78585" lon="4.86319">
        <ele>167</ele>
        <time>2010-11-04T13:33:21Z</time>
      </trkpt>
      <trkpt lat="45.78584" lon="4.86324">
        <ele>168</ele>
        <time>2010-11-04T13:33:22Z</time>
      </trkpt>
      <trkpt lat="45.78584" lon="4.86328">
        <ele>168</ele>
        <time>2010-11-04T13:33:23Z</time>
      </trkpt>
      <trkpt lat="45.78583" lon="4.86332">
        <ele>168</ele>
        <time>2010-11-04T13:33:24Z</time>
      </trkpt>
      <trkpt lat="45.78583" lon="4.86336">
        <ele>168</ele>
        <time>2010-11-04T13:33:25Z</time>
      </trkpt>
      <trkpt lat="45.78582" lon="4.8634">
        <ele>169</ele>
        <time>2010-11-04T13:33:26Z</time>
      </trkpt>
      <trkpt lat="45.78582" lon="4.86346">
        <ele>169</ele>
        <time>2010-11-04T13:33:27Z</time>
      </trkpt>
      <trkpt lat="45.78582" lon="4.86352">
        <ele>170</ele>
        <time>2010-11-04T13:33:28Z</time>
      </trkpt>
      <trkpt lat="45.78581" lon="4.86358">
        <ele>170</ele>
        <time>2010-11-04T13:33:29Z</time>
      </trkpt>
      <trkpt lat="45.78581" lon="4.86363">
        <ele>170</ele>
        <time>2010-11-04T13:33:30Z</time>
      </trkpt>
      <trkpt lat="45.78581" lon="4.86367">
        <ele>170</ele>
        <time>2010-11-04T13:33:31Z</time>
      </trkpt>
      <trkpt lat="45.7858" lon="4.86372">
        <ele>170</ele>
        <time>2010-11-04T13:33:32Z</time>
      </trkpt>
      <trkpt lat="45.78578" lon="4.86392">
        <ele>170</ele>
        <time>2010-11-04T13:33:36Z</time>
      </trkpt>
      <trkpt lat="45.78575" lon="4.86401">
        <ele>170</ele>
        <time>2010-11-04T13:33:38Z</time>
      </trkpt>
      <trkpt lat="45.78573" lon="4.86406">
        <ele>170</ele>
        <time>2010-11-04T13:33:39Z</time>
      </trkpt>
      <trkpt lat="45.78572" lon="4.86411">
        <ele>170</ele>
        <time>2010-11-04T13:33:40Z</time>
      </trkpt>
      <trkpt lat="45.7857" lon="4.86418">
        <ele>170</ele>
        <time>2010-11-04T13:33:41Z</time>
      </trkpt>
      <trkpt lat="45.78568" lon="4.86422">
        <ele>170</ele>
        <time>2010-11-04T13:33:42Z</time>
      </trkpt>
      <trkpt lat="45.78566" lon="4.86427">
        <ele>171</ele>
        <time>2010-11-04T13:33:43Z</time>
      </trkpt>
      <trkpt lat="45.78564" lon="4.86431">
        <ele>171</ele>
        <time>2010-11-04T13:33:44Z</time>
      </trkpt>
      <trkpt lat="45.78562" lon="4.86435">
        <ele>171</ele>
        <time>2010-11-04T13:33:45Z</time>
      </trkpt>
      <trkpt lat="45.7856" lon="4.86439">
        <ele>171</ele>
        <time>2010-11-04T13:33:46Z</time>
      </trkpt>
      <trkpt lat="45.78557" lon="4.86443">
        <ele>171</ele>
        <time>2010-11-04T13:33:47Z</time>
      </trkpt>
      <trkpt lat="45.78554" lon="4.86447">
        <ele>171</ele>
        <time>2010-11-04T13:33:48Z</time>
      </trkpt>
      <trkpt lat="45.78551" lon="4.8645">
        <ele>172</ele>
        <time>2010-11-04T13:33:49Z</time>
      </trkpt>
      <trkpt lat="45.78549" lon="4.86454">
        <ele>172</ele>
        <time>2010-11-04T13:33:50Z</time>
      </trkpt>
      <trkpt lat="45.78547" lon="4.86459">
        <ele>172</ele>
        <time>2010-11-04T13:33:51Z</time>
      </trkpt>
      <trkpt lat="45.78545" lon="4.86463">
        <ele>172</ele>
        <time>2010-11-04T13:33:52Z</time>
      </trkpt>
      <trkpt lat="45.78542" lon="4.86467">
        <ele>172</ele>
        <time>2010-11-04T13:33:53Z</time>
      </trkpt>
      <trkpt lat="45.7854" lon="4.86471">
        <ele>172</ele>
        <time>2010-11-04T13:33:54Z</time>
      </trkpt>
      <trkpt lat="45.78536" lon="4.86479">
        <ele>172</ele>
        <time>2010-11-04T13:33:56Z</time>
      </trkpt>
      <trkpt lat="45.78534" lon="4.86482">
        <ele>172</ele>
        <time>2010-11-04T13:33:57Z</time>
      </trkpt>
      <trkpt lat="45.78532" lon="4.86485">
        <ele>172</ele>
        <time>2010-11-04T13:33:58Z</time>
      </trkpt>
      <trkpt lat="45.7853" lon="4.86491">
        <ele>172</ele>
        <time>2010-11-04T13:34:00Z</time>
      </trkpt>
      <trkpt lat="45.7853" lon="4.86494">
        <ele>172</ele>
        <time>2010-11-04T13:34:01Z</time>
      </trkpt>
      <trkpt lat="45.78529" lon="4.86499">
        <ele>172</ele>
        <time>2010-11-04T13:34:02Z</time>
      </trkpt>
      <trkpt lat="45.78528" lon="4.86503">
        <ele>173</ele>
        <time>2010-11-04T13:34:03Z</time>
      </trkpt>
      <trkpt lat="45.78528" lon="4.86508">
        <ele>173</ele>
        <time>2010-11-04T13:34:04Z</time>
      </trkpt>
      <trkpt lat="45.78529" lon="4.86511">
        <ele>173</ele>
        <time>2010-11-04T13:34:05Z</time>
      </trkpt>
      <trkpt lat="45.7853" lon="4.86515">
        <ele>173</ele>
        <time>2010-11-04T13:34:06Z</time>
      </trkpt>
      <trkpt lat="45.78532" lon="4.86519">
        <ele>173</ele>
        <time>2010-11-04T13:34:07Z</time>
      </trkpt>
      <trkpt lat="45.78534" lon="4.86523">
        <ele>173</ele>
        <time>2010-11-04T13:34:08Z</time>
      </trkpt>
      <trkpt lat="45.78535" lon="4.86528">
        <ele>173</ele>
        <time>2010-11-04T13:34:09Z</time>
      </trkpt>
      <trkpt lat="45.78536" lon="4.86532">
        <ele>173</ele>
        <time>2010-11-04T13:34:10Z</time>
      </trkpt>
      <trkpt lat="45.78536" lon="4.86536">
        <ele>173</ele>
        <time>2010-11-04T13:34:11Z</time>
      </trkpt>
      <trkpt lat="45.78538" lon="4.86539">
        <ele>173</ele>
        <time>2010-11-04T13:34:12Z</time>
      </trkpt>
      <trkpt lat="45.78538" lon="4.86543">
        <ele>173</ele>
        <time>2010-11-04T13:34:13Z</time>
      </trkpt>
      <trkpt lat="45.78539" lon="4.86548">
        <ele>173</ele>
        <time>2010-11-04T13:34:14Z</time>
      </trkpt>
      <trkpt lat="45.7854" lon="4.86558">
        <ele>173</ele>
        <time>2010-11-04T13:34:16Z</time>
      </trkpt>
      <trkpt lat="45.78541" lon="4.86563">
        <ele>173</ele>
        <time>2010-11-04T13:34:17Z</time>
      </trkpt>
      <trkpt lat="45.78542" lon="4.86568">
        <ele>173</ele>
        <time>2010-11-04T13:34:18Z</time>
      </trkpt>
      <trkpt lat="45.78542" lon="4.86574">
        <ele>173</ele>
        <time>2010-11-04T13:34:19Z</time>
      </trkpt>
      <trkpt lat="45.78543" lon="4.86579">
        <ele>173</ele>
        <time>2010-11-04T13:34:20Z</time>
      </trkpt>
      <trkpt lat="45.78544" lon="4.86584">
        <ele>174</ele>
        <time>2010-11-04T13:34:21Z</time>
      </trkpt>
      <trkpt lat="45.78544" lon="4.86588">
        <ele>174</ele>
        <time>2010-11-04T13:34:22Z</time>
      </trkpt>
      <trkpt lat="45.78545" lon="4.86592">
        <ele>174</ele>
        <time>2010-11-04T13:34:23Z</time>
      </trkpt>
      <trkpt lat="45.78545" lon="4.86597">
        <ele>174</ele>
        <time>2010-11-04T13:34:24Z</time>
      </trkpt>
      <trkpt lat="45.78545" lon="4.86602">
        <ele>174</ele>
        <time>2010-11-04T13:34:25Z</time>
      </trkpt>
      <trkpt lat="45.78545" lon="4.86612">
        <ele>174</ele>
        <time>2010-11-04T13:34:27Z</time>
      </trkpt>
      <trkpt lat="45.78545" lon="4.86617">
        <ele>174</ele>
        <time>2010-11-04T13:34:28Z</time>
      </trkpt>
      <trkpt lat="45.78545" lon="4.86621">
        <ele>174</ele>
        <time>2010-11-04T13:34:29Z</time>
      </trkpt>
      <trkpt lat="45.78545" lon="4.86626">
        <ele>174</ele>
        <time>2010-11-04T13:34:30Z</time>
      </trkpt>
      <trkpt lat="45.78545" lon="4.86631">
        <ele>174</ele>
        <time>2010-11-04T13:34:31Z</time>
      </trkpt>
      <trkpt lat="45.78545" lon="4.86639">
        <ele>174</ele>
        <time>2010-11-04T13:34:33Z</time>
      </trkpt>
      <trkpt lat="45.78546" lon="4.86643">
        <ele>174</ele>
        <time>2010-11-04T13:34:34Z</time>
      </trkpt>
      <trkpt lat="45.78547" lon="4.86647">
        <ele>174</ele>
        <time>2010-11-04T13:34:35Z</time>
      </trkpt>
      <trkpt lat="45.78548" lon="4.86652">
        <ele>174</ele>
        <time>2010-11-04T13:34:36Z</time>
      </trkpt>
      <trkpt lat="45.78549" lon="4.86657">
        <ele>174</ele>
        <time>2010-11-04T13:34:37Z</time>
      </trkpt>
      <trkpt lat="45.7855" lon="4.8666">
        <ele>174</ele>
        <time>2010-11-04T13:34:38Z</time>
      </trkpt>
      <trkpt lat="45.78552" lon="4.86664">
        <ele>174</ele>
        <time>2010-11-04T13:34:39Z</time>
      </trkpt>
      <trkpt lat="45.78552" lon="4.86669">
        <ele>174</ele>
        <time>2010-11-04T13:34:40Z</time>
      </trkpt>
      <trkpt lat="45.78553" lon="4.86674">
        <ele>174</ele>
        <time>2010-11-04T13:34:41Z</time>
      </trkpt>
      <trkpt lat="45.78553" lon="4.86679">
        <ele>174</ele>
        <time>2010-11-04T13:34:42Z</time>
      </trkpt>
      <trkpt lat="45.78553" lon="4.86684">
        <ele>174</ele>
        <time>2010-11-04T13:34:43Z</time>
      </trkpt>
      <trkpt lat="45.78554" lon="4.86702">
        <ele>174</ele>
        <time>2010-11-04T13:34:46Z</time>
      </trkpt>
      <trkpt lat="45.78559" lon="4.86729">
        <ele>174</ele>
        <time>2010-11-04T13:34:52Z</time>
      </trkpt>
      <trkpt lat="45.7856" lon="4.86734">
        <ele>174</ele>
        <time>2010-11-04T13:34:53Z</time>
      </trkpt>
      <trkpt lat="45.7856" lon="4.8674">
        <ele>173</ele>
        <time>2010-11-04T13:34:54Z</time>
      </trkpt>
      <trkpt lat="45.7856" lon="4.86746">
        <ele>173</ele>
        <time>2010-11-04T13:34:55Z</time>
      </trkpt>
      <trkpt lat="45.7856" lon="4.86752">
        <ele>174</ele>
        <time>2010-11-04T13:34:56Z</time>
      </trkpt>
      <trkpt lat="45.7856" lon="4.86758">
        <ele>174</ele>
        <time>2010-11-04T13:34:57Z</time>
      </trkpt>
      <trkpt lat="45.78562" lon="4.86771">
        <ele>174</ele>
        <time>2010-11-04T13:35:00Z</time>
      </trkpt>
      <trkpt lat="45.78566" lon="4.86785">
        <ele>175</ele>
        <time>2010-11-04T13:35:03Z</time>
      </trkpt>
      <trkpt lat="45.78566" lon="4.86789">
        <ele>175</ele>
        <time>2010-11-04T13:35:04Z</time>
      </trkpt>
      <trkpt lat="45.78568" lon="4.86793">
        <ele>175</ele>
        <time>2010-11-04T13:35:05Z</time>
      </trkpt>
      <trkpt lat="45.78569" lon="4.86796">
        <ele>175</ele>
        <time>2010-11-04T13:35:06Z</time>
      </trkpt>
      <trkpt lat="45.78572" lon="4.86799">
        <ele>175</ele>
        <time>2010-11-04T13:35:07Z</time>
      </trkpt>
      <trkpt lat="45.78573" lon="4.86803">
        <ele>175</ele>
        <time>2010-11-04T13:35:08Z</time>
      </trkpt>
      <trkpt lat="45.78574" lon="4.86808">
        <ele>175</ele>
        <time>2010-11-04T13:35:09Z</time>
      </trkpt>
      <trkpt lat="45.78576" lon="4.86817">
        <ele>175</ele>
        <time>2010-11-04T13:35:11Z</time>
      </trkpt>
      <trkpt lat="45.78579" lon="4.86839">
        <ele>176</ele>
        <time>2010-11-04T13:35:16Z</time>
      </trkpt>
      <trkpt lat="45.7858" lon="4.86843">
        <ele>176</ele>
        <time>2010-11-04T13:35:17Z</time>
      </trkpt>
      <trkpt lat="45.7858" lon="4.86848">
        <ele>176</ele>
        <time>2010-11-04T13:35:18Z</time>
      </trkpt>
      <trkpt lat="45.78579" lon="4.86854">
        <ele>176</ele>
        <time>2010-11-04T13:35:19Z</time>
      </trkpt>
      <trkpt lat="45.7858" lon="4.86859">
        <ele>176</ele>
        <time>2010-11-04T13:35:20Z</time>
      </trkpt>
      <trkpt lat="45.78581" lon="4.86863">
        <ele>176</ele>
        <time>2010-11-04T13:35:21Z</time>
      </trkpt>
      <trkpt lat="45.78582" lon="4.86867">
        <ele>176</ele>
        <time>2010-11-04T13:35:22Z</time>
      </trkpt>
      <trkpt lat="45.7859" lon="4.86905">
        <ele>175</ele>
        <time>2010-11-04T13:35:31Z</time>
      </trkpt>
      <trkpt lat="45.78593" lon="4.86914">
        <ele>175</ele>
        <time>2010-11-04T13:35:33Z</time>
      </trkpt>
      <trkpt lat="45.78594" lon="4.86919">
        <ele>175</ele>
        <time>2010-11-04T13:35:34Z</time>
      </trkpt>
      <trkpt lat="45.78596" lon="4.86923">
        <ele>175</ele>
        <time>2010-11-04T13:35:35Z</time>
      </trkpt>
      <trkpt lat="45.78597" lon="4.86938">
        <ele>175</ele>
        <time>2010-11-04T13:35:38Z</time>
      </trkpt>
      <trkpt lat="45.78598" lon="4.86941">
        <ele>175</ele>
        <time>2010-11-04T13:35:39Z</time>
      </trkpt>
      <trkpt lat="45.786" lon="4.86949">
        <ele>175</ele>
        <time>2010-11-04T13:35:41Z</time>
      </trkpt>
      <trkpt lat="45.78601" lon="4.86953">
        <ele>175</ele>
        <time>2010-11-04T13:35:42Z</time>
      </trkpt>
      <trkpt lat="45.78602" lon="4.86957">
        <ele>175</ele>
        <time>2010-11-04T13:35:43Z</time>
      </trkpt>
      <trkpt lat="45.78603" lon="4.86962">
        <ele>175</ele>
        <time>2010-11-04T13:35:44Z</time>
      </trkpt>
      <trkpt lat="45.78605" lon="4.86965">
        <ele>175</ele>
        <time>2010-11-04T13:35:45Z</time>
      </trkpt>
      <trkpt lat="45.78606" lon="4.86968">
        <ele>175</ele>
        <time>2010-11-04T13:35:46Z</time>
      </trkpt>
      <trkpt lat="45.78607" lon="4.86972">
        <ele>175</ele>
        <time>2010-11-04T13:35:47Z</time>
      </trkpt>
      <trkpt lat="45.78608" lon="4.86976">
        <ele>175</ele>
        <time>2010-11-04T13:35:48Z</time>
      </trkpt>
      <trkpt lat="45.78608" lon="4.86978">
        <ele>175</ele>
        <time>2010-11-04T13:35:49Z</time>
      </trkpt>
      <trkpt lat="45.78607" lon="4.86983">
        <ele>175</ele>
        <time>2010-11-04T13:35:50Z</time>
      </trkpt>
      <trkpt lat="45.78607" lon="4.86988">
        <ele>175</ele>
        <time>2010-11-04T13:35:51Z</time>
      </trkpt>
      <trkpt lat="45.78608" lon="4.86994">
        <ele>175</ele>
        <time>2010-11-04T13:35:52Z</time>
      </trkpt>
      <trkpt lat="45.78614" lon="4.87044">
        <ele>176</ele>
        <time>2010-11-04T13:36:02Z</time>
      </trkpt>
      <trkpt lat="45.78617" lon="4.87061">
        <ele>176</ele>
        <time>2010-11-04T13:36:06Z</time>
      </trkpt>
      <trkpt lat="45.78618" lon="4.87065">
        <ele>176</ele>
        <time>2010-11-04T13:36:07Z</time>
      </trkpt>
      <trkpt lat="45.78618" lon="4.8707">
        <ele>176</ele>
        <time>2010-11-04T13:36:08Z</time>
      </trkpt>
      <trkpt lat="45.78619" lon="4.87076">
        <ele>176</ele>
        <time>2010-11-04T13:36:09Z</time>
      </trkpt>
      <trkpt lat="45.7862" lon="4.8708">
        <ele>176</ele>
        <time>2010-11-04T13:36:10Z</time>
      </trkpt>
      <trkpt lat="45.78621" lon="4.87083">
        <ele>176</ele>
        <time>2010-11-04T13:36:11Z</time>
      </trkpt>
      <trkpt lat="45.78622" lon="4.87088">
        <ele>177</ele>
        <time>2010-11-04T13:36:12Z</time>
      </trkpt>
      <trkpt lat="45.78629" lon="4.87114">
        <ele>176</ele>
        <time>2010-11-04T13:36:18Z</time>
      </trkpt>
      <trkpt lat="45.7863" lon="4.87118">
        <ele>176</ele>
        <time>2010-11-04T13:36:19Z</time>
      </trkpt>
      <trkpt lat="45.7863" lon="4.87123">
        <ele>176</ele>
        <time>2010-11-04T13:36:20Z</time>
      </trkpt>
      <trkpt lat="45.78631" lon="4.87127">
        <ele>176</ele>
        <time>2010-11-04T13:36:21Z</time>
      </trkpt>
      <trkpt lat="45.78631" lon="4.87133">
        <ele>176</ele>
        <time>2010-11-04T13:36:22Z</time>
      </trkpt>
      <trkpt lat="45.7863" lon="4.8714">
        <ele>176</ele>
        <time>2010-11-04T13:36:23Z</time>
      </trkpt>
      <trkpt lat="45.7863" lon="4.87146">
        <ele>176</ele>
        <time>2010-11-04T13:36:24Z</time>
      </trkpt>
      <trkpt lat="45.78631" lon="4.87152">
        <ele>176</ele>
        <time>2010-11-04T13:36:25Z</time>
      </trkpt>
      <trkpt lat="45.78631" lon="4.87158">
        <ele>176</ele>
        <time>2010-11-04T13:36:26Z</time>
      </trkpt>
      <trkpt lat="45.78632" lon="4.87164">
        <ele>176</ele>
        <time>2010-11-04T13:36:27Z</time>
      </trkpt>
      <trkpt lat="45.78633" lon="4.87169">
        <ele>175</ele>
        <time>2010-11-04T13:36:28Z</time>
      </trkpt>
      <trkpt lat="45.78635" lon="4.87175">
        <ele>175</ele>
        <time>2010-11-04T13:36:29Z</time>
      </trkpt>
      <trkpt lat="45.78636" lon="4.87181">
        <ele>175</ele>
        <time>2010-11-04T13:36:30Z</time>
      </trkpt>
      <trkpt lat="45.78638" lon="4.87186">
        <ele>175</ele>
        <time>2010-11-04T13:36:31Z</time>
      </trkpt>
      <trkpt lat="45.78642" lon="4.87212">
        <ele>174</ele>
        <time>2010-11-04T13:36:37Z</time>
      </trkpt>
      <trkpt lat="45.78643" lon="4.87217">
        <ele>174</ele>
        <time>2010-11-04T13:36:38Z</time>
      </trkpt>
      <trkpt lat="45.78644" lon="4.87222">
        <ele>174</ele>
        <time>2010-11-04T13:36:39Z</time>
      </trkpt>
      <trkpt lat="45.78645" lon="4.87227">
        <ele>174</ele>
        <time>2010-11-04T13:36:40Z</time>
      </trkpt>
      <trkpt lat="45.78646" lon="4.8723">
        <ele>174</ele>
        <time>2010-11-04T13:36:41Z</time>
      </trkpt>
      <trkpt lat="45.78648" lon="4.87233">
        <ele>174</ele>
        <time>2010-11-04T13:36:42Z</time>
      </trkpt>
      <trkpt lat="45.7865" lon="4.87238">
        <ele>174</ele>
        <time>2010-11-04T13:36:43Z</time>
      </trkpt>
      <trkpt lat="45.78651" lon="4.8724">
        <ele>174</ele>
        <time>2010-11-04T13:36:44Z</time>
      </trkpt>
      <trkpt lat="45.78657" lon="4.87255">
        <ele>173</ele>
        <time>2010-11-04T13:36:47Z</time>
      </trkpt>
      <trkpt lat="45.78659" lon="4.87267">
        <ele>173</ele>
        <time>2010-11-04T13:36:49Z</time>
      </trkpt>
      <trkpt lat="45.7866" lon="4.87273">
        <ele>174</ele>
        <time>2010-11-04T13:36:50Z</time>
      </trkpt>
      <trkpt lat="45.7866" lon="4.87278">
        <ele>174</ele>
        <time>2010-11-04T13:36:51Z</time>
      </trkpt>
      <trkpt lat="45.78662" lon="4.87285">
        <ele>174</ele>
        <time>2010-11-04T13:36:52Z</time>
      </trkpt>
      <trkpt lat="45.78664" lon="4.87289">
        <ele>174</ele>
        <time>2010-11-04T13:36:53Z</time>
      </trkpt>
      <trkpt lat="45.78666" lon="4.87293">
        <ele>174</ele>
        <time>2010-11-04T13:36:54Z</time>
      </trkpt>
      <trkpt lat="45.78668" lon="4.87295">
        <ele>173</ele>
        <time>2010-11-04T13:36:55Z</time>
      </trkpt>
      <trkpt lat="45.7867" lon="4.87298">
        <ele>173</ele>
        <time>2010-11-04T13:36:56Z</time>
      </trkpt>
      <trkpt lat="45.78673" lon="4.87303">
        <ele>173</ele>
        <time>2010-11-04T13:36:57Z</time>
      </trkpt>
      <trkpt lat="45.78675" lon="4.87307">
        <ele>173</ele>
        <time>2010-11-04T13:36:58Z</time>
      </trkpt>
      <trkpt lat="45.78687" lon="4.87337">
        <ele>172</ele>
        <time>2010-11-04T13:37:05Z</time>
      </trkpt>
      <trkpt lat="45.78687" lon="4.87342">
        <ele>172</ele>
        <time>2010-11-04T13:37:06Z</time>
      </trkpt>
      <trkpt lat="45.78688" lon="4.87346">
        <ele>172</ele>
        <time>2010-11-04T13:37:07Z</time>
      </trkpt>
      <trkpt lat="45.78688" lon="4.8735">
        <ele>172</ele>
        <time>2010-11-04T13:37:08Z</time>
      </trkpt>
      <trkpt lat="45.78689" lon="4.87354">
        <ele>172</ele>
        <time>2010-11-04T13:37:09Z</time>
      </trkpt>
      <trkpt lat="45.7869" lon="4.8736">
        <ele>172</ele>
        <time>2010-11-04T13:37:10Z</time>
      </trkpt>
      <trkpt lat="45.78692" lon="4.87365">
        <ele>171</ele>
        <time>2010-11-04T13:37:11Z</time>
      </trkpt>
      <trkpt lat="45.78692" lon="4.8737">
        <ele>171</ele>
        <time>2010-11-04T13:37:12Z</time>
      </trkpt>
      <trkpt lat="45.78693" lon="4.87373">
        <ele>171</ele>
        <time>2010-11-04T13:37:13Z</time>
      </trkpt>
      <trkpt lat="45.78693" lon="4.87377">
        <ele>171</ele>
        <time>2010-11-04T13:37:14Z</time>
      </trkpt>
      <trkpt lat="45.78693" lon="4.87382">
        <ele>171</ele>
        <time>2010-11-04T13:37:15Z</time>
      </trkpt>
      <trkpt lat="45.78692" lon="4.87388">
        <ele>171</ele>
        <time>2010-11-04T13:37:16Z</time>
      </trkpt>
      <trkpt lat="45.78693" lon="4.87392">
        <ele>171</ele>
        <time>2010-11-04T13:37:17Z</time>
      </trkpt>
      <trkpt lat="45.78694" lon="4.87395">
        <ele>171</ele>
        <time>2010-11-04T13:37:18Z</time>
      </trkpt>
      <trkpt lat="45.78695" lon="4.874">
        <ele>171</ele>
        <time>2010-11-04T13:37:19Z</time>
      </trkpt>
      <trkpt lat="45.78696" lon="4.87405">
        <ele>171</ele>
        <time>2010-11-04T13:37:20Z</time>
      </trkpt>
      <trkpt lat="45.78696" lon="4.8741">
        <ele>171</ele>
        <time>2010-11-04T13:37:21Z</time>
      </trkpt>
      <trkpt lat="45.78697" lon="4.87415">
        <ele>171</ele>
        <time>2010-11-04T13:37:22Z</time>
      </trkpt>
      <trkpt lat="45.78698" lon="4.87419">
        <ele>172</ele>
        <time>2010-11-04T13:37:23Z</time>
      </trkpt>
      <trkpt lat="45.78699" lon="4.87422">
        <ele>172</ele>
        <time>2010-11-04T13:37:24Z</time>
      </trkpt>
      <trkpt lat="45.787" lon="4.87432">
        <ele>172</ele>
        <time>2010-11-04T13:37:26Z</time>
      </trkpt>
      <trkpt lat="45.787" lon="4.87452">
        <ele>172</ele>
        <time>2010-11-04T13:37:29Z</time>
      </trkpt>
      <trkpt lat="45.78702" lon="4.87462">
        <ele>172</ele>
        <time>2010-11-04T13:37:31Z</time>
      </trkpt>
      <trkpt lat="45.78701" lon="4.87469">
        <ele>172</ele>
        <time>2010-11-04T13:37:32Z</time>
      </trkpt>
      <trkpt lat="45.78701" lon="4.87475">
        <ele>172</ele>
        <time>2010-11-04T13:37:33Z</time>
      </trkpt>
      <trkpt lat="45.78702" lon="4.87478">
        <ele>172</ele>
        <time>2010-11-04T13:37:34Z</time>
      </trkpt>
      <trkpt lat="45.78702" lon="4.87484">
        <ele>172</ele>
        <time>2010-11-04T13:37:35Z</time>
      </trkpt>
      <trkpt lat="45.78702" lon="4.87491">
        <ele>172</ele>
        <time>2010-11-04T13:37:36Z</time>
      </trkpt>
      <trkpt lat="45.78704" lon="4.87496">
        <ele>172</ele>
        <time>2010-11-04T13:37:37Z</time>
      </trkpt>
      <trkpt lat="45.78705" lon="4.87499">
        <ele>172</ele>
        <time>2010-11-04T13:37:38Z</time>
      </trkpt>
      <trkpt lat="45.78705" lon="4.87502">
        <ele>173</ele>
        <time>2010-11-04T13:37:39Z</time>
      </trkpt>
      <trkpt lat="45.78706" lon="4.87506">
        <ele>173</ele>
        <time>2010-11-04T13:37:40Z</time>
      </trkpt>
      <trkpt lat="45.78706" lon="4.8751">
        <ele>173</ele>
        <time>2010-11-04T13:37:41Z</time>
      </trkpt>
      <trkpt lat="45.78707" lon="4.87515">
        <ele>173</ele>
        <time>2010-11-04T13:37:42Z</time>
      </trkpt>
      <trkpt lat="45.78708" lon="4.8752">
        <ele>173</ele>
        <time>2010-11-04T13:37:43Z</time>
      </trkpt>
      <trkpt lat="45.7871" lon="4.87527">
        <ele>173</ele>
        <time>2010-11-04T13:37:45Z</time>
      </trkpt>
      <trkpt lat="45.7871" lon="4.87531">
        <ele>173</ele>
        <time>2010-11-04T13:37:46Z</time>
      </trkpt>
      <trkpt lat="45.7871" lon="4.87537">
        <ele>173</ele>
        <time>2010-11-04T13:37:47Z</time>
      </trkpt>
      <trkpt lat="45.78711" lon="4.87542">
        <ele>174</ele>
        <time>2010-11-04T13:37:48Z</time>
      </trkpt>
      <trkpt lat="45.78713" lon="4.8755">
        <ele>174</ele>
        <time>2010-11-04T13:37:49Z</time>
      </trkpt>
      <trkpt lat="45.78723" lon="4.87577">
        <ele>174</ele>
        <time>2010-11-04T13:37:55Z</time>
      </trkpt>
      <trkpt lat="45.78723" lon="4.87583">
        <ele>174</ele>
        <time>2010-11-04T13:37:56Z</time>
      </trkpt>
      <trkpt lat="45.78725" lon="4.87589">
        <ele>174</ele>
        <time>2010-11-04T13:37:57Z</time>
      </trkpt>
      <trkpt lat="45.78733" lon="4.87604">
        <ele>174</ele>
        <time>2010-11-04T13:38:00Z</time>
      </trkpt>
      <trkpt lat="45.78736" lon="4.87608">
        <ele>174</ele>
        <time>2010-11-04T13:38:01Z</time>
      </trkpt>
      <trkpt lat="45.78742" lon="4.87616">
        <ele>174</ele>
        <time>2010-11-04T13:38:03Z</time>
      </trkpt>
      <trkpt lat="45.78745" lon="4.87618">
        <ele>174</ele>
        <time>2010-11-04T13:38:04Z</time>
      </trkpt>
      <trkpt lat="45.78748" lon="4.8762">
        <ele>174</ele>
        <time>2010-11-04T13:38:05Z</time>
      </trkpt>
      <trkpt lat="45.7875" lon="4.87623">
        <ele>171</ele>
        <time>2010-11-04T13:38:06Z</time>
      </trkpt>
      <trkpt lat="45.78753" lon="4.87627">
        <ele>171</ele>
        <time>2010-11-04T13:38:07Z</time>
      </trkpt>
      <trkpt lat="45.78756" lon="4.8763">
        <ele>171</ele>
        <time>2010-11-04T13:38:08Z</time>
      </trkpt>
      <trkpt lat="45.7876" lon="4.87633">
        <ele>171</ele>
        <time>2010-11-04T13:38:09Z</time>
      </trkpt>
      <trkpt lat="45.78763" lon="4.87634">
        <ele>171</ele>
        <time>2010-11-04T13:38:10Z</time>
      </trkpt>
      <trkpt lat="45.78766" lon="4.87634">
        <ele>171</ele>
        <time>2010-11-04T13:38:11Z</time>
      </trkpt>
      <trkpt lat="45.78769" lon="4.87635">
        <ele>171</ele>
        <time>2010-11-04T13:38:12Z</time>
      </trkpt>
      <trkpt lat="45.78773" lon="4.87639">
        <ele>171</ele>
        <time>2010-11-04T13:38:13Z</time>
      </trkpt>
      <trkpt lat="45.78778" lon="4.87642">
        <ele>170</ele>
        <time>2010-11-04T13:38:14Z</time>
      </trkpt>
      <trkpt lat="45.78782" lon="4.87646">
        <ele>170</ele>
        <time>2010-11-04T13:38:15Z</time>
      </trkpt>
      <trkpt lat="45.78789" lon="4.87653">
        <ele>170</ele>
        <time>2010-11-04T13:38:17Z</time>
      </trkpt>
      <trkpt lat="45.78791" lon="4.87657">
        <ele>170</ele>
        <time>2010-11-04T13:38:18Z</time>
      </trkpt>
      <trkpt lat="45.78793" lon="4.87662">
        <ele>170</ele>
        <time>2010-11-04T13:38:19Z</time>
      </trkpt>
      <trkpt lat="45.78796" lon="4.87668">
        <ele>171</ele>
        <time>2010-11-04T13:38:20Z</time>
      </trkpt>
      <trkpt lat="45.78799" lon="4.87672">
        <ele>170</ele>
        <time>2010-11-04T13:38:21Z</time>
      </trkpt>
      <trkpt lat="45.78803" lon="4.87675">
        <ele>170</ele>
        <time>2010-11-04T13:38:22Z</time>
      </trkpt>
      <trkpt lat="45.78807" lon="4.87675">
        <ele>170</ele>
        <time>2010-11-04T13:38:23Z</time>
      </trkpt>
      <trkpt lat="45.7881" lon="4.87677">
        <ele>170</ele>
        <time>2010-11-04T13:38:24Z</time>
      </trkpt>
      <trkpt lat="45.78814" lon="4.87678">
        <ele>169</ele>
        <time>2010-11-04T13:38:25Z</time>
      </trkpt>
      <trkpt lat="45.78818" lon="4.8768">
        <ele>169</ele>
        <time>2010-11-04T13:38:26Z</time>
      </trkpt>
      <trkpt lat="45.78821" lon="4.87683">
        <ele>169</ele>
        <time>2010-11-04T13:38:27Z</time>
      </trkpt>
      <trkpt lat="45.78823" lon="4.87686">
        <ele>169</ele>
        <time>2010-11-04T13:38:28Z</time>
      </trkpt>
      <trkpt lat="45.78826" lon="4.87688">
        <ele>169</ele>
        <time>2010-11-04T13:38:29Z</time>
      </trkpt>
      <trkpt lat="45.7883" lon="4.87691">
        <ele>169</ele>
        <time>2010-11-04T13:38:30Z</time>
      </trkpt>
      <trkpt lat="45.78833" lon="4.87694">
        <ele>170</ele>
        <time>2010-11-04T13:38:31Z</time>
      </trkpt>
      <trkpt lat="45.78836" lon="4.87696">
        <ele>167</ele>
        <time>2010-11-04T13:38:32Z</time>
      </trkpt>
      <trkpt lat="45.78839" lon="4.87699">
        <ele>167</ele>
        <time>2010-11-04T13:38:33Z</time>
      </trkpt>
      <trkpt lat="45.78842" lon="4.87702">
        <ele>167</ele>
        <time>2010-11-04T13:38:34Z</time>
      </trkpt>
      <trkpt lat="45.78846" lon="4.87703">
        <ele>167</ele>
        <time>2010-11-04T13:38:35Z</time>
      </trkpt>
      <trkpt lat="45.78859" lon="4.87711">
        <ele>167</ele>
        <time>2010-11-04T13:38:39Z</time>
      </trkpt>
      <trkpt lat="45.78871" lon="4.87724">
        <ele>167</ele>
        <time>2010-11-04T13:38:43Z</time>
      </trkpt>
      <trkpt lat="45.78876" lon="4.87726">
        <ele>167</ele>
        <time>2010-11-04T13:38:44Z</time>
      </trkpt>
      <trkpt lat="45.78879" lon="4.87728">
        <ele>167</ele>
        <time>2010-11-04T13:38:45Z</time>
      </trkpt>
      <trkpt lat="45.78883" lon="4.87732">
        <ele>167</ele>
        <time>2010-11-04T13:38:46Z</time>
      </trkpt>
      <trkpt lat="45.78887" lon="4.87736">
        <ele>167</ele>
        <time>2010-11-04T13:38:47Z</time>
      </trkpt>
      <trkpt lat="45.7889" lon="4.87737">
        <ele>167</ele>
        <time>2010-11-04T13:38:48Z</time>
      </trkpt>
      <trkpt lat="45.78893" lon="4.87738">
        <ele>167</ele>
        <time>2010-11-04T13:38:49Z</time>
      </trkpt>
      <trkpt lat="45.78896" lon="4.8774">
        <ele>167</ele>
        <time>2010-11-04T13:38:50Z</time>
      </trkpt>
      <trkpt lat="45.789" lon="4.87743">
        <ele>167</ele>
        <time>2010-11-04T13:38:51Z</time>
      </trkpt>
      <trkpt lat="45.78903" lon="4.87745">
        <ele>167</ele>
        <time>2010-11-04T13:38:52Z</time>
      </trkpt>
      <trkpt lat="45.78907" lon="4.87747">
        <ele>166</ele>
        <time>2010-11-04T13:38:53Z</time>
      </trkpt>
      <trkpt lat="45.7891" lon="4.87749">
        <ele>166</ele>
        <time>2010-11-04T13:38:54Z</time>
      </trkpt>
      <trkpt lat="45.78914" lon="4.87752">
        <ele>166</ele>
        <time>2010-11-04T13:38:55Z</time>
      </trkpt>
      <trkpt lat="45.78917" lon="4.87757">
        <ele>166</ele>
        <time>2010-11-04T13:38:56Z</time>
      </trkpt>
      <trkpt lat="45.7892" lon="4.87761">
        <ele>166</ele>
        <time>2010-11-04T13:38:57Z</time>
      </trkpt>
      <trkpt lat="45.78923" lon="4.87762">
        <ele>166</ele>
        <time>2010-11-04T13:38:58Z</time>
      </trkpt>
      <trkpt lat="45.78925" lon="4.87764">
        <ele>166</ele>
        <time>2010-11-04T13:38:59Z</time>
      </trkpt>
      <trkpt lat="45.78928" lon="4.87768">
        <ele>166</ele>
        <time>2010-11-04T13:39:00Z</time>
      </trkpt>
      <trkpt lat="45.78932" lon="4.87771">
        <ele>166</ele>
        <time>2010-11-04T13:39:01Z</time>
      </trkpt>
      <trkpt lat="45.78939" lon="4.87778">
        <ele>166</ele>
        <time>2010-11-04T13:39:03Z</time>
      </trkpt>
      <trkpt lat="45.78941" lon="4.87781">
        <ele>166</ele>
        <time>2010-11-04T13:39:04Z</time>
      </trkpt>
      <trkpt lat="45.78945" lon="4.87782">
        <ele>166</ele>
        <time>2010-11-04T13:39:05Z</time>
      </trkpt>
      <trkpt lat="45.78949" lon="4.87783">
        <ele>166</ele>
        <time>2010-11-04T13:39:06Z</time>
      </trkpt>
      <trkpt lat="45.78952" lon="4.87785">
        <ele>166</ele>
        <time>2010-11-04T13:39:07Z</time>
      </trkpt>
      <trkpt lat="45.78953" lon="4.87788">
        <ele>166</ele>
        <time>2010-11-04T13:39:08Z</time>
      </trkpt>
      <trkpt lat="45.78956" lon="4.8779">
        <ele>166</ele>
        <time>2010-11-04T13:39:09Z</time>
      </trkpt>
      <trkpt lat="45.7896" lon="4.87792">
        <ele>166</ele>
        <time>2010-11-04T13:39:10Z</time>
      </trkpt>
      <trkpt lat="45.78964" lon="4.87795">
        <ele>166</ele>
        <time>2010-11-04T13:39:11Z</time>
      </trkpt>
      <trkpt lat="45.78968" lon="4.87796">
        <ele>166</ele>
        <time>2010-11-04T13:39:12Z</time>
      </trkpt>
      <trkpt lat="45.78971" lon="4.87799">
        <ele>166</ele>
        <time>2010-11-04T13:39:13Z</time>
      </trkpt>
      <trkpt lat="45.78974" lon="4.87803">
        <ele>166</ele>
        <time>2010-11-04T13:39:14Z</time>
      </trkpt>
      <trkpt lat="45.78978" lon="4.87806">
        <ele>166</ele>
        <time>2010-11-04T13:39:15Z</time>
      </trkpt>
      <trkpt lat="45.78981" lon="4.87808">
        <ele>166</ele>
        <time>2010-11-04T13:39:16Z</time>
      </trkpt>
      <trkpt lat="45.78984" lon="4.8781">
        <ele>166</ele>
        <time>2010-11-04T13:39:17Z</time>
      </trkpt>
      <trkpt lat="45.78987" lon="4.87812">
        <ele>167</ele>
        <time>2010-11-04T13:39:18Z</time>
      </trkpt>
      <trkpt lat="45.7899" lon="4.87816">
        <ele>167</ele>
        <time>2010-11-04T13:39:19Z</time>
      </trkpt>
      <trkpt lat="45.78993" lon="4.87818">
        <ele>167</ele>
        <time>2010-11-04T13:39:20Z</time>
      </trkpt>
      <trkpt lat="45.78997" lon="4.8782">
        <ele>167</ele>
        <time>2010-11-04T13:39:21Z</time>
      </trkpt>
      <trkpt lat="45.79001" lon="4.87821">
        <ele>167</ele>
        <time>2010-11-04T13:39:22Z</time>
      </trkpt>
      <trkpt lat="45.79005" lon="4.87824">
        <ele>167</ele>
        <time>2010-11-04T13:39:23Z</time>
      </trkpt>
      <trkpt lat="45.79009" lon="4.87828">
        <ele>167</ele>
        <time>2010-11-04T13:39:24Z</time>
      </trkpt>
      <trkpt lat="45.79012" lon="4.87831">
        <ele>167</ele>
        <time>2010-11-04T13:39:25Z</time>
      </trkpt>
      <trkpt lat="45.79015" lon="4.87835">
        <ele>167</ele>
        <time>2010-11-04T13:39:26Z</time>
      </trkpt>
      <trkpt lat="45.79018" lon="4.87838">
        <ele>167</ele>
        <time>2010-11-04T13:39:27Z</time>
      </trkpt>
      <trkpt lat="45.79022" lon="4.8784">
        <ele>167</ele>
        <time>2010-11-04T13:39:28Z</time>
      </trkpt>
      <trkpt lat="45.79026" lon="4.87841">
        <ele>167</ele>
        <time>2010-11-04T13:39:29Z</time>
      </trkpt>
      <trkpt lat="45.79029" lon="4.87844">
        <ele>167</ele>
        <time>2010-11-04T13:39:30Z</time>
      </trkpt>
      <trkpt lat="45.79032" lon="4.87847">
        <ele>167</ele>
        <time>2010-11-04T13:39:31Z</time>
      </trkpt>
      <trkpt lat="45.79034" lon="4.8785">
        <ele>167</ele>
        <time>2010-11-04T13:39:32Z</time>
      </trkpt>
      <trkpt lat="45.79036" lon="4.87853">
        <ele>167</ele>
        <time>2010-11-04T13:39:33Z</time>
      </trkpt>
      <trkpt lat="45.79039" lon="4.87855">
        <ele>167</ele>
        <time>2010-11-04T13:39:34Z</time>
      </trkpt>
      <trkpt lat="45.79041" lon="4.87858">
        <ele>167</ele>
        <time>2010-11-04T13:39:35Z</time>
      </trkpt>
      <trkpt lat="45.79043" lon="4.8786">
        <ele>167</ele>
        <time>2010-11-04T13:39:36Z</time>
      </trkpt>
      <trkpt lat="45.79047" lon="4.87861">
        <ele>167</ele>
        <time>2010-11-04T13:39:37Z</time>
      </trkpt>
      <trkpt lat="45.7905" lon="4.87863">
        <ele>167</ele>
        <time>2010-11-04T13:39:38Z</time>
      </trkpt>
      <trkpt lat="45.79054" lon="4.87865">
        <ele>167</ele>
        <time>2010-11-04T13:39:39Z</time>
      </trkpt>
      <trkpt lat="45.79057" lon="4.87867">
        <ele>167</ele>
        <time>2010-11-04T13:39:40Z</time>
      </trkpt>
      <trkpt lat="45.79059" lon="4.8787">
        <ele>167</ele>
        <time>2010-11-04T13:39:41Z</time>
      </trkpt>
      <trkpt lat="45.79062" lon="4.87873">
        <ele>167</ele>
        <time>2010-11-04T13:39:42Z</time>
      </trkpt>
      <trkpt lat="45.79064" lon="4.87877">
        <ele>167</ele>
        <time>2010-11-04T13:39:43Z</time>
      </trkpt>
      <trkpt lat="45.79066" lon="4.87881">
        <ele>167</ele>
        <time>2010-11-04T13:39:44Z</time>
      </trkpt>
      <trkpt lat="45.79068" lon="4.87884">
        <ele>167</ele>
        <time>2010-11-04T13:39:45Z</time>
      </trkpt>
      <trkpt lat="45.79075" lon="4.87891">
        <ele>167</ele>
        <time>2010-11-04T13:39:47Z</time>
      </trkpt>
      <trkpt lat="45.7908" lon="4.87894">
        <ele>167</ele>
        <time>2010-11-04T13:39:48Z</time>
      </trkpt>
      <trkpt lat="45.79083" lon="4.87897">
        <ele>167</ele>
        <time>2010-11-04T13:39:49Z</time>
      </trkpt>
      <trkpt lat="45.79086" lon="4.879">
        <ele>167</ele>
        <time>2010-11-04T13:39:50Z</time>
      </trkpt>
      <trkpt lat="45.79089" lon="4.87903">
        <ele>167</ele>
        <time>2010-11-04T13:39:51Z</time>
      </trkpt>
      <trkpt lat="45.79092" lon="4.87907">
        <ele>167</ele>
        <time>2010-11-04T13:39:52Z</time>
      </trkpt>
      <trkpt lat="45.79096" lon="4.8791">
        <ele>167</ele>
        <time>2010-11-04T13:39:53Z</time>
      </trkpt>
      <trkpt lat="45.79099" lon="4.87913">
        <ele>167</ele>
        <time>2010-11-04T13:39:54Z</time>
      </trkpt>
      <trkpt lat="45.79101" lon="4.87916">
        <ele>167</ele>
        <time>2010-11-04T13:39:55Z</time>
      </trkpt>
      <trkpt lat="45.79104" lon="4.8792">
        <ele>167</ele>
        <time>2010-11-04T13:39:56Z</time>
      </trkpt>
      <trkpt lat="45.79108" lon="4.87924">
        <ele>167</ele>
        <time>2010-11-04T13:39:57Z</time>
      </trkpt>
      <trkpt lat="45.7911" lon="4.87927">
        <ele>167</ele>
        <time>2010-11-04T13:39:58Z</time>
      </trkpt>
      <trkpt lat="45.79112" lon="4.8793">
        <ele>167</ele>
        <time>2010-11-04T13:39:59Z</time>
      </trkpt>
      <trkpt lat="45.79115" lon="4.87934">
        <ele>167</ele>
        <time>2010-11-04T13:40:00Z</time>
      </trkpt>
      <trkpt lat="45.79119" lon="4.87937">
        <ele>167</ele>
        <time>2010-11-04T13:40:01Z</time>
      </trkpt>
      <trkpt lat="45.79125" lon="4.87939">
        <ele>167</ele>
        <time>2010-11-04T13:40:02Z</time>
      </trkpt>
      <trkpt lat="45.79129" lon="4.87942">
        <ele>167</ele>
        <time>2010-11-04T13:40:03Z</time>
      </trkpt>
      <trkpt lat="45.79133" lon="4.87944">
        <ele>167</ele>
        <time>2010-11-04T13:40:04Z</time>
      </trkpt>
      <trkpt lat="45.79135" lon="4.87948">
        <ele>167</ele>
        <time>2010-11-04T13:40:05Z</time>
      </trkpt>
      <trkpt lat="45.79138" lon="4.87952">
        <ele>167</ele>
        <time>2010-11-04T13:40:06Z</time>
      </trkpt>
      <trkpt lat="45.79142" lon="4.87954">
        <ele>167</ele>
        <time>2010-11-04T13:40:07Z</time>
      </trkpt>
      <trkpt lat="45.79145" lon="4.87956">
        <ele>167</ele>
        <time>2010-11-04T13:40:08Z</time>
      </trkpt>
      <trkpt lat="45.79158" lon="4.87964">
        <ele>166</ele>
        <time>2010-11-04T13:40:12Z</time>
      </trkpt>
      <trkpt lat="45.79166" lon="4.87971">
        <ele>166</ele>
        <time>2010-11-04T13:40:15Z</time>
      </trkpt>
      <trkpt lat="45.79168" lon="4.87974">
        <ele>166</ele>
        <time>2010-11-04T13:40:16Z</time>
      </trkpt>
      <trkpt lat="45.79171" lon="4.87975">
        <ele>166</ele>
        <time>2010-11-04T13:40:17Z</time>
      </trkpt>
      <trkpt lat="45.79173" lon="4.87978">
        <ele>166</ele>
        <time>2010-11-04T13:40:18Z</time>
      </trkpt>
      <trkpt lat="45.79176" lon="4.8798">
        <ele>166</ele>
        <time>2010-11-04T13:40:19Z</time>
      </trkpt>
      <trkpt lat="45.79179" lon="4.87983">
        <ele>166</ele>
        <time>2010-11-04T13:40:20Z</time>
      </trkpt>
      <trkpt lat="45.79182" lon="4.87987">
        <ele>166</ele>
        <time>2010-11-04T13:40:21Z</time>
      </trkpt>
      <trkpt lat="45.79185" lon="4.8799">
        <ele>166</ele>
        <time>2010-11-04T13:40:22Z</time>
      </trkpt>
      <trkpt lat="45.7919" lon="4.87993">
        <ele>166</ele>
        <time>2010-11-04T13:40:23Z</time>
      </trkpt>
      <trkpt lat="45.79193" lon="4.87995">
        <ele>166</ele>
        <time>2010-11-04T13:40:24Z</time>
      </trkpt>
      <trkpt lat="45.79195" lon="4.87999">
        <ele>166</ele>
        <time>2010-11-04T13:40:25Z</time>
      </trkpt>
      <trkpt lat="45.79198" lon="4.88001">
        <ele>166</ele>
        <time>2010-11-04T13:40:26Z</time>
      </trkpt>
      <trkpt lat="45.79201" lon="4.88004">
        <ele>166</ele>
        <time>2010-11-04T13:40:27Z</time>
      </trkpt>
      <trkpt lat="45.79205" lon="4.88008">
        <ele>166</ele>
        <time>2010-11-04T13:40:28Z</time>
      </trkpt>
      <trkpt lat="45.79207" lon="4.88011">
        <ele>166</ele>
        <time>2010-11-04T13:40:29Z</time>
      </trkpt>
      <trkpt lat="45.7921" lon="4.88014">
        <ele>166</ele>
        <time>2010-11-04T13:40:30Z</time>
      </trkpt>
      <trkpt lat="45.79212" lon="4.88016">
        <ele>166</ele>
        <time>2010-11-04T13:40:31Z</time>
      </trkpt>
      <trkpt lat="45.79215" lon="4.88019">
        <ele>166</ele>
        <time>2010-11-04T13:40:32Z</time>
      </trkpt>
      <trkpt lat="45.79218" lon="4.88022">
        <ele>166</ele>
        <time>2010-11-04T13:40:33Z</time>
      </trkpt>
      <trkpt lat="45.79221" lon="4.88024">
        <ele>166</ele>
        <time>2010-11-04T13:40:34Z</time>
      </trkpt>
      <trkpt lat="45.79223" lon="4.88027">
        <ele>166</ele>
        <time>2010-11-04T13:40:35Z</time>
      </trkpt>
      <trkpt lat="45.79226" lon="4.8803">
        <ele>166</ele>
        <time>2010-11-04T13:40:36Z</time>
      </trkpt>
      <trkpt lat="45.79228" lon="4.88032">
        <ele>166</ele>
        <time>2010-11-04T13:40:37Z</time>
      </trkpt>
      <trkpt lat="45.79231" lon="4.88034">
        <ele>166</ele>
        <time>2010-11-04T13:40:38Z</time>
      </trkpt>
      <trkpt lat="45.79234" lon="4.88035">
        <ele>166</ele>
        <time>2010-11-04T13:40:39Z</time>
      </trkpt>
      <trkpt lat="45.79236" lon="4.88036">
        <ele>166</ele>
        <time>2010-11-04T13:40:40Z</time>
      </trkpt>
      <trkpt lat="45.79238" lon="4.88038">
        <ele>166</ele>
        <time>2010-11-04T13:40:41Z</time>
      </trkpt>
      <trkpt lat="45.79241" lon="4.88039">
        <ele>166</ele>
        <time>2010-11-04T13:40:42Z</time>
      </trkpt>
      <trkpt lat="45.79243" lon="4.88041">
        <ele>166</ele>
        <time>2010-11-04T13:40:43Z</time>
      </trkpt>
      <trkpt lat="45.79246" lon="4.88042">
        <ele>166</ele>
        <time>2010-11-04T13:40:44Z</time>
      </trkpt>
      <trkpt lat="45.79249" lon="4.88043">
        <ele>166</ele>
        <time>2010-11-04T13:40:45Z</time>
      </trkpt>
      <trkpt lat="45.79252" lon="4.88044">
        <ele>167</ele>
        <time>2010-11-04T13:40:46Z</time>
      </trkpt>
      <trkpt lat="45.79253" lon="4.88046">
        <ele>167</ele>
        <time>2010-11-04T13:40:47Z</time>
      </trkpt>
      <trkpt lat="45.79255" lon="4.88049">
        <ele>167</ele>
        <time>2010-11-04T13:40:48Z</time>
      </trkpt>
      <trkpt lat="45.79257" lon="4.88051">
        <ele>167</ele>
        <time>2010-11-04T13:40:49Z</time>
      </trkpt>
      <trkpt lat="45.79258" lon="4.88053">
        <ele>167</ele>
        <time>2010-11-04T13:40:50Z</time>
      </trkpt>
      <trkpt lat="45.7926" lon="4.88056">
        <ele>167</ele>
        <time>2010-11-04T13:40:51Z</time>
      </trkpt>
      <trkpt lat="45.79261" lon="4.88059">
        <ele>167</ele>
        <time>2010-11-04T13:40:52Z</time>
      </trkpt>
      <trkpt lat="45.79263" lon="4.8806">
        <ele>167</ele>
        <time>2010-11-04T13:40:53Z</time>
      </trkpt>
      <trkpt lat="45.79266" lon="4.88058">
        <ele>167</ele>
        <time>2010-11-04T13:40:59Z</time>
      </trkpt>
      <trkpt lat="45.79267" lon="4.88055">
        <ele>167</ele>
        <time>2010-11-04T13:41:00Z</time>
      </trkpt>
      <trkpt lat="45.79266" lon="4.88053">
        <ele>167</ele>
        <time>2010-11-04T13:41:08Z</time>
      </trkpt>
      <trkpt lat="45.79265" lon="4.88053">
        <ele>167</ele>
        <time>2010-11-04T13:41:23Z</time>
      </trkpt>
      <trkpt lat="45.7926" lon="4.8807">
        <ele>166</ele>
        <time>2010-11-04T13:42:00Z</time>
      </trkpt>
      <trkpt lat="45.79265" lon="4.88071">
        <ele>166</ele>
        <time>2010-11-04T13:42:12Z</time>
      </trkpt>
      <trkpt lat="45.79265" lon="4.88069">
        <ele>166</ele>
        <time>2010-11-04T13:42:15Z</time>
      </trkpt>
      <trkpt lat="45.79266" lon="4.88074">
        <ele>166</ele>
        <time>2010-11-04T13:42:25Z</time>
      </trkpt>
      <trkpt lat="45.79267" lon="4.88077">
        <ele>166</ele>
        <time>2010-11-04T13:42:27Z</time>
      </trkpt>
      <trkpt lat="45.79271" lon="4.88097">
        <ele>167</ele>
        <time>2010-11-04T13:42:37Z</time>
      </trkpt>
      <trkpt lat="45.79276" lon="4.88111">
        <ele>167</ele>
        <time>2010-11-04T13:42:45Z</time>
      </trkpt>
      <trkpt lat="45.79278" lon="4.88113">
        <ele>167</ele>
        <time>2010-11-04T13:42:46Z</time>
      </trkpt>
      <trkpt lat="45.79279" lon="4.88115">
        <ele>167</ele>
        <time>2010-11-04T13:42:47Z</time>
      </trkpt>
      <trkpt lat="45.7928" lon="4.88117">
        <ele>167</ele>
        <time>2010-11-04T13:42:48Z</time>
      </trkpt>
      <trkpt lat="45.79282" lon="4.8812">
        <ele>167</ele>
        <time>2010-11-04T13:42:49Z</time>
      </trkpt>
      <trkpt lat="45.79284" lon="4.88123">
        <ele>168</ele>
        <time>2010-11-04T13:42:50Z</time>
      </trkpt>
      <trkpt lat="45.79292" lon="4.88136">
        <ele>168</ele>
        <time>2010-11-04T13:42:54Z</time>
      </trkpt>
      <trkpt lat="45.79293" lon="4.88138">
        <ele>168</ele>
        <time>2010-11-04T13:42:55Z</time>
      </trkpt>
      <trkpt lat="45.79299" lon="4.88152">
        <ele>168</ele>
        <time>2010-11-04T13:43:01Z</time>
      </trkpt>
      <trkpt lat="45.793" lon="4.88154">
        <ele>168</ele>
        <time>2010-11-04T13:43:02Z</time>
      </trkpt>
      <trkpt lat="45.79302" lon="4.88178">
        <ele>168</ele>
        <time>2010-11-04T13:43:08Z</time>
      </trkpt>
      <trkpt lat="45.79303" lon="4.88181">
        <ele>168</ele>
        <time>2010-11-04T13:43:09Z</time>
      </trkpt>
      <trkpt lat="45.79304" lon="4.88184">
        <ele>168</ele>
        <time>2010-11-04T13:43:10Z</time>
      </trkpt>
      <trkpt lat="45.79305" lon="4.88188">
        <ele>168</ele>
        <time>2010-11-04T13:43:11Z</time>
      </trkpt>
      <trkpt lat="45.79305" lon="4.88192">
        <ele>168</ele>
        <time>2010-11-04T13:43:12Z</time>
      </trkpt>
      <trkpt lat="45.79305" lon="4.88196">
        <ele>168</ele>
        <time>2010-11-04T13:43:13Z</time>
      </trkpt>
      <trkpt lat="45.79305" lon="4.88199">
        <ele>168</ele>
        <time>2010-11-04T13:43:14Z</time>
      </trkpt>
      <trkpt lat="45.79306" lon="4.88203">
        <ele>168</ele>
        <time>2010-11-04T13:43:15Z</time>
      </trkpt>
      <trkpt lat="45.79306" lon="4.88208">
        <ele>168</ele>
        <time>2010-11-04T13:43:16Z</time>
      </trkpt>
      <trkpt lat="45.79307" lon="4.88213">
        <ele>168</ele>
        <time>2010-11-04T13:43:17Z</time>
      </trkpt>
      <trkpt lat="45.79307" lon="4.88218">
        <ele>168</ele>
        <time>2010-11-04T13:43:18Z</time>
      </trkpt>
      <trkpt lat="45.79305" lon="4.88241">
        <ele>168</ele>
        <time>2010-11-04T13:43:24Z</time>
      </trkpt>
      <trkpt lat="45.79305" lon="4.88245">
        <ele>168</ele>
        <time>2010-11-04T13:43:25Z</time>
      </trkpt>
      <trkpt lat="45.79305" lon="4.88249">
        <ele>168</ele>
        <time>2010-11-04T13:43:26Z</time>
      </trkpt>
      <trkpt lat="45.79305" lon="4.88253">
        <ele>169</ele>
        <time>2010-11-04T13:43:27Z</time>
      </trkpt>
      <trkpt lat="45.79305" lon="4.88257">
        <ele>169</ele>
        <time>2010-11-04T13:43:28Z</time>
      </trkpt>
      <trkpt lat="45.79301" lon="4.88281">
        <ele>169</ele>
        <time>2010-11-04T13:43:35Z</time>
      </trkpt>
      <trkpt lat="45.79299" lon="4.88284">
        <ele>169</ele>
        <time>2010-11-04T13:43:36Z</time>
      </trkpt>
      <trkpt lat="45.79299" lon="4.88288">
        <ele>169</ele>
        <time>2010-11-04T13:43:37Z</time>
      </trkpt>
      <trkpt lat="45.79299" lon="4.88291">
        <ele>169</ele>
        <time>2010-11-04T13:43:38Z</time>
      </trkpt>
      <trkpt lat="45.79299" lon="4.88294">
        <ele>169</ele>
        <time>2010-11-04T13:43:39Z</time>
      </trkpt>
      <trkpt lat="45.79298" lon="4.88297">
        <ele>169</ele>
        <time>2010-11-04T13:43:40Z</time>
      </trkpt>
      <trkpt lat="45.79297" lon="4.883">
        <ele>169</ele>
        <time>2010-11-04T13:43:41Z</time>
      </trkpt>
      <trkpt lat="45.79295" lon="4.88304">
        <ele>169</ele>
        <time>2010-11-04T13:43:42Z</time>
      </trkpt>
      <trkpt lat="45.79294" lon="4.88307">
        <ele>169</ele>
        <time>2010-11-04T13:43:43Z</time>
      </trkpt>
      <trkpt lat="45.79294" lon="4.8831">
        <ele>169</ele>
        <time>2010-11-04T13:43:44Z</time>
      </trkpt>
      <trkpt lat="45.79292" lon="4.88313">
        <ele>169</ele>
        <time>2010-11-04T13:43:45Z</time>
      </trkpt>
      <trkpt lat="45.79291" lon="4.88316">
        <ele>169</ele>
        <time>2010-11-04T13:43:46Z</time>
      </trkpt>
      <trkpt lat="45.79288" lon="4.88319">
        <ele>169</ele>
        <time>2010-11-04T13:43:47Z</time>
      </trkpt>
      <trkpt lat="45.79286" lon="4.88323">
        <ele>169</ele>
        <time>2010-11-04T13:43:48Z</time>
      </trkpt>
      <trkpt lat="45.79284" lon="4.88326">
        <ele>169</ele>
        <time>2010-11-04T13:43:49Z</time>
      </trkpt>
      <trkpt lat="45.79282" lon="4.8833">
        <ele>169</ele>
        <time>2010-11-04T13:43:50Z</time>
      </trkpt>
      <trkpt lat="45.79281" lon="4.88333">
        <ele>169</ele>
        <time>2010-11-04T13:43:51Z</time>
      </trkpt>
      <trkpt lat="45.79279" lon="4.88336">
        <ele>169</ele>
        <time>2010-11-04T13:43:52Z</time>
      </trkpt>
      <trkpt lat="45.79277" lon="4.88338">
        <ele>169</ele>
        <time>2010-11-04T13:43:53Z</time>
      </trkpt>
      <trkpt lat="45.79276" lon="4.88341">
        <ele>169</ele>
        <time>2010-11-04T13:43:54Z</time>
      </trkpt>
      <trkpt lat="45.79274" lon="4.88343">
        <ele>169</ele>
        <time>2010-11-04T13:43:55Z</time>
      </trkpt>
      <trkpt lat="45.79273" lon="4.88345">
        <ele>169</ele>
        <time>2010-11-04T13:43:56Z</time>
      </trkpt>
      <trkpt lat="45.7927" lon="4.88347">
        <ele>169</ele>
        <time>2010-11-04T13:43:57Z</time>
      </trkpt>
      <trkpt lat="45.79267" lon="4.88349">
        <ele>169</ele>
        <time>2010-11-04T13:43:58Z</time>
      </trkpt>
      <trkpt lat="45.79265" lon="4.88352">
        <ele>169</ele>
        <time>2010-11-04T13:43:59Z</time>
      </trkpt>
      <trkpt lat="45.79263" lon="4.88354">
        <ele>169</ele>
        <time>2010-11-04T13:44:00Z</time>
      </trkpt>
      <trkpt lat="45.79262" lon="4.88356">
        <ele>169</ele>
        <time>2010-11-04T13:44:01Z</time>
      </trkpt>
      <trkpt lat="45.7924" lon="4.88378">
        <ele>170</ele>
        <time>2010-11-04T13:44:11Z</time>
      </trkpt>
      <trkpt lat="45.7924" lon="4.8838">
        <ele>170</ele>
        <time>2010-11-04T13:44:12Z</time>
      </trkpt>
      <trkpt lat="45.79239" lon="4.88384">
        <ele>170</ele>
        <time>2010-11-04T13:44:13Z</time>
      </trkpt>
      <trkpt lat="45.79222" lon="4.88406">
        <ele>170</ele>
        <time>2010-11-04T13:44:20Z</time>
      </trkpt>
      <trkpt lat="45.79214" lon="4.88422">
        <ele>169</ele>
        <time>2010-11-04T13:44:25Z</time>
      </trkpt>
      <trkpt lat="45.79212" lon="4.88424">
        <ele>169</ele>
        <time>2010-11-04T13:44:26Z</time>
      </trkpt>
      <trkpt lat="45.79211" lon="4.88427">
        <ele>169</ele>
        <time>2010-11-04T13:44:27Z</time>
      </trkpt>
      <trkpt lat="45.79194" lon="4.88453">
        <ele>169</ele>
        <time>2010-11-04T13:44:36Z</time>
      </trkpt>
      <trkpt lat="45.79183" lon="4.8847">
        <ele>169</ele>
        <time>2010-11-04T13:44:43Z</time>
      </trkpt>
      <trkpt lat="45.79178" lon="4.88479">
        <ele>169</ele>
        <time>2010-11-04T13:44:46Z</time>
      </trkpt>
      <trkpt lat="45.79175" lon="4.88482">
        <ele>169</ele>
        <time>2010-11-04T13:44:47Z</time>
      </trkpt>
      <trkpt lat="45.79172" lon="4.88485">
        <ele>168</ele>
        <time>2010-11-04T13:44:48Z</time>
      </trkpt>
      <trkpt lat="45.7917" lon="4.88488">
        <ele>168</ele>
        <time>2010-11-04T13:44:49Z</time>
      </trkpt>
      <trkpt lat="45.79168" lon="4.88491">
        <ele>168</ele>
        <time>2010-11-04T13:44:50Z</time>
      </trkpt>
      <trkpt lat="45.79165" lon="4.88494">
        <ele>169</ele>
        <time>2010-11-04T13:44:51Z</time>
      </trkpt>
      <trkpt lat="45.79162" lon="4.88495">
        <ele>169</ele>
        <time>2010-11-04T13:44:52Z</time>
      </trkpt>
      <trkpt lat="45.79159" lon="4.88497">
        <ele>169</ele>
        <time>2010-11-04T13:44:53Z</time>
      </trkpt>
      <trkpt lat="45.79157" lon="4.88499">
        <ele>169</ele>
        <time>2010-11-04T13:44:54Z</time>
      </trkpt>
      <trkpt lat="45.79155" lon="4.88501">
        <ele>169</ele>
        <time>2010-11-04T13:44:55Z</time>
      </trkpt>
      <trkpt lat="45.79153" lon="4.88503">
        <ele>169</ele>
        <time>2010-11-04T13:44:56Z</time>
      </trkpt>
      <trkpt lat="45.79148" lon="4.88507">
        <ele>169</ele>
        <time>2010-11-04T13:44:59Z</time>
      </trkpt>
      <trkpt lat="45.79145" lon="4.8851">
        <ele>169</ele>
        <time>2010-11-04T13:45:00Z</time>
      </trkpt>
      <trkpt lat="45.79143" lon="4.88513">
        <ele>169</ele>
        <time>2010-11-04T13:45:01Z</time>
      </trkpt>
      <trkpt lat="45.7914" lon="4.88515">
        <ele>169</ele>
        <time>2010-11-04T13:45:02Z</time>
      </trkpt>
      <trkpt lat="45.79137" lon="4.88516">
        <ele>169</ele>
        <time>2010-11-04T13:45:03Z</time>
      </trkpt>
      <trkpt lat="45.79135" lon="4.88519">
        <ele>169</ele>
        <time>2010-11-04T13:45:04Z</time>
      </trkpt>
      <trkpt lat="45.79133" lon="4.88521">
        <ele>169</ele>
        <time>2010-11-04T13:45:05Z</time>
      </trkpt>
      <trkpt lat="45.79123" lon="4.88527">
        <ele>170</ele>
        <time>2010-11-04T13:45:09Z</time>
      </trkpt>
      <trkpt lat="45.7911" lon="4.88537">
        <ele>170</ele>
        <time>2010-11-04T13:45:18Z</time>
      </trkpt>
      <trkpt lat="45.79111" lon="4.88535">
        <ele>170</ele>
        <time>2010-11-04T13:45:36Z</time>
      </trkpt>
      <trkpt lat="45.79112" lon="4.88533">
        <ele>170</ele>
        <time>2010-11-04T13:45:47Z</time>
      </trkpt>
      <trkpt lat="45.79135" lon="4.88513">
        <ele>169</ele>
        <time>2010-11-04T13:45:56Z</time>
      </trkpt>
      <trkpt lat="45.79142" lon="4.88509">
        <ele>169</ele>
        <time>2010-11-04T13:45:59Z</time>
      </trkpt>
      <trkpt lat="45.79144" lon="4.88505">
        <ele>169</ele>
        <time>2010-11-04T13:46:00Z</time>
      </trkpt>
      <trkpt lat="45.79145" lon="4.88503">
        <ele>169</ele>
        <time>2010-11-04T13:46:01Z</time>
      </trkpt>
      <trkpt lat="45.79146" lon="4.88501">
        <ele>169</ele>
        <time>2010-11-04T13:46:02Z</time>
      </trkpt>
      <trkpt lat="45.79148" lon="4.88499">
        <ele>169</ele>
        <time>2010-11-04T13:46:03Z</time>
      </trkpt>
      <trkpt lat="45.79151" lon="4.88497">
        <ele>169</ele>
        <time>2010-11-04T13:46:04Z</time>
      </trkpt>
      <trkpt lat="45.79154" lon="4.88495">
        <ele>169</ele>
        <time>2010-11-04T13:46:05Z</time>
      </trkpt>
      <trkpt lat="45.79156" lon="4.88493">
        <ele>169</ele>
        <time>2010-11-04T13:46:06Z</time>
      </trkpt>
      <trkpt lat="45.79159" lon="4.88489">
        <ele>169</ele>
        <time>2010-11-04T13:46:08Z</time>
      </trkpt>
      <trkpt lat="45.7916" lon="4.88487">
        <ele>169</ele>
        <time>2010-11-04T13:46:09Z</time>
      </trkpt>
      <trkpt lat="45.79161" lon="4.88485">
        <ele>169</ele>
        <time>2010-11-04T13:46:10Z</time>
      </trkpt>
      <trkpt lat="45.79167" lon="4.88482">
        <ele>169</ele>
        <time>2010-11-04T13:46:12Z</time>
      </trkpt>
      <trkpt lat="45.7917" lon="4.8848">
        <ele>169</ele>
        <time>2010-11-04T13:46:13Z</time>
      </trkpt>
      <trkpt lat="45.79172" lon="4.88478">
        <ele>169</ele>
        <time>2010-11-04T13:46:14Z</time>
      </trkpt>
      <trkpt lat="45.79174" lon="4.88476">
        <ele>169</ele>
        <time>2010-11-04T13:46:15Z</time>
      </trkpt>
      <trkpt lat="45.79176" lon="4.88473">
        <ele>169</ele>
        <time>2010-11-04T13:46:16Z</time>
      </trkpt>
      <trkpt lat="45.79178" lon="4.88471">
        <ele>169</ele>
        <time>2010-11-04T13:46:17Z</time>
      </trkpt>
      <trkpt lat="45.7918" lon="4.88469">
        <ele>169</ele>
        <time>2010-11-04T13:46:18Z</time>
      </trkpt>
      <trkpt lat="45.79182" lon="4.88466">
        <ele>169</ele>
        <time>2010-11-04T13:46:19Z</time>
      </trkpt>
      <trkpt lat="45.79185" lon="4.88462">
        <ele>169</ele>
        <time>2010-11-04T13:46:21Z</time>
      </trkpt>
      <trkpt lat="45.79186" lon="4.88461">
        <ele>169</ele>
        <time>2010-11-04T13:46:23Z</time>
      </trkpt>
      <trkpt lat="45.79186" lon="4.88461">
        <ele>169</ele>
        <time>2010-11-04T13:46:24Z</time>
      </trkpt>
      <trkpt lat="45.7919" lon="4.88457">
        <ele>169</ele>
        <time>2010-11-04T13:46:27Z</time>
      </trkpt>
      <trkpt lat="45.79192" lon="4.88455">
        <ele>169</ele>
        <time>2010-11-04T13:46:28Z</time>
      </trkpt>
      <trkpt lat="45.79203" lon="4.88437">
        <ele>169</ele>
        <time>2010-11-04T13:46:34Z</time>
      </trkpt>
      <trkpt lat="45.79205" lon="4.88434">
        <ele>169</ele>
        <time>2010-11-04T13:46:35Z</time>
      </trkpt>
      <trkpt lat="45.79206" lon="4.8843">
        <ele>169</ele>
        <time>2010-11-04T13:46:36Z</time>
      </trkpt>
      <trkpt lat="45.79206" lon="4.88426">
        <ele>169</ele>
        <time>2010-11-04T13:46:37Z</time>
      </trkpt>
      <trkpt lat="45.79207" lon="4.88423">
        <ele>169</ele>
        <time>2010-11-04T13:46:38Z</time>
      </trkpt>
      <trkpt lat="45.79209" lon="4.8842">
        <ele>169</ele>
        <time>2010-11-04T13:46:39Z</time>
      </trkpt>
      <trkpt lat="45.79229" lon="4.88394">
        <ele>170</ele>
        <time>2010-11-04T13:46:48Z</time>
      </trkpt>
      <trkpt lat="45.79231" lon="4.88391">
        <ele>170</ele>
        <time>2010-11-04T13:46:49Z</time>
      </trkpt>
      <trkpt lat="45.79232" lon="4.88388">
        <ele>170</ele>
        <time>2010-11-04T13:46:50Z</time>
      </trkpt>
      <trkpt lat="45.79235" lon="4.88386">
        <ele>170</ele>
        <time>2010-11-04T13:46:51Z</time>
      </trkpt>
      <trkpt lat="45.79238" lon="4.88384">
        <ele>170</ele>
        <time>2010-11-04T13:46:52Z</time>
      </trkpt>
      <trkpt lat="45.79241" lon="4.88382">
        <ele>170</ele>
        <time>2010-11-04T13:46:53Z</time>
      </trkpt>
      <trkpt lat="45.79243" lon="4.8838">
        <ele>170</ele>
        <time>2010-11-04T13:46:54Z</time>
      </trkpt>
      <trkpt lat="45.79244" lon="4.88378">
        <ele>170</ele>
        <time>2010-11-04T13:46:55Z</time>
      </trkpt>
      <trkpt lat="45.79244" lon="4.88375">
        <ele>170</ele>
        <time>2010-11-04T13:46:56Z</time>
      </trkpt>
      <trkpt lat="45.79247" lon="4.88372">
        <ele>170</ele>
        <time>2010-11-04T13:46:57Z</time>
      </trkpt>
      <trkpt lat="45.79249" lon="4.8837">
        <ele>170</ele>
        <time>2010-11-04T13:46:58Z</time>
      </trkpt>
      <trkpt lat="45.79252" lon="4.88368">
        <ele>169</ele>
        <time>2010-11-04T13:46:59Z</time>
      </trkpt>
      <trkpt lat="45.79255" lon="4.88365">
        <ele>169</ele>
        <time>2010-11-04T13:47:00Z</time>
      </trkpt>
      <trkpt lat="45.79258" lon="4.88362">
        <ele>169</ele>
        <time>2010-11-04T13:47:01Z</time>
      </trkpt>
      <trkpt lat="45.79261" lon="4.8836">
        <ele>169</ele>
        <time>2010-11-04T13:47:02Z</time>
      </trkpt>
      <trkpt lat="45.79264" lon="4.88357">
        <ele>169</ele>
        <time>2010-11-04T13:47:03Z</time>
      </trkpt>
      <trkpt lat="45.79266" lon="4.88354">
        <ele>169</ele>
        <time>2010-11-04T13:47:04Z</time>
      </trkpt>
      <trkpt lat="45.79268" lon="4.88352">
        <ele>169</ele>
        <time>2010-11-04T13:47:05Z</time>
      </trkpt>
      <trkpt lat="45.79272" lon="4.88347">
        <ele>169</ele>
        <time>2010-11-04T13:47:07Z</time>
      </trkpt>
      <trkpt lat="45.79274" lon="4.88343">
        <ele>169</ele>
        <time>2010-11-04T13:47:08Z</time>
      </trkpt>
      <trkpt lat="45.79274" lon="4.8834">
        <ele>169</ele>
        <time>2010-11-04T13:47:09Z</time>
      </trkpt>
      <trkpt lat="45.79276" lon="4.88336">
        <ele>169</ele>
        <time>2010-11-04T13:47:10Z</time>
      </trkpt>
      <trkpt lat="45.79277" lon="4.88332">
        <ele>169</ele>
        <time>2010-11-04T13:47:11Z</time>
      </trkpt>
      <trkpt lat="45.79279" lon="4.88329">
        <ele>169</ele>
        <time>2010-11-04T13:47:12Z</time>
      </trkpt>
      <trkpt lat="45.7928" lon="4.88326">
        <ele>169</ele>
        <time>2010-11-04T13:47:13Z</time>
      </trkpt>
      <trkpt lat="45.79282" lon="4.88323">
        <ele>169</ele>
        <time>2010-11-04T13:47:14Z</time>
      </trkpt>
      <trkpt lat="45.79283" lon="4.8832">
        <ele>169</ele>
        <time>2010-11-04T13:47:15Z</time>
      </trkpt>
      <trkpt lat="45.79284" lon="4.88317">
        <ele>169</ele>
        <time>2010-11-04T13:47:16Z</time>
      </trkpt>
      <trkpt lat="45.79286" lon="4.88314">
        <ele>169</ele>
        <time>2010-11-04T13:47:17Z</time>
      </trkpt>
      <trkpt lat="45.79287" lon="4.88311">
        <ele>169</ele>
        <time>2010-11-04T13:47:18Z</time>
      </trkpt>
      <trkpt lat="45.7929" lon="4.88307">
        <ele>169</ele>
        <time>2010-11-04T13:47:19Z</time>
      </trkpt>
      <trkpt lat="45.79292" lon="4.88303">
        <ele>169</ele>
        <time>2010-11-04T13:47:20Z</time>
      </trkpt>
      <trkpt lat="45.79294" lon="4.88299">
        <ele>169</ele>
        <time>2010-11-04T13:47:21Z</time>
      </trkpt>
      <trkpt lat="45.79295" lon="4.88296">
        <ele>169</ele>
        <time>2010-11-04T13:47:22Z</time>
      </trkpt>
      <trkpt lat="45.79297" lon="4.88292">
        <ele>169</ele>
        <time>2010-11-04T13:47:23Z</time>
      </trkpt>
      <trkpt lat="45.79298" lon="4.88287">
        <ele>169</ele>
        <time>2010-11-04T13:47:24Z</time>
      </trkpt>
      <trkpt lat="45.79298" lon="4.88282">
        <ele>169</ele>
        <time>2010-11-04T13:47:25Z</time>
      </trkpt>
      <trkpt lat="45.79298" lon="4.88277">
        <ele>169</ele>
        <time>2010-11-04T13:47:26Z</time>
      </trkpt>
      <trkpt lat="45.793" lon="4.88251">
        <ele>169</ele>
        <time>2010-11-04T13:47:32Z</time>
      </trkpt>
      <trkpt lat="45.79302" lon="4.88211">
        <ele>168</ele>
        <time>2010-11-04T13:47:42Z</time>
      </trkpt>
      <trkpt lat="45.79302" lon="4.88188">
        <ele>168</ele>
        <time>2010-11-04T13:47:47Z</time>
      </trkpt>
      <trkpt lat="45.79297" lon="4.88158">
        <ele>168</ele>
        <time>2010-11-04T13:47:55Z</time>
      </trkpt>
      <trkpt lat="45.79296" lon="4.88155">
        <ele>168</ele>
        <time>2010-11-04T13:47:56Z</time>
      </trkpt>
      <trkpt lat="45.79296" lon="4.88151">
        <ele>168</ele>
        <time>2010-11-04T13:47:57Z</time>
      </trkpt>
      <trkpt lat="45.79295" lon="4.88148">
        <ele>168</ele>
        <time>2010-11-04T13:47:58Z</time>
      </trkpt>
      <trkpt lat="45.79294" lon="4.88144">
        <ele>168</ele>
        <time>2010-11-04T13:47:59Z</time>
      </trkpt>
      <trkpt lat="45.79292" lon="4.88139">
        <ele>168</ele>
        <time>2010-11-04T13:48:00Z</time>
      </trkpt>
      <trkpt lat="45.7929" lon="4.88136">
        <ele>168</ele>
        <time>2010-11-04T13:48:01Z</time>
      </trkpt>
      <trkpt lat="45.79286" lon="4.88123">
        <ele>167</ele>
        <time>2010-11-04T13:48:04Z</time>
      </trkpt>
      <trkpt lat="45.79285" lon="4.88118">
        <ele>167</ele>
        <time>2010-11-04T13:48:05Z</time>
      </trkpt>
      <trkpt lat="45.79283" lon="4.88114">
        <ele>167</ele>
        <time>2010-11-04T13:48:06Z</time>
      </trkpt>
      <trkpt lat="45.79281" lon="4.8811">
        <ele>167</ele>
        <time>2010-11-04T13:48:07Z</time>
      </trkpt>
      <trkpt lat="45.79279" lon="4.88106">
        <ele>167</ele>
        <time>2010-11-04T13:48:08Z</time>
      </trkpt>
      <trkpt lat="45.79277" lon="4.88103">
        <ele>167</ele>
        <time>2010-11-04T13:48:09Z</time>
      </trkpt>
      <trkpt lat="45.79275" lon="4.881">
        <ele>167</ele>
        <time>2010-11-04T13:48:10Z</time>
      </trkpt>
      <trkpt lat="45.79273" lon="4.88097">
        <ele>167</ele>
        <time>2010-11-04T13:48:11Z</time>
      </trkpt>
      <trkpt lat="45.79266" lon="4.88075">
        <ele>166</ele>
        <time>2010-11-04T13:48:19Z</time>
      </trkpt>
      <trkpt lat="45.79265" lon="4.88073">
        <ele>166</ele>
        <time>2010-11-04T13:48:21Z</time>
      </trkpt>
      <trkpt lat="45.79264" lon="4.88074">
        <ele>166</ele>
        <time>2010-11-04T13:48:22Z</time>
      </trkpt>
      <trkpt lat="45.79264" lon="4.88076">
        <ele>166</ele>
        <time>2010-11-04T13:48:23Z</time>
      </trkpt>
      <trkpt lat="45.79263" lon="4.88077">
        <ele>166</ele>
        <time>2010-11-04T13:48:24Z</time>
      </trkpt>
      <trkpt lat="45.79262" lon="4.88078">
        <ele>166</ele>
        <time>2010-11-04T13:48:25Z</time>
      </trkpt>
      <trkpt lat="45.79261" lon="4.88079">
        <ele>166</ele>
        <time>2010-11-04T13:48:26Z</time>
      </trkpt>
      <trkpt lat="45.7926" lon="4.88081">
        <ele>166</ele>
        <time>2010-11-04T13:48:27Z</time>
      </trkpt>
      <trkpt lat="45.79259" lon="4.88082">
        <ele>166</ele>
        <time>2010-11-04T13:48:28Z</time>
      </trkpt>
      <trkpt lat="45.79258" lon="4.88085">
        <ele>166</ele>
        <time>2010-11-04T13:48:29Z</time>
      </trkpt>
      <trkpt lat="45.79256" lon="4.88087">
        <ele>166</ele>
        <time>2010-11-04T13:48:30Z</time>
      </trkpt>
      <trkpt lat="45.79254" lon="4.88089">
        <ele>166</ele>
        <time>2010-11-04T13:48:31Z</time>
      </trkpt>
      <trkpt lat="45.79246" lon="4.88095">
        <ele>167</ele>
        <time>2010-11-04T13:48:34Z</time>
      </trkpt>
      <trkpt lat="45.79242" lon="4.88099">
        <ele>167</ele>
        <time>2010-11-04T13:48:36Z</time>
      </trkpt>
      <trkpt lat="45.79237" lon="4.88097">
        <ele>167</ele>
        <time>2010-11-04T13:48:39Z</time>
      </trkpt>
      <trkpt lat="45.79235" lon="4.88098">
        <ele>167</ele>
        <time>2010-11-04T13:48:41Z</time>
      </trkpt>
      <trkpt lat="45.79234" lon="4.88098">
        <ele>167</ele>
        <time>2010-11-04T13:48:42Z</time>
      </trkpt>
      <trkpt lat="45.79232" lon="4.88099">
        <ele>167</ele>
        <time>2010-11-04T13:48:43Z</time>
      </trkpt>
      <trkpt lat="45.7923" lon="4.881">
        <ele>167</ele>
        <time>2010-11-04T13:48:44Z</time>
      </trkpt>
      <trkpt lat="45.79227" lon="4.88101">
        <ele>167</ele>
        <time>2010-11-04T13:48:45Z</time>
      </trkpt>
      <trkpt lat="45.7921" lon="4.88114">
        <ele>168</ele>
        <time>2010-11-04T13:48:53Z</time>
      </trkpt>
      <trkpt lat="45.79208" lon="4.88116">
        <ele>168</ele>
        <time>2010-11-04T13:48:54Z</time>
      </trkpt>
      <trkpt lat="45.79186" lon="4.8813">
        <ele>168</ele>
        <time>2010-11-04T13:49:03Z</time>
      </trkpt>
      <trkpt lat="45.79162" lon="4.88139">
        <ele>169</ele>
        <time>2010-11-04T13:49:12Z</time>
      </trkpt>
      <trkpt lat="45.79159" lon="4.88139">
        <ele>169</ele>
        <time>2010-11-04T13:49:13Z</time>
      </trkpt>
      <trkpt lat="45.7915" lon="4.88139">
        <ele>169</ele>
        <time>2010-11-04T13:49:16Z</time>
      </trkpt>
      <trkpt lat="45.7914" lon="4.88141">
        <ele>169</ele>
        <time>2010-11-04T13:49:19Z</time>
      </trkpt>
      <trkpt lat="45.79124" lon="4.88166">
        <ele>169</ele>
        <time>2010-11-04T13:49:27Z</time>
      </trkpt>
      <trkpt lat="45.7912" lon="4.88173">
        <ele>170</ele>
        <time>2010-11-04T13:49:29Z</time>
      </trkpt>
      <trkpt lat="45.79117" lon="4.88178">
        <ele>170</ele>
        <time>2010-11-04T13:49:30Z</time>
      </trkpt>
      <trkpt lat="45.79116" lon="4.88182">
        <ele>170</ele>
        <time>2010-11-04T13:49:31Z</time>
      </trkpt>
      <trkpt lat="45.79115" lon="4.88186">
        <ele>170</ele>
        <time>2010-11-04T13:49:32Z</time>
      </trkpt>
      <trkpt lat="45.79114" lon="4.88188">
        <ele>170</ele>
        <time>2010-11-04T13:49:33Z</time>
      </trkpt>
      <trkpt lat="45.79113" lon="4.88191">
        <ele>170</ele>
        <time>2010-11-04T13:49:34Z</time>
      </trkpt>
      <trkpt lat="45.79111" lon="4.88196">
        <ele>170</ele>
        <time>2010-11-04T13:49:35Z</time>
      </trkpt>
      <trkpt lat="45.79116" lon="4.88229">
        <ele>170</ele>
        <time>2010-11-04T13:49:42Z</time>
      </trkpt>
      <trkpt lat="45.79126" lon="4.88244">
        <ele>169</ele>
        <time>2010-11-04T13:49:46Z</time>
      </trkpt>
      <trkpt lat="45.79126" lon="4.88276">
        <ele>171</ele>
        <time>2010-11-04T13:49:53Z</time>
      </trkpt>
      <trkpt lat="45.79109" lon="4.88306">
        <ele>171</ele>
        <time>2010-11-04T13:50:01Z</time>
      </trkpt>
      <trkpt lat="45.79084" lon="4.88332">
        <ele>171</ele>
        <time>2010-11-04T13:50:11Z</time>
      </trkpt>
      <trkpt lat="45.79062" lon="4.8836">
        <ele>172</ele>
        <time>2010-11-04T13:50:20Z</time>
      </trkpt>
      <trkpt lat="45.79035" lon="4.88368">
        <ele>173</ele>
        <time>2010-11-04T13:50:28Z</time>
      </trkpt>
      <trkpt lat="45.79015" lon="4.88355">
        <ele>173</ele>
        <time>2010-11-04T13:50:36Z</time>
      </trkpt>
      <trkpt lat="45.79011" lon="4.88352">
        <ele>173</ele>
        <time>2010-11-04T13:50:38Z</time>
      </trkpt>
      <trkpt lat="45.78994" lon="4.88353">
        <ele>173</ele>
        <time>2010-11-04T13:50:43Z</time>
      </trkpt>
      <trkpt lat="45.78992" lon="4.88352">
        <ele>173</ele>
        <time>2010-11-04T13:50:44Z</time>
      </trkpt>
      <trkpt lat="45.78976" lon="4.88359">
        <ele>173</ele>
        <time>2010-11-04T13:50:49Z</time>
      </trkpt>
      <trkpt lat="45.78973" lon="4.8836">
        <ele>173</ele>
        <time>2010-11-04T13:50:50Z</time>
      </trkpt>
      <trkpt lat="45.78969" lon="4.88363">
        <ele>173</ele>
        <time>2010-11-04T13:50:51Z</time>
      </trkpt>
      <trkpt lat="45.78966" lon="4.88365">
        <ele>173</ele>
        <time>2010-11-04T13:50:52Z</time>
      </trkpt>
      <trkpt lat="45.78963" lon="4.88367">
        <ele>173</ele>
        <time>2010-11-04T13:50:53Z</time>
      </trkpt>
      <trkpt lat="45.78962" lon="4.8837">
        <ele>173</ele>
        <time>2010-11-04T13:50:54Z</time>
      </trkpt>
      <trkpt lat="45.78961" lon="4.88373">
        <ele>173</ele>
        <time>2010-11-04T13:50:55Z</time>
      </trkpt>
      <trkpt lat="45.78959" lon="4.88378">
        <ele>173</ele>
        <time>2010-11-04T13:50:56Z</time>
      </trkpt>
      <trkpt lat="45.78957" lon="4.88382">
        <ele>173</ele>
        <time>2010-11-04T13:50:57Z</time>
      </trkpt>
      <trkpt lat="45.78956" lon="4.88385">
        <ele>173</ele>
        <time>2010-11-04T13:50:58Z</time>
      </trkpt>
      <trkpt lat="45.78954" lon="4.88388">
        <ele>173</ele>
        <time>2010-11-04T13:50:59Z</time>
      </trkpt>
      <trkpt lat="45.78953" lon="4.88391">
        <ele>173</ele>
        <time>2010-11-04T13:51:00Z</time>
      </trkpt>
      <trkpt lat="45.78951" lon="4.88393">
        <ele>173</ele>
        <time>2010-11-04T13:51:01Z</time>
      </trkpt>
      <trkpt lat="45.7895" lon="4.88394">
        <ele>173</ele>
        <time>2010-11-04T13:51:02Z</time>
      </trkpt>
      <trkpt lat="45.78948" lon="4.88394">
        <ele>173</ele>
        <time>2010-11-04T13:51:03Z</time>
      </trkpt>
      <trkpt lat="45.78946" lon="4.88394">
        <ele>173</ele>
        <time>2010-11-04T13:51:04Z</time>
      </trkpt>
      <trkpt lat="45.78944" lon="4.88394">
        <ele>173</ele>
        <time>2010-11-04T13:51:05Z</time>
      </trkpt>
      <trkpt lat="45.78926" lon="4.88394">
        <ele>172</ele>
        <time>2010-11-04T13:51:11Z</time>
      </trkpt>
      <trkpt lat="45.78912" lon="4.8839">
        <ele>172</ele>
        <time>2010-11-04T13:51:16Z</time>
      </trkpt>
      <trkpt lat="45.78905" lon="4.88389">
        <ele>172</ele>
        <time>2010-11-04T13:51:18Z</time>
      </trkpt>
      <trkpt lat="45.78901" lon="4.88388">
        <ele>172</ele>
        <time>2010-11-04T13:51:19Z</time>
      </trkpt>
      <trkpt lat="45.78899" lon="4.88386">
        <ele>172</ele>
        <time>2010-11-04T13:51:20Z</time>
      </trkpt>
      <trkpt lat="45.78895" lon="4.88385">
        <ele>172</ele>
        <time>2010-11-04T13:51:21Z</time>
      </trkpt>
      <trkpt lat="45.78891" lon="4.88386">
        <ele>172</ele>
        <time>2010-11-04T13:51:22Z</time>
      </trkpt>
      <trkpt lat="45.78887" lon="4.88386">
        <ele>172</ele>
        <time>2010-11-04T13:51:23Z</time>
      </trkpt>
      <trkpt lat="45.78861" lon="4.88389">
        <ele>172</ele>
        <time>2010-11-04T13:51:31Z</time>
      </trkpt>
      <trkpt lat="45.78842" lon="4.88386">
        <ele>173</ele>
        <time>2010-11-04T13:51:38Z</time>
      </trkpt>
      <trkpt lat="45.78829" lon="4.88384">
        <ele>173</ele>
        <time>2010-11-04T13:51:42Z</time>
      </trkpt>
      <trkpt lat="45.78825" lon="4.88382">
        <ele>173</ele>
        <time>2010-11-04T13:51:43Z</time>
      </trkpt>
      <trkpt lat="45.78819" lon="4.8838">
        <ele>173</ele>
        <time>2010-11-04T13:51:45Z</time>
      </trkpt>
      <trkpt lat="45.78817" lon="4.88378">
        <ele>174</ele>
        <time>2010-11-04T13:51:46Z</time>
      </trkpt>
      <trkpt lat="45.78815" lon="4.88377">
        <ele>174</ele>
        <time>2010-11-04T13:51:47Z</time>
      </trkpt>
      <trkpt lat="45.78813" lon="4.88375">
        <ele>174</ele>
        <time>2010-11-04T13:51:48Z</time>
      </trkpt>
      <trkpt lat="45.7881" lon="4.88373">
        <ele>174</ele>
        <time>2010-11-04T13:51:49Z</time>
      </trkpt>
      <trkpt lat="45.78783" lon="4.88369">
        <ele>174</ele>
        <time>2010-11-04T13:51:58Z</time>
      </trkpt>
      <trkpt lat="45.78776" lon="4.88371">
        <ele>174</ele>
        <time>2010-11-04T13:52:05Z</time>
      </trkpt>
      <trkpt lat="45.78774" lon="4.88372">
        <ele>174</ele>
        <time>2010-11-04T13:52:06Z</time>
      </trkpt>
      <trkpt lat="45.78772" lon="4.88375">
        <ele>174</ele>
        <time>2010-11-04T13:52:07Z</time>
      </trkpt>
      <trkpt lat="45.78771" lon="4.8838">
        <ele>174</ele>
        <time>2010-11-04T13:52:09Z</time>
      </trkpt>
      <trkpt lat="45.7877" lon="4.88384">
        <ele>174</ele>
        <time>2010-11-04T13:52:10Z</time>
      </trkpt>
      <trkpt lat="45.78769" lon="4.88387">
        <ele>174</ele>
        <time>2010-11-04T13:52:11Z</time>
      </trkpt>
      <trkpt lat="45.78768" lon="4.88388">
        <ele>174</ele>
        <time>2010-11-04T13:52:12Z</time>
      </trkpt>
      <trkpt lat="45.78769" lon="4.88394">
        <ele>174</ele>
        <time>2010-11-04T13:52:24Z</time>
      </trkpt>
      <trkpt lat="45.78768" lon="4.88401">
        <ele>174</ele>
        <time>2010-11-04T13:52:27Z</time>
      </trkpt>
      <trkpt lat="45.78768" lon="4.88404">
        <ele>174</ele>
        <time>2010-11-04T13:52:28Z</time>
      </trkpt>
      <trkpt lat="45.78768" lon="4.88407">
        <ele>174</ele>
        <time>2010-11-04T13:52:29Z</time>
      </trkpt>
      <trkpt lat="45.78768" lon="4.8841">
        <ele>174</ele>
        <time>2010-11-04T13:52:30Z</time>
      </trkpt>
      <trkpt lat="45.78768" lon="4.88413">
        <ele>174</ele>
        <time>2010-11-04T13:52:31Z</time>
      </trkpt>
      <trkpt lat="45.78768" lon="4.88417">
        <ele>174</ele>
        <time>2010-11-04T13:52:32Z</time>
      </trkpt>
      <trkpt lat="45.78768" lon="4.88421">
        <ele>174</ele>
        <time>2010-11-04T13:52:33Z</time>
      </trkpt>
      <trkpt lat="45.78768" lon="4.88425">
        <ele>174</ele>
        <time>2010-11-04T13:52:34Z</time>
      </trkpt>
      <trkpt lat="45.78767" lon="4.88429">
        <ele>174</ele>
        <time>2010-11-04T13:52:35Z</time>
      </trkpt>
      <trkpt lat="45.78767" lon="4.88432">
        <ele>174</ele>
        <time>2010-11-04T13:52:36Z</time>
      </trkpt>
      <trkpt lat="45.78766" lon="4.88437">
        <ele>174</ele>
        <time>2010-11-04T13:52:38Z</time>
      </trkpt>
      <trkpt lat="45.78765" lon="4.88439">
        <ele>174</ele>
        <time>2010-11-04T13:52:39Z</time>
      </trkpt>
      <trkpt lat="45.78765" lon="4.88441">
        <ele>174</ele>
        <time>2010-11-04T13:52:40Z</time>
      </trkpt>
      <trkpt lat="45.78766" lon="4.88445">
        <ele>174</ele>
        <time>2010-11-04T13:52:42Z</time>
      </trkpt>
      <trkpt lat="45.78765" lon="4.88448">
        <ele>174</ele>
        <time>2010-11-04T13:52:43Z</time>
      </trkpt>
      <trkpt lat="45.78764" lon="4.88453">
        <ele>174</ele>
        <time>2010-11-04T13:52:44Z</time>
      </trkpt>
      <trkpt lat="45.78764" lon="4.88457">
        <ele>173</ele>
        <time>2010-11-04T13:52:45Z</time>
      </trkpt>
      <trkpt lat="45.78763" lon="4.88463">
        <ele>173</ele>
        <time>2010-11-04T13:52:46Z</time>
      </trkpt>
      <trkpt lat="45.78762" lon="4.88468">
        <ele>173</ele>
        <time>2010-11-04T13:52:47Z</time>
      </trkpt>
      <trkpt lat="45.78761" lon="4.88473">
        <ele>173</ele>
        <time>2010-11-04T13:52:48Z</time>
      </trkpt>
      <trkpt lat="45.78761" lon="4.88476">
        <ele>173</ele>
        <time>2010-11-04T13:52:49Z</time>
      </trkpt>
      <trkpt lat="45.78759" lon="4.88486">
        <ele>173</ele>
        <time>2010-11-04T13:52:52Z</time>
      </trkpt>
      <trkpt lat="45.78758" lon="4.8849">
        <ele>173</ele>
        <time>2010-11-04T13:52:53Z</time>
      </trkpt>
      <trkpt lat="45.78751" lon="4.88523">
        <ele>173</ele>
        <time>2010-11-04T13:53:01Z</time>
      </trkpt>
      <trkpt lat="45.78751" lon="4.88526">
        <ele>173</ele>
        <time>2010-11-04T13:53:02Z</time>
      </trkpt>
      <trkpt lat="45.7875" lon="4.8853">
        <ele>172</ele>
        <time>2010-11-04T13:53:03Z</time>
      </trkpt>
      <trkpt lat="45.78749" lon="4.88535">
        <ele>172</ele>
        <time>2010-11-04T13:53:04Z</time>
      </trkpt>
      <trkpt lat="45.78747" lon="4.88539">
        <ele>172</ele>
        <time>2010-11-04T13:53:05Z</time>
      </trkpt>
      <trkpt lat="45.78746" lon="4.88544">
        <ele>172</ele>
        <time>2010-11-04T13:53:06Z</time>
      </trkpt>
      <trkpt lat="45.78745" lon="4.88548">
        <ele>172</ele>
        <time>2010-11-04T13:53:07Z</time>
      </trkpt>
      <trkpt lat="45.78745" lon="4.88553">
        <ele>172</ele>
        <time>2010-11-04T13:53:08Z</time>
      </trkpt>
      <trkpt lat="45.78744" lon="4.88556">
        <ele>172</ele>
        <time>2010-11-04T13:53:09Z</time>
      </trkpt>
      <trkpt lat="45.78743" lon="4.88558">
        <ele>172</ele>
        <time>2010-11-04T13:53:10Z</time>
      </trkpt>
      <trkpt lat="45.78743" lon="4.88559">
        <ele>172</ele>
        <time>2010-11-04T13:53:11Z</time>
      </trkpt>
      <trkpt lat="45.7874" lon="4.88562">
        <ele>172</ele>
        <time>2010-11-04T13:53:22Z</time>
      </trkpt>
      <trkpt lat="45.78738" lon="4.88561">
        <ele>172</ele>
        <time>2010-11-04T13:53:23Z</time>
      </trkpt>
      <trkpt lat="45.78735" lon="4.8856">
        <ele>172</ele>
        <time>2010-11-04T13:53:24Z</time>
      </trkpt>
      <trkpt lat="45.78733" lon="4.88561">
        <ele>172</ele>
        <time>2010-11-04T13:53:25Z</time>
      </trkpt>
      <trkpt lat="45.7873" lon="4.88562">
        <ele>172</ele>
        <time>2010-11-04T13:53:26Z</time>
      </trkpt>
      <trkpt lat="45.78711" lon="4.88577">
        <ele>172</ele>
        <time>2010-11-04T13:53:33Z</time>
      </trkpt>
      <trkpt lat="45.78707" lon="4.8859">
        <ele>173</ele>
        <time>2010-11-04T13:53:36Z</time>
      </trkpt>
      <trkpt lat="45.78705" lon="4.88595">
        <ele>173</ele>
        <time>2010-11-04T13:53:37Z</time>
      </trkpt>
      <trkpt lat="45.78701" lon="4.8861">
        <ele>173</ele>
        <time>2010-11-04T13:53:41Z</time>
      </trkpt>
      <trkpt lat="45.787" lon="4.88613">
        <ele>173</ele>
        <time>2010-11-04T13:53:42Z</time>
      </trkpt>
      <trkpt lat="45.787" lon="4.88616">
        <ele>173</ele>
        <time>2010-11-04T13:53:43Z</time>
      </trkpt>
      <trkpt lat="45.787" lon="4.88618">
        <ele>173</ele>
        <time>2010-11-04T13:53:44Z</time>
      </trkpt>
      <trkpt lat="45.78699" lon="4.8862">
        <ele>173</ele>
        <time>2010-11-04T13:53:45Z</time>
      </trkpt>
      <trkpt lat="45.78698" lon="4.88622">
        <ele>173</ele>
        <time>2010-11-04T13:53:46Z</time>
      </trkpt>
      <trkpt lat="45.78697" lon="4.88628">
        <ele>174</ele>
        <time>2010-11-04T13:53:49Z</time>
      </trkpt>
      <trkpt lat="45.78697" lon="4.88632">
        <ele>174</ele>
        <time>2010-11-04T13:53:50Z</time>
      </trkpt>
      <trkpt lat="45.78696" lon="4.88636">
        <ele>174</ele>
        <time>2010-11-04T13:53:51Z</time>
      </trkpt>
      <trkpt lat="45.78695" lon="4.8864">
        <ele>174</ele>
        <time>2010-11-04T13:53:52Z</time>
      </trkpt>
      <trkpt lat="45.78695" lon="4.88644">
        <ele>174</ele>
        <time>2010-11-04T13:53:53Z</time>
      </trkpt>
      <trkpt lat="45.78694" lon="4.88648">
        <ele>174</ele>
        <time>2010-11-04T13:53:54Z</time>
      </trkpt>
      <trkpt lat="45.78693" lon="4.88651">
        <ele>174</ele>
        <time>2010-11-04T13:53:55Z</time>
      </trkpt>
      <trkpt lat="45.78692" lon="4.88654">
        <ele>174</ele>
        <time>2010-11-04T13:53:56Z</time>
      </trkpt>
      <trkpt lat="45.78692" lon="4.88658">
        <ele>174</ele>
        <time>2010-11-04T13:53:57Z</time>
      </trkpt>
      <trkpt lat="45.78691" lon="4.88661">
        <ele>174</ele>
        <time>2010-11-04T13:53:58Z</time>
      </trkpt>
      <trkpt lat="45.7869" lon="4.88664">
        <ele>175</ele>
        <time>2010-11-04T13:53:59Z</time>
      </trkpt>
      <trkpt lat="45.7869" lon="4.88667">
        <ele>176</ele>
        <time>2010-11-04T13:54:00Z</time>
      </trkpt>
      <trkpt lat="45.78689" lon="4.88671">
        <ele>176</ele>
        <time>2010-11-04T13:54:01Z</time>
      </trkpt>
      <trkpt lat="45.78687" lon="4.88675">
        <ele>176</ele>
        <time>2010-11-04T13:54:02Z</time>
      </trkpt>
      <trkpt lat="45.78675" lon="4.88705">
        <ele>176</ele>
        <time>2010-11-04T13:54:10Z</time>
      </trkpt>
      <trkpt lat="45.78673" lon="4.88708">
        <ele>176</ele>
        <time>2010-11-04T13:54:11Z</time>
      </trkpt>
      <trkpt lat="45.78671" lon="4.88713">
        <ele>176</ele>
        <time>2010-11-04T13:54:12Z</time>
      </trkpt>
      <trkpt lat="45.78664" lon="4.88726">
        <ele>176</ele>
        <time>2010-11-04T13:54:15Z</time>
      </trkpt>
      <trkpt lat="45.78658" lon="4.88734">
        <ele>176</ele>
        <time>2010-11-04T13:54:17Z</time>
      </trkpt>
      <trkpt lat="45.78656" lon="4.88736">
        <ele>176</ele>
        <time>2010-11-04T13:54:18Z</time>
      </trkpt>
      <trkpt lat="45.78654" lon="4.88739">
        <ele>176</ele>
        <time>2010-11-04T13:54:19Z</time>
      </trkpt>
      <trkpt lat="45.78651" lon="4.88744">
        <ele>176</ele>
        <time>2010-11-04T13:54:20Z</time>
      </trkpt>
      <trkpt lat="45.78649" lon="4.8875">
        <ele>176</ele>
        <time>2010-11-04T13:54:21Z</time>
      </trkpt>
      <trkpt lat="45.78647" lon="4.88754">
        <ele>175</ele>
        <time>2010-11-04T13:54:22Z</time>
      </trkpt>
      <trkpt lat="45.78645" lon="4.88756">
        <ele>175</ele>
        <time>2010-11-04T13:54:23Z</time>
      </trkpt>
      <trkpt lat="45.78643" lon="4.88759">
        <ele>175</ele>
        <time>2010-11-04T13:54:24Z</time>
      </trkpt>
      <trkpt lat="45.7864" lon="4.88761">
        <ele>174</ele>
        <time>2010-11-04T13:54:25Z</time>
      </trkpt>
      <trkpt lat="45.78637" lon="4.88763">
        <ele>174</ele>
        <time>2010-11-04T13:54:26Z</time>
      </trkpt>
      <trkpt lat="45.78635" lon="4.88766">
        <ele>174</ele>
        <time>2010-11-04T13:54:27Z</time>
      </trkpt>
      <trkpt lat="45.78615" lon="4.88789">
        <ele>173</ele>
        <time>2010-11-04T13:54:36Z</time>
      </trkpt>
      <trkpt lat="45.786" lon="4.88803">
        <ele>173</ele>
        <time>2010-11-04T13:54:42Z</time>
      </trkpt>
      <trkpt lat="45.78579" lon="4.8882">
        <ele>171</ele>
        <time>2010-11-04T13:54:51Z</time>
      </trkpt>
      <trkpt lat="45.78577" lon="4.88822">
        <ele>171</ele>
        <time>2010-11-04T13:54:52Z</time>
      </trkpt>
      <trkpt lat="45.78574" lon="4.88824">
        <ele>171</ele>
        <time>2010-11-04T13:54:53Z</time>
      </trkpt>
      <trkpt lat="45.78571" lon="4.88826">
        <ele>171</ele>
        <time>2010-11-04T13:54:54Z</time>
      </trkpt>
      <trkpt lat="45.78569" lon="4.88828">
        <ele>171</ele>
        <time>2010-11-04T13:54:55Z</time>
      </trkpt>
      <trkpt lat="45.78567" lon="4.88831">
        <ele>171</ele>
        <time>2010-11-04T13:54:56Z</time>
      </trkpt>
      <trkpt lat="45.78564" lon="4.88833">
        <ele>171</ele>
        <time>2010-11-04T13:54:57Z</time>
      </trkpt>
      <trkpt lat="45.78561" lon="4.88835">
        <ele>171</ele>
        <time>2010-11-04T13:54:58Z</time>
      </trkpt>
      <trkpt lat="45.78557" lon="4.88837">
        <ele>171</ele>
        <time>2010-11-04T13:54:59Z</time>
      </trkpt>
      <trkpt lat="45.78532" lon="4.88853">
        <ele>171</ele>
        <time>2010-11-04T13:55:08Z</time>
      </trkpt>
      <trkpt lat="45.78529" lon="4.88854">
        <ele>171</ele>
        <time>2010-11-04T13:55:10Z</time>
      </trkpt>
      <trkpt lat="45.78527" lon="4.88855">
        <ele>171</ele>
        <time>2010-11-04T13:55:11Z</time>
      </trkpt>
      <trkpt lat="45.78525" lon="4.88857">
        <ele>171</ele>
        <time>2010-11-04T13:55:12Z</time>
      </trkpt>
      <trkpt lat="45.78523" lon="4.88858">
        <ele>171</ele>
        <time>2010-11-04T13:55:13Z</time>
      </trkpt>
      <trkpt lat="45.7852" lon="4.88861">
        <ele>171</ele>
        <time>2010-11-04T13:55:14Z</time>
      </trkpt>
      <trkpt lat="45.78503" lon="4.88877">
        <ele>171</ele>
        <time>2010-11-04T13:55:21Z</time>
      </trkpt>
      <trkpt lat="45.78499" lon="4.88884">
        <ele>171</ele>
        <time>2010-11-04T13:55:25Z</time>
      </trkpt>
      <trkpt lat="45.785" lon="4.88885">
        <ele>171</ele>
        <time>2010-11-04T13:55:26Z</time>
      </trkpt>
      <trkpt lat="45.78502" lon="4.88887">
        <ele>171</ele>
        <time>2010-11-04T13:55:27Z</time>
      </trkpt>
      <trkpt lat="45.78503" lon="4.8889">
        <ele>171</ele>
        <time>2010-11-04T13:55:28Z</time>
      </trkpt>
      <trkpt lat="45.78505" lon="4.88892">
        <ele>171</ele>
        <time>2010-11-04T13:55:29Z</time>
      </trkpt>
      <trkpt lat="45.78511" lon="4.88901">
        <ele>171</ele>
        <time>2010-11-04T13:55:34Z</time>
      </trkpt>
      <trkpt lat="45.78514" lon="4.88921">
        <ele>171</ele>
        <time>2010-11-04T13:55:44Z</time>
      </trkpt>
      <trkpt lat="45.78515" lon="4.88924">
        <ele>172</ele>
        <time>2010-11-04T13:55:45Z</time>
      </trkpt>
      <trkpt lat="45.78517" lon="4.88927">
        <ele>172</ele>
        <time>2010-11-04T13:55:46Z</time>
      </trkpt>
      <trkpt lat="45.78519" lon="4.88953">
        <ele>172</ele>
        <time>2010-11-04T13:55:53Z</time>
      </trkpt>
      <trkpt lat="45.78515" lon="4.88967">
        <ele>172</ele>
        <time>2010-11-04T13:55:56Z</time>
      </trkpt>
      <trkpt lat="45.78514" lon="4.8897">
        <ele>172</ele>
        <time>2010-11-04T13:55:57Z</time>
      </trkpt>
      <trkpt lat="45.7851" lon="4.88976">
        <ele>172</ele>
        <time>2010-11-04T13:55:58Z</time>
      </trkpt>
      <trkpt lat="45.78499" lon="4.88995">
        <ele>172</ele>
        <time>2010-11-04T13:56:03Z</time>
      </trkpt>
      <trkpt lat="45.78483" lon="4.89009">
        <ele>173</ele>
        <time>2010-11-04T13:56:10Z</time>
      </trkpt>
      <trkpt lat="45.78462" lon="4.89032">
        <ele>173</ele>
        <time>2010-11-04T13:56:19Z</time>
      </trkpt>
      <trkpt lat="45.78445" lon="4.89052">
        <ele>173</ele>
        <time>2010-11-04T13:56:26Z</time>
      </trkpt>
      <trkpt lat="45.78429" lon="4.89074">
        <ele>174</ele>
        <time>2010-11-04T13:56:33Z</time>
      </trkpt>
      <trkpt lat="45.78414" lon="4.89087">
        <ele>174</ele>
        <time>2010-11-04T13:56:39Z</time>
      </trkpt>
      <trkpt lat="45.78413" lon="4.89089">
        <ele>174</ele>
        <time>2010-11-04T13:56:40Z</time>
      </trkpt>
      <trkpt lat="45.7839" lon="4.89107">
        <ele>174</ele>
        <time>2010-11-04T13:56:50Z</time>
      </trkpt>
      <trkpt lat="45.78381" lon="4.89112">
        <ele>174</ele>
        <time>2010-11-04T13:56:53Z</time>
      </trkpt>
      <trkpt lat="45.78378" lon="4.89112">
        <ele>174</ele>
        <time>2010-11-04T13:56:54Z</time>
      </trkpt>
      <trkpt lat="45.78375" lon="4.89113">
        <ele>174</ele>
        <time>2010-11-04T13:56:55Z</time>
      </trkpt>
      <trkpt lat="45.78347" lon="4.89125">
        <ele>174</ele>
        <time>2010-11-04T13:57:04Z</time>
      </trkpt>
      <trkpt lat="45.78329" lon="4.89139">
        <ele>174</ele>
        <time>2010-11-04T13:57:11Z</time>
      </trkpt>
      <trkpt lat="45.7833" lon="4.89142">
        <ele>174</ele>
        <time>2010-11-04T13:57:13Z</time>
      </trkpt>
      <trkpt lat="45.78333" lon="4.89142">
        <ele>174</ele>
        <time>2010-11-04T13:57:15Z</time>
      </trkpt>
      <trkpt lat="45.78363" lon="4.89161">
        <ele>174</ele>
        <time>2010-11-04T13:57:24Z</time>
      </trkpt>
      <trkpt lat="45.78367" lon="4.89162">
        <ele>174</ele>
        <time>2010-11-04T13:57:25Z</time>
      </trkpt>
      <trkpt lat="45.78383" lon="4.8917">
        <ele>173</ele>
        <time>2010-11-04T13:57:30Z</time>
      </trkpt>
      <trkpt lat="45.78385" lon="4.89185">
        <ele>173</ele>
        <time>2010-11-04T13:57:31Z</time>
      </trkpt>
      <trkpt lat="45.7839" lon="4.89188">
        <ele>173</ele>
        <time>2010-11-04T13:57:32Z</time>
      </trkpt>
      <trkpt lat="45.78395" lon="4.89189">
        <ele>173</ele>
        <time>2010-11-04T13:57:33Z</time>
      </trkpt>
      <trkpt lat="45.78399" lon="4.89191">
        <ele>173</ele>
        <time>2010-11-04T13:57:34Z</time>
      </trkpt>
      <trkpt lat="45.78401" lon="4.89194">
        <ele>173</ele>
        <time>2010-11-04T13:57:35Z</time>
      </trkpt>
      <trkpt lat="45.78403" lon="4.89197">
        <ele>173</ele>
        <time>2010-11-04T13:57:36Z</time>
      </trkpt>
      <trkpt lat="45.78404" lon="4.89205">
        <ele>172</ele>
        <time>2010-11-04T13:57:37Z</time>
      </trkpt>
      <trkpt lat="45.78405" lon="4.89211">
        <ele>172</ele>
        <time>2010-11-04T13:57:38Z</time>
      </trkpt>
      <trkpt lat="45.78407" lon="4.89214">
        <ele>172</ele>
        <time>2010-11-04T13:57:39Z</time>
      </trkpt>
      <trkpt lat="45.78409" lon="4.89218">
        <ele>172</ele>
        <time>2010-11-04T13:57:40Z</time>
      </trkpt>
      <trkpt lat="45.78412" lon="4.8922">
        <ele>172</ele>
        <time>2010-11-04T13:57:41Z</time>
      </trkpt>
      <trkpt lat="45.78415" lon="4.89223">
        <ele>172</ele>
        <time>2010-11-04T13:57:42Z</time>
      </trkpt>
      <trkpt lat="45.78417" lon="4.89225">
        <ele>172</ele>
        <time>2010-11-04T13:57:43Z</time>
      </trkpt>
      <trkpt lat="45.7842" lon="4.89225">
        <ele>172</ele>
        <time>2010-11-04T13:57:44Z</time>
      </trkpt>
      <trkpt lat="45.78422" lon="4.89224">
        <ele>172</ele>
        <time>2010-11-04T13:57:45Z</time>
      </trkpt>
      <trkpt lat="45.78425" lon="4.89222">
        <ele>172</ele>
        <time>2010-11-04T13:57:46Z</time>
      </trkpt>
      <trkpt lat="45.78427" lon="4.89221">
        <ele>172</ele>
        <time>2010-11-04T13:57:47Z</time>
      </trkpt>
      <trkpt lat="45.78429" lon="4.89219">
        <ele>172</ele>
        <time>2010-11-04T13:57:48Z</time>
      </trkpt>
      <trkpt lat="45.78431" lon="4.89218">
        <ele>172</ele>
        <time>2010-11-04T13:57:49Z</time>
      </trkpt>
      <trkpt lat="45.78433" lon="4.89216">
        <ele>172</ele>
        <time>2010-11-04T13:57:50Z</time>
      </trkpt>
      <trkpt lat="45.78436" lon="4.89215">
        <ele>172</ele>
        <time>2010-11-04T13:57:51Z</time>
      </trkpt>
      <trkpt lat="45.78438" lon="4.89215">
        <ele>172</ele>
        <time>2010-11-04T13:57:52Z</time>
      </trkpt>
      <trkpt lat="45.7844" lon="4.89216">
        <ele>172</ele>
        <time>2010-11-04T13:57:53Z</time>
      </trkpt>
      <trkpt lat="45.78442" lon="4.89217">
        <ele>172</ele>
        <time>2010-11-04T13:57:54Z</time>
      </trkpt>
      <trkpt lat="45.78446" lon="4.89222">
        <ele>172</ele>
        <time>2010-11-04T13:57:57Z</time>
      </trkpt>
      <trkpt lat="45.78446" lon="4.89226">
        <ele>172</ele>
        <time>2010-11-04T13:57:58Z</time>
      </trkpt>
      <trkpt lat="45.78446" lon="4.8923">
        <ele>172</ele>
        <time>2010-11-04T13:57:59Z</time>
      </trkpt>
      <trkpt lat="45.78447" lon="4.89232">
        <ele>172</ele>
        <time>2010-11-04T13:58:00Z</time>
      </trkpt>
      <trkpt lat="45.78446" lon="4.89236">
        <ele>172</ele>
        <time>2010-11-04T13:58:01Z</time>
      </trkpt>
      <trkpt lat="45.78447" lon="4.8924">
        <ele>172</ele>
        <time>2010-11-04T13:58:02Z</time>
      </trkpt>
      <trkpt lat="45.78448" lon="4.89244">
        <ele>172</ele>
        <time>2010-11-04T13:58:03Z</time>
      </trkpt>
      <trkpt lat="45.78448" lon="4.89248">
        <ele>172</ele>
        <time>2010-11-04T13:58:04Z</time>
      </trkpt>
      <trkpt lat="45.78448" lon="4.89251">
        <ele>171</ele>
        <time>2010-11-04T13:58:11Z</time>
      </trkpt>
      <trkpt lat="45.78444" lon="4.89251">
        <ele>171</ele>
        <time>2010-11-04T13:58:15Z</time>
      </trkpt>
      <trkpt lat="45.78439" lon="4.89255">
        <ele>171</ele>
        <time>2010-11-04T13:58:23Z</time>
      </trkpt>
      <trkpt lat="45.78426" lon="4.89266">
        <ele>171</ele>
        <time>2010-11-04T13:58:31Z</time>
      </trkpt>
      <trkpt lat="45.78424" lon="4.89266">
        <ele>171</ele>
        <time>2010-11-04T13:58:32Z</time>
      </trkpt>
      <trkpt lat="45.78421" lon="4.89267">
        <ele>171</ele>
        <time>2010-11-04T13:58:33Z</time>
      </trkpt>
      <trkpt lat="45.78418" lon="4.89268">
        <ele>171</ele>
        <time>2010-11-04T13:58:34Z</time>
      </trkpt>
      <trkpt lat="45.78415" lon="4.89269">
        <ele>171</ele>
        <time>2010-11-04T13:58:35Z</time>
      </trkpt>
      <trkpt lat="45.78411" lon="4.8927">
        <ele>171</ele>
        <time>2010-11-04T13:58:36Z</time>
      </trkpt>
      <trkpt lat="45.78408" lon="4.89272">
        <ele>171</ele>
        <time>2010-11-04T13:58:37Z</time>
      </trkpt>
      <trkpt lat="45.78405" lon="4.89273">
        <ele>171</ele>
        <time>2010-11-04T13:58:38Z</time>
      </trkpt>
      <trkpt lat="45.78402" lon="4.89274">
        <ele>171</ele>
        <time>2010-11-04T13:58:39Z</time>
      </trkpt>
      <trkpt lat="45.784" lon="4.89275">
        <ele>171</ele>
        <time>2010-11-04T13:58:40Z</time>
      </trkpt>
      <trkpt lat="45.78396" lon="4.89278">
        <ele>171</ele>
        <time>2010-11-04T13:58:42Z</time>
      </trkpt>
      <trkpt lat="45.78374" lon="4.89283">
        <ele>171</ele>
        <time>2010-11-04T13:58:51Z</time>
      </trkpt>
      <trkpt lat="45.78357" lon="4.89295">
        <ele>171</ele>
        <time>2010-11-04T13:58:55Z</time>
      </trkpt>
      <trkpt lat="45.78333" lon="4.89301">
        <ele>172</ele>
        <time>2010-11-04T13:59:04Z</time>
      </trkpt>
      <trkpt lat="45.78308" lon="4.89314">
        <ele>172</ele>
        <time>2010-11-04T13:59:13Z</time>
      </trkpt>
      <trkpt lat="45.78304" lon="4.89317">
        <ele>172</ele>
        <time>2010-11-04T13:59:14Z</time>
      </trkpt>
      <trkpt lat="45.78291" lon="4.89327">
        <ele>172</ele>
        <time>2010-11-04T13:59:19Z</time>
      </trkpt>
      <trkpt lat="45.78265" lon="4.89335">
        <ele>171</ele>
        <time>2010-11-04T13:59:28Z</time>
      </trkpt>
      <trkpt lat="45.78246" lon="4.89351">
        <ele>171</ele>
        <time>2010-11-04T13:59:34Z</time>
      </trkpt>
      <trkpt lat="45.78243" lon="4.89352">
        <ele>171</ele>
        <time>2010-11-04T13:59:35Z</time>
      </trkpt>
      <trkpt lat="45.78227" lon="4.89363">
        <ele>171</ele>
        <time>2010-11-04T13:59:43Z</time>
      </trkpt>
      <trkpt lat="45.78226" lon="4.89363">
        <ele>171</ele>
        <time>2010-11-04T13:59:44Z</time>
      </trkpt>
      <trkpt lat="45.78225" lon="4.89363">
        <ele>171</ele>
        <time>2010-11-04T13:59:45Z</time>
      </trkpt>
      <trkpt lat="45.7821" lon="4.89372">
        <ele>172</ele>
        <time>2010-11-04T13:59:49Z</time>
      </trkpt>
      <trkpt lat="45.78202" lon="4.89377">
        <ele>172</ele>
        <time>2010-11-04T13:59:51Z</time>
      </trkpt>
      <trkpt lat="45.7819" lon="4.89383">
        <ele>172</ele>
        <time>2010-11-04T13:59:55Z</time>
      </trkpt>
      <trkpt lat="45.78163" lon="4.89395">
        <ele>172</ele>
        <time>2010-11-04T14:00:03Z</time>
      </trkpt>
      <trkpt lat="45.78148" lon="4.89402">
        <ele>172</ele>
        <time>2010-11-04T14:00:09Z</time>
      </trkpt>
      <trkpt lat="45.78145" lon="4.89403">
        <ele>172</ele>
        <time>2010-11-04T14:00:10Z</time>
      </trkpt>
      <trkpt lat="45.78142" lon="4.89404">
        <ele>172</ele>
        <time>2010-11-04T14:00:11Z</time>
      </trkpt>
      <trkpt lat="45.7814" lon="4.89405">
        <ele>172</ele>
        <time>2010-11-04T14:00:12Z</time>
      </trkpt>
      <trkpt lat="45.78136" lon="4.89407">
        <ele>172</ele>
        <time>2010-11-04T14:00:13Z</time>
      </trkpt>
      <trkpt lat="45.78133" lon="4.89409">
        <ele>172</ele>
        <time>2010-11-04T14:00:14Z</time>
      </trkpt>
      <trkpt lat="45.78115" lon="4.89421">
        <ele>171</ele>
        <time>2010-11-04T14:00:21Z</time>
      </trkpt>
      <trkpt lat="45.78104" lon="4.89428">
        <ele>172</ele>
        <time>2010-11-04T14:00:25Z</time>
      </trkpt>
      <trkpt lat="45.78102" lon="4.89429">
        <ele>172</ele>
        <time>2010-11-04T14:00:26Z</time>
      </trkpt>
      <trkpt lat="45.78098" lon="4.89431">
        <ele>172</ele>
        <time>2010-11-04T14:00:27Z</time>
      </trkpt>
      <trkpt lat="45.78094" lon="4.89434">
        <ele>172</ele>
        <time>2010-11-04T14:00:28Z</time>
      </trkpt>
      <trkpt lat="45.7809" lon="4.89438">
        <ele>171</ele>
        <time>2010-11-04T14:00:29Z</time>
      </trkpt>
      <trkpt lat="45.78086" lon="4.89441">
        <ele>171</ele>
        <time>2010-11-04T14:00:30Z</time>
      </trkpt>
      <trkpt lat="45.78082" lon="4.89443">
        <ele>172</ele>
        <time>2010-11-04T14:00:31Z</time>
      </trkpt>
      <trkpt lat="45.78079" lon="4.89446">
        <ele>172</ele>
        <time>2010-11-04T14:00:32Z</time>
      </trkpt>
      <trkpt lat="45.78077" lon="4.89449">
        <ele>172</ele>
        <time>2010-11-04T14:00:33Z</time>
      </trkpt>
      <trkpt lat="45.78074" lon="4.89451">
        <ele>172</ele>
        <time>2010-11-04T14:00:34Z</time>
      </trkpt>
      <trkpt lat="45.78071" lon="4.89452">
        <ele>171</ele>
        <time>2010-11-04T14:00:35Z</time>
      </trkpt>
      <trkpt lat="45.78068" lon="4.89454">
        <ele>171</ele>
        <time>2010-11-04T14:00:36Z</time>
      </trkpt>
      <trkpt lat="45.78064" lon="4.89457">
        <ele>171</ele>
        <time>2010-11-04T14:00:37Z</time>
      </trkpt>
      <trkpt lat="45.78061" lon="4.89459">
        <ele>171</ele>
        <time>2010-11-04T14:00:38Z</time>
      </trkpt>
      <trkpt lat="45.78049" lon="4.8947">
        <ele>171</ele>
        <time>2010-11-04T14:00:44Z</time>
      </trkpt>
      <trkpt lat="45.78048" lon="4.89472">
        <ele>171</ele>
        <time>2010-11-04T14:00:45Z</time>
      </trkpt>
      <trkpt lat="45.78047" lon="4.89473">
        <ele>171</ele>
        <time>2010-11-04T14:00:46Z</time>
      </trkpt>
      <trkpt lat="45.78044" lon="4.89474">
        <ele>171</ele>
        <time>2010-11-04T14:00:47Z</time>
      </trkpt>
      <trkpt lat="45.78041" lon="4.89475">
        <ele>171</ele>
        <time>2010-11-04T14:00:48Z</time>
      </trkpt>
      <trkpt lat="45.78038" lon="4.89477">
        <ele>171</ele>
        <time>2010-11-04T14:00:49Z</time>
      </trkpt>
      <trkpt lat="45.78035" lon="4.8948">
        <ele>171</ele>
        <time>2010-11-04T14:00:50Z</time>
      </trkpt>
      <trkpt lat="45.78031" lon="4.89479">
        <ele>172</ele>
        <time>2010-11-04T14:00:51Z</time>
      </trkpt>
      <trkpt lat="45.78029" lon="4.8948">
        <ele>172</ele>
        <time>2010-11-04T14:00:52Z</time>
      </trkpt>
      <trkpt lat="45.78026" lon="4.89481">
        <ele>172</ele>
        <time>2010-11-04T14:00:53Z</time>
      </trkpt>
      <trkpt lat="45.78022" lon="4.89482">
        <ele>172</ele>
        <time>2010-11-04T14:00:54Z</time>
      </trkpt>
      <trkpt lat="45.7802" lon="4.89482">
        <ele>172</ele>
        <time>2010-11-04T14:00:55Z</time>
      </trkpt>
      <trkpt lat="45.78017" lon="4.89484">
        <ele>172</ele>
        <time>2010-11-04T14:00:56Z</time>
      </trkpt>
      <trkpt lat="45.78013" lon="4.89486">
        <ele>172</ele>
        <time>2010-11-04T14:00:57Z</time>
      </trkpt>
      <trkpt lat="45.7801" lon="4.89489">
        <ele>172</ele>
        <time>2010-11-04T14:00:58Z</time>
      </trkpt>
      <trkpt lat="45.78001" lon="4.89499">
        <ele>172</ele>
        <time>2010-11-04T14:01:01Z</time>
      </trkpt>
      <trkpt lat="45.77995" lon="4.89505">
        <ele>172</ele>
        <time>2010-11-04T14:01:03Z</time>
      </trkpt>
      <trkpt lat="45.7798" lon="4.89518">
        <ele>172</ele>
        <time>2010-11-04T14:01:08Z</time>
      </trkpt>
      <trkpt lat="45.77974" lon="4.89525">
        <ele>172</ele>
        <time>2010-11-04T14:01:10Z</time>
      </trkpt>
      <trkpt lat="45.77971" lon="4.89529">
        <ele>172</ele>
        <time>2010-11-04T14:01:11Z</time>
      </trkpt>
      <trkpt lat="45.77966" lon="4.89534">
        <ele>172</ele>
        <time>2010-11-04T14:01:12Z</time>
      </trkpt>
      <trkpt lat="45.77962" lon="4.89538">
        <ele>172</ele>
        <time>2010-11-04T14:01:13Z</time>
      </trkpt>
      <trkpt lat="45.77958" lon="4.89541">
        <ele>172</ele>
        <time>2010-11-04T14:01:14Z</time>
      </trkpt>
      <trkpt lat="45.77954" lon="4.89544">
        <ele>172</ele>
        <time>2010-11-04T14:01:15Z</time>
      </trkpt>
      <trkpt lat="45.77926" lon="4.89556">
        <ele>172</ele>
        <time>2010-11-04T14:01:24Z</time>
      </trkpt>
      <trkpt lat="45.77923" lon="4.89558">
        <ele>172</ele>
        <time>2010-11-04T14:01:25Z</time>
      </trkpt>
      <trkpt lat="45.77903" lon="4.89581">
        <ele>172</ele>
        <time>2010-11-04T14:01:32Z</time>
      </trkpt>
      <trkpt lat="45.77895" lon="4.89592">
        <ele>172</ele>
        <time>2010-11-04T14:01:35Z</time>
      </trkpt>
      <trkpt lat="45.7789" lon="4.89597">
        <ele>172</ele>
        <time>2010-11-04T14:01:36Z</time>
      </trkpt>
      <trkpt lat="45.77871" lon="4.89613">
        <ele>172</ele>
        <time>2010-11-04T14:01:42Z</time>
      </trkpt>
      <trkpt lat="45.7787" lon="4.89615">
        <ele>172</ele>
        <time>2010-11-04T14:01:43Z</time>
      </trkpt>
      <trkpt lat="45.77868" lon="4.89617">
        <ele>172</ele>
        <time>2010-11-04T14:01:44Z</time>
      </trkpt>
      <trkpt lat="45.77866" lon="4.89619">
        <ele>172</ele>
        <time>2010-11-04T14:01:45Z</time>
      </trkpt>
      <trkpt lat="45.77864" lon="4.89621">
        <ele>172</ele>
        <time>2010-11-04T14:01:46Z</time>
      </trkpt>
      <trkpt lat="45.77861" lon="4.89623">
        <ele>172</ele>
        <time>2010-11-04T14:01:47Z</time>
      </trkpt>
      <trkpt lat="45.77859" lon="4.89624">
        <ele>172</ele>
        <time>2010-11-04T14:01:48Z</time>
      </trkpt>
      <trkpt lat="45.77856" lon="4.89625">
        <ele>172</ele>
        <time>2010-11-04T14:01:49Z</time>
      </trkpt>
      <trkpt lat="45.77854" lon="4.89627">
        <ele>172</ele>
        <time>2010-11-04T14:01:50Z</time>
      </trkpt>
      <trkpt lat="45.77852" lon="4.89629">
        <ele>172</ele>
        <time>2010-11-04T14:01:51Z</time>
      </trkpt>
      <trkpt lat="45.7785" lon="4.89632">
        <ele>172</ele>
        <time>2010-11-04T14:01:52Z</time>
      </trkpt>
      <trkpt lat="45.77848" lon="4.89634">
        <ele>172</ele>
        <time>2010-11-04T14:01:53Z</time>
      </trkpt>
      <trkpt lat="45.77846" lon="4.89635">
        <ele>172</ele>
        <time>2010-11-04T14:01:54Z</time>
      </trkpt>
      <trkpt lat="45.77843" lon="4.89637">
        <ele>172</ele>
        <time>2010-11-04T14:01:55Z</time>
      </trkpt>
      <trkpt lat="45.77841" lon="4.89638">
        <ele>172</ele>
        <time>2010-11-04T14:01:56Z</time>
      </trkpt>
      <trkpt lat="45.77835" lon="4.8964">
        <ele>172</ele>
        <time>2010-11-04T14:01:59Z</time>
      </trkpt>
      <trkpt lat="45.77834" lon="4.89642">
        <ele>172</ele>
        <time>2010-11-04T14:02:00Z</time>
      </trkpt>
      <trkpt lat="45.77832" lon="4.89644">
        <ele>172</ele>
        <time>2010-11-04T14:02:01Z</time>
      </trkpt>
      <trkpt lat="45.7783" lon="4.89646">
        <ele>172</ele>
        <time>2010-11-04T14:02:02Z</time>
      </trkpt>
      <trkpt lat="45.77827" lon="4.8965">
        <ele>172</ele>
        <time>2010-11-04T14:02:03Z</time>
      </trkpt>
      <trkpt lat="45.77823" lon="4.89654">
        <ele>172</ele>
        <time>2010-11-04T14:02:04Z</time>
      </trkpt>
      <trkpt lat="45.77819" lon="4.89657">
        <ele>172</ele>
        <time>2010-11-04T14:02:05Z</time>
      </trkpt>
      <trkpt lat="45.77817" lon="4.89659">
        <ele>172</ele>
        <time>2010-11-04T14:02:06Z</time>
      </trkpt>
      <trkpt lat="45.77813" lon="4.89662">
        <ele>172</ele>
        <time>2010-11-04T14:02:07Z</time>
      </trkpt>
      <trkpt lat="45.77811" lon="4.89664">
        <ele>172</ele>
        <time>2010-11-04T14:02:08Z</time>
      </trkpt>
      <trkpt lat="45.77808" lon="4.89666">
        <ele>172</ele>
        <time>2010-11-04T14:02:09Z</time>
      </trkpt>
      <trkpt lat="45.77806" lon="4.89666">
        <ele>172</ele>
        <time>2010-11-04T14:02:10Z</time>
      </trkpt>
      <trkpt lat="45.77804" lon="4.89667">
        <ele>171</ele>
        <time>2010-11-04T14:02:11Z</time>
      </trkpt>
      <trkpt lat="45.77802" lon="4.89668">
        <ele>171</ele>
        <time>2010-11-04T14:02:12Z</time>
      </trkpt>
      <trkpt lat="45.77784" lon="4.89683">
        <ele>171</ele>
        <time>2010-11-04T14:02:20Z</time>
      </trkpt>
      <trkpt lat="45.77783" lon="4.89685">
        <ele>171</ele>
        <time>2010-11-04T14:02:21Z</time>
      </trkpt>
      <trkpt lat="45.7778" lon="4.89686">
        <ele>171</ele>
        <time>2010-11-04T14:02:22Z</time>
      </trkpt>
      <trkpt lat="45.77777" lon="4.89687">
        <ele>171</ele>
        <time>2010-11-04T14:02:23Z</time>
      </trkpt>
      <trkpt lat="45.77774" lon="4.89689">
        <ele>171</ele>
        <time>2010-11-04T14:02:24Z</time>
      </trkpt>
      <trkpt lat="45.77772" lon="4.8969">
        <ele>171</ele>
        <time>2010-11-04T14:02:25Z</time>
      </trkpt>
      <trkpt lat="45.7777" lon="4.89693">
        <ele>170</ele>
        <time>2010-11-04T14:02:26Z</time>
      </trkpt>
      <trkpt lat="45.77767" lon="4.89695">
        <ele>170</ele>
        <time>2010-11-04T14:02:27Z</time>
      </trkpt>
      <trkpt lat="45.77758" lon="4.89701">
        <ele>170</ele>
        <time>2010-11-04T14:02:30Z</time>
      </trkpt>
      <trkpt lat="45.77756" lon="4.89704">
        <ele>170</ele>
        <time>2010-11-04T14:02:31Z</time>
      </trkpt>
      <trkpt lat="45.77753" lon="4.89706">
        <ele>170</ele>
        <time>2010-11-04T14:02:32Z</time>
      </trkpt>
      <trkpt lat="45.7775" lon="4.89708">
        <ele>170</ele>
        <time>2010-11-04T14:02:33Z</time>
      </trkpt>
      <trkpt lat="45.77747" lon="4.89709">
        <ele>170</ele>
        <time>2010-11-04T14:02:34Z</time>
      </trkpt>
      <trkpt lat="45.77744" lon="4.89711">
        <ele>170</ele>
        <time>2010-11-04T14:02:35Z</time>
      </trkpt>
      <trkpt lat="45.7774" lon="4.89713">
        <ele>170</ele>
        <time>2010-11-04T14:02:36Z</time>
      </trkpt>
      <trkpt lat="45.77736" lon="4.89716">
        <ele>170</ele>
        <time>2010-11-04T14:02:38Z</time>
      </trkpt>
      <trkpt lat="45.77734" lon="4.89717">
        <ele>170</ele>
        <time>2010-11-04T14:02:39Z</time>
      </trkpt>
      <trkpt lat="45.77732" lon="4.89716">
        <ele>170</ele>
        <time>2010-11-04T14:02:40Z</time>
      </trkpt>
      <trkpt lat="45.77729" lon="4.89718">
        <ele>170</ele>
        <time>2010-11-04T14:02:41Z</time>
      </trkpt>
      <trkpt lat="45.77726" lon="4.8972">
        <ele>170</ele>
        <time>2010-11-04T14:02:42Z</time>
      </trkpt>
      <trkpt lat="45.77723" lon="4.89721">
        <ele>170</ele>
        <time>2010-11-04T14:02:43Z</time>
      </trkpt>
      <trkpt lat="45.77698" lon="4.89738">
        <ele>171</ele>
        <time>2010-11-04T14:02:51Z</time>
      </trkpt>
      <trkpt lat="45.77696" lon="4.89739">
        <ele>171</ele>
        <time>2010-11-04T14:02:52Z</time>
      </trkpt>
      <trkpt lat="45.77694" lon="4.8974">
        <ele>171</ele>
        <time>2010-11-04T14:02:53Z</time>
      </trkpt>
      <trkpt lat="45.77691" lon="4.89742">
        <ele>171</ele>
        <time>2010-11-04T14:02:54Z</time>
      </trkpt>
      <trkpt lat="45.77687" lon="4.89745">
        <ele>172</ele>
        <time>2010-11-04T14:02:55Z</time>
      </trkpt>
      <trkpt lat="45.77661" lon="4.89767">
        <ele>173</ele>
        <time>2010-11-04T14:03:05Z</time>
      </trkpt>
      <trkpt lat="45.77638" lon="4.89789">
        <ele>172</ele>
        <time>2010-11-04T14:03:11Z</time>
      </trkpt>
      <trkpt lat="45.77633" lon="4.89796">
        <ele>172</ele>
        <time>2010-11-04T14:03:12Z</time>
      </trkpt>
      <trkpt lat="45.77629" lon="4.89801">
        <ele>172</ele>
        <time>2010-11-04T14:03:13Z</time>
      </trkpt>
      <trkpt lat="45.77627" lon="4.89803">
        <ele>172</ele>
        <time>2010-11-04T14:03:14Z</time>
      </trkpt>
      <trkpt lat="45.77624" lon="4.89805">
        <ele>172</ele>
        <time>2010-11-04T14:03:15Z</time>
      </trkpt>
      <trkpt lat="45.77622" lon="4.89807">
        <ele>172</ele>
        <time>2010-11-04T14:03:16Z</time>
      </trkpt>
      <trkpt lat="45.77597" lon="4.89827">
        <ele>173</ele>
        <time>2010-11-04T14:03:26Z</time>
      </trkpt>
      <trkpt lat="45.77576" lon="4.89847">
        <ele>173</ele>
        <time>2010-11-04T14:03:33Z</time>
      </trkpt>
      <trkpt lat="45.7756" lon="4.89861">
        <ele>172</ele>
        <time>2010-11-04T14:03:40Z</time>
      </trkpt>
      <trkpt lat="45.77543" lon="4.89877">
        <ele>171</ele>
        <time>2010-11-04T14:03:46Z</time>
      </trkpt>
      <trkpt lat="45.7754" lon="4.89878">
        <ele>171</ele>
        <time>2010-11-04T14:03:47Z</time>
      </trkpt>
      <trkpt lat="45.77537" lon="4.8988">
        <ele>171</ele>
        <time>2010-11-04T14:03:48Z</time>
      </trkpt>
      <trkpt lat="45.77534" lon="4.89882">
        <ele>171</ele>
        <time>2010-11-04T14:03:49Z</time>
      </trkpt>
      <trkpt lat="45.77531" lon="4.89884">
        <ele>171</ele>
        <time>2010-11-04T14:03:50Z</time>
      </trkpt>
      <trkpt lat="45.77529" lon="4.89886">
        <ele>171</ele>
        <time>2010-11-04T14:03:51Z</time>
      </trkpt>
      <trkpt lat="45.77514" lon="4.89901">
        <ele>171</ele>
        <time>2010-11-04T14:03:57Z</time>
      </trkpt>
      <trkpt lat="45.77511" lon="4.89904">
        <ele>171</ele>
        <time>2010-11-04T14:03:58Z</time>
      </trkpt>
      <trkpt lat="45.77508" lon="4.89907">
        <ele>170</ele>
        <time>2010-11-04T14:03:59Z</time>
      </trkpt>
      <trkpt lat="45.77505" lon="4.89909">
        <ele>170</ele>
        <time>2010-11-04T14:04:00Z</time>
      </trkpt>
      <trkpt lat="45.77502" lon="4.89912">
        <ele>170</ele>
        <time>2010-11-04T14:04:01Z</time>
      </trkpt>
      <trkpt lat="45.77499" lon="4.89915">
        <ele>170</ele>
        <time>2010-11-04T14:04:02Z</time>
      </trkpt>
      <trkpt lat="45.77497" lon="4.89917">
        <ele>170</ele>
        <time>2010-11-04T14:04:03Z</time>
      </trkpt>
      <trkpt lat="45.77495" lon="4.89919">
        <ele>171</ele>
        <time>2010-11-04T14:04:04Z</time>
      </trkpt>
      <trkpt lat="45.77492" lon="4.89921">
        <ele>171</ele>
        <time>2010-11-04T14:04:05Z</time>
      </trkpt>
      <trkpt lat="45.77489" lon="4.89923">
        <ele>171</ele>
        <time>2010-11-04T14:04:06Z</time>
      </trkpt>
      <trkpt lat="45.77487" lon="4.89924">
        <ele>171</ele>
        <time>2010-11-04T14:04:07Z</time>
      </trkpt>
      <trkpt lat="45.77483" lon="4.89927">
        <ele>171</ele>
        <time>2010-11-04T14:04:09Z</time>
      </trkpt>
      <trkpt lat="45.77481" lon="4.89929">
        <ele>172</ele>
        <time>2010-11-04T14:04:10Z</time>
      </trkpt>
      <trkpt lat="45.77478" lon="4.89931">
        <ele>172</ele>
        <time>2010-11-04T14:04:11Z</time>
      </trkpt>
      <trkpt lat="45.77473" lon="4.89935">
        <ele>172</ele>
        <time>2010-11-04T14:04:12Z</time>
      </trkpt>
      <trkpt lat="45.77468" lon="4.89938">
        <ele>172</ele>
        <time>2010-11-04T14:04:13Z</time>
      </trkpt>
      <trkpt lat="45.77449" lon="4.89955">
        <ele>173</ele>
        <time>2010-11-04T14:04:20Z</time>
      </trkpt>
      <trkpt lat="45.7743" lon="4.89967">
        <ele>173</ele>
        <time>2010-11-04T14:04:28Z</time>
      </trkpt>
      <trkpt lat="45.77427" lon="4.89968">
        <ele>173</ele>
        <time>2010-11-04T14:04:29Z</time>
      </trkpt>
      <trkpt lat="45.77424" lon="4.89969">
        <ele>173</ele>
        <time>2010-11-04T14:04:30Z</time>
      </trkpt>
      <trkpt lat="45.77421" lon="4.89971">
        <ele>173</ele>
        <time>2010-11-04T14:04:31Z</time>
      </trkpt>
      <trkpt lat="45.77418" lon="4.89972">
        <ele>173</ele>
        <time>2010-11-04T14:04:32Z</time>
      </trkpt>
      <trkpt lat="45.77416" lon="4.89974">
        <ele>174</ele>
        <time>2010-11-04T14:04:33Z</time>
      </trkpt>
      <trkpt lat="45.77413" lon="4.89976">
        <ele>174</ele>
        <time>2010-11-04T14:04:34Z</time>
      </trkpt>
      <trkpt lat="45.7741" lon="4.89978">
        <ele>174</ele>
        <time>2010-11-04T14:04:35Z</time>
      </trkpt>
      <trkpt lat="45.77408" lon="4.89979">
        <ele>174</ele>
        <time>2010-11-04T14:04:36Z</time>
      </trkpt>
      <trkpt lat="45.77384" lon="4.89996">
        <ele>174</ele>
        <time>2010-11-04T14:04:45Z</time>
      </trkpt>
      <trkpt lat="45.77364" lon="4.90005">
        <ele>172</ele>
        <time>2010-11-04T14:04:53Z</time>
      </trkpt>
      <trkpt lat="45.77356" lon="4.90012">
        <ele>172</ele>
        <time>2010-11-04T14:04:56Z</time>
      </trkpt>
      <trkpt lat="45.77354" lon="4.90014">
        <ele>172</ele>
        <time>2010-11-04T14:04:57Z</time>
      </trkpt>
      <trkpt lat="45.77351" lon="4.90016">
        <ele>172</ele>
        <time>2010-11-04T14:04:58Z</time>
      </trkpt>
      <trkpt lat="45.77348" lon="4.90018">
        <ele>172</ele>
        <time>2010-11-04T14:04:59Z</time>
      </trkpt>
      <trkpt lat="45.77345" lon="4.90019">
        <ele>172</ele>
        <time>2010-11-04T14:05:00Z</time>
      </trkpt>
      <trkpt lat="45.77343" lon="4.9002">
        <ele>172</ele>
        <time>2010-11-04T14:05:01Z</time>
      </trkpt>
      <trkpt lat="45.77341" lon="4.90019">
        <ele>172</ele>
        <time>2010-11-04T14:05:02Z</time>
      </trkpt>
      <trkpt lat="45.77339" lon="4.9002">
        <ele>172</ele>
        <time>2010-11-04T14:05:03Z</time>
      </trkpt>
      <trkpt lat="45.77337" lon="4.90021">
        <ele>172</ele>
        <time>2010-11-04T14:05:04Z</time>
      </trkpt>
      <trkpt lat="45.77334" lon="4.90023">
        <ele>172</ele>
        <time>2010-11-04T14:05:05Z</time>
      </trkpt>
      <trkpt lat="45.77332" lon="4.90024">
        <ele>172</ele>
        <time>2010-11-04T14:05:06Z</time>
      </trkpt>
      <trkpt lat="45.7733" lon="4.90026">
        <ele>172</ele>
        <time>2010-11-04T14:05:07Z</time>
      </trkpt>
      <trkpt lat="45.77327" lon="4.90029">
        <ele>172</ele>
        <time>2010-11-04T14:05:08Z</time>
      </trkpt>
      <trkpt lat="45.77323" lon="4.90031">
        <ele>172</ele>
        <time>2010-11-04T14:05:09Z</time>
      </trkpt>
      <trkpt lat="45.77297" lon="4.90054">
        <ele>172</ele>
        <time>2010-11-04T14:05:16Z</time>
      </trkpt>
      <trkpt lat="45.77292" lon="4.90058">
        <ele>172</ele>
        <time>2010-11-04T14:05:17Z</time>
      </trkpt>
      <trkpt lat="45.77288" lon="4.90059">
        <ele>173</ele>
        <time>2010-11-04T14:05:18Z</time>
      </trkpt>
      <trkpt lat="45.77271" lon="4.90078">
        <ele>173</ele>
        <time>2010-11-04T14:05:25Z</time>
      </trkpt>
      <trkpt lat="45.77263" lon="4.90084">
        <ele>173</ele>
        <time>2010-11-04T14:05:27Z</time>
      </trkpt>
      <trkpt lat="45.7726" lon="4.90088">
        <ele>173</ele>
        <time>2010-11-04T14:05:28Z</time>
      </trkpt>
      <trkpt lat="45.77257" lon="4.90092">
        <ele>173</ele>
        <time>2010-11-04T14:05:29Z</time>
      </trkpt>
      <trkpt lat="45.77235" lon="4.90118">
        <ele>174</ele>
        <time>2010-11-04T14:05:35Z</time>
      </trkpt>
      <trkpt lat="45.77233" lon="4.90121">
        <ele>173</ele>
        <time>2010-11-04T14:05:36Z</time>
      </trkpt>
      <trkpt lat="45.7723" lon="4.90123">
        <ele>173</ele>
        <time>2010-11-04T14:05:37Z</time>
      </trkpt>
      <trkpt lat="45.77228" lon="4.90125">
        <ele>173</ele>
        <time>2010-11-04T14:05:38Z</time>
      </trkpt>
      <trkpt lat="45.77224" lon="4.90128">
        <ele>173</ele>
        <time>2010-11-04T14:05:40Z</time>
      </trkpt>
      <trkpt lat="45.77219" lon="4.90131">
        <ele>173</ele>
        <time>2010-11-04T14:05:42Z</time>
      </trkpt>
      <trkpt lat="45.77216" lon="4.90133">
        <ele>173</ele>
        <time>2010-11-04T14:05:43Z</time>
      </trkpt>
      <trkpt lat="45.77197" lon="4.90152">
        <ele>174</ele>
        <time>2010-11-04T14:05:51Z</time>
      </trkpt>
      <trkpt lat="45.77173" lon="4.90168">
        <ele>175</ele>
        <time>2010-11-04T14:06:00Z</time>
      </trkpt>
      <trkpt lat="45.77161" lon="4.90181">
        <ele>174</ele>
        <time>2010-11-04T14:06:04Z</time>
      </trkpt>
      <trkpt lat="45.77158" lon="4.90185">
        <ele>174</ele>
        <time>2010-11-04T14:06:05Z</time>
      </trkpt>
      <trkpt lat="45.77155" lon="4.90188">
        <ele>174</ele>
        <time>2010-11-04T14:06:06Z</time>
      </trkpt>
      <trkpt lat="45.77129" lon="4.90209">
        <ele>173</ele>
        <time>2010-11-04T14:06:17Z</time>
      </trkpt>
      <trkpt lat="45.77102" lon="4.90227">
        <ele>174</ele>
        <time>2010-11-04T14:06:26Z</time>
      </trkpt>
      <trkpt lat="45.77099" lon="4.9023">
        <ele>174</ele>
        <time>2010-11-04T14:06:27Z</time>
      </trkpt>
      <trkpt lat="45.7706" lon="4.9025">
        <ele>173</ele>
        <time>2010-11-04T14:06:37Z</time>
      </trkpt>
      <trkpt lat="45.77042" lon="4.90266">
        <ele>173</ele>
        <time>2010-11-04T14:06:44Z</time>
      </trkpt>
      <trkpt lat="45.77024" lon="4.90285">
        <ele>172</ele>
        <time>2010-11-04T14:06:52Z</time>
      </trkpt>
      <trkpt lat="45.77021" lon="4.90288">
        <ele>172</ele>
        <time>2010-11-04T14:06:53Z</time>
      </trkpt>
      <trkpt lat="45.77018" lon="4.90292">
        <ele>173</ele>
        <time>2010-11-04T14:06:54Z</time>
      </trkpt>
      <trkpt lat="45.76994" lon="4.90318">
        <ele>174</ele>
        <time>2010-11-04T14:07:02Z</time>
      </trkpt>
      <trkpt lat="45.76982" lon="4.90327">
        <ele>174</ele>
        <time>2010-11-04T14:07:07Z</time>
      </trkpt>
      <trkpt lat="45.7698" lon="4.9033">
        <ele>174</ele>
        <time>2010-11-04T14:07:08Z</time>
      </trkpt>
      <trkpt lat="45.76976" lon="4.90334">
        <ele>174</ele>
        <time>2010-11-04T14:07:09Z</time>
      </trkpt>
      <trkpt lat="45.76973" lon="4.90338">
        <ele>174</ele>
        <time>2010-11-04T14:07:10Z</time>
      </trkpt>
      <trkpt lat="45.76969" lon="4.90342">
        <ele>174</ele>
        <time>2010-11-04T14:07:11Z</time>
      </trkpt>
      <trkpt lat="45.7695" lon="4.90358">
        <ele>174</ele>
        <time>2010-11-04T14:07:18Z</time>
      </trkpt>
      <trkpt lat="45.76925" lon="4.90388">
        <ele>174</ele>
        <time>2010-11-04T14:07:26Z</time>
      </trkpt>
      <trkpt lat="45.76911" lon="4.90414">
        <ele>174</ele>
        <time>2010-11-04T14:07:31Z</time>
      </trkpt>
      <trkpt lat="45.76909" lon="4.90417">
        <ele>174</ele>
        <time>2010-11-04T14:07:32Z</time>
      </trkpt>
      <trkpt lat="45.76899" lon="4.90431">
        <ele>174</ele>
        <time>2010-11-04T14:07:37Z</time>
      </trkpt>
      <trkpt lat="45.76898" lon="4.90433">
        <ele>174</ele>
        <time>2010-11-04T14:07:38Z</time>
      </trkpt>
      <trkpt lat="45.76896" lon="4.90436">
        <ele>174</ele>
        <time>2010-11-04T14:07:39Z</time>
      </trkpt>
      <trkpt lat="45.76879" lon="4.90474">
        <ele>174</ele>
        <time>2010-11-04T14:07:49Z</time>
      </trkpt>
      <trkpt lat="45.76875" lon="4.90488">
        <ele>174</ele>
        <time>2010-11-04T14:07:52Z</time>
      </trkpt>
      <trkpt lat="45.76871" lon="4.90496">
        <ele>174</ele>
        <time>2010-11-04T14:07:55Z</time>
      </trkpt>
      <trkpt lat="45.76844" lon="4.90543">
        <ele>173</ele>
        <time>2010-11-04T14:08:06Z</time>
      </trkpt>
      <trkpt lat="45.76836" lon="4.90563">
        <ele>174</ele>
        <time>2010-11-04T14:08:10Z</time>
      </trkpt>
      <trkpt lat="45.76834" lon="4.90569">
        <ele>174</ele>
        <time>2010-11-04T14:08:11Z</time>
      </trkpt>
      <trkpt lat="45.76832" lon="4.90576">
        <ele>175</ele>
        <time>2010-11-04T14:08:12Z</time>
      </trkpt>
      <trkpt lat="45.7683" lon="4.90583">
        <ele>175</ele>
        <time>2010-11-04T14:08:16Z</time>
      </trkpt>
      <trkpt lat="45.76823" lon="4.90591">
        <ele>175</ele>
        <time>2010-11-04T14:08:22Z</time>
      </trkpt>
      <trkpt lat="45.76822" lon="4.90592">
        <ele>175</ele>
        <time>2010-11-04T14:08:23Z</time>
      </trkpt>
      <trkpt lat="45.76818" lon="4.90598">
        <ele>175</ele>
        <time>2010-11-04T14:08:30Z</time>
      </trkpt>
      <trkpt lat="45.76818" lon="4.90601">
        <ele>175</ele>
        <time>2010-11-04T14:08:31Z</time>
      </trkpt>
      <trkpt lat="45.76818" lon="4.90603">
        <ele>175</ele>
        <time>2010-11-04T14:08:32Z</time>
      </trkpt>
      <trkpt lat="45.76819" lon="4.90606">
        <ele>175</ele>
        <time>2010-11-04T14:08:34Z</time>
      </trkpt>
      <trkpt lat="45.76819" lon="4.90611">
        <ele>175</ele>
        <time>2010-11-04T14:08:38Z</time>
      </trkpt>
      <trkpt lat="45.76817" lon="4.90624">
        <ele>175</ele>
        <time>2010-11-04T14:08:46Z</time>
      </trkpt>
      <trkpt lat="45.76816" lon="4.9063">
        <ele>175</ele>
        <time>2010-11-04T14:08:50Z</time>
      </trkpt>
      <trkpt lat="45.76815" lon="4.90632">
        <ele>175</ele>
        <time>2010-11-04T14:08:51Z</time>
      </trkpt>
      <trkpt lat="45.76815" lon="4.90634">
        <ele>175</ele>
        <time>2010-11-04T14:08:52Z</time>
      </trkpt>
      <trkpt lat="45.76814" lon="4.90647">
        <ele>175</ele>
        <time>2010-11-04T14:09:01Z</time>
      </trkpt>
      <trkpt lat="45.7681" lon="4.90665">
        <ele>175</ele>
        <time>2010-11-04T14:09:08Z</time>
      </trkpt>
      <trkpt lat="45.76806" lon="4.9068">
        <ele>175</ele>
        <time>2010-11-04T14:09:14Z</time>
      </trkpt>
      <trkpt lat="45.76811" lon="4.90692">
        <ele>175</ele>
        <time>2010-11-04T14:09:23Z</time>
      </trkpt>
      <trkpt lat="45.76811" lon="4.90695">
        <ele>175</ele>
        <time>2010-11-04T14:09:25Z</time>
      </trkpt>
      <trkpt lat="45.76804" lon="4.9071">
        <ele>175</ele>
        <time>2010-11-04T14:09:32Z</time>
      </trkpt>
      <trkpt lat="45.76801" lon="4.9072">
        <ele>175</ele>
        <time>2010-11-04T14:09:36Z</time>
      </trkpt>
      <trkpt lat="45.76801" lon="4.90738">
        <ele>175</ele>
        <time>2010-11-04T14:09:44Z</time>
      </trkpt>
      <trkpt lat="45.76801" lon="4.90739">
        <ele>175</ele>
        <time>2010-11-04T14:09:45Z</time>
      </trkpt>
      <trkpt lat="45.76801" lon="4.90742">
        <ele>175</ele>
        <time>2010-11-04T14:09:48Z</time>
      </trkpt>
      <trkpt lat="45.76797" lon="4.90757">
        <ele>175</ele>
        <time>2010-11-04T14:09:58Z</time>
      </trkpt>
      <trkpt lat="45.76792" lon="4.90779">
        <ele>175</ele>
        <time>2010-11-04T14:10:09Z</time>
      </trkpt>
      <trkpt lat="45.76792" lon="4.90782">
        <ele>175</ele>
        <time>2010-11-04T14:10:11Z</time>
      </trkpt>
      <trkpt lat="45.76787" lon="4.90802">
        <ele>175</ele>
        <time>2010-11-04T14:10:20Z</time>
      </trkpt>
      <trkpt lat="45.76785" lon="4.9081">
        <ele>175</ele>
        <time>2010-11-04T14:10:28Z</time>
      </trkpt>
      <trkpt lat="45.7678" lon="4.90821">
        <ele>175</ele>
        <time>2010-11-04T14:10:34Z</time>
      </trkpt>
      <trkpt lat="45.76773" lon="4.90842">
        <ele>175</ele>
        <time>2010-11-04T14:10:43Z</time>
      </trkpt>
      <trkpt lat="45.76766" lon="4.90853">
        <ele>175</ele>
        <time>2010-11-04T14:10:54Z</time>
      </trkpt>
      <trkpt lat="45.76767" lon="4.90869">
        <ele>175</ele>
        <time>2010-11-04T14:11:03Z</time>
      </trkpt>
      <trkpt lat="45.76758" lon="4.9089">
        <ele>175</ele>
        <time>2010-11-04T14:11:10Z</time>
      </trkpt>
      <trkpt lat="45.76754" lon="4.90901">
        <ele>175</ele>
        <time>2010-11-04T14:11:14Z</time>
      </trkpt>
      <trkpt lat="45.76748" lon="4.90915">
        <ele>175</ele>
        <time>2010-11-04T14:11:19Z</time>
      </trkpt>
      <trkpt lat="45.76735" lon="4.90945">
        <ele>176</ele>
        <time>2010-11-04T14:11:29Z</time>
      </trkpt>
      <trkpt lat="45.76724" lon="4.9097">
        <ele>176</ele>
        <time>2010-11-04T14:11:36Z</time>
      </trkpt>
      <trkpt lat="45.76714" lon="4.90989">
        <ele>176</ele>
        <time>2010-11-04T14:11:43Z</time>
      </trkpt>
      <trkpt lat="45.76712" lon="4.90991">
        <ele>176</ele>
        <time>2010-11-04T14:11:44Z</time>
      </trkpt>
      <trkpt lat="45.76703" lon="4.91015">
        <ele>177</ele>
        <time>2010-11-04T14:11:50Z</time>
      </trkpt>
      <trkpt lat="45.76699" lon="4.91031">
        <ele>177</ele>
        <time>2010-11-04T14:11:55Z</time>
      </trkpt>
      <trkpt lat="45.76689" lon="4.91063">
        <ele>177</ele>
        <time>2010-11-04T14:12:03Z</time>
      </trkpt>
      <trkpt lat="45.76687" lon="4.91072">
        <ele>177</ele>
        <time>2010-11-04T14:12:06Z</time>
      </trkpt>
      <trkpt lat="45.76685" lon="4.91086">
        <ele>177</ele>
        <time>2010-11-04T14:12:10Z</time>
      </trkpt>
      <trkpt lat="45.76677" lon="4.91114">
        <ele>177</ele>
        <time>2010-11-04T14:12:16Z</time>
      </trkpt>
      <trkpt lat="45.76675" lon="4.91119">
        <ele>177</ele>
        <time>2010-11-04T14:12:17Z</time>
      </trkpt>
      <trkpt lat="45.76674" lon="4.91122">
        <ele>177</ele>
        <time>2010-11-04T14:12:18Z</time>
      </trkpt>
      <trkpt lat="45.76673" lon="4.91152">
        <ele>177</ele>
        <time>2010-11-04T14:12:26Z</time>
      </trkpt>
      <trkpt lat="45.76672" lon="4.91155">
        <ele>178</ele>
        <time>2010-11-04T14:12:27Z</time>
      </trkpt>
      <trkpt lat="45.76672" lon="4.91158">
        <ele>178</ele>
        <time>2010-11-04T14:12:28Z</time>
      </trkpt>
      <trkpt lat="45.7667" lon="4.91186">
        <ele>177</ele>
        <time>2010-11-04T14:12:35Z</time>
      </trkpt>
      <trkpt lat="45.7667" lon="4.91202">
        <ele>177</ele>
        <time>2010-11-04T14:12:39Z</time>
      </trkpt>
      <trkpt lat="45.7667" lon="4.91207">
        <ele>177</ele>
        <time>2010-11-04T14:12:40Z</time>
      </trkpt>
      <trkpt lat="45.76671" lon="4.91211">
        <ele>177</ele>
        <time>2010-11-04T14:12:41Z</time>
      </trkpt>
      <trkpt lat="45.76673" lon="4.9123">
        <ele>176</ele>
        <time>2010-11-04T14:12:48Z</time>
      </trkpt>
      <trkpt lat="45.76673" lon="4.91239">
        <ele>176</ele>
        <time>2010-11-04T14:12:50Z</time>
      </trkpt>
      <trkpt lat="45.76674" lon="4.91242">
        <ele>176</ele>
        <time>2010-11-04T14:12:51Z</time>
      </trkpt>
      <trkpt lat="45.76675" lon="4.91246">
        <ele>176</ele>
        <time>2010-11-04T14:12:52Z</time>
      </trkpt>
      <trkpt lat="45.76675" lon="4.9125">
        <ele>176</ele>
        <time>2010-11-04T14:12:53Z</time>
      </trkpt>
      <trkpt lat="45.76675" lon="4.91254">
        <ele>176</ele>
        <time>2010-11-04T14:12:54Z</time>
      </trkpt>
      <trkpt lat="45.76676" lon="4.91259">
        <ele>176</ele>
        <time>2010-11-04T14:12:55Z</time>
      </trkpt>
      <trkpt lat="45.76676" lon="4.91263">
        <ele>176</ele>
        <time>2010-11-04T14:12:56Z</time>
      </trkpt>
      <trkpt lat="45.76677" lon="4.91267">
        <ele>176</ele>
        <time>2010-11-04T14:12:57Z</time>
      </trkpt>
      <trkpt lat="45.76677" lon="4.91271">
        <ele>176</ele>
        <time>2010-11-04T14:12:58Z</time>
      </trkpt>
      <trkpt lat="45.76678" lon="4.91274">
        <ele>176</ele>
        <time>2010-11-04T14:12:59Z</time>
      </trkpt>
      <trkpt lat="45.76679" lon="4.91278">
        <ele>176</ele>
        <time>2010-11-04T14:13:00Z</time>
      </trkpt>
      <trkpt lat="45.76679" lon="4.91282">
        <ele>176</ele>
        <time>2010-11-04T14:13:01Z</time>
      </trkpt>
      <trkpt lat="45.76679" lon="4.91287">
        <ele>176</ele>
        <time>2010-11-04T14:13:02Z</time>
      </trkpt>
      <trkpt lat="45.76679" lon="4.91292">
        <ele>176</ele>
        <time>2010-11-04T14:13:03Z</time>
      </trkpt>
      <trkpt lat="45.7668" lon="4.91295">
        <ele>176</ele>
        <time>2010-11-04T14:13:04Z</time>
      </trkpt>
      <trkpt lat="45.76681" lon="4.91298">
        <ele>176</ele>
        <time>2010-11-04T14:13:05Z</time>
      </trkpt>
      <trkpt lat="45.76682" lon="4.91301">
        <ele>176</ele>
        <time>2010-11-04T14:13:06Z</time>
      </trkpt>
      <trkpt lat="45.76682" lon="4.91303">
        <ele>176</ele>
        <time>2010-11-04T14:13:07Z</time>
      </trkpt>
      <trkpt lat="45.76683" lon="4.91306">
        <ele>176</ele>
        <time>2010-11-04T14:13:08Z</time>
      </trkpt>
      <trkpt lat="45.76683" lon="4.91311">
        <ele>176</ele>
        <time>2010-11-04T14:13:09Z</time>
      </trkpt>
      <trkpt lat="45.76684" lon="4.91314">
        <ele>176</ele>
        <time>2010-11-04T14:13:10Z</time>
      </trkpt>
      <trkpt lat="45.76684" lon="4.91319">
        <ele>176</ele>
        <time>2010-11-04T14:13:11Z</time>
      </trkpt>
      <trkpt lat="45.76685" lon="4.91321">
        <ele>176</ele>
        <time>2010-11-04T14:13:12Z</time>
      </trkpt>
      <trkpt lat="45.76685" lon="4.91324">
        <ele>176</ele>
        <time>2010-11-04T14:13:13Z</time>
      </trkpt>
      <trkpt lat="45.76686" lon="4.91327">
        <ele>176</ele>
        <time>2010-11-04T14:13:14Z</time>
      </trkpt>
      <trkpt lat="45.76686" lon="4.91331">
        <ele>176</ele>
        <time>2010-11-04T14:13:15Z</time>
      </trkpt>
      <trkpt lat="45.76685" lon="4.91336">
        <ele>176</ele>
        <time>2010-11-04T14:13:16Z</time>
      </trkpt>
      <trkpt lat="45.76685" lon="4.9134">
        <ele>176</ele>
        <time>2010-11-04T14:13:17Z</time>
      </trkpt>
      <trkpt lat="45.76684" lon="4.91345">
        <ele>176</ele>
        <time>2010-11-04T14:13:18Z</time>
      </trkpt>
      <trkpt lat="45.76682" lon="4.91349">
        <ele>176</ele>
        <time>2010-11-04T14:13:19Z</time>
      </trkpt>
      <trkpt lat="45.76678" lon="4.91399">
        <ele>176</ele>
        <time>2010-11-04T14:13:28Z</time>
      </trkpt>
      <trkpt lat="45.76676" lon="4.91416">
        <ele>176</ele>
        <time>2010-11-04T14:13:31Z</time>
      </trkpt>
      <trkpt lat="45.76676" lon="4.91421">
        <ele>176</ele>
        <time>2010-11-04T14:13:32Z</time>
      </trkpt>
      <trkpt lat="45.76676" lon="4.91424">
        <ele>176</ele>
        <time>2010-11-04T14:13:33Z</time>
      </trkpt>
      <trkpt lat="45.76676" lon="4.91429">
        <ele>176</ele>
        <time>2010-11-04T14:13:34Z</time>
      </trkpt>
      <trkpt lat="45.76676" lon="4.91432">
        <ele>176</ele>
        <time>2010-11-04T14:13:35Z</time>
      </trkpt>
      <trkpt lat="45.76676" lon="4.91435">
        <ele>176</ele>
        <time>2010-11-04T14:13:36Z</time>
      </trkpt>
      <trkpt lat="45.76677" lon="4.91437">
        <ele>176</ele>
        <time>2010-11-04T14:13:37Z</time>
      </trkpt>
      <trkpt lat="45.76677" lon="4.9144">
        <ele>176</ele>
        <time>2010-11-04T14:13:38Z</time>
      </trkpt>
      <trkpt lat="45.76677" lon="4.91461">
        <ele>176</ele>
        <time>2010-11-04T14:13:45Z</time>
      </trkpt>
      <trkpt lat="45.76678" lon="4.91465">
        <ele>176</ele>
        <time>2010-11-04T14:13:46Z</time>
      </trkpt>
      <trkpt lat="45.76678" lon="4.91469">
        <ele>176</ele>
        <time>2010-11-04T14:13:47Z</time>
      </trkpt>
      <trkpt lat="45.76678" lon="4.91472">
        <ele>176</ele>
        <time>2010-11-04T14:13:48Z</time>
      </trkpt>
      <trkpt lat="45.76678" lon="4.91475">
        <ele>176</ele>
        <time>2010-11-04T14:13:49Z</time>
      </trkpt>
      <trkpt lat="45.76684" lon="4.91495">
        <ele>176</ele>
        <time>2010-11-04T14:13:57Z</time>
      </trkpt>
      <trkpt lat="45.76687" lon="4.91499">
        <ele>176</ele>
        <time>2010-11-04T14:13:58Z</time>
      </trkpt>
      <trkpt lat="45.76689" lon="4.91506">
        <ele>176</ele>
        <time>2010-11-04T14:13:59Z</time>
      </trkpt>
      <trkpt lat="45.76691" lon="4.91524">
        <ele>176</ele>
        <time>2010-11-04T14:14:02Z</time>
      </trkpt>
      <trkpt lat="45.7669" lon="4.91529">
        <ele>176</ele>
        <time>2010-11-04T14:14:03Z</time>
      </trkpt>
      <trkpt lat="45.76689" lon="4.91534">
        <ele>176</ele>
        <time>2010-11-04T14:14:04Z</time>
      </trkpt>
      <trkpt lat="45.76689" lon="4.91538">
        <ele>176</ele>
        <time>2010-11-04T14:14:05Z</time>
      </trkpt>
      <trkpt lat="45.7669" lon="4.91542">
        <ele>176</ele>
        <time>2010-11-04T14:14:06Z</time>
      </trkpt>
      <trkpt lat="45.76691" lon="4.91545">
        <ele>176</ele>
        <time>2010-11-04T14:14:07Z</time>
      </trkpt>
      <trkpt lat="45.76693" lon="4.91548">
        <ele>176</ele>
        <time>2010-11-04T14:14:08Z</time>
      </trkpt>
      <trkpt lat="45.76694" lon="4.91553">
        <ele>176</ele>
        <time>2010-11-04T14:14:09Z</time>
      </trkpt>
      <trkpt lat="45.76695" lon="4.91557">
        <ele>176</ele>
        <time>2010-11-04T14:14:10Z</time>
      </trkpt>
      <trkpt lat="45.76696" lon="4.91561">
        <ele>176</ele>
        <time>2010-11-04T14:14:11Z</time>
      </trkpt>
      <trkpt lat="45.76696" lon="4.91565">
        <ele>176</ele>
        <time>2010-11-04T14:14:12Z</time>
      </trkpt>
      <trkpt lat="45.76696" lon="4.9158">
        <ele>176</ele>
        <time>2010-11-04T14:14:18Z</time>
      </trkpt>
      <trkpt lat="45.76696" lon="4.91582">
        <ele>176</ele>
        <time>2010-11-04T14:14:19Z</time>
      </trkpt>
      <trkpt lat="45.76699" lon="4.91592">
        <ele>178</ele>
        <time>2010-11-04T14:14:25Z</time>
      </trkpt>
      <trkpt lat="45.767" lon="4.91593">
        <ele>178</ele>
        <time>2010-11-04T14:14:26Z</time>
      </trkpt>
      <trkpt lat="45.76696" lon="4.9164">
        <ele>179</ele>
        <time>2010-11-04T14:14:36Z</time>
      </trkpt>
      <trkpt lat="45.76694" lon="4.91651">
        <ele>180</ele>
        <time>2010-11-04T14:14:38Z</time>
      </trkpt>
      <trkpt lat="45.76694" lon="4.91696">
        <ele>181</ele>
        <time>2010-11-04T14:14:46Z</time>
      </trkpt>
      <trkpt lat="45.76695" lon="4.9171">
        <ele>181</ele>
        <time>2010-11-04T14:14:49Z</time>
      </trkpt>
      <trkpt lat="45.76696" lon="4.91732">
        <ele>181</ele>
        <time>2010-11-04T14:14:54Z</time>
      </trkpt>
      <trkpt lat="45.76697" lon="4.91766">
        <ele>181</ele>
        <time>2010-11-04T14:15:01Z</time>
      </trkpt>
      <trkpt lat="45.76695" lon="4.91773">
        <ele>181</ele>
        <time>2010-11-04T14:15:02Z</time>
      </trkpt>
      <trkpt lat="45.76695" lon="4.91778">
        <ele>181</ele>
        <time>2010-11-04T14:15:03Z</time>
      </trkpt>
      <trkpt lat="45.76696" lon="4.91784">
        <ele>181</ele>
        <time>2010-11-04T14:15:05Z</time>
      </trkpt>
      <trkpt lat="45.76697" lon="4.91787">
        <ele>181</ele>
        <time>2010-11-04T14:15:06Z</time>
      </trkpt>
      <trkpt lat="45.76698" lon="4.91789">
        <ele>181</ele>
        <time>2010-11-04T14:15:07Z</time>
      </trkpt>
      <trkpt lat="45.76698" lon="4.91792">
        <ele>181</ele>
        <time>2010-11-04T14:15:08Z</time>
      </trkpt>
      <trkpt lat="45.76698" lon="4.91797">
        <ele>181</ele>
        <time>2010-11-04T14:15:09Z</time>
      </trkpt>
      <trkpt lat="45.76699" lon="4.91802">
        <ele>181</ele>
        <time>2010-11-04T14:15:10Z</time>
      </trkpt>
      <trkpt lat="45.767" lon="4.91808">
        <ele>181</ele>
        <time>2010-11-04T14:15:11Z</time>
      </trkpt>
      <trkpt lat="45.767" lon="4.91813">
        <ele>181</ele>
        <time>2010-11-04T14:15:12Z</time>
      </trkpt>
      <trkpt lat="45.767" lon="4.91819">
        <ele>181</ele>
        <time>2010-11-04T14:15:13Z</time>
      </trkpt>
      <trkpt lat="45.76701" lon="4.91823">
        <ele>181</ele>
        <time>2010-11-04T14:15:14Z</time>
      </trkpt>
      <trkpt lat="45.76703" lon="4.91827">
        <ele>181</ele>
        <time>2010-11-04T14:15:15Z</time>
      </trkpt>
      <trkpt lat="45.76703" lon="4.91831">
        <ele>181</ele>
        <time>2010-11-04T14:15:16Z</time>
      </trkpt>
      <trkpt lat="45.76704" lon="4.91835">
        <ele>181</ele>
        <time>2010-11-04T14:15:17Z</time>
      </trkpt>
      <trkpt lat="45.76707" lon="4.91875">
        <ele>180</ele>
        <time>2010-11-04T14:15:26Z</time>
      </trkpt>
      <trkpt lat="45.76709" lon="4.91906">
        <ele>180</ele>
        <time>2010-11-04T14:15:33Z</time>
      </trkpt>
      <trkpt lat="45.7671" lon="4.91911">
        <ele>180</ele>
        <time>2010-11-04T14:15:34Z</time>
      </trkpt>
      <trkpt lat="45.7671" lon="4.91916">
        <ele>180</ele>
        <time>2010-11-04T14:15:35Z</time>
      </trkpt>
      <trkpt lat="45.76712" lon="4.91923">
        <ele>179</ele>
        <time>2010-11-04T14:15:37Z</time>
      </trkpt>
      <trkpt lat="45.76719" lon="4.91941">
        <ele>179</ele>
        <time>2010-11-04T14:15:43Z</time>
      </trkpt>
      <trkpt lat="45.7672" lon="4.91973">
        <ele>179</ele>
        <time>2010-11-04T14:15:51Z</time>
      </trkpt>
      <trkpt lat="45.76726" lon="4.91998">
        <ele>178</ele>
        <time>2010-11-04T14:15:58Z</time>
      </trkpt>
      <trkpt lat="45.76728" lon="4.92018">
        <ele>178</ele>
        <time>2010-11-04T14:16:03Z</time>
      </trkpt>
      <trkpt lat="45.76735" lon="4.92057">
        <ele>178</ele>
        <time>2010-11-04T14:16:12Z</time>
      </trkpt>
      <trkpt lat="45.76736" lon="4.9207">
        <ele>178</ele>
        <time>2010-11-04T14:16:15Z</time>
      </trkpt>
      <trkpt lat="45.76738" lon="4.92086">
        <ele>178</ele>
        <time>2010-11-04T14:16:19Z</time>
      </trkpt>
      <trkpt lat="45.76742" lon="4.92101">
        <ele>179</ele>
        <time>2010-11-04T14:16:23Z</time>
      </trkpt>
      <trkpt lat="45.76746" lon="4.92117">
        <ele>180</ele>
        <time>2010-11-04T14:16:27Z</time>
      </trkpt>
      <trkpt lat="45.76755" lon="4.9214">
        <ele>180</ele>
        <time>2010-11-04T14:16:34Z</time>
      </trkpt>
      <trkpt lat="45.76758" lon="4.92147">
        <ele>181</ele>
        <time>2010-11-04T14:16:36Z</time>
      </trkpt>
      <trkpt lat="45.7676" lon="4.9216">
        <ele>182</ele>
        <time>2010-11-04T14:16:39Z</time>
      </trkpt>
      <trkpt lat="45.76771" lon="4.922">
        <ele>182</ele>
        <time>2010-11-04T14:16:50Z</time>
      </trkpt>
      <trkpt lat="45.76771" lon="4.92212">
        <ele>182</ele>
        <time>2010-11-04T14:16:52Z</time>
      </trkpt>
      <trkpt lat="45.76779" lon="4.92226">
        <ele>182</ele>
        <time>2010-11-04T14:16:57Z</time>
      </trkpt>
      <trkpt lat="45.76787" lon="4.92283">
        <ele>181</ele>
        <time>2010-11-04T14:17:09Z</time>
      </trkpt>
      <trkpt lat="45.76788" lon="4.92287">
        <ele>181</ele>
        <time>2010-11-04T14:17:10Z</time>
      </trkpt>
      <trkpt lat="45.76798" lon="4.92319">
        <ele>180</ele>
        <time>2010-11-04T14:17:18Z</time>
      </trkpt>
      <trkpt lat="45.7681" lon="4.92349">
        <ele>180</ele>
        <time>2010-11-04T14:17:26Z</time>
      </trkpt>
      <trkpt lat="45.76817" lon="4.92375">
        <ele>180</ele>
        <time>2010-11-04T14:17:32Z</time>
      </trkpt>
      <trkpt lat="45.76824" lon="4.92398">
        <ele>180</ele>
        <time>2010-11-04T14:17:38Z</time>
      </trkpt>
      <trkpt lat="45.7683" lon="4.92414">
        <ele>180</ele>
        <time>2010-11-04T14:17:42Z</time>
      </trkpt>
      <trkpt lat="45.7683" lon="4.9242">
        <ele>180</ele>
        <time>2010-11-04T14:17:43Z</time>
      </trkpt>
      <trkpt lat="45.76831" lon="4.92424">
        <ele>180</ele>
        <time>2010-11-04T14:17:44Z</time>
      </trkpt>
      <trkpt lat="45.76831" lon="4.92429">
        <ele>181</ele>
        <time>2010-11-04T14:17:45Z</time>
      </trkpt>
      <trkpt lat="45.76832" lon="4.92433">
        <ele>181</ele>
        <time>2010-11-04T14:17:46Z</time>
      </trkpt>
      <trkpt lat="45.76834" lon="4.92436">
        <ele>180</ele>
        <time>2010-11-04T14:17:47Z</time>
      </trkpt>
      <trkpt lat="45.76835" lon="4.9244">
        <ele>180</ele>
        <time>2010-11-04T14:17:48Z</time>
      </trkpt>
      <trkpt lat="45.76837" lon="4.92443">
        <ele>180</ele>
        <time>2010-11-04T14:17:49Z</time>
      </trkpt>
      <trkpt lat="45.76838" lon="4.92445">
        <ele>180</ele>
        <time>2010-11-04T14:17:50Z</time>
      </trkpt>
      <trkpt lat="45.76845" lon="4.92453">
        <ele>180</ele>
        <time>2010-11-04T14:17:53Z</time>
      </trkpt>
      <trkpt lat="45.76846" lon="4.92459">
        <ele>180</ele>
        <time>2010-11-04T14:17:54Z</time>
      </trkpt>
      <trkpt lat="45.76846" lon="4.92466">
        <ele>180</ele>
        <time>2010-11-04T14:17:55Z</time>
      </trkpt>
      <trkpt lat="45.76847" lon="4.92482">
        <ele>181</ele>
        <time>2010-11-04T14:17:58Z</time>
      </trkpt>
      <trkpt lat="45.76848" lon="4.92485">
        <ele>181</ele>
        <time>2010-11-04T14:17:59Z</time>
      </trkpt>
      <trkpt lat="45.76849" lon="4.92489">
        <ele>181</ele>
        <time>2010-11-04T14:18:00Z</time>
      </trkpt>
      <trkpt lat="45.76853" lon="4.92528">
        <ele>181</ele>
        <time>2010-11-04T14:18:09Z</time>
      </trkpt>
      <trkpt lat="45.76855" lon="4.92543">
        <ele>181</ele>
        <time>2010-11-04T14:18:13Z</time>
      </trkpt>
      <trkpt lat="45.76856" lon="4.92547">
        <ele>181</ele>
        <time>2010-11-04T14:18:14Z</time>
      </trkpt>
      <trkpt lat="45.76856" lon="4.92551">
        <ele>181</ele>
        <time>2010-11-04T14:18:15Z</time>
      </trkpt>
      <trkpt lat="45.76855" lon="4.92556">
        <ele>181</ele>
        <time>2010-11-04T14:18:16Z</time>
      </trkpt>
      <trkpt lat="45.76855" lon="4.9256">
        <ele>181</ele>
        <time>2010-11-04T14:18:17Z</time>
      </trkpt>
      <trkpt lat="45.76856" lon="4.92564">
        <ele>181</ele>
        <time>2010-11-04T14:18:18Z</time>
      </trkpt>
      <trkpt lat="45.76856" lon="4.92569">
        <ele>181</ele>
        <time>2010-11-04T14:18:19Z</time>
      </trkpt>
      <trkpt lat="45.7686" lon="4.92595">
        <ele>181</ele>
        <time>2010-11-04T14:18:24Z</time>
      </trkpt>
      <trkpt lat="45.76862" lon="4.92599">
        <ele>181</ele>
        <time>2010-11-04T14:18:25Z</time>
      </trkpt>
      <trkpt lat="45.76863" lon="4.92603">
        <ele>181</ele>
        <time>2010-11-04T14:18:26Z</time>
      </trkpt>
      <trkpt lat="45.76864" lon="4.92607">
        <ele>181</ele>
        <time>2010-11-04T14:18:27Z</time>
      </trkpt>
      <trkpt lat="45.76864" lon="4.92612">
        <ele>181</ele>
        <time>2010-11-04T14:18:28Z</time>
      </trkpt>
      <trkpt lat="45.76865" lon="4.92616">
        <ele>180</ele>
        <time>2010-11-04T14:18:29Z</time>
      </trkpt>
      <trkpt lat="45.76866" lon="4.9262">
        <ele>180</ele>
        <time>2010-11-04T14:18:30Z</time>
      </trkpt>
      <trkpt lat="45.76866" lon="4.92625">
        <ele>180</ele>
        <time>2010-11-04T14:18:31Z</time>
      </trkpt>
      <trkpt lat="45.76866" lon="4.92631">
        <ele>180</ele>
        <time>2010-11-04T14:18:32Z</time>
      </trkpt>
      <trkpt lat="45.76867" lon="4.92636">
        <ele>180</ele>
        <time>2010-11-04T14:18:33Z</time>
      </trkpt>
      <trkpt lat="45.76869" lon="4.9264">
        <ele>180</ele>
        <time>2010-11-04T14:18:34Z</time>
      </trkpt>
      <trkpt lat="45.7687" lon="4.92644">
        <ele>180</ele>
        <time>2010-11-04T14:18:35Z</time>
      </trkpt>
      <trkpt lat="45.7687" lon="4.92648">
        <ele>180</ele>
        <time>2010-11-04T14:18:36Z</time>
      </trkpt>
      <trkpt lat="45.76871" lon="4.92654">
        <ele>180</ele>
        <time>2010-11-04T14:18:37Z</time>
      </trkpt>
      <trkpt lat="45.76871" lon="4.9266">
        <ele>180</ele>
        <time>2010-11-04T14:18:38Z</time>
      </trkpt>
      <trkpt lat="45.76871" lon="4.92666">
        <ele>180</ele>
        <time>2010-11-04T14:18:39Z</time>
      </trkpt>
      <trkpt lat="45.76872" lon="4.9267">
        <ele>180</ele>
        <time>2010-11-04T14:18:40Z</time>
      </trkpt>
      <trkpt lat="45.76873" lon="4.92673">
        <ele>180</ele>
        <time>2010-11-04T14:18:41Z</time>
      </trkpt>
      <trkpt lat="45.76874" lon="4.92676">
        <ele>180</ele>
        <time>2010-11-04T14:18:42Z</time>
      </trkpt>
      <trkpt lat="45.76875" lon="4.92679">
        <ele>180</ele>
        <time>2010-11-04T14:18:43Z</time>
      </trkpt>
      <trkpt lat="45.76876" lon="4.92682">
        <ele>180</ele>
        <time>2010-11-04T14:18:44Z</time>
      </trkpt>
      <trkpt lat="45.76876" lon="4.92686">
        <ele>180</ele>
        <time>2010-11-04T14:18:45Z</time>
      </trkpt>
      <trkpt lat="45.76878" lon="4.92693">
        <ele>180</ele>
        <time>2010-11-04T14:18:47Z</time>
      </trkpt>
      <trkpt lat="45.76878" lon="4.92698">
        <ele>180</ele>
        <time>2010-11-04T14:18:48Z</time>
      </trkpt>
      <trkpt lat="45.76879" lon="4.92703">
        <ele>180</ele>
        <time>2010-11-04T14:18:49Z</time>
      </trkpt>
      <trkpt lat="45.76879" lon="4.92707">
        <ele>180</ele>
        <time>2010-11-04T14:18:50Z</time>
      </trkpt>
      <trkpt lat="45.76879" lon="4.92712">
        <ele>180</ele>
        <time>2010-11-04T14:18:51Z</time>
      </trkpt>
      <trkpt lat="45.76879" lon="4.92715">
        <ele>180</ele>
        <time>2010-11-04T14:18:52Z</time>
      </trkpt>
      <trkpt lat="45.7688" lon="4.9272">
        <ele>180</ele>
        <time>2010-11-04T14:18:53Z</time>
      </trkpt>
      <trkpt lat="45.76881" lon="4.92724">
        <ele>180</ele>
        <time>2010-11-04T14:18:54Z</time>
      </trkpt>
      <trkpt lat="45.76881" lon="4.92727">
        <ele>180</ele>
        <time>2010-11-04T14:18:55Z</time>
      </trkpt>
      <trkpt lat="45.76882" lon="4.92732">
        <ele>180</ele>
        <time>2010-11-04T14:18:56Z</time>
      </trkpt>
      <trkpt lat="45.76882" lon="4.92737">
        <ele>179</ele>
        <time>2010-11-04T14:18:57Z</time>
      </trkpt>
      <trkpt lat="45.76884" lon="4.92742">
        <ele>179</ele>
        <time>2010-11-04T14:18:58Z</time>
      </trkpt>
      <trkpt lat="45.76885" lon="4.92747">
        <ele>179</ele>
        <time>2010-11-04T14:18:59Z</time>
      </trkpt>
      <trkpt lat="45.76884" lon="4.92755">
        <ele>180</ele>
        <time>2010-11-04T14:19:00Z</time>
      </trkpt>
      <trkpt lat="45.76884" lon="4.92762">
        <ele>180</ele>
        <time>2010-11-04T14:19:01Z</time>
      </trkpt>
      <trkpt lat="45.76882" lon="4.9277">
        <ele>180</ele>
        <time>2010-11-04T14:19:12Z</time>
      </trkpt>
      <trkpt lat="45.76881" lon="4.92776">
        <ele>180</ele>
        <time>2010-11-04T14:19:53Z</time>
      </trkpt>
      <trkpt lat="45.76881" lon="4.92777">
        <ele>180</ele>
        <time>2010-11-04T14:20:11Z</time>
      </trkpt>
      <trkpt lat="45.76881" lon="4.92777">
        <ele>180</ele>
        <time>2010-11-04T14:20:43Z</time>
      </trkpt>
      <trkpt lat="45.76878" lon="4.9278">
        <ele>180</ele>
        <time>2010-11-04T14:21:01Z</time>
      </trkpt>
      <trkpt lat="45.76876" lon="4.92781">
        <ele>180</ele>
        <time>2010-11-04T14:21:02Z</time>
      </trkpt>
      <trkpt lat="45.76874" lon="4.92782">
        <ele>180</ele>
        <time>2010-11-04T14:21:03Z</time>
      </trkpt>
      <trkpt lat="45.76872" lon="4.92783">
        <ele>181</ele>
        <time>2010-11-04T14:21:04Z</time>
      </trkpt>
      <trkpt lat="45.7687" lon="4.92783">
        <ele>181</ele>
        <time>2010-11-04T14:21:05Z</time>
      </trkpt>
      <trkpt lat="45.76868" lon="4.92784">
        <ele>181</ele>
        <time>2010-11-04T14:21:06Z</time>
      </trkpt>
      <trkpt lat="45.76861" lon="4.92784">
        <ele>181</ele>
        <time>2010-11-04T14:21:12Z</time>
      </trkpt>
      <trkpt lat="45.76851" lon="4.92789">
        <ele>181</ele>
        <time>2010-11-04T14:21:17Z</time>
      </trkpt>
      <trkpt lat="45.7685" lon="4.92792">
        <ele>181</ele>
        <time>2010-11-04T14:21:18Z</time>
      </trkpt>
      <trkpt lat="45.76836" lon="4.92786">
        <ele>182</ele>
        <time>2010-11-04T14:21:24Z</time>
      </trkpt>
      <trkpt lat="45.76834" lon="4.92782">
        <ele>182</ele>
        <time>2010-11-04T14:21:25Z</time>
      </trkpt>
      <trkpt lat="45.76809" lon="4.92783">
        <ele>183</ele>
        <time>2010-11-04T14:21:34Z</time>
      </trkpt>
      <trkpt lat="45.76798" lon="4.92789">
        <ele>183</ele>
        <time>2010-11-04T14:21:37Z</time>
      </trkpt>
      <trkpt lat="45.7678" lon="4.92794">
        <ele>182</ele>
        <time>2010-11-04T14:21:42Z</time>
      </trkpt>
      <trkpt lat="45.76776" lon="4.92797">
        <ele>182</ele>
        <time>2010-11-04T14:21:43Z</time>
      </trkpt>
      <trkpt lat="45.7677" lon="4.92799">
        <ele>182</ele>
        <time>2010-11-04T14:21:46Z</time>
      </trkpt>
      <trkpt lat="45.7676" lon="4.92801">
        <ele>182</ele>
        <time>2010-11-04T14:21:50Z</time>
      </trkpt>
      <trkpt lat="45.76757" lon="4.92803">
        <ele>182</ele>
        <time>2010-11-04T14:21:51Z</time>
      </trkpt>
      <trkpt lat="45.76755" lon="4.92803">
        <ele>182</ele>
        <time>2010-11-04T14:21:52Z</time>
      </trkpt>
      <trkpt lat="45.76753" lon="4.92803">
        <ele>182</ele>
        <time>2010-11-04T14:21:53Z</time>
      </trkpt>
      <trkpt lat="45.76751" lon="4.92801">
        <ele>182</ele>
        <time>2010-11-04T14:21:54Z</time>
      </trkpt>
      <trkpt lat="45.7674" lon="4.92801">
        <ele>182</ele>
        <time>2010-11-04T14:21:59Z</time>
      </trkpt>
      <trkpt lat="45.76721" lon="4.92801">
        <ele>182</ele>
        <time>2010-11-04T14:22:06Z</time>
      </trkpt>
      <trkpt lat="45.76692" lon="4.92813">
        <ele>183</ele>
        <time>2010-11-04T14:22:16Z</time>
      </trkpt>
      <trkpt lat="45.76672" lon="4.92811">
        <ele>184</ele>
        <time>2010-11-04T14:22:24Z</time>
      </trkpt>
      <trkpt lat="45.76646" lon="4.9283">
        <ele>185</ele>
        <time>2010-11-04T14:22:33Z</time>
      </trkpt>
      <trkpt lat="45.76642" lon="4.92838">
        <ele>185</ele>
        <time>2010-11-04T14:22:35Z</time>
      </trkpt>
      <trkpt lat="45.76641" lon="4.92842">
        <ele>185</ele>
        <time>2010-11-04T14:22:36Z</time>
      </trkpt>
      <trkpt lat="45.7664" lon="4.92847">
        <ele>185</ele>
        <time>2010-11-04T14:22:37Z</time>
      </trkpt>
      <trkpt lat="45.76641" lon="4.92852">
        <ele>185</ele>
        <time>2010-11-04T14:22:38Z</time>
      </trkpt>
      <trkpt lat="45.76642" lon="4.92857">
        <ele>185</ele>
        <time>2010-11-04T14:22:39Z</time>
      </trkpt>
      <trkpt lat="45.76642" lon="4.92862">
        <ele>185</ele>
        <time>2010-11-04T14:22:40Z</time>
      </trkpt>
      <trkpt lat="45.76648" lon="4.92895">
        <ele>184</ele>
        <time>2010-11-04T14:22:48Z</time>
      </trkpt>
      <trkpt lat="45.76652" lon="4.92919">
        <ele>184</ele>
        <time>2010-11-04T14:22:53Z</time>
      </trkpt>
      <trkpt lat="45.76654" lon="4.92937">
        <ele>184</ele>
        <time>2010-11-04T14:22:57Z</time>
      </trkpt>
      <trkpt lat="45.76656" lon="4.92943">
        <ele>184</ele>
        <time>2010-11-04T14:22:59Z</time>
      </trkpt>
      <trkpt lat="45.76657" lon="4.92947">
        <ele>184</ele>
        <time>2010-11-04T14:23:00Z</time>
      </trkpt>
      <trkpt lat="45.76658" lon="4.92971">
        <ele>184</ele>
        <time>2010-11-04T14:23:05Z</time>
      </trkpt>
      <trkpt lat="45.76658" lon="4.9298">
        <ele>183</ele>
        <time>2010-11-04T14:23:08Z</time>
      </trkpt>
      <trkpt lat="45.7666" lon="4.92983">
        <ele>183</ele>
        <time>2010-11-04T14:23:09Z</time>
      </trkpt>
      <trkpt lat="45.76661" lon="4.92988">
        <ele>183</ele>
        <time>2010-11-04T14:23:11Z</time>
      </trkpt>
      <trkpt lat="45.76661" lon="4.92991">
        <ele>183</ele>
        <time>2010-11-04T14:23:12Z</time>
      </trkpt>
      <trkpt lat="45.7666" lon="4.92996">
        <ele>183</ele>
        <time>2010-11-04T14:23:14Z</time>
      </trkpt>
      <trkpt lat="45.76657" lon="4.92996">
        <ele>183</ele>
        <time>2010-11-04T14:23:16Z</time>
      </trkpt>
      <trkpt lat="45.76655" lon="4.92995">
        <ele>183</ele>
        <time>2010-11-04T14:23:17Z</time>
      </trkpt>
      <trkpt lat="45.76652" lon="4.92993">
        <ele>183</ele>
        <time>2010-11-04T14:23:18Z</time>
      </trkpt>
      <trkpt lat="45.76649" lon="4.92992">
        <ele>183</ele>
        <time>2010-11-04T14:23:19Z</time>
      </trkpt>
      <trkpt lat="45.76646" lon="4.92991">
        <ele>183</ele>
        <time>2010-11-04T14:23:20Z</time>
      </trkpt>
      <trkpt lat="45.76643" lon="4.92992">
        <ele>183</ele>
        <time>2010-11-04T14:23:21Z</time>
      </trkpt>
      <trkpt lat="45.76639" lon="4.92992">
        <ele>184</ele>
        <time>2010-11-04T14:23:22Z</time>
      </trkpt>
      <trkpt lat="45.76634" lon="4.92998">
        <ele>184</ele>
        <time>2010-11-04T14:23:23Z</time>
      </trkpt>
      <trkpt lat="45.7663" lon="4.92999">
        <ele>184</ele>
        <time>2010-11-04T14:23:24Z</time>
      </trkpt>
      <trkpt lat="45.76627" lon="4.92999">
        <ele>184</ele>
        <time>2010-11-04T14:23:25Z</time>
      </trkpt>
      <trkpt lat="45.76624" lon="4.92999">
        <ele>184</ele>
        <time>2010-11-04T14:23:26Z</time>
      </trkpt>
      <trkpt lat="45.76622" lon="4.92999">
        <ele>184</ele>
        <time>2010-11-04T14:23:27Z</time>
      </trkpt>
      <trkpt lat="45.76619" lon="4.92998">
        <ele>184</ele>
        <time>2010-11-04T14:23:28Z</time>
      </trkpt>
      <trkpt lat="45.76616" lon="4.92998">
        <ele>184</ele>
        <time>2010-11-04T14:23:29Z</time>
      </trkpt>
      <trkpt lat="45.76604" lon="4.92998">
        <ele>184</ele>
        <time>2010-11-04T14:23:34Z</time>
      </trkpt>
      <trkpt lat="45.76601" lon="4.92999">
        <ele>184</ele>
        <time>2010-11-04T14:23:35Z</time>
      </trkpt>
      <trkpt lat="45.76599" lon="4.92999">
        <ele>184</ele>
        <time>2010-11-04T14:23:36Z</time>
      </trkpt>
      <trkpt lat="45.76572" lon="4.92997">
        <ele>184</ele>
        <time>2010-11-04T14:23:46Z</time>
      </trkpt>
      <trkpt lat="45.76562" lon="4.92998">
        <ele>184</ele>
        <time>2010-11-04T14:23:50Z</time>
      </trkpt>
      <trkpt lat="45.76556" lon="4.92997">
        <ele>184</ele>
        <time>2010-11-04T14:23:52Z</time>
      </trkpt>
      <trkpt lat="45.76535" lon="4.92988">
        <ele>184</ele>
        <time>2010-11-04T14:23:58Z</time>
      </trkpt>
      <trkpt lat="45.76519" lon="4.92981">
        <ele>184</ele>
        <time>2010-11-04T14:24:03Z</time>
      </trkpt>
      <trkpt lat="45.76517" lon="4.92979">
        <ele>184</ele>
        <time>2010-11-04T14:24:04Z</time>
      </trkpt>
      <trkpt lat="45.76486" lon="4.92975">
        <ele>184</ele>
        <time>2010-11-04T14:24:15Z</time>
      </trkpt>
      <trkpt lat="45.76463" lon="4.92971">
        <ele>184</ele>
        <time>2010-11-04T14:24:23Z</time>
      </trkpt>
      <trkpt lat="45.76442" lon="4.92971">
        <ele>184</ele>
        <time>2010-11-04T14:24:30Z</time>
      </trkpt>
      <trkpt lat="45.76438" lon="4.92971">
        <ele>184</ele>
        <time>2010-11-04T14:24:31Z</time>
      </trkpt>
      <trkpt lat="45.76435" lon="4.9297">
        <ele>184</ele>
        <time>2010-11-04T14:24:32Z</time>
      </trkpt>
      <trkpt lat="45.76424" lon="4.92966">
        <ele>184</ele>
        <time>2010-11-04T14:24:35Z</time>
      </trkpt>
      <trkpt lat="45.76415" lon="4.9296">
        <ele>184</ele>
        <time>2010-11-04T14:24:38Z</time>
      </trkpt>
      <trkpt lat="45.76393" lon="4.92944">
        <ele>184</ele>
        <time>2010-11-04T14:24:48Z</time>
      </trkpt>
      <trkpt lat="45.76391" lon="4.92941">
        <ele>184</ele>
        <time>2010-11-04T14:24:49Z</time>
      </trkpt>
      <trkpt lat="45.76385" lon="4.92936">
        <ele>184</ele>
        <time>2010-11-04T14:24:51Z</time>
      </trkpt>
      <trkpt lat="45.76381" lon="4.92934">
        <ele>184</ele>
        <time>2010-11-04T14:24:52Z</time>
      </trkpt>
      <trkpt lat="45.76377" lon="4.92933">
        <ele>184</ele>
        <time>2010-11-04T14:24:53Z</time>
      </trkpt>
      <trkpt lat="45.76373" lon="4.92934">
        <ele>184</ele>
        <time>2010-11-04T14:24:54Z</time>
      </trkpt>
      <trkpt lat="45.7637" lon="4.92934">
        <ele>184</ele>
        <time>2010-11-04T14:24:55Z</time>
      </trkpt>
      <trkpt lat="45.76367" lon="4.92933">
        <ele>184</ele>
        <time>2010-11-04T14:24:56Z</time>
      </trkpt>
      <trkpt lat="45.76365" lon="4.92932">
        <ele>184</ele>
        <time>2010-11-04T14:24:57Z</time>
      </trkpt>
      <trkpt lat="45.76363" lon="4.92932">
        <ele>184</ele>
        <time>2010-11-04T14:24:58Z</time>
      </trkpt>
      <trkpt lat="45.76361" lon="4.92932">
        <ele>184</ele>
        <time>2010-11-04T14:24:59Z</time>
      </trkpt>
      <trkpt lat="45.76344" lon="4.92924">
        <ele>184</ele>
        <time>2010-11-04T14:25:05Z</time>
      </trkpt>
      <trkpt lat="45.76337" lon="4.92927">
        <ele>184</ele>
        <time>2010-11-04T14:25:07Z</time>
      </trkpt>
      <trkpt lat="45.76331" lon="4.92928">
        <ele>184</ele>
        <time>2010-11-04T14:25:08Z</time>
      </trkpt>
      <trkpt lat="45.76326" lon="4.92929">
        <ele>184</ele>
        <time>2010-11-04T14:25:09Z</time>
      </trkpt>
      <trkpt lat="45.76321" lon="4.92929">
        <ele>184</ele>
        <time>2010-11-04T14:25:10Z</time>
      </trkpt>
      <trkpt lat="45.76311" lon="4.92929">
        <ele>184</ele>
        <time>2010-11-04T14:25:12Z</time>
      </trkpt>
      <trkpt lat="45.76306" lon="4.92928">
        <ele>184</ele>
        <time>2010-11-04T14:25:13Z</time>
      </trkpt>
      <trkpt lat="45.76303" lon="4.92931">
        <ele>184</ele>
        <time>2010-11-04T14:25:14Z</time>
      </trkpt>
      <trkpt lat="45.76284" lon="4.9295">
        <ele>185</ele>
        <time>2010-11-04T14:25:22Z</time>
      </trkpt>
      <trkpt lat="45.7628" lon="4.92958">
        <ele>185</ele>
        <time>2010-11-04T14:25:25Z</time>
      </trkpt>
      <trkpt lat="45.76279" lon="4.9296">
        <ele>184</ele>
        <time>2010-11-04T14:25:26Z</time>
      </trkpt>
      <trkpt lat="45.76278" lon="4.92963">
        <ele>184</ele>
        <time>2010-11-04T14:25:31Z</time>
      </trkpt>
      <trkpt lat="45.76265" lon="4.92955">
        <ele>185</ele>
        <time>2010-11-04T14:25:38Z</time>
      </trkpt>
      <trkpt lat="45.76256" lon="4.92948">
        <ele>185</ele>
        <time>2010-11-04T14:25:42Z</time>
      </trkpt>
      <trkpt lat="45.76254" lon="4.92947">
        <ele>185</ele>
        <time>2010-11-04T14:25:43Z</time>
      </trkpt>
      <trkpt lat="45.76238" lon="4.92942">
        <ele>185</ele>
        <time>2010-11-04T14:25:51Z</time>
      </trkpt>
      <trkpt lat="45.76231" lon="4.92942">
        <ele>185</ele>
        <time>2010-11-04T14:25:54Z</time>
      </trkpt>
      <trkpt lat="45.76214" lon="4.92937">
        <ele>186</ele>
        <time>2010-11-04T14:26:00Z</time>
      </trkpt>
      <trkpt lat="45.7621" lon="4.92936">
        <ele>186</ele>
        <time>2010-11-04T14:26:01Z</time>
      </trkpt>
      <trkpt lat="45.76196" lon="4.92934">
        <ele>186</ele>
        <time>2010-11-04T14:26:09Z</time>
      </trkpt>
      <trkpt lat="45.76176" lon="4.92932">
        <ele>186</ele>
        <time>2010-11-04T14:26:14Z</time>
      </trkpt>
      <trkpt lat="45.76157" lon="4.92934">
        <ele>187</ele>
        <time>2010-11-04T14:26:20Z</time>
      </trkpt>
      <trkpt lat="45.7613" lon="4.92928">
        <ele>187</ele>
        <time>2010-11-04T14:26:29Z</time>
      </trkpt>
      <trkpt lat="45.76112" lon="4.92925">
        <ele>187</ele>
        <time>2010-11-04T14:26:35Z</time>
      </trkpt>
      <trkpt lat="45.76107" lon="4.92927">
        <ele>187</ele>
        <time>2010-11-04T14:26:37Z</time>
      </trkpt>
      <trkpt lat="45.76082" lon="4.92922">
        <ele>188</ele>
        <time>2010-11-04T14:26:44Z</time>
      </trkpt>
      <trkpt lat="45.76072" lon="4.92921">
        <ele>188</ele>
        <time>2010-11-04T14:26:47Z</time>
      </trkpt>
      <trkpt lat="45.76061" lon="4.92921">
        <ele>187</ele>
        <time>2010-11-04T14:26:53Z</time>
      </trkpt>
      <trkpt lat="45.76048" lon="4.92921">
        <ele>187</ele>
        <time>2010-11-04T14:26:58Z</time>
      </trkpt>
      <trkpt lat="45.76018" lon="4.92916">
        <ele>187</ele>
        <time>2010-11-04T14:27:08Z</time>
      </trkpt>
      <trkpt lat="45.7599" lon="4.92911">
        <ele>187</ele>
        <time>2010-11-04T14:27:17Z</time>
      </trkpt>
      <trkpt lat="45.75986" lon="4.92908">
        <ele>187</ele>
        <time>2010-11-04T14:27:18Z</time>
      </trkpt>
      <trkpt lat="45.7595" lon="4.9291">
        <ele>186</ele>
        <time>2010-11-04T14:27:28Z</time>
      </trkpt>
      <trkpt lat="45.75917" lon="4.92892">
        <ele>186</ele>
        <time>2010-11-04T14:27:37Z</time>
      </trkpt>
      <trkpt lat="45.75904" lon="4.92889">
        <ele>186</ele>
        <time>2010-11-04T14:27:41Z</time>
      </trkpt>
      <trkpt lat="45.75899" lon="4.92887">
        <ele>186</ele>
        <time>2010-11-04T14:27:50Z</time>
      </trkpt>
      <trkpt lat="45.75893" lon="4.92889">
        <ele>186</ele>
        <time>2010-11-04T14:27:53Z</time>
      </trkpt>
      <trkpt lat="45.75869" lon="4.92887">
        <ele>187</ele>
        <time>2010-11-04T14:28:01Z</time>
      </trkpt>
      <trkpt lat="45.75845" lon="4.92883">
        <ele>187</ele>
        <time>2010-11-04T14:28:09Z</time>
      </trkpt>
      <trkpt lat="45.75816" lon="4.92879">
        <ele>187</ele>
        <time>2010-11-04T14:28:20Z</time>
      </trkpt>
      <trkpt lat="45.75798" lon="4.92873">
        <ele>187</ele>
        <time>2010-11-04T14:28:26Z</time>
      </trkpt>
      <trkpt lat="45.75786" lon="4.92866">
        <ele>187</ele>
        <time>2010-11-04T14:28:30Z</time>
      </trkpt>
      <trkpt lat="45.75768" lon="4.92867">
        <ele>187</ele>
        <time>2010-11-04T14:28:36Z</time>
      </trkpt>
      <trkpt lat="45.75754" lon="4.92867">
        <ele>187</ele>
        <time>2010-11-04T14:28:40Z</time>
      </trkpt>
      <trkpt lat="45.75733" lon="4.92862">
        <ele>187</ele>
        <time>2010-11-04T14:28:48Z</time>
      </trkpt>
      <trkpt lat="45.75722" lon="4.92855">
        <ele>187</ele>
        <time>2010-11-04T14:28:52Z</time>
      </trkpt>
      <trkpt lat="45.75707" lon="4.92857">
        <ele>187</ele>
        <time>2010-11-04T14:28:56Z</time>
      </trkpt>
      <trkpt lat="45.75703" lon="4.92858">
        <ele>187</ele>
        <time>2010-11-04T14:28:57Z</time>
      </trkpt>
      <trkpt lat="45.75699" lon="4.92858">
        <ele>187</ele>
        <time>2010-11-04T14:28:58Z</time>
      </trkpt>
      <trkpt lat="45.75695" lon="4.92859">
        <ele>187</ele>
        <time>2010-11-04T14:28:59Z</time>
      </trkpt>
      <trkpt lat="45.75691" lon="4.9286">
        <ele>187</ele>
        <time>2010-11-04T14:29:00Z</time>
      </trkpt>
      <trkpt lat="45.75688" lon="4.92861">
        <ele>187</ele>
        <time>2010-11-04T14:29:01Z</time>
      </trkpt>
      <trkpt lat="45.75684" lon="4.92863">
        <ele>187</ele>
        <time>2010-11-04T14:29:02Z</time>
      </trkpt>
      <trkpt lat="45.75682" lon="4.92863">
        <ele>187</ele>
        <time>2010-11-04T14:29:03Z</time>
      </trkpt>
      <trkpt lat="45.75679" lon="4.92863">
        <ele>187</ele>
        <time>2010-11-04T14:29:04Z</time>
      </trkpt>
      <trkpt lat="45.75677" lon="4.92861">
        <ele>187</ele>
        <time>2010-11-04T14:29:05Z</time>
      </trkpt>
      <trkpt lat="45.75675" lon="4.92859">
        <ele>187</ele>
        <time>2010-11-04T14:29:06Z</time>
      </trkpt>
      <trkpt lat="45.75653" lon="4.92856">
        <ele>188</ele>
        <time>2010-11-04T14:29:13Z</time>
      </trkpt>
      <trkpt lat="45.7565" lon="4.92855">
        <ele>188</ele>
        <time>2010-11-04T14:29:14Z</time>
      </trkpt>
      <trkpt lat="45.75648" lon="4.92854">
        <ele>188</ele>
        <time>2010-11-04T14:29:15Z</time>
      </trkpt>
      <trkpt lat="45.75637" lon="4.92848">
        <ele>188</ele>
        <time>2010-11-04T14:29:19Z</time>
      </trkpt>
      <trkpt lat="45.75634" lon="4.92847">
        <ele>188</ele>
        <time>2010-11-04T14:29:20Z</time>
      </trkpt>
      <trkpt lat="45.75632" lon="4.92846">
        <ele>188</ele>
        <time>2010-11-04T14:29:21Z</time>
      </trkpt>
      <trkpt lat="45.75629" lon="4.92845">
        <ele>188</ele>
        <time>2010-11-04T14:29:22Z</time>
      </trkpt>
      <trkpt lat="45.75626" lon="4.92843">
        <ele>188</ele>
        <time>2010-11-04T14:29:23Z</time>
      </trkpt>
      <trkpt lat="45.75623" lon="4.92842">
        <ele>188</ele>
        <time>2010-11-04T14:29:24Z</time>
      </trkpt>
      <trkpt lat="45.7562" lon="4.92842">
        <ele>188</ele>
        <time>2010-11-04T14:29:25Z</time>
      </trkpt>
      <trkpt lat="45.75616" lon="4.92842">
        <ele>188</ele>
        <time>2010-11-04T14:29:26Z</time>
      </trkpt>
      <trkpt lat="45.75613" lon="4.92841">
        <ele>188</ele>
        <time>2010-11-04T14:29:27Z</time>
      </trkpt>
      <trkpt lat="45.75603" lon="4.92839">
        <ele>188</ele>
        <time>2010-11-04T14:29:30Z</time>
      </trkpt>
      <trkpt lat="45.75601" lon="4.92838">
        <ele>189</ele>
        <time>2010-11-04T14:29:31Z</time>
      </trkpt>
      <trkpt lat="45.75597" lon="4.92841">
        <ele>189</ele>
        <time>2010-11-04T14:29:32Z</time>
      </trkpt>
      <trkpt lat="45.75595" lon="4.92842">
        <ele>189</ele>
        <time>2010-11-04T14:29:33Z</time>
      </trkpt>
      <trkpt lat="45.75592" lon="4.92842">
        <ele>189</ele>
        <time>2010-11-04T14:29:34Z</time>
      </trkpt>
      <trkpt lat="45.75588" lon="4.92841">
        <ele>189</ele>
        <time>2010-11-04T14:29:37Z</time>
      </trkpt>
      <trkpt lat="45.75586" lon="4.92839">
        <ele>189</ele>
        <time>2010-11-04T14:29:38Z</time>
      </trkpt>
      <trkpt lat="45.75584" lon="4.92837">
        <ele>189</ele>
        <time>2010-11-04T14:29:39Z</time>
      </trkpt>
      <trkpt lat="45.75581" lon="4.92836">
        <ele>189</ele>
        <time>2010-11-04T14:29:40Z</time>
      </trkpt>
      <trkpt lat="45.75576" lon="4.92838">
        <ele>189</ele>
        <time>2010-11-04T14:29:41Z</time>
      </trkpt>
      <trkpt lat="45.75572" lon="4.92839">
        <ele>189</ele>
        <time>2010-11-04T14:29:42Z</time>
      </trkpt>
      <trkpt lat="45.75539" lon="4.9284">
        <ele>188</ele>
        <time>2010-11-04T14:29:50Z</time>
      </trkpt>
      <trkpt lat="45.75514" lon="4.92836">
        <ele>188</ele>
        <time>2010-11-04T14:29:59Z</time>
      </trkpt>
      <trkpt lat="45.75513" lon="4.92833">
        <ele>188</ele>
        <time>2010-11-04T14:30:00Z</time>
      </trkpt>
      <trkpt lat="45.75512" lon="4.92831">
        <ele>188</ele>
        <time>2010-11-04T14:30:01Z</time>
      </trkpt>
      <trkpt lat="45.75509" lon="4.92828">
        <ele>188</ele>
        <time>2010-11-04T14:30:02Z</time>
      </trkpt>
      <trkpt lat="45.75506" lon="4.92824">
        <ele>188</ele>
        <time>2010-11-04T14:30:03Z</time>
      </trkpt>
      <trkpt lat="45.75504" lon="4.92823">
        <ele>188</ele>
        <time>2010-11-04T14:30:04Z</time>
      </trkpt>
      <trkpt lat="45.75501" lon="4.92821">
        <ele>188</ele>
        <time>2010-11-04T14:30:05Z</time>
      </trkpt>
      <trkpt lat="45.75498" lon="4.92819">
        <ele>188</ele>
        <time>2010-11-04T14:30:06Z</time>
      </trkpt>
      <trkpt lat="45.75496" lon="4.92818">
        <ele>188</ele>
        <time>2010-11-04T14:30:07Z</time>
      </trkpt>
      <trkpt lat="45.75494" lon="4.92817">
        <ele>188</ele>
        <time>2010-11-04T14:30:08Z</time>
      </trkpt>
      <trkpt lat="45.75491" lon="4.92818">
        <ele>188</ele>
        <time>2010-11-04T14:30:09Z</time>
      </trkpt>
      <trkpt lat="45.75489" lon="4.92819">
        <ele>188</ele>
        <time>2010-11-04T14:30:10Z</time>
      </trkpt>
      <trkpt lat="45.75486" lon="4.9282">
        <ele>188</ele>
        <time>2010-11-04T14:30:11Z</time>
      </trkpt>
      <trkpt lat="45.75482" lon="4.9282">
        <ele>188</ele>
        <time>2010-11-04T14:30:12Z</time>
      </trkpt>
      <trkpt lat="45.75479" lon="4.92819">
        <ele>188</ele>
        <time>2010-11-04T14:30:13Z</time>
      </trkpt>
      <trkpt lat="45.75473" lon="4.92819">
        <ele>188</ele>
        <time>2010-11-04T14:30:15Z</time>
      </trkpt>
      <trkpt lat="45.7547" lon="4.92817">
        <ele>188</ele>
        <time>2010-11-04T14:30:16Z</time>
      </trkpt>
      <trkpt lat="45.75466" lon="4.92816">
        <ele>188</ele>
        <time>2010-11-04T14:30:17Z</time>
      </trkpt>
      <trkpt lat="45.75458" lon="4.92812">
        <ele>188</ele>
        <time>2010-11-04T14:30:19Z</time>
      </trkpt>
      <trkpt lat="45.75455" lon="4.9281">
        <ele>188</ele>
        <time>2010-11-04T14:30:20Z</time>
      </trkpt>
      <trkpt lat="45.75429" lon="4.92794">
        <ele>188</ele>
        <time>2010-11-04T14:30:28Z</time>
      </trkpt>
      <trkpt lat="45.75399" lon="4.92788">
        <ele>188</ele>
        <time>2010-11-04T14:30:37Z</time>
      </trkpt>
      <trkpt lat="45.75376" lon="4.92789">
        <ele>188</ele>
        <time>2010-11-04T14:30:46Z</time>
      </trkpt>
      <trkpt lat="45.75371" lon="4.9279">
        <ele>188</ele>
        <time>2010-11-04T14:31:00Z</time>
      </trkpt>
      <trkpt lat="45.75364" lon="4.92803">
        <ele>188</ele>
        <time>2010-11-04T14:31:12Z</time>
      </trkpt>
      <trkpt lat="45.75353" lon="4.92805">
        <ele>188</ele>
        <time>2010-11-04T14:31:16Z</time>
      </trkpt>
      <trkpt lat="45.75352" lon="4.92804">
        <ele>188</ele>
        <time>2010-11-04T14:31:17Z</time>
      </trkpt>
      <trkpt lat="45.7535" lon="4.92804">
        <ele>188</ele>
        <time>2010-11-04T14:31:18Z</time>
      </trkpt>
      <trkpt lat="45.75348" lon="4.92806">
        <ele>188</ele>
        <time>2010-11-04T14:31:19Z</time>
      </trkpt>
      <trkpt lat="45.75346" lon="4.92806">
        <ele>188</ele>
        <time>2010-11-04T14:31:20Z</time>
      </trkpt>
      <trkpt lat="45.75329" lon="4.92813">
        <ele>188</ele>
        <time>2010-11-04T14:31:27Z</time>
      </trkpt>
      <trkpt lat="45.75327" lon="4.92815">
        <ele>188</ele>
        <time>2010-11-04T14:31:28Z</time>
      </trkpt>
      <trkpt lat="45.75325" lon="4.92816">
        <ele>188</ele>
        <time>2010-11-04T14:31:29Z</time>
      </trkpt>
      <trkpt lat="45.75323" lon="4.92816">
        <ele>188</ele>
        <time>2010-11-04T14:31:30Z</time>
      </trkpt>
      <trkpt lat="45.75321" lon="4.92815">
        <ele>188</ele>
        <time>2010-11-04T14:31:31Z</time>
      </trkpt>
      <trkpt lat="45.75318" lon="4.92815">
        <ele>188</ele>
        <time>2010-11-04T14:31:32Z</time>
      </trkpt>
      <trkpt lat="45.75315" lon="4.92815">
        <ele>188</ele>
        <time>2010-11-04T14:31:33Z</time>
      </trkpt>
      <trkpt lat="45.75313" lon="4.92813">
        <ele>188</ele>
        <time>2010-11-04T14:31:34Z</time>
      </trkpt>
      <trkpt lat="45.75311" lon="4.92813">
        <ele>188</ele>
        <time>2010-11-04T14:31:35Z</time>
      </trkpt>
      <trkpt lat="45.75307" lon="4.92812">
        <ele>188</ele>
        <time>2010-11-04T14:31:36Z</time>
      </trkpt>
      <trkpt lat="45.75304" lon="4.92811">
        <ele>188</ele>
        <time>2010-11-04T14:31:37Z</time>
      </trkpt>
      <trkpt lat="45.75283" lon="4.92812">
        <ele>189</ele>
        <time>2010-11-04T14:31:45Z</time>
      </trkpt>
      <trkpt lat="45.7528" lon="4.92811">
        <ele>189</ele>
        <time>2010-11-04T14:31:46Z</time>
      </trkpt>
      <trkpt lat="45.75278" lon="4.92811">
        <ele>189</ele>
        <time>2010-11-04T14:31:47Z</time>
      </trkpt>
      <trkpt lat="45.75276" lon="4.9281">
        <ele>189</ele>
        <time>2010-11-04T14:31:48Z</time>
      </trkpt>
      <trkpt lat="45.75274" lon="4.9281">
        <ele>189</ele>
        <time>2010-11-04T14:31:49Z</time>
      </trkpt>
      <trkpt lat="45.75272" lon="4.9281">
        <ele>189</ele>
        <time>2010-11-04T14:31:50Z</time>
      </trkpt>
      <trkpt lat="45.75271" lon="4.92808">
        <ele>189</ele>
        <time>2010-11-04T14:31:51Z</time>
      </trkpt>
      <trkpt lat="45.75267" lon="4.92806">
        <ele>189</ele>
        <time>2010-11-04T14:32:02Z</time>
      </trkpt>
      <trkpt lat="45.75262" lon="4.928">
        <ele>189</ele>
        <time>2010-11-04T14:32:06Z</time>
      </trkpt>
      <trkpt lat="45.7526" lon="4.928">
        <ele>189</ele>
        <time>2010-11-04T14:32:07Z</time>
      </trkpt>
      <trkpt lat="45.75255" lon="4.92804">
        <ele>189</ele>
        <time>2010-11-04T14:32:11Z</time>
      </trkpt>
      <trkpt lat="45.75253" lon="4.92805">
        <ele>189</ele>
        <time>2010-11-04T14:32:12Z</time>
      </trkpt>
      <trkpt lat="45.75251" lon="4.92805">
        <ele>189</ele>
        <time>2010-11-04T14:32:13Z</time>
      </trkpt>
      <trkpt lat="45.75249" lon="4.92805">
        <ele>189</ele>
        <time>2010-11-04T14:32:14Z</time>
      </trkpt>
      <trkpt lat="45.75247" lon="4.92805">
        <ele>189</ele>
        <time>2010-11-04T14:32:15Z</time>
      </trkpt>
      <trkpt lat="45.75244" lon="4.92804">
        <ele>189</ele>
        <time>2010-11-04T14:32:16Z</time>
      </trkpt>
      <trkpt lat="45.75216" lon="4.92793">
        <ele>189</ele>
        <time>2010-11-04T14:32:25Z</time>
      </trkpt>
      <trkpt lat="45.75208" lon="4.92789">
        <ele>189</ele>
        <time>2010-11-04T14:32:28Z</time>
      </trkpt>
      <trkpt lat="45.75203" lon="4.92787">
        <ele>189</ele>
        <time>2010-11-04T14:32:30Z</time>
      </trkpt>
      <trkpt lat="45.752" lon="4.92788">
        <ele>189</ele>
        <time>2010-11-04T14:32:31Z</time>
      </trkpt>
      <trkpt lat="45.75194" lon="4.92792">
        <ele>189</ele>
        <time>2010-11-04T14:32:33Z</time>
      </trkpt>
      <trkpt lat="45.75191" lon="4.92793">
        <ele>189</ele>
        <time>2010-11-04T14:32:34Z</time>
      </trkpt>
      <trkpt lat="45.75188" lon="4.92794">
        <ele>189</ele>
        <time>2010-11-04T14:32:35Z</time>
      </trkpt>
      <trkpt lat="45.75186" lon="4.92795">
        <ele>189</ele>
        <time>2010-11-04T14:32:36Z</time>
      </trkpt>
      <trkpt lat="45.75184" lon="4.92795">
        <ele>189</ele>
        <time>2010-11-04T14:32:37Z</time>
      </trkpt>
      <trkpt lat="45.75182" lon="4.92796">
        <ele>189</ele>
        <time>2010-11-04T14:32:38Z</time>
      </trkpt>
      <trkpt lat="45.75157" lon="4.92789">
        <ele>190</ele>
        <time>2010-11-04T14:32:47Z</time>
      </trkpt>
      <trkpt lat="45.75155" lon="4.92789">
        <ele>190</ele>
        <time>2010-11-04T14:32:48Z</time>
      </trkpt>
      <trkpt lat="45.75149" lon="4.92789">
        <ele>190</ele>
        <time>2010-11-04T14:32:50Z</time>
      </trkpt>
      <trkpt lat="45.75112" lon="4.92791">
        <ele>190</ele>
        <time>2010-11-04T14:33:00Z</time>
      </trkpt>
      <trkpt lat="45.75072" lon="4.92783">
        <ele>190</ele>
        <time>2010-11-04T14:33:10Z</time>
      </trkpt>
      <trkpt lat="45.75061" lon="4.92777">
        <ele>190</ele>
        <time>2010-11-04T14:33:13Z</time>
      </trkpt>
      <trkpt lat="45.75031" lon="4.9277">
        <ele>191</ele>
        <time>2010-11-04T14:33:22Z</time>
      </trkpt>
      <trkpt lat="45.75001" lon="4.92771">
        <ele>191</ele>
        <time>2010-11-04T14:33:29Z</time>
      </trkpt>
      <trkpt lat="45.74966" lon="4.92768">
        <ele>191</ele>
        <time>2010-11-04T14:33:39Z</time>
      </trkpt>
      <trkpt lat="45.74961" lon="4.92769">
        <ele>191</ele>
        <time>2010-11-04T14:33:41Z</time>
      </trkpt>
      <trkpt lat="45.74935" lon="4.92764">
        <ele>191</ele>
        <time>2010-11-04T14:33:50Z</time>
      </trkpt>
      <trkpt lat="45.74905" lon="4.92752">
        <ele>191</ele>
        <time>2010-11-04T14:33:58Z</time>
      </trkpt>
      <trkpt lat="45.74887" lon="4.92752">
        <ele>190</ele>
        <time>2010-11-04T14:34:03Z</time>
      </trkpt>
      <trkpt lat="45.74877" lon="4.92753">
        <ele>190</ele>
        <time>2010-11-04T14:34:05Z</time>
      </trkpt>
      <trkpt lat="45.74857" lon="4.92735">
        <ele>190</ele>
        <time>2010-11-04T14:34:10Z</time>
      </trkpt>
      <trkpt lat="45.74816" lon="4.92738">
        <ele>190</ele>
        <time>2010-11-04T14:34:20Z</time>
      </trkpt>
      <trkpt lat="45.74779" lon="4.92732">
        <ele>190</ele>
        <time>2010-11-04T14:34:30Z</time>
      </trkpt>
      <trkpt lat="45.74765" lon="4.92734">
        <ele>191</ele>
        <time>2010-11-04T14:34:34Z</time>
      </trkpt>
      <trkpt lat="45.74735" lon="4.92729">
        <ele>191</ele>
        <time>2010-11-04T14:34:43Z</time>
      </trkpt>
      <trkpt lat="45.74704" lon="4.92726">
        <ele>190</ele>
        <time>2010-11-04T14:34:51Z</time>
      </trkpt>
      <trkpt lat="45.74665" lon="4.92723">
        <ele>190</ele>
        <time>2010-11-04T14:35:01Z</time>
      </trkpt>
      <trkpt lat="45.74652" lon="4.92724">
        <ele>190</ele>
        <time>2010-11-04T14:35:04Z</time>
      </trkpt>
      <trkpt lat="45.74623" lon="4.92717">
        <ele>190</ele>
        <time>2010-11-04T14:35:13Z</time>
      </trkpt>
      <trkpt lat="45.74616" lon="4.92716">
        <ele>190</ele>
        <time>2010-11-04T14:35:15Z</time>
      </trkpt>
      <trkpt lat="45.74614" lon="4.92716">
        <ele>190</ele>
        <time>2010-11-04T14:35:16Z</time>
      </trkpt>
      <trkpt lat="45.74612" lon="4.92717">
        <ele>190</ele>
        <time>2010-11-04T14:35:17Z</time>
      </trkpt>
      <trkpt lat="45.74608" lon="4.92722">
        <ele>190</ele>
        <time>2010-11-04T14:35:20Z</time>
      </trkpt>
      <trkpt lat="45.74604" lon="4.92722">
        <ele>190</ele>
        <time>2010-11-04T14:35:21Z</time>
      </trkpt>
      <trkpt lat="45.74602" lon="4.92723">
        <ele>190</ele>
        <time>2010-11-04T14:35:22Z</time>
      </trkpt>
      <trkpt lat="45.74598" lon="4.92721">
        <ele>190</ele>
        <time>2010-11-04T14:35:23Z</time>
      </trkpt>
      <trkpt lat="45.74596" lon="4.9272">
        <ele>190</ele>
        <time>2010-11-04T14:35:24Z</time>
      </trkpt>
      <trkpt lat="45.74592" lon="4.92716">
        <ele>190</ele>
        <time>2010-11-04T14:35:27Z</time>
      </trkpt>
      <trkpt lat="45.7459" lon="4.92713">
        <ele>190</ele>
        <time>2010-11-04T14:35:28Z</time>
      </trkpt>
      <trkpt lat="45.74587" lon="4.9271">
        <ele>190</ele>
        <time>2010-11-04T14:35:38Z</time>
      </trkpt>
      <trkpt lat="45.74585" lon="4.92712">
        <ele>190</ele>
        <time>2010-11-04T14:35:56Z</time>
      </trkpt>
      <trkpt lat="45.74586" lon="4.92712">
        <ele>190</ele>
        <time>2010-11-04T14:36:23Z</time>
      </trkpt>
      <trkpt lat="45.74586" lon="4.92714">
        <ele>190</ele>
        <time>2010-11-04T14:36:39Z</time>
      </trkpt>
      <trkpt lat="45.74585" lon="4.92715">
        <ele>190</ele>
        <time>2010-11-04T14:36:40Z</time>
      </trkpt>
      <trkpt lat="45.74584" lon="4.92717">
        <ele>190</ele>
        <time>2010-11-04T14:36:41Z</time>
      </trkpt>
      <trkpt lat="45.74584" lon="4.92719">
        <ele>190</ele>
        <time>2010-11-04T14:36:42Z</time>
      </trkpt>
      <trkpt lat="45.74581" lon="4.92726">
        <ele>191</ele>
        <time>2010-11-04T14:36:50Z</time>
      </trkpt>
      <trkpt lat="45.74579" lon="4.92732">
        <ele>191</ele>
        <time>2010-11-04T14:36:53Z</time>
      </trkpt>
      <trkpt lat="45.74578" lon="4.92735">
        <ele>191</ele>
        <time>2010-11-04T14:36:54Z</time>
      </trkpt>
      <trkpt lat="45.74566" lon="4.92764">
        <ele>190</ele>
        <time>2010-11-04T14:37:01Z</time>
      </trkpt>
      <trkpt lat="45.74565" lon="4.92766">
        <ele>191</ele>
        <time>2010-11-04T14:37:02Z</time>
      </trkpt>
      <trkpt lat="45.7456" lon="4.92778">
        <ele>191</ele>
        <time>2010-11-04T14:37:06Z</time>
      </trkpt>
      <trkpt lat="45.74558" lon="4.92781">
        <ele>191</ele>
        <time>2010-11-04T14:37:07Z</time>
      </trkpt>
      <trkpt lat="45.74549" lon="4.92808">
        <ele>190</ele>
        <time>2010-11-04T14:37:13Z</time>
      </trkpt>
      <trkpt lat="45.74537" lon="4.92862">
        <ele>190</ele>
        <time>2010-11-04T14:37:24Z</time>
      </trkpt>
      <trkpt lat="45.74535" lon="4.92872">
        <ele>190</ele>
        <time>2010-11-04T14:37:27Z</time>
      </trkpt>
      <trkpt lat="45.74533" lon="4.92876">
        <ele>190</ele>
        <time>2010-11-04T14:37:28Z</time>
      </trkpt>
      <trkpt lat="45.74533" lon="4.92881">
        <ele>190</ele>
        <time>2010-11-04T14:37:29Z</time>
      </trkpt>
      <trkpt lat="45.74532" lon="4.92886">
        <ele>190</ele>
        <time>2010-11-04T14:37:30Z</time>
      </trkpt>
      <trkpt lat="45.74531" lon="4.9289">
        <ele>190</ele>
        <time>2010-11-04T14:37:31Z</time>
      </trkpt>
      <trkpt lat="45.74522" lon="4.92921">
        <ele>190</ele>
        <time>2010-11-04T14:37:39Z</time>
      </trkpt>
      <trkpt lat="45.74512" lon="4.92954">
        <ele>190</ele>
        <time>2010-11-04T14:37:47Z</time>
      </trkpt>
      <trkpt lat="45.74511" lon="4.92958">
        <ele>190</ele>
        <time>2010-11-04T14:37:48Z</time>
      </trkpt>
      <trkpt lat="45.74509" lon="4.92961">
        <ele>190</ele>
        <time>2010-11-04T14:37:49Z</time>
      </trkpt>
      <trkpt lat="45.745" lon="4.92982">
        <ele>190</ele>
        <time>2010-11-04T14:37:56Z</time>
      </trkpt>
      <trkpt lat="45.74498" lon="4.92983">
        <ele>190</ele>
        <time>2010-11-04T14:37:57Z</time>
      </trkpt>
      <trkpt lat="45.74496" lon="4.92984">
        <ele>190</ele>
        <time>2010-11-04T14:37:58Z</time>
      </trkpt>
      <trkpt lat="45.7449" lon="4.92989">
        <ele>190</ele>
        <time>2010-11-04T14:38:05Z</time>
      </trkpt>
      <trkpt lat="45.74483" lon="4.9299">
        <ele>190</ele>
        <time>2010-11-04T14:38:09Z</time>
      </trkpt>
      <trkpt lat="45.74482" lon="4.92989">
        <ele>190</ele>
        <time>2010-11-04T14:38:10Z</time>
      </trkpt>
      <trkpt lat="45.74457" lon="4.92975">
        <ele>190</ele>
        <time>2010-11-04T14:38:20Z</time>
      </trkpt>
      <trkpt lat="45.74433" lon="4.92948">
        <ele>190</ele>
        <time>2010-11-04T14:38:30Z</time>
      </trkpt>
      <trkpt lat="45.7443" lon="4.92947">
        <ele>190</ele>
        <time>2010-11-04T14:38:31Z</time>
      </trkpt>
      <trkpt lat="45.74428" lon="4.92946">
        <ele>190</ele>
        <time>2010-11-04T14:38:32Z</time>
      </trkpt>
      <trkpt lat="45.74425" lon="4.92943">
        <ele>190</ele>
        <time>2010-11-04T14:38:33Z</time>
      </trkpt>
      <trkpt lat="45.74423" lon="4.92939">
        <ele>190</ele>
        <time>2010-11-04T14:38:34Z</time>
      </trkpt>
      <trkpt lat="45.7442" lon="4.92937">
        <ele>190</ele>
        <time>2010-11-04T14:38:35Z</time>
      </trkpt>
      <trkpt lat="45.74418" lon="4.92936">
        <ele>190</ele>
        <time>2010-11-04T14:38:36Z</time>
      </trkpt>
      <trkpt lat="45.74415" lon="4.92933">
        <ele>190</ele>
        <time>2010-11-04T14:38:37Z</time>
      </trkpt>
      <trkpt lat="45.74412" lon="4.92929">
        <ele>190</ele>
        <time>2010-11-04T14:38:38Z</time>
      </trkpt>
      <trkpt lat="45.74409" lon="4.92925">
        <ele>190</ele>
        <time>2010-11-04T14:38:39Z</time>
      </trkpt>
      <trkpt lat="45.74407" lon="4.92923">
        <ele>190</ele>
        <time>2010-11-04T14:38:40Z</time>
      </trkpt>
      <trkpt lat="45.74405" lon="4.92921">
        <ele>190</ele>
        <time>2010-11-04T14:38:41Z</time>
      </trkpt>
      <trkpt lat="45.74403" lon="4.9292">
        <ele>190</ele>
        <time>2010-11-04T14:38:42Z</time>
      </trkpt>
      <trkpt lat="45.74385" lon="4.92901">
        <ele>190</ele>
        <time>2010-11-04T14:38:51Z</time>
      </trkpt>
      <trkpt lat="45.74379" lon="4.92899">
        <ele>190</ele>
        <time>2010-11-04T14:38:54Z</time>
      </trkpt>
      <trkpt lat="45.74378" lon="4.92899">
        <ele>190</ele>
        <time>2010-11-04T14:38:55Z</time>
      </trkpt>
      <trkpt lat="45.74376" lon="4.929">
        <ele>190</ele>
        <time>2010-11-04T14:38:56Z</time>
      </trkpt>
      <trkpt lat="45.74373" lon="4.92901">
        <ele>190</ele>
        <time>2010-11-04T14:38:57Z</time>
      </trkpt>
      <trkpt lat="45.7437" lon="4.92901">
        <ele>190</ele>
        <time>2010-11-04T14:38:58Z</time>
      </trkpt>
      <trkpt lat="45.74369" lon="4.92901">
        <ele>190</ele>
        <time>2010-11-04T14:38:59Z</time>
      </trkpt>
      <trkpt lat="45.74367" lon="4.92902">
        <ele>190</ele>
        <time>2010-11-04T14:39:00Z</time>
      </trkpt>
      <trkpt lat="45.74365" lon="4.92904">
        <ele>190</ele>
        <time>2010-11-04T14:39:01Z</time>
      </trkpt>
      <trkpt lat="45.74363" lon="4.92906">
        <ele>190</ele>
        <time>2010-11-04T14:39:02Z</time>
      </trkpt>
      <trkpt lat="45.74361" lon="4.92908">
        <ele>190</ele>
        <time>2010-11-04T14:39:03Z</time>
      </trkpt>
      <trkpt lat="45.74358" lon="4.92911">
        <ele>191</ele>
        <time>2010-11-04T14:39:04Z</time>
      </trkpt>
      <trkpt lat="45.74351" lon="4.92918">
        <ele>191</ele>
        <time>2010-11-04T14:39:07Z</time>
      </trkpt>
      <trkpt lat="45.7435" lon="4.92922">
        <ele>191</ele>
        <time>2010-11-04T14:39:08Z</time>
      </trkpt>
      <trkpt lat="45.74348" lon="4.92926">
        <ele>191</ele>
        <time>2010-11-04T14:39:09Z</time>
      </trkpt>
      <trkpt lat="45.74341" lon="4.9293">
        <ele>191</ele>
        <time>2010-11-04T14:39:11Z</time>
      </trkpt>
      <trkpt lat="45.74322" lon="4.92932">
        <ele>192</ele>
        <time>2010-11-04T14:39:17Z</time>
      </trkpt>
      <trkpt lat="45.74319" lon="4.9293">
        <ele>192</ele>
        <time>2010-11-04T14:39:18Z</time>
      </trkpt>
      <trkpt lat="45.74317" lon="4.92925">
        <ele>192</ele>
        <time>2010-11-04T14:39:19Z</time>
      </trkpt>
      <trkpt lat="45.74315" lon="4.92921">
        <ele>192</ele>
        <time>2010-11-04T14:39:20Z</time>
      </trkpt>
      <trkpt lat="45.74314" lon="4.92917">
        <ele>192</ele>
        <time>2010-11-04T14:39:21Z</time>
      </trkpt>
      <trkpt lat="45.74313" lon="4.92914">
        <ele>192</ele>
        <time>2010-11-04T14:39:22Z</time>
      </trkpt>
      <trkpt lat="45.74311" lon="4.92903">
        <ele>192</ele>
        <time>2010-11-04T14:39:28Z</time>
      </trkpt>
      <trkpt lat="45.7431" lon="4.92897">
        <ele>192</ele>
        <time>2010-11-04T14:39:32Z</time>
      </trkpt>
      <trkpt lat="45.74309" lon="4.92896">
        <ele>192</ele>
        <time>2010-11-04T14:39:33Z</time>
      </trkpt>
      <trkpt lat="45.74308" lon="4.92895">
        <ele>192</ele>
        <time>2010-11-04T14:39:34Z</time>
      </trkpt>
      <trkpt lat="45.74307" lon="4.92892">
        <ele>192</ele>
        <time>2010-11-04T14:39:35Z</time>
      </trkpt>
      <trkpt lat="45.74306" lon="4.92887">
        <ele>192</ele>
        <time>2010-11-04T14:39:36Z</time>
      </trkpt>
      <trkpt lat="45.74305" lon="4.92884">
        <ele>192</ele>
        <time>2010-11-04T14:39:37Z</time>
      </trkpt>
      <trkpt lat="45.74305" lon="4.92879">
        <ele>192</ele>
        <time>2010-11-04T14:39:38Z</time>
      </trkpt>
      <trkpt lat="45.74304" lon="4.92874">
        <ele>192</ele>
        <time>2010-11-04T14:39:39Z</time>
      </trkpt>
      <trkpt lat="45.74298" lon="4.9283">
        <ele>191</ele>
        <time>2010-11-04T14:39:49Z</time>
      </trkpt>
      <trkpt lat="45.74286" lon="4.92776">
        <ele>191</ele>
        <time>2010-11-04T14:40:00Z</time>
      </trkpt>
      <trkpt lat="45.74285" lon="4.9277">
        <ele>191</ele>
        <time>2010-11-04T14:40:01Z</time>
      </trkpt>
      <trkpt lat="45.74284" lon="4.92766">
        <ele>191</ele>
        <time>2010-11-04T14:40:02Z</time>
      </trkpt>
      <trkpt lat="45.74282" lon="4.92761">
        <ele>191</ele>
        <time>2010-11-04T14:40:03Z</time>
      </trkpt>
      <trkpt lat="45.74281" lon="4.92756">
        <ele>191</ele>
        <time>2010-11-04T14:40:04Z</time>
      </trkpt>
      <trkpt lat="45.7428" lon="4.92751">
        <ele>191</ele>
        <time>2010-11-04T14:40:05Z</time>
      </trkpt>
      <trkpt lat="45.74277" lon="4.92743">
        <ele>190</ele>
        <time>2010-11-04T14:40:07Z</time>
      </trkpt>
      <trkpt lat="45.74274" lon="4.9274">
        <ele>190</ele>
        <time>2010-11-04T14:40:08Z</time>
      </trkpt>
      <trkpt lat="45.74272" lon="4.92738">
        <ele>190</ele>
        <time>2010-11-04T14:40:09Z</time>
      </trkpt>
      <trkpt lat="45.7427" lon="4.92736">
        <ele>190</ele>
        <time>2010-11-04T14:40:10Z</time>
      </trkpt>
      <trkpt lat="45.74267" lon="4.92736">
        <ele>190</ele>
        <time>2010-11-04T14:40:11Z</time>
      </trkpt>
      <trkpt lat="45.7424" lon="4.92754">
        <ele>192</ele>
        <time>2010-11-04T14:40:20Z</time>
      </trkpt>
      <trkpt lat="45.74238" lon="4.92756">
        <ele>192</ele>
        <time>2010-11-04T14:40:21Z</time>
      </trkpt>
      <trkpt lat="45.74236" lon="4.9276">
        <ele>192</ele>
        <time>2010-11-04T14:40:22Z</time>
      </trkpt>
      <trkpt lat="45.74234" lon="4.92779">
        <ele>192</ele>
        <time>2010-11-04T14:40:27Z</time>
      </trkpt>
      <trkpt lat="45.74241" lon="4.92806">
        <ele>192</ele>
        <time>2010-11-04T14:40:33Z</time>
      </trkpt>
      <trkpt lat="45.74241" lon="4.92811">
        <ele>192</ele>
        <time>2010-11-04T14:40:34Z</time>
      </trkpt>
      <trkpt lat="45.7424" lon="4.92815">
        <ele>192</ele>
        <time>2010-11-04T14:40:35Z</time>
      </trkpt>
      <trkpt lat="45.74238" lon="4.92828">
        <ele>192</ele>
        <time>2010-11-04T14:40:38Z</time>
      </trkpt>
      <trkpt lat="45.74239" lon="4.92831">
        <ele>192</ele>
        <time>2010-11-04T14:40:39Z</time>
      </trkpt>
      <trkpt lat="45.7424" lon="4.92835">
        <ele>192</ele>
        <time>2010-11-04T14:40:40Z</time>
      </trkpt>
      <trkpt lat="45.74246" lon="4.92864">
        <ele>192</ele>
        <time>2010-11-04T14:40:46Z</time>
      </trkpt>
      <trkpt lat="45.74248" lon="4.92868">
        <ele>192</ele>
        <time>2010-11-04T14:40:47Z</time>
      </trkpt>
      <trkpt lat="45.74249" lon="4.92872">
        <ele>192</ele>
        <time>2010-11-04T14:40:48Z</time>
      </trkpt>
      <trkpt lat="45.7425" lon="4.92876">
        <ele>192</ele>
        <time>2010-11-04T14:40:49Z</time>
      </trkpt>
      <trkpt lat="45.74251" lon="4.9288">
        <ele>192</ele>
        <time>2010-11-04T14:40:50Z</time>
      </trkpt>
      <trkpt lat="45.74251" lon="4.92883">
        <ele>192</ele>
        <time>2010-11-04T14:40:51Z</time>
      </trkpt>
      <trkpt lat="45.74253" lon="4.92892">
        <ele>193</ele>
        <time>2010-11-04T14:40:53Z</time>
      </trkpt>
      <trkpt lat="45.74255" lon="4.92896">
        <ele>193</ele>
        <time>2010-11-04T14:40:54Z</time>
      </trkpt>
      <trkpt lat="45.74257" lon="4.92914">
        <ele>193</ele>
        <time>2010-11-04T14:40:57Z</time>
      </trkpt>
      <trkpt lat="45.74257" lon="4.9292">
        <ele>194</ele>
        <time>2010-11-04T14:40:58Z</time>
      </trkpt>
      <trkpt lat="45.74258" lon="4.92925">
        <ele>193</ele>
        <time>2010-11-04T14:40:59Z</time>
      </trkpt>
      <trkpt lat="45.74263" lon="4.92947">
        <ele>193</ele>
        <time>2010-11-04T14:41:05Z</time>
      </trkpt>
      <trkpt lat="45.74262" lon="4.92951">
        <ele>193</ele>
        <time>2010-11-04T14:41:06Z</time>
      </trkpt>
      <trkpt lat="45.74261" lon="4.92953">
        <ele>193</ele>
        <time>2010-11-04T14:41:07Z</time>
      </trkpt>
      <trkpt lat="45.74258" lon="4.92957">
        <ele>193</ele>
        <time>2010-11-04T14:41:11Z</time>
      </trkpt>
      <trkpt lat="45.74245" lon="4.92965">
        <ele>193</ele>
        <time>2010-11-04T14:41:24Z</time>
      </trkpt>
      <trkpt lat="45.74237" lon="4.92969">
        <ele>193</ele>
        <time>2010-11-04T14:41:35Z</time>
      </trkpt>
      <trkpt lat="45.74233" lon="4.9297">
        <ele>193</ele>
        <time>2010-11-04T14:41:38Z</time>
      </trkpt>
      <trkpt lat="45.74232" lon="4.92971">
        <ele>193</ele>
        <time>2010-11-04T14:41:39Z</time>
      </trkpt>
      <trkpt lat="45.7423" lon="4.92973">
        <ele>193</ele>
        <time>2010-11-04T14:41:40Z</time>
      </trkpt>
      <trkpt lat="45.74228" lon="4.92974">
        <ele>193</ele>
        <time>2010-11-04T14:41:41Z</time>
      </trkpt>
      <trkpt lat="45.74226" lon="4.92976">
        <ele>193</ele>
        <time>2010-11-04T14:41:42Z</time>
      </trkpt>
      <trkpt lat="45.74224" lon="4.92978">
        <ele>193</ele>
        <time>2010-11-04T14:41:43Z</time>
      </trkpt>
      <trkpt lat="45.74222" lon="4.9298">
        <ele>193</ele>
        <time>2010-11-04T14:41:44Z</time>
      </trkpt>
      <trkpt lat="45.74221" lon="4.92981">
        <ele>193</ele>
        <time>2010-11-04T14:41:45Z</time>
      </trkpt>
      <trkpt lat="45.74219" lon="4.92983">
        <ele>193</ele>
        <time>2010-11-04T14:41:46Z</time>
      </trkpt>
      <trkpt lat="45.74217" lon="4.92985">
        <ele>193</ele>
        <time>2010-11-04T14:41:47Z</time>
      </trkpt>
      <trkpt lat="45.74214" lon="4.92986">
        <ele>193</ele>
        <time>2010-11-04T14:41:48Z</time>
      </trkpt>
      <trkpt lat="45.74211" lon="4.92988">
        <ele>193</ele>
        <time>2010-11-04T14:41:49Z</time>
      </trkpt>
      <trkpt lat="45.74208" lon="4.9299">
        <ele>193</ele>
        <time>2010-11-04T14:41:50Z</time>
      </trkpt>
      <trkpt lat="45.74204" lon="4.92992">
        <ele>193</ele>
        <time>2010-11-04T14:41:51Z</time>
      </trkpt>
      <trkpt lat="45.742" lon="4.92995">
        <ele>193</ele>
        <time>2010-11-04T14:41:52Z</time>
      </trkpt>
      <trkpt lat="45.74197" lon="4.92996">
        <ele>193</ele>
        <time>2010-11-04T14:41:53Z</time>
      </trkpt>
      <trkpt lat="45.74195" lon="4.92997">
        <ele>193</ele>
        <time>2010-11-04T14:41:54Z</time>
      </trkpt>
      <trkpt lat="45.74192" lon="4.92998">
        <ele>193</ele>
        <time>2010-11-04T14:41:55Z</time>
      </trkpt>
      <trkpt lat="45.7419" lon="4.92998">
        <ele>193</ele>
        <time>2010-11-04T14:41:56Z</time>
      </trkpt>
      <trkpt lat="45.74188" lon="4.92999">
        <ele>193</ele>
        <time>2010-11-04T14:41:57Z</time>
      </trkpt>
      <trkpt lat="45.74182" lon="4.93004">
        <ele>193</ele>
        <time>2010-11-04T14:42:01Z</time>
      </trkpt>
      <trkpt lat="45.7418" lon="4.93005">
        <ele>193</ele>
        <time>2010-11-04T14:42:02Z</time>
      </trkpt>
      <trkpt lat="45.74178" lon="4.93005">
        <ele>193</ele>
        <time>2010-11-04T14:42:03Z</time>
      </trkpt>
      <trkpt lat="45.74175" lon="4.93005">
        <ele>193</ele>
        <time>2010-11-04T14:42:04Z</time>
      </trkpt>
      <trkpt lat="45.74173" lon="4.93005">
        <ele>193</ele>
        <time>2010-11-04T14:42:05Z</time>
      </trkpt>
      <trkpt lat="45.74171" lon="4.93006">
        <ele>193</ele>
        <time>2010-11-04T14:42:06Z</time>
      </trkpt>
      <trkpt lat="45.74166" lon="4.93007">
        <ele>193</ele>
        <time>2010-11-04T14:42:09Z</time>
      </trkpt>
      <trkpt lat="45.74164" lon="4.93007">
        <ele>193</ele>
        <time>2010-11-04T14:42:10Z</time>
      </trkpt>
      <trkpt lat="45.74162" lon="4.93006">
        <ele>193</ele>
        <time>2010-11-04T14:42:11Z</time>
      </trkpt>
      <trkpt lat="45.7416" lon="4.93006">
        <ele>193</ele>
        <time>2010-11-04T14:42:12Z</time>
      </trkpt>
      <trkpt lat="45.74158" lon="4.93006">
        <ele>193</ele>
        <time>2010-11-04T14:42:13Z</time>
      </trkpt>
      <trkpt lat="45.74155" lon="4.93003">
        <ele>193</ele>
        <time>2010-11-04T14:42:14Z</time>
      </trkpt>
      <trkpt lat="45.74153" lon="4.92999">
        <ele>193</ele>
        <time>2010-11-04T14:42:15Z</time>
      </trkpt>
      <trkpt lat="45.7415" lon="4.92997">
        <ele>193</ele>
        <time>2010-11-04T14:42:16Z</time>
      </trkpt>
      <trkpt lat="45.74147" lon="4.92994">
        <ele>193</ele>
        <time>2010-11-04T14:42:17Z</time>
      </trkpt>
      <trkpt lat="45.74126" lon="4.92973">
        <ele>193</ele>
        <time>2010-11-04T14:42:26Z</time>
      </trkpt>
      <trkpt lat="45.74108" lon="4.92948">
        <ele>193</ele>
        <time>2010-11-04T14:42:35Z</time>
      </trkpt>
      <trkpt lat="45.74104" lon="4.92941">
        <ele>193</ele>
        <time>2010-11-04T14:42:37Z</time>
      </trkpt>
      <trkpt lat="45.74078" lon="4.92914">
        <ele>193</ele>
        <time>2010-11-04T14:42:47Z</time>
      </trkpt>
      <trkpt lat="45.74053" lon="4.92897">
        <ele>192</ele>
        <time>2010-11-04T14:42:55Z</time>
      </trkpt>
      <trkpt lat="45.74034" lon="4.92877">
        <ele>192</ele>
        <time>2010-11-04T14:43:04Z</time>
      </trkpt>
      <trkpt lat="45.7403" lon="4.9287">
        <ele>192</ele>
        <time>2010-11-04T14:43:06Z</time>
      </trkpt>
      <trkpt lat="45.74017" lon="4.92848">
        <ele>192</ele>
        <time>2010-11-04T14:43:12Z</time>
      </trkpt>
      <trkpt lat="45.74014" lon="4.92845">
        <ele>192</ele>
        <time>2010-11-04T14:43:13Z</time>
      </trkpt>
      <trkpt lat="45.74002" lon="4.92834">
        <ele>192</ele>
        <time>2010-11-04T14:43:17Z</time>
      </trkpt>
      <trkpt lat="45.73984" lon="4.92823">
        <ele>192</ele>
        <time>2010-11-04T14:43:24Z</time>
      </trkpt>
      <trkpt lat="45.73954" lon="4.92798">
        <ele>192</ele>
        <time>2010-11-04T14:43:34Z</time>
      </trkpt>
      <trkpt lat="45.73947" lon="4.92791">
        <ele>192</ele>
        <time>2010-11-04T14:43:37Z</time>
      </trkpt>
      <trkpt lat="45.73945" lon="4.92788">
        <ele>192</ele>
        <time>2010-11-04T14:43:38Z</time>
      </trkpt>
      <trkpt lat="45.73943" lon="4.92786">
        <ele>192</ele>
        <time>2010-11-04T14:43:39Z</time>
      </trkpt>
      <trkpt lat="45.73941" lon="4.92785">
        <ele>192</ele>
        <time>2010-11-04T14:43:40Z</time>
      </trkpt>
      <trkpt lat="45.73939" lon="4.92784">
        <ele>192</ele>
        <time>2010-11-04T14:43:41Z</time>
      </trkpt>
      <trkpt lat="45.73936" lon="4.92783">
        <ele>192</ele>
        <time>2010-11-04T14:43:42Z</time>
      </trkpt>
      <trkpt lat="45.73932" lon="4.92783">
        <ele>192</ele>
        <time>2010-11-04T14:43:43Z</time>
      </trkpt>
      <trkpt lat="45.73928" lon="4.92784">
        <ele>192</ele>
        <time>2010-11-04T14:43:44Z</time>
      </trkpt>
      <trkpt lat="45.73899" lon="4.9277">
        <ele>193</ele>
        <time>2010-11-04T14:43:55Z</time>
      </trkpt>
      <trkpt lat="45.73891" lon="4.92756">
        <ele>193</ele>
        <time>2010-11-04T14:44:04Z</time>
      </trkpt>
      <trkpt lat="45.73891" lon="4.92755">
        <ele>193</ele>
        <time>2010-11-04T14:44:07Z</time>
      </trkpt>
      <trkpt lat="45.7389" lon="4.92755">
        <ele>193</ele>
        <time>2010-11-04T14:44:08Z</time>
      </trkpt>
      <trkpt lat="45.7389" lon="4.92754">
        <ele>193</ele>
        <time>2010-11-04T14:44:09Z</time>
      </trkpt>
      <trkpt lat="45.7389" lon="4.92754">
        <ele>193</ele>
        <time>2010-11-04T14:44:10Z</time>
      </trkpt>
      <trkpt lat="45.7389" lon="4.92754">
        <ele>193</ele>
        <time>2010-11-04T14:44:11Z</time>
      </trkpt>
      <trkpt lat="45.7389" lon="4.92754">
        <ele>193</ele>
        <time>2010-11-04T14:44:13Z</time>
      </trkpt>
      <trkpt lat="45.7389" lon="4.92754">
        <ele>193</ele>
        <time>2010-11-04T14:44:15Z</time>
      </trkpt>
      <trkpt lat="45.7389" lon="4.92751">
        <ele>193</ele>
        <time>2010-11-04T14:44:25Z</time>
      </trkpt>
      <trkpt lat="45.73888" lon="4.92748">
        <ele>193</ele>
        <time>2010-11-04T14:44:33Z</time>
      </trkpt>
      <trkpt lat="45.73893" lon="4.92737">
        <ele>193</ele>
        <time>2010-11-04T14:44:39Z</time>
      </trkpt>
      <trkpt lat="45.73895" lon="4.92736">
        <ele>193</ele>
        <time>2010-11-04T14:44:40Z</time>
      </trkpt>
      <trkpt lat="45.73899" lon="4.92729">
        <ele>193</ele>
        <time>2010-11-04T14:44:43Z</time>
      </trkpt>
      <trkpt lat="45.73896" lon="4.92689">
        <ele>193</ele>
        <time>2010-11-04T14:44:54Z</time>
      </trkpt>
      <trkpt lat="45.73893" lon="4.9268">
        <ele>193</ele>
        <time>2010-11-04T14:44:57Z</time>
      </trkpt>
      <trkpt lat="45.73893" lon="4.92675">
        <ele>193</ele>
        <time>2010-11-04T14:44:58Z</time>
      </trkpt>
      <trkpt lat="45.73882" lon="4.92629">
        <ele>192</ele>
        <time>2010-11-04T14:45:10Z</time>
      </trkpt>
      <trkpt lat="45.7388" lon="4.92625">
        <ele>192</ele>
        <time>2010-11-04T14:45:11Z</time>
      </trkpt>
      <trkpt lat="45.73878" lon="4.92622">
        <ele>192</ele>
        <time>2010-11-04T14:45:12Z</time>
      </trkpt>
      <trkpt lat="45.73872" lon="4.92601">
        <ele>192</ele>
        <time>2010-11-04T14:45:17Z</time>
      </trkpt>
      <trkpt lat="45.73872" lon="4.92598">
        <ele>192</ele>
        <time>2010-11-04T14:45:18Z</time>
      </trkpt>
      <trkpt lat="45.73872" lon="4.92594">
        <ele>192</ele>
        <time>2010-11-04T14:45:19Z</time>
      </trkpt>
      <trkpt lat="45.73869" lon="4.92569">
        <ele>191</ele>
        <time>2010-11-04T14:45:25Z</time>
      </trkpt>
      <trkpt lat="45.73868" lon="4.92565">
        <ele>191</ele>
        <time>2010-11-04T14:45:26Z</time>
      </trkpt>
      <trkpt lat="45.73868" lon="4.92561">
        <ele>191</ele>
        <time>2010-11-04T14:45:27Z</time>
      </trkpt>
      <trkpt lat="45.73861" lon="4.92525">
        <ele>191</ele>
        <time>2010-11-04T14:45:36Z</time>
      </trkpt>
      <trkpt lat="45.73857" lon="4.92506">
        <ele>192</ele>
        <time>2010-11-04T14:45:41Z</time>
      </trkpt>
      <trkpt lat="45.73856" lon="4.92502">
        <ele>192</ele>
        <time>2010-11-04T14:45:42Z</time>
      </trkpt>
      <trkpt lat="45.73847" lon="4.92459">
        <ele>192</ele>
        <time>2010-11-04T14:45:54Z</time>
      </trkpt>
      <trkpt lat="45.73842" lon="4.92425">
        <ele>193</ele>
        <time>2010-11-04T14:46:04Z</time>
      </trkpt>
      <trkpt lat="45.7384" lon="4.92412">
        <ele>193</ele>
        <time>2010-11-04T14:46:07Z</time>
      </trkpt>
      <trkpt lat="45.7384" lon="4.92408">
        <ele>193</ele>
        <time>2010-11-04T14:46:08Z</time>
      </trkpt>
      <trkpt lat="45.73839" lon="4.92404">
        <ele>193</ele>
        <time>2010-11-04T14:46:09Z</time>
      </trkpt>
      <trkpt lat="45.73839" lon="4.92401">
        <ele>193</ele>
        <time>2010-11-04T14:46:10Z</time>
      </trkpt>
      <trkpt lat="45.73838" lon="4.92398">
        <ele>194</ele>
        <time>2010-11-04T14:46:11Z</time>
      </trkpt>
      <trkpt lat="45.73837" lon="4.92396">
        <ele>194</ele>
        <time>2010-11-04T14:46:12Z</time>
      </trkpt>
      <trkpt lat="45.73835" lon="4.92393">
        <ele>194</ele>
        <time>2010-11-04T14:46:13Z</time>
      </trkpt>
      <trkpt lat="45.73834" lon="4.9239">
        <ele>194</ele>
        <time>2010-11-04T14:46:14Z</time>
      </trkpt>
      <trkpt lat="45.73833" lon="4.92387">
        <ele>194</ele>
        <time>2010-11-04T14:46:15Z</time>
      </trkpt>
      <trkpt lat="45.73833" lon="4.92383">
        <ele>195</ele>
        <time>2010-11-04T14:46:16Z</time>
      </trkpt>
      <trkpt lat="45.73832" lon="4.9238">
        <ele>195</ele>
        <time>2010-11-04T14:46:17Z</time>
      </trkpt>
      <trkpt lat="45.73817" lon="4.92327">
        <ele>196</ele>
        <time>2010-11-04T14:46:28Z</time>
      </trkpt>
      <trkpt lat="45.73805" lon="4.92306">
        <ele>196</ele>
        <time>2010-11-04T14:46:36Z</time>
      </trkpt>
      <trkpt lat="45.73804" lon="4.92306">
        <ele>196</ele>
        <time>2010-11-04T14:46:37Z</time>
      </trkpt>
      <trkpt lat="45.73798" lon="4.923">
        <ele>196</ele>
        <time>2010-11-04T14:46:46Z</time>
      </trkpt>
      <trkpt lat="45.73796" lon="4.92299">
        <ele>196</ele>
        <time>2010-11-04T14:46:47Z</time>
      </trkpt>
      <trkpt lat="45.73794" lon="4.92299">
        <ele>196</ele>
        <time>2010-11-04T14:46:48Z</time>
      </trkpt>
      <trkpt lat="45.73792" lon="4.92299">
        <ele>196</ele>
        <time>2010-11-04T14:46:49Z</time>
      </trkpt>
      <trkpt lat="45.73789" lon="4.92299">
        <ele>196</ele>
        <time>2010-11-04T14:46:50Z</time>
      </trkpt>
      <trkpt lat="45.73787" lon="4.92299">
        <ele>196</ele>
        <time>2010-11-04T14:46:51Z</time>
      </trkpt>
      <trkpt lat="45.73784" lon="4.92301">
        <ele>196</ele>
        <time>2010-11-04T14:46:52Z</time>
      </trkpt>
      <trkpt lat="45.73759" lon="4.92307">
        <ele>196</ele>
        <time>2010-11-04T14:47:01Z</time>
      </trkpt>
      <trkpt lat="45.73754" lon="4.92308">
        <ele>196</ele>
        <time>2010-11-04T14:47:03Z</time>
      </trkpt>
      <trkpt lat="45.73747" lon="4.92307">
        <ele>196</ele>
        <time>2010-11-04T14:47:05Z</time>
      </trkpt>
      <trkpt lat="45.73726" lon="4.92288">
        <ele>196</ele>
        <time>2010-11-04T14:47:12Z</time>
      </trkpt>
      <trkpt lat="45.73724" lon="4.92287">
        <ele>196</ele>
        <time>2010-11-04T14:47:13Z</time>
      </trkpt>
      <trkpt lat="45.7372" lon="4.92289">
        <ele>196</ele>
        <time>2010-11-04T14:47:14Z</time>
      </trkpt>
      <trkpt lat="45.73718" lon="4.92287">
        <ele>196</ele>
        <time>2010-11-04T14:47:15Z</time>
      </trkpt>
      <trkpt lat="45.73717" lon="4.92284">
        <ele>196</ele>
        <time>2010-11-04T14:47:16Z</time>
      </trkpt>
      <trkpt lat="45.73715" lon="4.92282">
        <ele>196</ele>
        <time>2010-11-04T14:47:17Z</time>
      </trkpt>
      <trkpt lat="45.73714" lon="4.92281">
        <ele>196</ele>
        <time>2010-11-04T14:47:18Z</time>
      </trkpt>
      <trkpt lat="45.73711" lon="4.9228">
        <ele>196</ele>
        <time>2010-11-04T14:47:19Z</time>
      </trkpt>
      <trkpt lat="45.73709" lon="4.92279">
        <ele>196</ele>
        <time>2010-11-04T14:47:20Z</time>
      </trkpt>
      <trkpt lat="45.73708" lon="4.92279">
        <ele>196</ele>
        <time>2010-11-04T14:47:21Z</time>
      </trkpt>
      <trkpt lat="45.73707" lon="4.92278">
        <ele>196</ele>
        <time>2010-11-04T14:47:22Z</time>
      </trkpt>
      <trkpt lat="45.73705" lon="4.92278">
        <ele>196</ele>
        <time>2010-11-04T14:47:23Z</time>
      </trkpt>
      <trkpt lat="45.7367" lon="4.92264">
        <ele>195</ele>
        <time>2010-11-04T14:47:33Z</time>
      </trkpt>
      <trkpt lat="45.73667" lon="4.92265">
        <ele>195</ele>
        <time>2010-11-04T14:47:34Z</time>
      </trkpt>
      <trkpt lat="45.73663" lon="4.92267">
        <ele>196</ele>
        <time>2010-11-04T14:47:35Z</time>
      </trkpt>
      <trkpt lat="45.73639" lon="4.92281">
        <ele>196</ele>
        <time>2010-11-04T14:47:44Z</time>
      </trkpt>
      <trkpt lat="45.73623" lon="4.92291">
        <ele>196</ele>
        <time>2010-11-04T14:47:49Z</time>
      </trkpt>
      <trkpt lat="45.73619" lon="4.92293">
        <ele>196</ele>
        <time>2010-11-04T14:47:50Z</time>
      </trkpt>
      <trkpt lat="45.73605" lon="4.923">
        <ele>197</ele>
        <time>2010-11-04T14:47:54Z</time>
      </trkpt>
      <trkpt lat="45.73603" lon="4.92302">
        <ele>197</ele>
        <time>2010-11-04T14:47:55Z</time>
      </trkpt>
      <trkpt lat="45.736" lon="4.92305">
        <ele>197</ele>
        <time>2010-11-04T14:47:56Z</time>
      </trkpt>
      <trkpt lat="45.73597" lon="4.92308">
        <ele>197</ele>
        <time>2010-11-04T14:47:57Z</time>
      </trkpt>
      <trkpt lat="45.73595" lon="4.9231">
        <ele>197</ele>
        <time>2010-11-04T14:47:58Z</time>
      </trkpt>
      <trkpt lat="45.73594" lon="4.92313">
        <ele>197</ele>
        <time>2010-11-04T14:47:59Z</time>
      </trkpt>
      <trkpt lat="45.73591" lon="4.92315">
        <ele>197</ele>
        <time>2010-11-04T14:48:00Z</time>
      </trkpt>
      <trkpt lat="45.73588" lon="4.92317">
        <ele>197</ele>
        <time>2010-11-04T14:48:01Z</time>
      </trkpt>
      <trkpt lat="45.73586" lon="4.9232">
        <ele>197</ele>
        <time>2010-11-04T14:48:02Z</time>
      </trkpt>
      <trkpt lat="45.73563" lon="4.92328">
        <ele>199</ele>
        <time>2010-11-04T14:48:11Z</time>
      </trkpt>
      <trkpt lat="45.73549" lon="4.92337">
        <ele>198</ele>
        <time>2010-11-04T14:48:17Z</time>
      </trkpt>
      <trkpt lat="45.73548" lon="4.92338">
        <ele>198</ele>
        <time>2010-11-04T14:48:25Z</time>
      </trkpt>
      <trkpt lat="45.73546" lon="4.9234">
        <ele>198</ele>
        <time>2010-11-04T14:48:26Z</time>
      </trkpt>
      <trkpt lat="45.73536" lon="4.92348">
        <ele>198</ele>
        <time>2010-11-04T14:48:31Z</time>
      </trkpt>
      <trkpt lat="45.73533" lon="4.92349">
        <ele>198</ele>
        <time>2010-11-04T14:48:32Z</time>
      </trkpt>
      <trkpt lat="45.7353" lon="4.92352">
        <ele>198</ele>
        <time>2010-11-04T14:48:33Z</time>
      </trkpt>
      <trkpt lat="45.73527" lon="4.92354">
        <ele>198</ele>
        <time>2010-11-04T14:48:34Z</time>
      </trkpt>
      <trkpt lat="45.73524" lon="4.92356">
        <ele>198</ele>
        <time>2010-11-04T14:48:35Z</time>
      </trkpt>
      <trkpt lat="45.73523" lon="4.92358">
        <ele>198</ele>
        <time>2010-11-04T14:48:39Z</time>
      </trkpt>
      <trkpt lat="45.73524" lon="4.92357">
        <ele>198</ele>
        <time>2010-11-04T14:48:40Z</time>
      </trkpt>
      <trkpt lat="45.73526" lon="4.92356">
        <ele>198</ele>
        <time>2010-11-04T14:48:41Z</time>
      </trkpt>
      <trkpt lat="45.73534" lon="4.92351">
        <ele>198</ele>
        <time>2010-11-04T14:48:44Z</time>
      </trkpt>
      <trkpt lat="45.73537" lon="4.92349">
        <ele>198</ele>
        <time>2010-11-04T14:48:45Z</time>
      </trkpt>
      <trkpt lat="45.7354" lon="4.92346">
        <ele>198</ele>
        <time>2010-11-04T14:48:46Z</time>
      </trkpt>
      <trkpt lat="45.73542" lon="4.92344">
        <ele>198</ele>
        <time>2010-11-04T14:48:47Z</time>
      </trkpt>
      <trkpt lat="45.7355" lon="4.9234">
        <ele>198</ele>
        <time>2010-11-04T14:48:55Z</time>
      </trkpt>
      <trkpt lat="45.73552" lon="4.92337">
        <ele>198</ele>
        <time>2010-11-04T14:48:57Z</time>
      </trkpt>
      <trkpt lat="45.73553" lon="4.92336">
        <ele>198</ele>
        <time>2010-11-04T14:48:58Z</time>
      </trkpt>
      <trkpt lat="45.7356" lon="4.92331">
        <ele>199</ele>
        <time>2010-11-04T14:49:02Z</time>
      </trkpt>
      <trkpt lat="45.73573" lon="4.92311">
        <ele>199</ele>
        <time>2010-11-04T14:49:10Z</time>
      </trkpt>
      <trkpt lat="45.73573" lon="4.92307">
        <ele>199</ele>
        <time>2010-11-04T14:49:11Z</time>
      </trkpt>
      <trkpt lat="45.73573" lon="4.92303">
        <ele>199</ele>
        <time>2010-11-04T14:49:12Z</time>
      </trkpt>
      <trkpt lat="45.73569" lon="4.92271">
        <ele>198</ele>
        <time>2010-11-04T14:49:23Z</time>
      </trkpt>
      <trkpt lat="45.7356" lon="4.92234">
        <ele>200</ele>
        <time>2010-11-04T14:49:33Z</time>
      </trkpt>
      <trkpt lat="45.73557" lon="4.92232">
        <ele>200</ele>
        <time>2010-11-04T14:49:34Z</time>
      </trkpt>
      <trkpt lat="45.73555" lon="4.9223">
        <ele>200</ele>
        <time>2010-11-04T14:49:35Z</time>
      </trkpt>
      <trkpt lat="45.73552" lon="4.92229">
        <ele>200</ele>
        <time>2010-11-04T14:49:36Z</time>
      </trkpt>
      <trkpt lat="45.7355" lon="4.92228">
        <ele>200</ele>
        <time>2010-11-04T14:49:37Z</time>
      </trkpt>
      <trkpt lat="45.73546" lon="4.92225">
        <ele>200</ele>
        <time>2010-11-04T14:49:39Z</time>
      </trkpt>
      <trkpt lat="45.73544" lon="4.92224">
        <ele>200</ele>
        <time>2010-11-04T14:49:40Z</time>
      </trkpt>
      <trkpt lat="45.73542" lon="4.92223">
        <ele>201</ele>
        <time>2010-11-04T14:49:41Z</time>
      </trkpt>
      <trkpt lat="45.73512" lon="4.92213">
        <ele>201</ele>
        <time>2010-11-04T14:49:51Z</time>
      </trkpt>
      <trkpt lat="45.73497" lon="4.92215">
        <ele>206</ele>
        <time>2010-11-04T14:49:56Z</time>
      </trkpt>
      <trkpt lat="45.73495" lon="4.92216">
        <ele>206</ele>
        <time>2010-11-04T14:49:57Z</time>
      </trkpt>
      <trkpt lat="45.73478" lon="4.92225">
        <ele>207</ele>
        <time>2010-11-04T14:50:06Z</time>
      </trkpt>
      <trkpt lat="45.73476" lon="4.92227">
        <ele>207</ele>
        <time>2010-11-04T14:50:07Z</time>
      </trkpt>
      <trkpt lat="45.73474" lon="4.92229">
        <ele>207</ele>
        <time>2010-11-04T14:50:08Z</time>
      </trkpt>
      <trkpt lat="45.73472" lon="4.92232">
        <ele>207</ele>
        <time>2010-11-04T14:50:09Z</time>
      </trkpt>
      <trkpt lat="45.73459" lon="4.92247">
        <ele>208</ele>
        <time>2010-11-04T14:50:15Z</time>
      </trkpt>
      <trkpt lat="45.73441" lon="4.92256">
        <ele>207</ele>
        <time>2010-11-04T14:50:21Z</time>
      </trkpt>
      <trkpt lat="45.73436" lon="4.92259">
        <ele>207</ele>
        <time>2010-11-04T14:50:22Z</time>
      </trkpt>
      <trkpt lat="45.73433" lon="4.92263">
        <ele>207</ele>
        <time>2010-11-04T14:50:23Z</time>
      </trkpt>
      <trkpt lat="45.73431" lon="4.92267">
        <ele>207</ele>
        <time>2010-11-04T14:50:24Z</time>
      </trkpt>
      <trkpt lat="45.7343" lon="4.9227">
        <ele>207</ele>
        <time>2010-11-04T14:50:25Z</time>
      </trkpt>
      <trkpt lat="45.7343" lon="4.92275">
        <ele>207</ele>
        <time>2010-11-04T14:50:26Z</time>
      </trkpt>
      <trkpt lat="45.7343" lon="4.9228">
        <ele>206</ele>
        <time>2010-11-04T14:50:27Z</time>
      </trkpt>
      <trkpt lat="45.73426" lon="4.92298">
        <ele>206</ele>
        <time>2010-11-04T14:50:33Z</time>
      </trkpt>
      <trkpt lat="45.73425" lon="4.923">
        <ele>206</ele>
        <time>2010-11-04T14:50:34Z</time>
      </trkpt>
      <trkpt lat="45.73423" lon="4.92303">
        <ele>206</ele>
        <time>2010-11-04T14:50:35Z</time>
      </trkpt>
      <trkpt lat="45.7342" lon="4.92306">
        <ele>206</ele>
        <time>2010-11-04T14:50:36Z</time>
      </trkpt>
      <trkpt lat="45.73418" lon="4.92309">
        <ele>206</ele>
        <time>2010-11-04T14:50:37Z</time>
      </trkpt>
      <trkpt lat="45.7341" lon="4.92318">
        <ele>209</ele>
        <time>2010-11-04T14:50:40Z</time>
      </trkpt>
      <trkpt lat="45.734" lon="4.92326">
        <ele>209</ele>
        <time>2010-11-04T14:50:44Z</time>
      </trkpt>
      <trkpt lat="45.73396" lon="4.92327">
        <ele>210</ele>
        <time>2010-11-04T14:50:45Z</time>
      </trkpt>
      <trkpt lat="45.73361" lon="4.92336">
        <ele>209</ele>
        <time>2010-11-04T14:50:55Z</time>
      </trkpt>
      <trkpt lat="45.73344" lon="4.92338">
        <ele>211</ele>
        <time>2010-11-04T14:51:01Z</time>
      </trkpt>
      <trkpt lat="45.73323" lon="4.92349">
        <ele>213</ele>
        <time>2010-11-04T14:51:09Z</time>
      </trkpt>
      <trkpt lat="45.73291" lon="4.92367">
        <ele>213</ele>
        <time>2010-11-04T14:51:19Z</time>
      </trkpt>
      <trkpt lat="45.73276" lon="4.92373">
        <ele>213</ele>
        <time>2010-11-04T14:51:24Z</time>
      </trkpt>
      <trkpt lat="45.73241" lon="4.92385">
        <ele>213</ele>
        <time>2010-11-04T14:51:34Z</time>
      </trkpt>
      <trkpt lat="45.73235" lon="4.92387">
        <ele>213</ele>
        <time>2010-11-04T14:51:36Z</time>
      </trkpt>
      <trkpt lat="45.73233" lon="4.92386">
        <ele>213</ele>
        <time>2010-11-04T14:51:37Z</time>
      </trkpt>
      <trkpt lat="45.73231" lon="4.92386">
        <ele>213</ele>
        <time>2010-11-04T14:51:38Z</time>
      </trkpt>
      <trkpt lat="45.73196" lon="4.92388">
        <ele>213</ele>
        <time>2010-11-04T14:51:49Z</time>
      </trkpt>
      <trkpt lat="45.73178" lon="4.92386">
        <ele>213</ele>
        <time>2010-11-04T14:51:56Z</time>
      </trkpt>
      <trkpt lat="45.73173" lon="4.92379">
        <ele>213</ele>
        <time>2010-11-04T14:51:58Z</time>
      </trkpt>
      <trkpt lat="45.73159" lon="4.92358">
        <ele>213</ele>
        <time>2010-11-04T14:52:03Z</time>
      </trkpt>
      <trkpt lat="45.73157" lon="4.92347">
        <ele>213</ele>
        <time>2010-11-04T14:52:05Z</time>
      </trkpt>
      <trkpt lat="45.73135" lon="4.92318">
        <ele>216</ele>
        <time>2010-11-04T14:52:13Z</time>
      </trkpt>
      <trkpt lat="45.73131" lon="4.9231">
        <ele>216</ele>
        <time>2010-11-04T14:52:15Z</time>
      </trkpt>
      <trkpt lat="45.73104" lon="4.92291">
        <ele>216</ele>
        <time>2010-11-04T14:52:24Z</time>
      </trkpt>
      <trkpt lat="45.73077" lon="4.92268">
        <ele>216</ele>
        <time>2010-11-04T14:52:35Z</time>
      </trkpt>
      <trkpt lat="45.73044" lon="4.9224">
        <ele>218</ele>
        <time>2010-11-04T14:52:44Z</time>
      </trkpt>
      <trkpt lat="45.73014" lon="4.92215">
        <ele>218</ele>
        <time>2010-11-04T14:52:54Z</time>
      </trkpt>
      <trkpt lat="45.73002" lon="4.92207">
        <ele>219</ele>
        <time>2010-11-04T14:52:58Z</time>
      </trkpt>
      <trkpt lat="45.73" lon="4.92204">
        <ele>218</ele>
        <time>2010-11-04T14:52:59Z</time>
      </trkpt>
      <trkpt lat="45.72997" lon="4.92202">
        <ele>218</ele>
        <time>2010-11-04T14:53:00Z</time>
      </trkpt>
      <trkpt lat="45.72994" lon="4.92199">
        <ele>218</ele>
        <time>2010-11-04T14:53:02Z</time>
      </trkpt>
      <trkpt lat="45.72986" lon="4.92191">
        <ele>218</ele>
        <time>2010-11-04T14:53:04Z</time>
      </trkpt>
      <trkpt lat="45.72975" lon="4.92177">
        <ele>218</ele>
        <time>2010-11-04T14:53:16Z</time>
      </trkpt>
      <trkpt lat="45.72966" lon="4.92171">
        <ele>218</ele>
        <time>2010-11-04T14:53:27Z</time>
      </trkpt>
      <trkpt lat="45.72954" lon="4.92171">
        <ele>217</ele>
        <time>2010-11-04T14:53:39Z</time>
      </trkpt>
      <trkpt lat="45.72953" lon="4.92173">
        <ele>217</ele>
        <time>2010-11-04T14:53:45Z</time>
      </trkpt>
      <trkpt lat="45.72942" lon="4.92164">
        <ele>217</ele>
        <time>2010-11-04T14:53:56Z</time>
      </trkpt>
      <trkpt lat="45.72942" lon="4.92165">
        <ele>217</ele>
        <time>2010-11-04T14:53:57Z</time>
      </trkpt>
      <trkpt lat="45.72943" lon="4.92169">
        <ele>217</ele>
        <time>2010-11-04T14:54:00Z</time>
      </trkpt>
      <trkpt lat="45.72932" lon="4.92186">
        <ele>217</ele>
        <time>2010-11-04T14:54:11Z</time>
      </trkpt>
      <trkpt lat="45.7293" lon="4.92193">
        <ele>217</ele>
        <time>2010-11-04T14:54:15Z</time>
      </trkpt>
      <trkpt lat="45.72928" lon="4.92196">
        <ele>217</ele>
        <time>2010-11-04T14:54:18Z</time>
      </trkpt>
      <trkpt lat="45.72921" lon="4.92215">
        <ele>216</ele>
        <time>2010-11-04T14:54:31Z</time>
      </trkpt>
      <trkpt lat="45.72913" lon="4.9224">
        <ele>215</ele>
        <time>2010-11-04T14:54:40Z</time>
      </trkpt>
      <trkpt lat="45.72913" lon="4.92242">
        <ele>215</ele>
        <time>2010-11-04T14:54:41Z</time>
      </trkpt>
      <trkpt lat="45.72905" lon="4.92258">
        <ele>214</ele>
        <time>2010-11-04T14:54:49Z</time>
      </trkpt>
      <trkpt lat="45.729" lon="4.92284">
        <ele>213</ele>
        <time>2010-11-04T14:54:57Z</time>
      </trkpt>
      <trkpt lat="45.72891" lon="4.92312">
        <ele>212</ele>
        <time>2010-11-04T14:55:06Z</time>
      </trkpt>
      <trkpt lat="45.72882" lon="4.92337">
        <ele>210</ele>
        <time>2010-11-04T14:55:14Z</time>
      </trkpt>
      <trkpt lat="45.72871" lon="4.92372">
        <ele>209</ele>
        <time>2010-11-04T14:55:24Z</time>
      </trkpt>
      <trkpt lat="45.72862" lon="4.92394">
        <ele>209</ele>
        <time>2010-11-04T14:55:32Z</time>
      </trkpt>
      <trkpt lat="45.72848" lon="4.92436">
        <ele>207</ele>
        <time>2010-11-04T14:55:42Z</time>
      </trkpt>
      <trkpt lat="45.72847" lon="4.92439">
        <ele>207</ele>
        <time>2010-11-04T14:55:43Z</time>
      </trkpt>
      <trkpt lat="45.72842" lon="4.92448">
        <ele>207</ele>
        <time>2010-11-04T14:55:46Z</time>
      </trkpt>
      <trkpt lat="45.72847" lon="4.92465">
        <ele>207</ele>
        <time>2010-11-04T14:55:51Z</time>
      </trkpt>
      <trkpt lat="45.72862" lon="4.92485">
        <ele>207</ele>
        <time>2010-11-04T14:56:00Z</time>
      </trkpt>
      <trkpt lat="45.72872" lon="4.92499">
        <ele>207</ele>
        <time>2010-11-04T14:56:05Z</time>
      </trkpt>
      <trkpt lat="45.7289" lon="4.92516">
        <ele>207</ele>
        <time>2010-11-04T14:56:13Z</time>
      </trkpt>
      <trkpt lat="45.72892" lon="4.92519">
        <ele>207</ele>
        <time>2010-11-04T14:56:14Z</time>
      </trkpt>
      <trkpt lat="45.72903" lon="4.92532">
        <ele>206</ele>
        <time>2010-11-04T14:56:24Z</time>
      </trkpt>
      <trkpt lat="45.72904" lon="4.92533">
        <ele>206</ele>
        <time>2010-11-04T14:56:25Z</time>
      </trkpt>
      <trkpt lat="45.72907" lon="4.92537">
        <ele>206</ele>
        <time>2010-11-04T14:56:28Z</time>
      </trkpt>
      <trkpt lat="45.72925" lon="4.92551">
        <ele>206</ele>
        <time>2010-11-04T14:56:36Z</time>
      </trkpt>
      <trkpt lat="45.72934" lon="4.92562">
        <ele>206</ele>
        <time>2010-11-04T14:56:40Z</time>
      </trkpt>
      <trkpt lat="45.72936" lon="4.92564">
        <ele>206</ele>
        <time>2010-11-04T14:56:41Z</time>
      </trkpt>
      <trkpt lat="45.72938" lon="4.92566">
        <ele>206</ele>
        <time>2010-11-04T14:56:42Z</time>
      </trkpt>
      <trkpt lat="45.72941" lon="4.92568">
        <ele>206</ele>
        <time>2010-11-04T14:56:43Z</time>
      </trkpt>
      <trkpt lat="45.72944" lon="4.92569">
        <ele>206</ele>
        <time>2010-11-04T14:56:44Z</time>
      </trkpt>
      <trkpt lat="45.72948" lon="4.9257">
        <ele>206</ele>
        <time>2010-11-04T14:56:45Z</time>
      </trkpt>
      <trkpt lat="45.72955" lon="4.92577">
        <ele>206</ele>
        <time>2010-11-04T14:56:49Z</time>
      </trkpt>
      <trkpt lat="45.72957" lon="4.92579">
        <ele>206</ele>
        <time>2010-11-04T14:56:50Z</time>
      </trkpt>
      <trkpt lat="45.72959" lon="4.92581">
        <ele>206</ele>
        <time>2010-11-04T14:56:51Z</time>
      </trkpt>
      <trkpt lat="45.72961" lon="4.92584">
        <ele>204</ele>
        <time>2010-11-04T14:56:52Z</time>
      </trkpt>
      <trkpt lat="45.72963" lon="4.92585">
        <ele>204</ele>
        <time>2010-11-04T14:56:53Z</time>
      </trkpt>
      <trkpt lat="45.72965" lon="4.92588">
        <ele>204</ele>
        <time>2010-11-04T14:56:54Z</time>
      </trkpt>
      <trkpt lat="45.72967" lon="4.9259">
        <ele>204</ele>
        <time>2010-11-04T14:56:55Z</time>
      </trkpt>
      <trkpt lat="45.72969" lon="4.92591">
        <ele>204</ele>
        <time>2010-11-04T14:56:56Z</time>
      </trkpt>
      <trkpt lat="45.72971" lon="4.92592">
        <ele>204</ele>
        <time>2010-11-04T14:56:57Z</time>
      </trkpt>
      <trkpt lat="45.72973" lon="4.92594">
        <ele>204</ele>
        <time>2010-11-04T14:56:58Z</time>
      </trkpt>
      <trkpt lat="45.72976" lon="4.92595">
        <ele>204</ele>
        <time>2010-11-04T14:56:59Z</time>
      </trkpt>
      <trkpt lat="45.72978" lon="4.92597">
        <ele>204</ele>
        <time>2010-11-04T14:57:00Z</time>
      </trkpt>
      <trkpt lat="45.7298" lon="4.92598">
        <ele>204</ele>
        <time>2010-11-04T14:57:01Z</time>
      </trkpt>
      <trkpt lat="45.72987" lon="4.92608">
        <ele>203</ele>
        <time>2010-11-04T14:57:06Z</time>
      </trkpt>
      <trkpt lat="45.7299" lon="4.9261">
        <ele>203</ele>
        <time>2010-11-04T14:57:07Z</time>
      </trkpt>
      <trkpt lat="45.72998" lon="4.9262">
        <ele>203</ele>
        <time>2010-11-04T14:57:11Z</time>
      </trkpt>
      <trkpt lat="45.72999" lon="4.92623">
        <ele>203</ele>
        <time>2010-11-04T14:57:12Z</time>
      </trkpt>
      <trkpt lat="45.73002" lon="4.92628">
        <ele>202</ele>
        <time>2010-11-04T14:57:14Z</time>
      </trkpt>
      <trkpt lat="45.73004" lon="4.9263">
        <ele>202</ele>
        <time>2010-11-04T14:57:15Z</time>
      </trkpt>
      <trkpt lat="45.73006" lon="4.92633">
        <ele>202</ele>
        <time>2010-11-04T14:57:16Z</time>
      </trkpt>
      <trkpt lat="45.73008" lon="4.92632">
        <ele>202</ele>
        <time>2010-11-04T14:57:17Z</time>
      </trkpt>
      <trkpt lat="45.73013" lon="4.92633">
        <ele>202</ele>
        <time>2010-11-04T14:57:24Z</time>
      </trkpt>
      <trkpt lat="45.73016" lon="4.92639">
        <ele>202</ele>
        <time>2010-11-04T14:57:31Z</time>
      </trkpt>
      <trkpt lat="45.73016" lon="4.92639">
        <ele>202</ele>
        <time>2010-11-04T14:57:41Z</time>
      </trkpt>
      <trkpt lat="45.73016" lon="4.92639">
        <ele>202</ele>
        <time>2010-11-04T14:57:42Z</time>
      </trkpt>
      <trkpt lat="45.73016" lon="4.92639">
        <ele>202</ele>
        <time>2010-11-04T14:57:46Z</time>
      </trkpt>
      <trkpt lat="45.73015" lon="4.92676">
        <ele>200</ele>
        <time>2010-11-04T14:58:03Z</time>
      </trkpt>
      <trkpt lat="45.73014" lon="4.92697">
        <ele>200</ele>
        <time>2010-11-04T14:58:39Z</time>
      </trkpt>
      <trkpt lat="45.73014" lon="4.92697">
        <ele>200</ele>
        <time>2010-11-04T14:58:42Z</time>
      </trkpt>
      <trkpt lat="45.73014" lon="4.92697">
        <ele>200</ele>
        <time>2010-11-04T14:59:12Z</time>
      </trkpt>
      <trkpt lat="45.73014" lon="4.92697">
        <ele>200</ele>
        <time>2010-11-04T14:59:13Z</time>
      </trkpt>
      <trkpt lat="45.73014" lon="4.92697">
        <ele>200</ele>
        <time>2010-11-04T14:59:15Z</time>
      </trkpt>
      <trkpt lat="45.73014" lon="4.92697">
        <ele>200</ele>
        <time>2010-11-04T14:59:29Z</time>
      </trkpt>
      <trkpt lat="45.73014" lon="4.92697">
        <ele>200</ele>
        <time>2010-11-04T14:59:30Z</time>
      </trkpt>
      <trkpt lat="45.73014" lon="4.92697">
        <ele>200</ele>
        <time>2010-11-04T14:59:31Z</time>
      </trkpt>
      <trkpt lat="45.73014" lon="4.92697">
        <ele>200</ele>
        <time>2010-11-04T14:59:34Z</time>
      </trkpt>
      <trkpt lat="45.73014" lon="4.92697">
        <ele>200</ele>
        <time>2010-11-04T14:59:40Z</time>
      </trkpt>
      <trkpt lat="45.73014" lon="4.92697">
        <ele>200</ele>
        <time>2010-11-04T14:59:41Z</time>
      </trkpt>
      <trkpt lat="45.73014" lon="4.92697">
        <ele>200</ele>
        <time>2010-11-04T14:59:42Z</time>
      </trkpt>
      <trkpt lat="45.73014" lon="4.92697">
        <ele>200</ele>
        <time>2010-11-04T14:59:54Z</time>
      </trkpt>
      <trkpt lat="45.73014" lon="4.92697">
        <ele>200</ele>
        <time>2010-11-04T14:59:56Z</time>
      </trkpt>
      <trkpt lat="45.73014" lon="4.92697">
        <ele>200</ele>
        <time>2010-11-04T15:00:03Z</time>
      </trkpt>
      <trkpt lat="45.73014" lon="4.92697">
        <ele>200</ele>
        <time>2010-11-04T15:00:04Z</time>
      </trkpt>
      <trkpt lat="45.73014" lon="4.92697">
        <ele>200</ele>
        <time>2010-11-04T15:00:05Z</time>
      </trkpt>
    </trkseg>
  </trk>
</gpx>